<?xml version="1.0" encoding="UTF-8" standalone="no" ?>
<gpx xmlns="http://www.topografix.com/GPX/1/1" xmlns:xsi="http://www.w3.org/2001/XMLSchema-instance" xsi:schemaLocation="http://www.topografix.com/GPX/1/1 http://www.topografix.com/GPX/1/1/gpx.xsd" version="1.1" creator="VisuGPX - https://www.visugpx.com">
  <metadata>
    <name>2017-08-17 Amberieux-Savigneux O 33</name>
    <desc><![CDATA[2017-08-17 Amberieux-Savigneux O 33]]></desc>
  </metadata>
  <wpt lat="45.92457" lon="4.73712">
    <ele>174</ele>
    <name><![CDATA[2017-08-17 10:35 (Start)]]></name>
  </wpt>
  <wpt lat="45.92458" lon="4.73706">
    <ele>174</ele>
    <name><![CDATA[2017-08-17 10:35 (End)]]></name>
    <desc><![CDATA[Created by Google My Tracks on Android  Name: 2017-08-17 10:35 Activity type: biking Description: - Total distance: 32.77 km (20.4 mi) Total time: 1:44:21 Moving time: 1:41:32 Average speed: 18.84 km/h (11.7 mi/h) Average moving speed: 19.36 km/h (12.0 mi/h) Max speed: 38.65 km/h (24.0 mi/h) Average pace: 3:11 min/km (5:08 min/mi) Average moving pace: 3:06 min/km (4:59 min/mi) Fastest pace: 1:33 min/km (2:30 min/mi) Max elevation: 287 m (940 ft) Min elevation: 166 m (544 ft) Elevation gain: 547 m (1793 ft) Max grade: 20 % Min grade: -37 % Recorded: 17/08/2017 10:35]]></desc>
  </wpt>
  <trk>
    <name><![CDATA[2017-08-17 10:35]]></name>
    <trkseg>
      <trkpt lat="45.92457" lon="4.73712">
        <ele>174</ele>
        <time>2017-08-17T08:35:01.305Z</time>
      </trkpt>
      <trkpt lat="45.92456" lon="4.7371">
        <ele>174</ele>
        <time>2017-08-17T08:35:31Z</time>
      </trkpt>
      <trkpt lat="45.92466" lon="4.73702">
        <ele>174</ele>
        <time>2017-08-17T08:35:32Z</time>
      </trkpt>
      <trkpt lat="45.92467" lon="4.73699">
        <ele>174</ele>
        <time>2017-08-17T08:35:57Z</time>
      </trkpt>
      <trkpt lat="45.92465" lon="4.73711">
        <ele>174</ele>
        <time>2017-08-17T08:35:58Z</time>
      </trkpt>
      <trkpt lat="45.92465" lon="4.73711">
        <ele>174</ele>
        <time>2017-08-17T08:36:55Z</time>
      </trkpt>
      <trkpt lat="45.92463" lon="4.73706">
        <ele>174</ele>
        <time>2017-08-17T08:36:56Z</time>
      </trkpt>
      <trkpt lat="45.92467" lon="4.73696">
        <ele>174</ele>
        <time>2017-08-17T08:37:00Z</time>
      </trkpt>
      <trkpt lat="45.92468" lon="4.73694">
        <ele>174</ele>
        <time>2017-08-17T08:37:01Z</time>
      </trkpt>
      <trkpt lat="45.92469" lon="4.73683">
        <ele>174</ele>
        <time>2017-08-17T08:37:04Z</time>
      </trkpt>
      <trkpt lat="45.92469" lon="4.73679">
        <ele>174</ele>
        <time>2017-08-17T08:37:05Z</time>
      </trkpt>
      <trkpt lat="45.9247" lon="4.73668">
        <ele>174</ele>
        <time>2017-08-17T08:37:08Z</time>
      </trkpt>
      <trkpt lat="45.92469" lon="4.73663">
        <ele>174</ele>
        <time>2017-08-17T08:37:09Z</time>
      </trkpt>
      <trkpt lat="45.9247" lon="4.73653">
        <ele>174</ele>
        <time>2017-08-17T08:37:11Z</time>
      </trkpt>
      <trkpt lat="45.92471" lon="4.73648">
        <ele>174</ele>
        <time>2017-08-17T08:37:12Z</time>
      </trkpt>
      <trkpt lat="45.92475" lon="4.7364">
        <ele>174</ele>
        <time>2017-08-17T08:37:14Z</time>
      </trkpt>
      <trkpt lat="45.92479" lon="4.73637">
        <ele>174</ele>
        <time>2017-08-17T08:37:15Z</time>
      </trkpt>
      <trkpt lat="45.92487" lon="4.73637">
        <ele>174</ele>
        <time>2017-08-17T08:37:17Z</time>
      </trkpt>
      <trkpt lat="45.92491" lon="4.73639">
        <ele>174</ele>
        <time>2017-08-17T08:37:18Z</time>
      </trkpt>
      <trkpt lat="45.925" lon="4.73639">
        <ele>174</ele>
        <time>2017-08-17T08:37:20Z</time>
      </trkpt>
      <trkpt lat="45.92504" lon="4.73639">
        <ele>174</ele>
        <time>2017-08-17T08:37:21Z</time>
      </trkpt>
      <trkpt lat="45.92513" lon="4.73638">
        <ele>173</ele>
        <time>2017-08-17T08:37:23Z</time>
      </trkpt>
      <trkpt lat="45.92518" lon="4.73638">
        <ele>173</ele>
        <time>2017-08-17T08:37:24Z</time>
      </trkpt>
      <trkpt lat="45.92523" lon="4.73639">
        <ele>173</ele>
        <time>2017-08-17T08:37:25Z</time>
      </trkpt>
      <trkpt lat="45.92528" lon="4.73638">
        <ele>173</ele>
        <time>2017-08-17T08:37:26Z</time>
      </trkpt>
      <trkpt lat="45.92533" lon="4.73637">
        <ele>173</ele>
        <time>2017-08-17T08:37:27Z</time>
      </trkpt>
      <trkpt lat="45.92538" lon="4.73636">
        <ele>173</ele>
        <time>2017-08-17T08:37:28Z</time>
      </trkpt>
      <trkpt lat="45.92543" lon="4.73634">
        <ele>173</ele>
        <time>2017-08-17T08:37:29Z</time>
      </trkpt>
      <trkpt lat="45.92547" lon="4.73632">
        <ele>173</ele>
        <time>2017-08-17T08:37:30Z</time>
      </trkpt>
      <trkpt lat="45.92552" lon="4.7363">
        <ele>173</ele>
        <time>2017-08-17T08:37:31Z</time>
      </trkpt>
      <trkpt lat="45.92556" lon="4.73629">
        <ele>173</ele>
        <time>2017-08-17T08:37:32Z</time>
      </trkpt>
      <trkpt lat="45.92565" lon="4.73628">
        <ele>173</ele>
        <time>2017-08-17T08:37:34Z</time>
      </trkpt>
      <trkpt lat="45.92569" lon="4.73628">
        <ele>173</ele>
        <time>2017-08-17T08:37:35Z</time>
      </trkpt>
      <trkpt lat="45.92577" lon="4.73625">
        <ele>173</ele>
        <time>2017-08-17T08:37:37Z</time>
      </trkpt>
      <trkpt lat="45.92582" lon="4.73624">
        <ele>173</ele>
        <time>2017-08-17T08:37:38Z</time>
      </trkpt>
      <trkpt lat="45.92586" lon="4.73624">
        <ele>172</ele>
        <time>2017-08-17T08:37:39Z</time>
      </trkpt>
      <trkpt lat="45.92591" lon="4.73623">
        <ele>173</ele>
        <time>2017-08-17T08:37:40Z</time>
      </trkpt>
      <trkpt lat="45.92596" lon="4.73623">
        <ele>173</ele>
        <time>2017-08-17T08:37:41Z</time>
      </trkpt>
      <trkpt lat="45.92601" lon="4.73624">
        <ele>173</ele>
        <time>2017-08-17T08:37:42Z</time>
      </trkpt>
      <trkpt lat="45.92606" lon="4.73625">
        <ele>173</ele>
        <time>2017-08-17T08:37:43Z</time>
      </trkpt>
      <trkpt lat="45.92612" lon="4.73628">
        <ele>173</ele>
        <time>2017-08-17T08:37:44Z</time>
      </trkpt>
      <trkpt lat="45.92617" lon="4.73633">
        <ele>173</ele>
        <time>2017-08-17T08:37:45Z</time>
      </trkpt>
      <trkpt lat="45.9262" lon="4.73638">
        <ele>173</ele>
        <time>2017-08-17T08:37:46Z</time>
      </trkpt>
      <trkpt lat="45.92623" lon="4.73644">
        <ele>173</ele>
        <time>2017-08-17T08:37:47Z</time>
      </trkpt>
      <trkpt lat="45.92625" lon="4.73651">
        <ele>173</ele>
        <time>2017-08-17T08:37:48Z</time>
      </trkpt>
      <trkpt lat="45.92627" lon="4.73657">
        <ele>173</ele>
        <time>2017-08-17T08:37:49Z</time>
      </trkpt>
      <trkpt lat="45.9263" lon="4.73662">
        <ele>173</ele>
        <time>2017-08-17T08:37:50Z</time>
      </trkpt>
      <trkpt lat="45.92632" lon="4.73667">
        <ele>173</ele>
        <time>2017-08-17T08:37:51Z</time>
      </trkpt>
      <trkpt lat="45.92635" lon="4.73673">
        <ele>173</ele>
        <time>2017-08-17T08:37:52Z</time>
      </trkpt>
      <trkpt lat="45.92639" lon="4.73678">
        <ele>173</ele>
        <time>2017-08-17T08:37:53Z</time>
      </trkpt>
      <trkpt lat="45.92643" lon="4.73683">
        <ele>173</ele>
        <time>2017-08-17T08:37:54Z</time>
      </trkpt>
      <trkpt lat="45.92647" lon="4.73689">
        <ele>173</ele>
        <time>2017-08-17T08:37:55Z</time>
      </trkpt>
      <trkpt lat="45.92652" lon="4.73693">
        <ele>173</ele>
        <time>2017-08-17T08:37:56Z</time>
      </trkpt>
      <trkpt lat="45.92657" lon="4.73697">
        <ele>173</ele>
        <time>2017-08-17T08:37:57Z</time>
      </trkpt>
      <trkpt lat="45.92662" lon="4.737">
        <ele>173</ele>
        <time>2017-08-17T08:37:58Z</time>
      </trkpt>
      <trkpt lat="45.92667" lon="4.73703">
        <ele>174</ele>
        <time>2017-08-17T08:37:59Z</time>
      </trkpt>
      <trkpt lat="45.92672" lon="4.73706">
        <ele>174</ele>
        <time>2017-08-17T08:38:00Z</time>
      </trkpt>
      <trkpt lat="45.92677" lon="4.73708">
        <ele>173</ele>
        <time>2017-08-17T08:38:01Z</time>
      </trkpt>
      <trkpt lat="45.92683" lon="4.7371">
        <ele>173</ele>
        <time>2017-08-17T08:38:02Z</time>
      </trkpt>
      <trkpt lat="45.92688" lon="4.73711">
        <ele>173</ele>
        <time>2017-08-17T08:38:03Z</time>
      </trkpt>
      <trkpt lat="45.92692" lon="4.73712">
        <ele>173</ele>
        <time>2017-08-17T08:38:04Z</time>
      </trkpt>
      <trkpt lat="45.92697" lon="4.73713">
        <ele>173</ele>
        <time>2017-08-17T08:38:05Z</time>
      </trkpt>
      <trkpt lat="45.92704" lon="4.73715">
        <ele>173</ele>
        <time>2017-08-17T08:38:06Z</time>
      </trkpt>
      <trkpt lat="45.9271" lon="4.73717">
        <ele>173</ele>
        <time>2017-08-17T08:38:07Z</time>
      </trkpt>
      <trkpt lat="45.92715" lon="4.73719">
        <ele>173</ele>
        <time>2017-08-17T08:38:08Z</time>
      </trkpt>
      <trkpt lat="45.92721" lon="4.7372">
        <ele>173</ele>
        <time>2017-08-17T08:38:09Z</time>
      </trkpt>
      <trkpt lat="45.92726" lon="4.73721">
        <ele>173</ele>
        <time>2017-08-17T08:38:10Z</time>
      </trkpt>
      <trkpt lat="45.92731" lon="4.73722">
        <ele>173</ele>
        <time>2017-08-17T08:38:11Z</time>
      </trkpt>
      <trkpt lat="45.92736" lon="4.73723">
        <ele>173</ele>
        <time>2017-08-17T08:38:12Z</time>
      </trkpt>
      <trkpt lat="45.92742" lon="4.73724">
        <ele>173</ele>
        <time>2017-08-17T08:38:13Z</time>
      </trkpt>
      <trkpt lat="45.92747" lon="4.73726">
        <ele>173</ele>
        <time>2017-08-17T08:38:14Z</time>
      </trkpt>
      <trkpt lat="45.92752" lon="4.73726">
        <ele>172</ele>
        <time>2017-08-17T08:38:15Z</time>
      </trkpt>
      <trkpt lat="45.92757" lon="4.73727">
        <ele>172</ele>
        <time>2017-08-17T08:38:16Z</time>
      </trkpt>
      <trkpt lat="45.92765" lon="4.73731">
        <ele>172</ele>
        <time>2017-08-17T08:38:18Z</time>
      </trkpt>
      <trkpt lat="45.9277" lon="4.73732">
        <ele>172</ele>
        <time>2017-08-17T08:38:19Z</time>
      </trkpt>
      <trkpt lat="45.92778" lon="4.73735">
        <ele>172</ele>
        <time>2017-08-17T08:38:21Z</time>
      </trkpt>
      <trkpt lat="45.92781" lon="4.73738">
        <ele>172</ele>
        <time>2017-08-17T08:38:22Z</time>
      </trkpt>
      <trkpt lat="45.92784" lon="4.73748">
        <ele>172</ele>
        <time>2017-08-17T08:38:24Z</time>
      </trkpt>
      <trkpt lat="45.92786" lon="4.73752">
        <ele>173</ele>
        <time>2017-08-17T08:38:25Z</time>
      </trkpt>
      <trkpt lat="45.92794" lon="4.73759">
        <ele>173</ele>
        <time>2017-08-17T08:38:27Z</time>
      </trkpt>
      <trkpt lat="45.928" lon="4.73761">
        <ele>173</ele>
        <time>2017-08-17T08:38:28Z</time>
      </trkpt>
      <trkpt lat="45.92804" lon="4.73764">
        <ele>173</ele>
        <time>2017-08-17T08:38:29Z</time>
      </trkpt>
      <trkpt lat="45.92808" lon="4.73767">
        <ele>173</ele>
        <time>2017-08-17T08:38:30Z</time>
      </trkpt>
      <trkpt lat="45.92813" lon="4.7377">
        <ele>173</ele>
        <time>2017-08-17T08:38:31Z</time>
      </trkpt>
      <trkpt lat="45.92819" lon="4.73776">
        <ele>173</ele>
        <time>2017-08-17T08:38:32Z</time>
      </trkpt>
      <trkpt lat="45.92824" lon="4.73779">
        <ele>173</ele>
        <time>2017-08-17T08:38:33Z</time>
      </trkpt>
      <trkpt lat="45.9283" lon="4.73782">
        <ele>173</ele>
        <time>2017-08-17T08:38:34Z</time>
      </trkpt>
      <trkpt lat="45.92835" lon="4.73786">
        <ele>173</ele>
        <time>2017-08-17T08:38:35Z</time>
      </trkpt>
      <trkpt lat="45.9284" lon="4.7379">
        <ele>173</ele>
        <time>2017-08-17T08:38:36Z</time>
      </trkpt>
      <trkpt lat="45.92845" lon="4.73793">
        <ele>173</ele>
        <time>2017-08-17T08:38:37Z</time>
      </trkpt>
      <trkpt lat="45.9285" lon="4.73797">
        <ele>173</ele>
        <time>2017-08-17T08:38:38Z</time>
      </trkpt>
      <trkpt lat="45.92855" lon="4.73801">
        <ele>173</ele>
        <time>2017-08-17T08:38:39Z</time>
      </trkpt>
      <trkpt lat="45.92858" lon="4.73807">
        <ele>173</ele>
        <time>2017-08-17T08:38:40Z</time>
      </trkpt>
      <trkpt lat="45.92861" lon="4.73814">
        <ele>173</ele>
        <time>2017-08-17T08:38:41Z</time>
      </trkpt>
      <trkpt lat="45.92863" lon="4.73822">
        <ele>173</ele>
        <time>2017-08-17T08:38:42Z</time>
      </trkpt>
      <trkpt lat="45.92865" lon="4.7383">
        <ele>173</ele>
        <time>2017-08-17T08:38:43Z</time>
      </trkpt>
      <trkpt lat="45.92867" lon="4.73837">
        <ele>173</ele>
        <time>2017-08-17T08:38:44Z</time>
      </trkpt>
      <trkpt lat="45.92869" lon="4.73844">
        <ele>173</ele>
        <time>2017-08-17T08:38:45Z</time>
      </trkpt>
      <trkpt lat="45.92871" lon="4.73852">
        <ele>173</ele>
        <time>2017-08-17T08:38:46Z</time>
      </trkpt>
      <trkpt lat="45.92873" lon="4.73859">
        <ele>173</ele>
        <time>2017-08-17T08:38:47Z</time>
      </trkpt>
      <trkpt lat="45.92875" lon="4.73867">
        <ele>173</ele>
        <time>2017-08-17T08:38:48Z</time>
      </trkpt>
      <trkpt lat="45.92877" lon="4.73875">
        <ele>173</ele>
        <time>2017-08-17T08:38:49Z</time>
      </trkpt>
      <trkpt lat="45.92878" lon="4.73883">
        <ele>173</ele>
        <time>2017-08-17T08:38:50Z</time>
      </trkpt>
      <trkpt lat="45.92879" lon="4.73892">
        <ele>173</ele>
        <time>2017-08-17T08:38:51Z</time>
      </trkpt>
      <trkpt lat="45.92878" lon="4.739">
        <ele>173</ele>
        <time>2017-08-17T08:38:52Z</time>
      </trkpt>
      <trkpt lat="45.92878" lon="4.73909">
        <ele>173</ele>
        <time>2017-08-17T08:38:53Z</time>
      </trkpt>
      <trkpt lat="45.92878" lon="4.73918">
        <ele>172</ele>
        <time>2017-08-17T08:38:54Z</time>
      </trkpt>
      <trkpt lat="45.92878" lon="4.73926">
        <ele>172</ele>
        <time>2017-08-17T08:38:55Z</time>
      </trkpt>
      <trkpt lat="45.92879" lon="4.73934">
        <ele>172</ele>
        <time>2017-08-17T08:38:56Z</time>
      </trkpt>
      <trkpt lat="45.92879" lon="4.73942">
        <ele>172</ele>
        <time>2017-08-17T08:38:57Z</time>
      </trkpt>
      <trkpt lat="45.92879" lon="4.7395">
        <ele>172</ele>
        <time>2017-08-17T08:38:58Z</time>
      </trkpt>
      <trkpt lat="45.9288" lon="4.73958">
        <ele>172</ele>
        <time>2017-08-17T08:38:59Z</time>
      </trkpt>
      <trkpt lat="45.9288" lon="4.73966">
        <ele>172</ele>
        <time>2017-08-17T08:39:00Z</time>
      </trkpt>
      <trkpt lat="45.9288" lon="4.73973">
        <ele>172</ele>
        <time>2017-08-17T08:39:01Z</time>
      </trkpt>
      <trkpt lat="45.92879" lon="4.73981">
        <ele>172</ele>
        <time>2017-08-17T08:39:02Z</time>
      </trkpt>
      <trkpt lat="45.92878" lon="4.73989">
        <ele>172</ele>
        <time>2017-08-17T08:39:03Z</time>
      </trkpt>
      <trkpt lat="45.92876" lon="4.73996">
        <ele>172</ele>
        <time>2017-08-17T08:39:04Z</time>
      </trkpt>
      <trkpt lat="45.92875" lon="4.74002">
        <ele>172</ele>
        <time>2017-08-17T08:39:05Z</time>
      </trkpt>
      <trkpt lat="45.92873" lon="4.74009">
        <ele>172</ele>
        <time>2017-08-17T08:39:06Z</time>
      </trkpt>
      <trkpt lat="45.92872" lon="4.74015">
        <ele>172</ele>
        <time>2017-08-17T08:39:07Z</time>
      </trkpt>
      <trkpt lat="45.92871" lon="4.74023">
        <ele>172</ele>
        <time>2017-08-17T08:39:08Z</time>
      </trkpt>
      <trkpt lat="45.92869" lon="4.7403">
        <ele>172</ele>
        <time>2017-08-17T08:39:09Z</time>
      </trkpt>
      <trkpt lat="45.92866" lon="4.74037">
        <ele>172</ele>
        <time>2017-08-17T08:39:10Z</time>
      </trkpt>
      <trkpt lat="45.92863" lon="4.74043">
        <ele>172</ele>
        <time>2017-08-17T08:39:11Z</time>
      </trkpt>
      <trkpt lat="45.92859" lon="4.74048">
        <ele>172</ele>
        <time>2017-08-17T08:39:12Z</time>
      </trkpt>
      <trkpt lat="45.92854" lon="4.74054">
        <ele>172</ele>
        <time>2017-08-17T08:39:13Z</time>
      </trkpt>
      <trkpt lat="45.9285" lon="4.74059">
        <ele>172</ele>
        <time>2017-08-17T08:39:14Z</time>
      </trkpt>
      <trkpt lat="45.92846" lon="4.74066">
        <ele>172</ele>
        <time>2017-08-17T08:39:15Z</time>
      </trkpt>
      <trkpt lat="45.92841" lon="4.74072">
        <ele>172</ele>
        <time>2017-08-17T08:39:16Z</time>
      </trkpt>
      <trkpt lat="45.92836" lon="4.74078">
        <ele>171</ele>
        <time>2017-08-17T08:39:17Z</time>
      </trkpt>
      <trkpt lat="45.92832" lon="4.74084">
        <ele>171</ele>
        <time>2017-08-17T08:39:18Z</time>
      </trkpt>
      <trkpt lat="45.92827" lon="4.7409">
        <ele>171</ele>
        <time>2017-08-17T08:39:19Z</time>
      </trkpt>
      <trkpt lat="45.92822" lon="4.74095">
        <ele>171</ele>
        <time>2017-08-17T08:39:20Z</time>
      </trkpt>
      <trkpt lat="45.92818" lon="4.74101">
        <ele>171</ele>
        <time>2017-08-17T08:39:21Z</time>
      </trkpt>
      <trkpt lat="45.92813" lon="4.74106">
        <ele>172</ele>
        <time>2017-08-17T08:39:22Z</time>
      </trkpt>
      <trkpt lat="45.92809" lon="4.74111">
        <ele>172</ele>
        <time>2017-08-17T08:39:23Z</time>
      </trkpt>
      <trkpt lat="45.92804" lon="4.74115">
        <ele>172</ele>
        <time>2017-08-17T08:39:24Z</time>
      </trkpt>
      <trkpt lat="45.928" lon="4.7412">
        <ele>172</ele>
        <time>2017-08-17T08:39:25Z</time>
      </trkpt>
      <trkpt lat="45.92796" lon="4.74125">
        <ele>172</ele>
        <time>2017-08-17T08:39:26Z</time>
      </trkpt>
      <trkpt lat="45.92791" lon="4.74129">
        <ele>172</ele>
        <time>2017-08-17T08:39:27Z</time>
      </trkpt>
      <trkpt lat="45.92787" lon="4.74134">
        <ele>172</ele>
        <time>2017-08-17T08:39:28Z</time>
      </trkpt>
      <trkpt lat="45.92783" lon="4.74139">
        <ele>172</ele>
        <time>2017-08-17T08:39:29Z</time>
      </trkpt>
      <trkpt lat="45.92778" lon="4.74143">
        <ele>172</ele>
        <time>2017-08-17T08:39:30Z</time>
      </trkpt>
      <trkpt lat="45.92773" lon="4.74148">
        <ele>172</ele>
        <time>2017-08-17T08:39:31Z</time>
      </trkpt>
      <trkpt lat="45.92769" lon="4.74152">
        <ele>172</ele>
        <time>2017-08-17T08:39:32Z</time>
      </trkpt>
      <trkpt lat="45.92764" lon="4.74157">
        <ele>172</ele>
        <time>2017-08-17T08:39:33Z</time>
      </trkpt>
      <trkpt lat="45.92759" lon="4.74163">
        <ele>172</ele>
        <time>2017-08-17T08:39:34Z</time>
      </trkpt>
      <trkpt lat="45.92754" lon="4.74168">
        <ele>172</ele>
        <time>2017-08-17T08:39:35Z</time>
      </trkpt>
      <trkpt lat="45.9275" lon="4.74173">
        <ele>172</ele>
        <time>2017-08-17T08:39:36Z</time>
      </trkpt>
      <trkpt lat="45.92745" lon="4.74178">
        <ele>172</ele>
        <time>2017-08-17T08:39:37Z</time>
      </trkpt>
      <trkpt lat="45.92741" lon="4.74183">
        <ele>172</ele>
        <time>2017-08-17T08:39:38Z</time>
      </trkpt>
      <trkpt lat="45.92737" lon="4.74189">
        <ele>171</ele>
        <time>2017-08-17T08:39:39Z</time>
      </trkpt>
      <trkpt lat="45.92733" lon="4.74195">
        <ele>171</ele>
        <time>2017-08-17T08:39:40Z</time>
      </trkpt>
      <trkpt lat="45.92728" lon="4.742">
        <ele>171</ele>
        <time>2017-08-17T08:39:41Z</time>
      </trkpt>
      <trkpt lat="45.92724" lon="4.74206">
        <ele>171</ele>
        <time>2017-08-17T08:39:42Z</time>
      </trkpt>
      <trkpt lat="45.92721" lon="4.74212">
        <ele>171</ele>
        <time>2017-08-17T08:39:43Z</time>
      </trkpt>
      <trkpt lat="45.92717" lon="4.74217">
        <ele>171</ele>
        <time>2017-08-17T08:39:44Z</time>
      </trkpt>
      <trkpt lat="45.92713" lon="4.74223">
        <ele>171</ele>
        <time>2017-08-17T08:39:45Z</time>
      </trkpt>
      <trkpt lat="45.92709" lon="4.74229">
        <ele>171</ele>
        <time>2017-08-17T08:39:46Z</time>
      </trkpt>
      <trkpt lat="45.92705" lon="4.74235">
        <ele>171</ele>
        <time>2017-08-17T08:39:47Z</time>
      </trkpt>
      <trkpt lat="45.92701" lon="4.74241">
        <ele>171</ele>
        <time>2017-08-17T08:39:48Z</time>
      </trkpt>
      <trkpt lat="45.92698" lon="4.74247">
        <ele>171</ele>
        <time>2017-08-17T08:39:49Z</time>
      </trkpt>
      <trkpt lat="45.92695" lon="4.74253">
        <ele>171</ele>
        <time>2017-08-17T08:39:50Z</time>
      </trkpt>
      <trkpt lat="45.92691" lon="4.74259">
        <ele>171</ele>
        <time>2017-08-17T08:39:51Z</time>
      </trkpt>
      <trkpt lat="45.92688" lon="4.74264">
        <ele>171</ele>
        <time>2017-08-17T08:39:52Z</time>
      </trkpt>
      <trkpt lat="45.92685" lon="4.7427">
        <ele>171</ele>
        <time>2017-08-17T08:39:53Z</time>
      </trkpt>
      <trkpt lat="45.92682" lon="4.74276">
        <ele>171</ele>
        <time>2017-08-17T08:39:54Z</time>
      </trkpt>
      <trkpt lat="45.92679" lon="4.74282">
        <ele>171</ele>
        <time>2017-08-17T08:39:55Z</time>
      </trkpt>
      <trkpt lat="45.92675" lon="4.74288">
        <ele>171</ele>
        <time>2017-08-17T08:39:56Z</time>
      </trkpt>
      <trkpt lat="45.92672" lon="4.74294">
        <ele>171</ele>
        <time>2017-08-17T08:39:57Z</time>
      </trkpt>
      <trkpt lat="45.92669" lon="4.743">
        <ele>171</ele>
        <time>2017-08-17T08:39:58Z</time>
      </trkpt>
      <trkpt lat="45.92665" lon="4.74307">
        <ele>171</ele>
        <time>2017-08-17T08:39:59Z</time>
      </trkpt>
      <trkpt lat="45.92662" lon="4.74314">
        <ele>171</ele>
        <time>2017-08-17T08:40:00Z</time>
      </trkpt>
      <trkpt lat="45.92658" lon="4.74321">
        <ele>171</ele>
        <time>2017-08-17T08:40:01Z</time>
      </trkpt>
      <trkpt lat="45.92654" lon="4.74328">
        <ele>171</ele>
        <time>2017-08-17T08:40:02Z</time>
      </trkpt>
      <trkpt lat="45.92651" lon="4.74334">
        <ele>171</ele>
        <time>2017-08-17T08:40:03Z</time>
      </trkpt>
      <trkpt lat="45.92647" lon="4.74341">
        <ele>171</ele>
        <time>2017-08-17T08:40:04Z</time>
      </trkpt>
      <trkpt lat="45.92643" lon="4.74349">
        <ele>171</ele>
        <time>2017-08-17T08:40:05Z</time>
      </trkpt>
      <trkpt lat="45.9264" lon="4.74356">
        <ele>171</ele>
        <time>2017-08-17T08:40:06Z</time>
      </trkpt>
      <trkpt lat="45.92636" lon="4.74362">
        <ele>171</ele>
        <time>2017-08-17T08:40:07Z</time>
      </trkpt>
      <trkpt lat="45.92633" lon="4.74368">
        <ele>171</ele>
        <time>2017-08-17T08:40:08Z</time>
      </trkpt>
      <trkpt lat="45.92629" lon="4.74375">
        <ele>171</ele>
        <time>2017-08-17T08:40:09Z</time>
      </trkpt>
      <trkpt lat="45.92625" lon="4.74381">
        <ele>170</ele>
        <time>2017-08-17T08:40:10Z</time>
      </trkpt>
      <trkpt lat="45.92621" lon="4.74387">
        <ele>170</ele>
        <time>2017-08-17T08:40:11Z</time>
      </trkpt>
      <trkpt lat="45.92618" lon="4.74394">
        <ele>170</ele>
        <time>2017-08-17T08:40:12Z</time>
      </trkpt>
      <trkpt lat="45.92615" lon="4.744">
        <ele>170</ele>
        <time>2017-08-17T08:40:13Z</time>
      </trkpt>
      <trkpt lat="45.92612" lon="4.74405">
        <ele>170</ele>
        <time>2017-08-17T08:40:14Z</time>
      </trkpt>
      <trkpt lat="45.92608" lon="4.74411">
        <ele>170</ele>
        <time>2017-08-17T08:40:15Z</time>
      </trkpt>
      <trkpt lat="45.92605" lon="4.74418">
        <ele>170</ele>
        <time>2017-08-17T08:40:16Z</time>
      </trkpt>
      <trkpt lat="45.92601" lon="4.74424">
        <ele>170</ele>
        <time>2017-08-17T08:40:17Z</time>
      </trkpt>
      <trkpt lat="45.92598" lon="4.74431">
        <ele>170</ele>
        <time>2017-08-17T08:40:18Z</time>
      </trkpt>
      <trkpt lat="45.92594" lon="4.74437">
        <ele>170</ele>
        <time>2017-08-17T08:40:19Z</time>
      </trkpt>
      <trkpt lat="45.92591" lon="4.74444">
        <ele>170</ele>
        <time>2017-08-17T08:40:20Z</time>
      </trkpt>
      <trkpt lat="45.92587" lon="4.7445">
        <ele>170</ele>
        <time>2017-08-17T08:40:21Z</time>
      </trkpt>
      <trkpt lat="45.92583" lon="4.74457">
        <ele>170</ele>
        <time>2017-08-17T08:40:22Z</time>
      </trkpt>
      <trkpt lat="45.92579" lon="4.74463">
        <ele>170</ele>
        <time>2017-08-17T08:40:23Z</time>
      </trkpt>
      <trkpt lat="45.92575" lon="4.7447">
        <ele>170</ele>
        <time>2017-08-17T08:40:24Z</time>
      </trkpt>
      <trkpt lat="45.92572" lon="4.74476">
        <ele>170</ele>
        <time>2017-08-17T08:40:25Z</time>
      </trkpt>
      <trkpt lat="45.92568" lon="4.74483">
        <ele>170</ele>
        <time>2017-08-17T08:40:26Z</time>
      </trkpt>
      <trkpt lat="45.92564" lon="4.7449">
        <ele>170</ele>
        <time>2017-08-17T08:40:27Z</time>
      </trkpt>
      <trkpt lat="45.9256" lon="4.74497">
        <ele>170</ele>
        <time>2017-08-17T08:40:28Z</time>
      </trkpt>
      <trkpt lat="45.92557" lon="4.74503">
        <ele>170</ele>
        <time>2017-08-17T08:40:29Z</time>
      </trkpt>
      <trkpt lat="45.92554" lon="4.74509">
        <ele>170</ele>
        <time>2017-08-17T08:40:30Z</time>
      </trkpt>
      <trkpt lat="45.9255" lon="4.74515">
        <ele>170</ele>
        <time>2017-08-17T08:40:31Z</time>
      </trkpt>
      <trkpt lat="45.92547" lon="4.74521">
        <ele>170</ele>
        <time>2017-08-17T08:40:32Z</time>
      </trkpt>
      <trkpt lat="45.92544" lon="4.74527">
        <ele>170</ele>
        <time>2017-08-17T08:40:33Z</time>
      </trkpt>
      <trkpt lat="45.9254" lon="4.74532">
        <ele>171</ele>
        <time>2017-08-17T08:40:34Z</time>
      </trkpt>
      <trkpt lat="45.92537" lon="4.74538">
        <ele>171</ele>
        <time>2017-08-17T08:40:35Z</time>
      </trkpt>
      <trkpt lat="45.92533" lon="4.74544">
        <ele>171</ele>
        <time>2017-08-17T08:40:36Z</time>
      </trkpt>
      <trkpt lat="45.92529" lon="4.7455">
        <ele>171</ele>
        <time>2017-08-17T08:40:37Z</time>
      </trkpt>
      <trkpt lat="45.92525" lon="4.74555">
        <ele>171</ele>
        <time>2017-08-17T08:40:38Z</time>
      </trkpt>
      <trkpt lat="45.92521" lon="4.74561">
        <ele>171</ele>
        <time>2017-08-17T08:40:39Z</time>
      </trkpt>
      <trkpt lat="45.92516" lon="4.74566">
        <ele>171</ele>
        <time>2017-08-17T08:40:40Z</time>
      </trkpt>
      <trkpt lat="45.92512" lon="4.74572">
        <ele>171</ele>
        <time>2017-08-17T08:40:41Z</time>
      </trkpt>
      <trkpt lat="45.92508" lon="4.74578">
        <ele>171</ele>
        <time>2017-08-17T08:40:42Z</time>
      </trkpt>
      <trkpt lat="45.92503" lon="4.74583">
        <ele>171</ele>
        <time>2017-08-17T08:40:43Z</time>
      </trkpt>
      <trkpt lat="45.92499" lon="4.74588">
        <ele>171</ele>
        <time>2017-08-17T08:40:44Z</time>
      </trkpt>
      <trkpt lat="45.92495" lon="4.74594">
        <ele>171</ele>
        <time>2017-08-17T08:40:45Z</time>
      </trkpt>
      <trkpt lat="45.9249" lon="4.74599">
        <ele>171</ele>
        <time>2017-08-17T08:40:46Z</time>
      </trkpt>
      <trkpt lat="45.92486" lon="4.74605">
        <ele>171</ele>
        <time>2017-08-17T08:40:47Z</time>
      </trkpt>
      <trkpt lat="45.92481" lon="4.74611">
        <ele>171</ele>
        <time>2017-08-17T08:40:48Z</time>
      </trkpt>
      <trkpt lat="45.92477" lon="4.74617">
        <ele>171</ele>
        <time>2017-08-17T08:40:49Z</time>
      </trkpt>
      <trkpt lat="45.92473" lon="4.74623">
        <ele>171</ele>
        <time>2017-08-17T08:40:50Z</time>
      </trkpt>
      <trkpt lat="45.92468" lon="4.74629">
        <ele>171</ele>
        <time>2017-08-17T08:40:51Z</time>
      </trkpt>
      <trkpt lat="45.92464" lon="4.74635">
        <ele>171</ele>
        <time>2017-08-17T08:40:52Z</time>
      </trkpt>
      <trkpt lat="45.9246" lon="4.7464">
        <ele>171</ele>
        <time>2017-08-17T08:40:53Z</time>
      </trkpt>
      <trkpt lat="45.92456" lon="4.74646">
        <ele>171</ele>
        <time>2017-08-17T08:40:54Z</time>
      </trkpt>
      <trkpt lat="45.92452" lon="4.74652">
        <ele>171</ele>
        <time>2017-08-17T08:40:55Z</time>
      </trkpt>
      <trkpt lat="45.92448" lon="4.74658">
        <ele>171</ele>
        <time>2017-08-17T08:40:56Z</time>
      </trkpt>
      <trkpt lat="45.92446" lon="4.74664">
        <ele>171</ele>
        <time>2017-08-17T08:40:57Z</time>
      </trkpt>
      <trkpt lat="45.92443" lon="4.74669">
        <ele>171</ele>
        <time>2017-08-17T08:40:58Z</time>
      </trkpt>
      <trkpt lat="45.92441" lon="4.74674">
        <ele>171</ele>
        <time>2017-08-17T08:40:59Z</time>
      </trkpt>
      <trkpt lat="45.92439" lon="4.7468">
        <ele>171</ele>
        <time>2017-08-17T08:41:00Z</time>
      </trkpt>
      <trkpt lat="45.92436" lon="4.74687">
        <ele>171</ele>
        <time>2017-08-17T08:41:01Z</time>
      </trkpt>
      <trkpt lat="45.92434" lon="4.74695">
        <ele>171</ele>
        <time>2017-08-17T08:41:02Z</time>
      </trkpt>
      <trkpt lat="45.92431" lon="4.74702">
        <ele>171</ele>
        <time>2017-08-17T08:41:03Z</time>
      </trkpt>
      <trkpt lat="45.92428" lon="4.74709">
        <ele>171</ele>
        <time>2017-08-17T08:41:04Z</time>
      </trkpt>
      <trkpt lat="45.92426" lon="4.74716">
        <ele>171</ele>
        <time>2017-08-17T08:41:05Z</time>
      </trkpt>
      <trkpt lat="45.92424" lon="4.74723">
        <ele>171</ele>
        <time>2017-08-17T08:41:06Z</time>
      </trkpt>
      <trkpt lat="45.92422" lon="4.74731">
        <ele>171</ele>
        <time>2017-08-17T08:41:07Z</time>
      </trkpt>
      <trkpt lat="45.92419" lon="4.74739">
        <ele>172</ele>
        <time>2017-08-17T08:41:08Z</time>
      </trkpt>
      <trkpt lat="45.92417" lon="4.74748">
        <ele>172</ele>
        <time>2017-08-17T08:41:09Z</time>
      </trkpt>
      <trkpt lat="45.92414" lon="4.74757">
        <ele>172</ele>
        <time>2017-08-17T08:41:10Z</time>
      </trkpt>
      <trkpt lat="45.92411" lon="4.74766">
        <ele>172</ele>
        <time>2017-08-17T08:41:11Z</time>
      </trkpt>
      <trkpt lat="45.9241" lon="4.74774">
        <ele>171</ele>
        <time>2017-08-17T08:41:12Z</time>
      </trkpt>
      <trkpt lat="45.92408" lon="4.74783">
        <ele>171</ele>
        <time>2017-08-17T08:41:13Z</time>
      </trkpt>
      <trkpt lat="45.92406" lon="4.74791">
        <ele>171</ele>
        <time>2017-08-17T08:41:14Z</time>
      </trkpt>
      <trkpt lat="45.92405" lon="4.748">
        <ele>171</ele>
        <time>2017-08-17T08:41:15Z</time>
      </trkpt>
      <trkpt lat="45.92403" lon="4.74808">
        <ele>171</ele>
        <time>2017-08-17T08:41:16Z</time>
      </trkpt>
      <trkpt lat="45.92401" lon="4.74818">
        <ele>171</ele>
        <time>2017-08-17T08:41:17Z</time>
      </trkpt>
      <trkpt lat="45.92399" lon="4.74827">
        <ele>171</ele>
        <time>2017-08-17T08:41:18Z</time>
      </trkpt>
      <trkpt lat="45.92397" lon="4.74836">
        <ele>171</ele>
        <time>2017-08-17T08:41:19Z</time>
      </trkpt>
      <trkpt lat="45.92394" lon="4.74845">
        <ele>171</ele>
        <time>2017-08-17T08:41:20Z</time>
      </trkpt>
      <trkpt lat="45.92391" lon="4.74855">
        <ele>171</ele>
        <time>2017-08-17T08:41:21Z</time>
      </trkpt>
      <trkpt lat="45.92388" lon="4.74864">
        <ele>171</ele>
        <time>2017-08-17T08:41:22Z</time>
      </trkpt>
      <trkpt lat="45.92385" lon="4.74873">
        <ele>171</ele>
        <time>2017-08-17T08:41:23Z</time>
      </trkpt>
      <trkpt lat="45.92382" lon="4.74881">
        <ele>171</ele>
        <time>2017-08-17T08:41:24Z</time>
      </trkpt>
      <trkpt lat="45.92379" lon="4.7489">
        <ele>171</ele>
        <time>2017-08-17T08:41:25Z</time>
      </trkpt>
      <trkpt lat="45.92375" lon="4.74899">
        <ele>171</ele>
        <time>2017-08-17T08:41:26Z</time>
      </trkpt>
      <trkpt lat="45.92372" lon="4.74907">
        <ele>171</ele>
        <time>2017-08-17T08:41:27Z</time>
      </trkpt>
      <trkpt lat="45.92369" lon="4.74914">
        <ele>171</ele>
        <time>2017-08-17T08:41:28Z</time>
      </trkpt>
      <trkpt lat="45.92365" lon="4.74922">
        <ele>170</ele>
        <time>2017-08-17T08:41:29Z</time>
      </trkpt>
      <trkpt lat="45.92363" lon="4.7493">
        <ele>170</ele>
        <time>2017-08-17T08:41:30Z</time>
      </trkpt>
      <trkpt lat="45.9236" lon="4.74937">
        <ele>170</ele>
        <time>2017-08-17T08:41:31Z</time>
      </trkpt>
      <trkpt lat="45.92357" lon="4.74945">
        <ele>170</ele>
        <time>2017-08-17T08:41:32Z</time>
      </trkpt>
      <trkpt lat="45.92354" lon="4.74952">
        <ele>170</ele>
        <time>2017-08-17T08:41:33Z</time>
      </trkpt>
      <trkpt lat="45.92351" lon="4.74959">
        <ele>170</ele>
        <time>2017-08-17T08:41:34Z</time>
      </trkpt>
      <trkpt lat="45.92349" lon="4.74965">
        <ele>170</ele>
        <time>2017-08-17T08:41:35Z</time>
      </trkpt>
      <trkpt lat="45.92346" lon="4.74972">
        <ele>170</ele>
        <time>2017-08-17T08:41:36Z</time>
      </trkpt>
      <trkpt lat="45.92343" lon="4.74979">
        <ele>170</ele>
        <time>2017-08-17T08:41:37Z</time>
      </trkpt>
      <trkpt lat="45.92341" lon="4.74987">
        <ele>170</ele>
        <time>2017-08-17T08:41:38Z</time>
      </trkpt>
      <trkpt lat="45.92338" lon="4.74994">
        <ele>170</ele>
        <time>2017-08-17T08:41:39Z</time>
      </trkpt>
      <trkpt lat="45.92335" lon="4.75001">
        <ele>170</ele>
        <time>2017-08-17T08:41:40Z</time>
      </trkpt>
      <trkpt lat="45.92332" lon="4.75009">
        <ele>171</ele>
        <time>2017-08-17T08:41:41Z</time>
      </trkpt>
      <trkpt lat="45.92328" lon="4.75016">
        <ele>171</ele>
        <time>2017-08-17T08:41:42Z</time>
      </trkpt>
      <trkpt lat="45.92324" lon="4.75024">
        <ele>171</ele>
        <time>2017-08-17T08:41:43Z</time>
      </trkpt>
      <trkpt lat="45.9232" lon="4.75032">
        <ele>171</ele>
        <time>2017-08-17T08:41:44Z</time>
      </trkpt>
      <trkpt lat="45.92315" lon="4.75039">
        <ele>172</ele>
        <time>2017-08-17T08:41:45Z</time>
      </trkpt>
      <trkpt lat="45.92311" lon="4.75047">
        <ele>172</ele>
        <time>2017-08-17T08:41:46Z</time>
      </trkpt>
      <trkpt lat="45.92306" lon="4.75054">
        <ele>172</ele>
        <time>2017-08-17T08:41:47Z</time>
      </trkpt>
      <trkpt lat="45.92301" lon="4.7506">
        <ele>172</ele>
        <time>2017-08-17T08:41:48Z</time>
      </trkpt>
      <trkpt lat="45.92295" lon="4.75066">
        <ele>172</ele>
        <time>2017-08-17T08:41:49Z</time>
      </trkpt>
      <trkpt lat="45.9229" lon="4.75073">
        <ele>172</ele>
        <time>2017-08-17T08:41:50Z</time>
      </trkpt>
      <trkpt lat="45.92284" lon="4.75079">
        <ele>172</ele>
        <time>2017-08-17T08:41:51Z</time>
      </trkpt>
      <trkpt lat="45.92279" lon="4.75085">
        <ele>173</ele>
        <time>2017-08-17T08:41:52Z</time>
      </trkpt>
      <trkpt lat="45.92273" lon="4.7509">
        <ele>173</ele>
        <time>2017-08-17T08:41:53Z</time>
      </trkpt>
      <trkpt lat="45.92267" lon="4.75095">
        <ele>173</ele>
        <time>2017-08-17T08:41:54Z</time>
      </trkpt>
      <trkpt lat="45.92262" lon="4.75102">
        <ele>173</ele>
        <time>2017-08-17T08:41:55Z</time>
      </trkpt>
      <trkpt lat="45.92256" lon="4.75108">
        <ele>174</ele>
        <time>2017-08-17T08:41:56Z</time>
      </trkpt>
      <trkpt lat="45.92251" lon="4.75114">
        <ele>174</ele>
        <time>2017-08-17T08:41:57Z</time>
      </trkpt>
      <trkpt lat="45.92246" lon="4.7512">
        <ele>174</ele>
        <time>2017-08-17T08:41:58Z</time>
      </trkpt>
      <trkpt lat="45.92241" lon="4.75127">
        <ele>174</ele>
        <time>2017-08-17T08:41:59Z</time>
      </trkpt>
      <trkpt lat="45.92236" lon="4.75133">
        <ele>174</ele>
        <time>2017-08-17T08:42:00Z</time>
      </trkpt>
      <trkpt lat="45.92232" lon="4.7514">
        <ele>174</ele>
        <time>2017-08-17T08:42:01Z</time>
      </trkpt>
      <trkpt lat="45.92228" lon="4.75147">
        <ele>174</ele>
        <time>2017-08-17T08:42:02Z</time>
      </trkpt>
      <trkpt lat="45.92225" lon="4.75155">
        <ele>174</ele>
        <time>2017-08-17T08:42:03Z</time>
      </trkpt>
      <trkpt lat="45.92222" lon="4.75163">
        <ele>174</ele>
        <time>2017-08-17T08:42:04Z</time>
      </trkpt>
      <trkpt lat="45.92219" lon="4.75172">
        <ele>175</ele>
        <time>2017-08-17T08:42:05Z</time>
      </trkpt>
      <trkpt lat="45.92216" lon="4.7518">
        <ele>175</ele>
        <time>2017-08-17T08:42:06Z</time>
      </trkpt>
      <trkpt lat="45.92215" lon="4.75189">
        <ele>175</ele>
        <time>2017-08-17T08:42:07Z</time>
      </trkpt>
      <trkpt lat="45.92213" lon="4.75198">
        <ele>175</ele>
        <time>2017-08-17T08:42:08Z</time>
      </trkpt>
      <trkpt lat="45.92211" lon="4.75207">
        <ele>175</ele>
        <time>2017-08-17T08:42:09Z</time>
      </trkpt>
      <trkpt lat="45.9221" lon="4.75216">
        <ele>175</ele>
        <time>2017-08-17T08:42:10Z</time>
      </trkpt>
      <trkpt lat="45.9221" lon="4.75224">
        <ele>175</ele>
        <time>2017-08-17T08:42:11Z</time>
      </trkpt>
      <trkpt lat="45.92209" lon="4.75233">
        <ele>175</ele>
        <time>2017-08-17T08:42:12Z</time>
      </trkpt>
      <trkpt lat="45.92209" lon="4.75241">
        <ele>175</ele>
        <time>2017-08-17T08:42:13Z</time>
      </trkpt>
      <trkpt lat="45.92208" lon="4.75249">
        <ele>175</ele>
        <time>2017-08-17T08:42:14Z</time>
      </trkpt>
      <trkpt lat="45.92208" lon="4.75257">
        <ele>175</ele>
        <time>2017-08-17T08:42:15Z</time>
      </trkpt>
      <trkpt lat="45.92208" lon="4.75265">
        <ele>176</ele>
        <time>2017-08-17T08:42:16Z</time>
      </trkpt>
      <trkpt lat="45.92208" lon="4.75273">
        <ele>176</ele>
        <time>2017-08-17T08:42:17Z</time>
      </trkpt>
      <trkpt lat="45.92209" lon="4.75282">
        <ele>176</ele>
        <time>2017-08-17T08:42:18Z</time>
      </trkpt>
      <trkpt lat="45.92208" lon="4.7529">
        <ele>176</ele>
        <time>2017-08-17T08:42:19Z</time>
      </trkpt>
      <trkpt lat="45.92208" lon="4.75298">
        <ele>176</ele>
        <time>2017-08-17T08:42:20Z</time>
      </trkpt>
      <trkpt lat="45.92208" lon="4.75305">
        <ele>176</ele>
        <time>2017-08-17T08:42:21Z</time>
      </trkpt>
      <trkpt lat="45.92208" lon="4.75312">
        <ele>176</ele>
        <time>2017-08-17T08:42:22Z</time>
      </trkpt>
      <trkpt lat="45.92207" lon="4.7532">
        <ele>176</ele>
        <time>2017-08-17T08:42:23Z</time>
      </trkpt>
      <trkpt lat="45.92205" lon="4.75327">
        <ele>176</ele>
        <time>2017-08-17T08:42:24Z</time>
      </trkpt>
      <trkpt lat="45.92204" lon="4.75334">
        <ele>177</ele>
        <time>2017-08-17T08:42:25Z</time>
      </trkpt>
      <trkpt lat="45.92202" lon="4.7534">
        <ele>177</ele>
        <time>2017-08-17T08:42:26Z</time>
      </trkpt>
      <trkpt lat="45.922" lon="4.75347">
        <ele>177</ele>
        <time>2017-08-17T08:42:27Z</time>
      </trkpt>
      <trkpt lat="45.92199" lon="4.75353">
        <ele>177</ele>
        <time>2017-08-17T08:42:28Z</time>
      </trkpt>
      <trkpt lat="45.92197" lon="4.75359">
        <ele>177</ele>
        <time>2017-08-17T08:42:29Z</time>
      </trkpt>
      <trkpt lat="45.92195" lon="4.75366">
        <ele>177</ele>
        <time>2017-08-17T08:42:30Z</time>
      </trkpt>
      <trkpt lat="45.92192" lon="4.75373">
        <ele>177</ele>
        <time>2017-08-17T08:42:31Z</time>
      </trkpt>
      <trkpt lat="45.9219" lon="4.75379">
        <ele>177</ele>
        <time>2017-08-17T08:42:32Z</time>
      </trkpt>
      <trkpt lat="45.92188" lon="4.75385">
        <ele>177</ele>
        <time>2017-08-17T08:42:33Z</time>
      </trkpt>
      <trkpt lat="45.92185" lon="4.75391">
        <ele>177</ele>
        <time>2017-08-17T08:42:34Z</time>
      </trkpt>
      <trkpt lat="45.92182" lon="4.75397">
        <ele>177</ele>
        <time>2017-08-17T08:42:35Z</time>
      </trkpt>
      <trkpt lat="45.9218" lon="4.75402">
        <ele>177</ele>
        <time>2017-08-17T08:42:36Z</time>
      </trkpt>
      <trkpt lat="45.92178" lon="4.75408">
        <ele>177</ele>
        <time>2017-08-17T08:42:37Z</time>
      </trkpt>
      <trkpt lat="45.92176" lon="4.75414">
        <ele>178</ele>
        <time>2017-08-17T08:42:38Z</time>
      </trkpt>
      <trkpt lat="45.92174" lon="4.7542">
        <ele>177</ele>
        <time>2017-08-17T08:42:39Z</time>
      </trkpt>
      <trkpt lat="45.92171" lon="4.75426">
        <ele>177</ele>
        <time>2017-08-17T08:42:40Z</time>
      </trkpt>
      <trkpt lat="45.92168" lon="4.75437">
        <ele>177</ele>
        <time>2017-08-17T08:42:42Z</time>
      </trkpt>
      <trkpt lat="45.92165" lon="4.75442">
        <ele>177</ele>
        <time>2017-08-17T08:42:43Z</time>
      </trkpt>
      <trkpt lat="45.92163" lon="4.75448">
        <ele>176</ele>
        <time>2017-08-17T08:42:44Z</time>
      </trkpt>
      <trkpt lat="45.9216" lon="4.75455">
        <ele>176</ele>
        <time>2017-08-17T08:42:45Z</time>
      </trkpt>
      <trkpt lat="45.92157" lon="4.75462">
        <ele>176</ele>
        <time>2017-08-17T08:42:46Z</time>
      </trkpt>
      <trkpt lat="45.92154" lon="4.75469">
        <ele>176</ele>
        <time>2017-08-17T08:42:47Z</time>
      </trkpt>
      <trkpt lat="45.92151" lon="4.75476">
        <ele>176</ele>
        <time>2017-08-17T08:42:48Z</time>
      </trkpt>
      <trkpt lat="45.92148" lon="4.75484">
        <ele>176</ele>
        <time>2017-08-17T08:42:49Z</time>
      </trkpt>
      <trkpt lat="45.92145" lon="4.75491">
        <ele>176</ele>
        <time>2017-08-17T08:42:50Z</time>
      </trkpt>
      <trkpt lat="45.92141" lon="4.75498">
        <ele>175</ele>
        <time>2017-08-17T08:42:51Z</time>
      </trkpt>
      <trkpt lat="45.92137" lon="4.75504">
        <ele>174</ele>
        <time>2017-08-17T08:42:52Z</time>
      </trkpt>
      <trkpt lat="45.92133" lon="4.75511">
        <ele>174</ele>
        <time>2017-08-17T08:42:53Z</time>
      </trkpt>
      <trkpt lat="45.9213" lon="4.75518">
        <ele>174</ele>
        <time>2017-08-17T08:42:54Z</time>
      </trkpt>
      <trkpt lat="45.92126" lon="4.75525">
        <ele>174</ele>
        <time>2017-08-17T08:42:55Z</time>
      </trkpt>
      <trkpt lat="45.92123" lon="4.75532">
        <ele>174</ele>
        <time>2017-08-17T08:42:56Z</time>
      </trkpt>
      <trkpt lat="45.9212" lon="4.7554">
        <ele>174</ele>
        <time>2017-08-17T08:42:57Z</time>
      </trkpt>
      <trkpt lat="45.92117" lon="4.75546">
        <ele>174</ele>
        <time>2017-08-17T08:42:58Z</time>
      </trkpt>
      <trkpt lat="45.92114" lon="4.75552">
        <ele>174</ele>
        <time>2017-08-17T08:42:59Z</time>
      </trkpt>
      <trkpt lat="45.92111" lon="4.75557">
        <ele>174</ele>
        <time>2017-08-17T08:43:00Z</time>
      </trkpt>
      <trkpt lat="45.9211" lon="4.75563">
        <ele>174</ele>
        <time>2017-08-17T08:43:01Z</time>
      </trkpt>
      <trkpt lat="45.92109" lon="4.7557">
        <ele>174</ele>
        <time>2017-08-17T08:43:02Z</time>
      </trkpt>
      <trkpt lat="45.92109" lon="4.75577">
        <ele>174</ele>
        <time>2017-08-17T08:43:03Z</time>
      </trkpt>
      <trkpt lat="45.92111" lon="4.75584">
        <ele>174</ele>
        <time>2017-08-17T08:43:04Z</time>
      </trkpt>
      <trkpt lat="45.92115" lon="4.7559">
        <ele>174</ele>
        <time>2017-08-17T08:43:05Z</time>
      </trkpt>
      <trkpt lat="45.92119" lon="4.75594">
        <ele>174</ele>
        <time>2017-08-17T08:43:06Z</time>
      </trkpt>
      <trkpt lat="45.92124" lon="4.75598">
        <ele>174</ele>
        <time>2017-08-17T08:43:07Z</time>
      </trkpt>
      <trkpt lat="45.92128" lon="4.75602">
        <ele>174</ele>
        <time>2017-08-17T08:43:08Z</time>
      </trkpt>
      <trkpt lat="45.92132" lon="4.75606">
        <ele>174</ele>
        <time>2017-08-17T08:43:09Z</time>
      </trkpt>
      <trkpt lat="45.92137" lon="4.75611">
        <ele>174</ele>
        <time>2017-08-17T08:43:10Z</time>
      </trkpt>
      <trkpt lat="45.92142" lon="4.75617">
        <ele>174</ele>
        <time>2017-08-17T08:43:11Z</time>
      </trkpt>
      <trkpt lat="45.92147" lon="4.75622">
        <ele>174</ele>
        <time>2017-08-17T08:43:12Z</time>
      </trkpt>
      <trkpt lat="45.92152" lon="4.75627">
        <ele>174</ele>
        <time>2017-08-17T08:43:13Z</time>
      </trkpt>
      <trkpt lat="45.92156" lon="4.75632">
        <ele>174</ele>
        <time>2017-08-17T08:43:14Z</time>
      </trkpt>
      <trkpt lat="45.92161" lon="4.75638">
        <ele>174</ele>
        <time>2017-08-17T08:43:15Z</time>
      </trkpt>
      <trkpt lat="45.92166" lon="4.75643">
        <ele>174</ele>
        <time>2017-08-17T08:43:16Z</time>
      </trkpt>
      <trkpt lat="45.92171" lon="4.75647">
        <ele>174</ele>
        <time>2017-08-17T08:43:17Z</time>
      </trkpt>
      <trkpt lat="45.92177" lon="4.75652">
        <ele>174</ele>
        <time>2017-08-17T08:43:18Z</time>
      </trkpt>
      <trkpt lat="45.92182" lon="4.75656">
        <ele>174</ele>
        <time>2017-08-17T08:43:19Z</time>
      </trkpt>
      <trkpt lat="45.92187" lon="4.75661">
        <ele>174</ele>
        <time>2017-08-17T08:43:20Z</time>
      </trkpt>
      <trkpt lat="45.92191" lon="4.75666">
        <ele>174</ele>
        <time>2017-08-17T08:43:21Z</time>
      </trkpt>
      <trkpt lat="45.92197" lon="4.75671">
        <ele>174</ele>
        <time>2017-08-17T08:43:22Z</time>
      </trkpt>
      <trkpt lat="45.92202" lon="4.75676">
        <ele>174</ele>
        <time>2017-08-17T08:43:23Z</time>
      </trkpt>
      <trkpt lat="45.92207" lon="4.7568">
        <ele>174</ele>
        <time>2017-08-17T08:43:24Z</time>
      </trkpt>
      <trkpt lat="45.92212" lon="4.75685">
        <ele>174</ele>
        <time>2017-08-17T08:43:25Z</time>
      </trkpt>
      <trkpt lat="45.92217" lon="4.7569">
        <ele>174</ele>
        <time>2017-08-17T08:43:26Z</time>
      </trkpt>
      <trkpt lat="45.92221" lon="4.75695">
        <ele>174</ele>
        <time>2017-08-17T08:43:27Z</time>
      </trkpt>
      <trkpt lat="45.92226" lon="4.757">
        <ele>174</ele>
        <time>2017-08-17T08:43:28Z</time>
      </trkpt>
      <trkpt lat="45.9223" lon="4.75705">
        <ele>174</ele>
        <time>2017-08-17T08:43:29Z</time>
      </trkpt>
      <trkpt lat="45.92233" lon="4.7571">
        <ele>174</ele>
        <time>2017-08-17T08:43:30Z</time>
      </trkpt>
      <trkpt lat="45.92237" lon="4.75716">
        <ele>174</ele>
        <time>2017-08-17T08:43:31Z</time>
      </trkpt>
      <trkpt lat="45.92239" lon="4.75723">
        <ele>174</ele>
        <time>2017-08-17T08:43:32Z</time>
      </trkpt>
      <trkpt lat="45.92242" lon="4.7573">
        <ele>174</ele>
        <time>2017-08-17T08:43:33Z</time>
      </trkpt>
      <trkpt lat="45.92244" lon="4.75737">
        <ele>174</ele>
        <time>2017-08-17T08:43:34Z</time>
      </trkpt>
      <trkpt lat="45.92246" lon="4.75744">
        <ele>174</ele>
        <time>2017-08-17T08:43:35Z</time>
      </trkpt>
      <trkpt lat="45.92247" lon="4.75751">
        <ele>174</ele>
        <time>2017-08-17T08:43:36Z</time>
      </trkpt>
      <trkpt lat="45.92248" lon="4.75758">
        <ele>174</ele>
        <time>2017-08-17T08:43:37Z</time>
      </trkpt>
      <trkpt lat="45.92249" lon="4.75766">
        <ele>174</ele>
        <time>2017-08-17T08:43:38Z</time>
      </trkpt>
      <trkpt lat="45.92251" lon="4.75774">
        <ele>174</ele>
        <time>2017-08-17T08:43:39Z</time>
      </trkpt>
      <trkpt lat="45.92252" lon="4.75781">
        <ele>174</ele>
        <time>2017-08-17T08:43:40Z</time>
      </trkpt>
      <trkpt lat="45.92253" lon="4.75789">
        <ele>174</ele>
        <time>2017-08-17T08:43:41Z</time>
      </trkpt>
      <trkpt lat="45.92255" lon="4.75795">
        <ele>174</ele>
        <time>2017-08-17T08:43:42Z</time>
      </trkpt>
      <trkpt lat="45.92257" lon="4.75801">
        <ele>174</ele>
        <time>2017-08-17T08:43:43Z</time>
      </trkpt>
      <trkpt lat="45.9226" lon="4.75808">
        <ele>174</ele>
        <time>2017-08-17T08:43:44Z</time>
      </trkpt>
      <trkpt lat="45.92263" lon="4.75814">
        <ele>174</ele>
        <time>2017-08-17T08:43:45Z</time>
      </trkpt>
      <trkpt lat="45.92267" lon="4.7582">
        <ele>174</ele>
        <time>2017-08-17T08:43:46Z</time>
      </trkpt>
      <trkpt lat="45.92272" lon="4.75825">
        <ele>174</ele>
        <time>2017-08-17T08:43:47Z</time>
      </trkpt>
      <trkpt lat="45.92276" lon="4.75829">
        <ele>174</ele>
        <time>2017-08-17T08:43:48Z</time>
      </trkpt>
      <trkpt lat="45.92281" lon="4.75833">
        <ele>174</ele>
        <time>2017-08-17T08:43:49Z</time>
      </trkpt>
      <trkpt lat="45.92286" lon="4.75837">
        <ele>173</ele>
        <time>2017-08-17T08:43:50Z</time>
      </trkpt>
      <trkpt lat="45.92292" lon="4.7584">
        <ele>173</ele>
        <time>2017-08-17T08:43:51Z</time>
      </trkpt>
      <trkpt lat="45.92297" lon="4.75843">
        <ele>173</ele>
        <time>2017-08-17T08:43:52Z</time>
      </trkpt>
      <trkpt lat="45.92302" lon="4.75846">
        <ele>173</ele>
        <time>2017-08-17T08:43:53Z</time>
      </trkpt>
      <trkpt lat="45.92307" lon="4.7585">
        <ele>173</ele>
        <time>2017-08-17T08:43:54Z</time>
      </trkpt>
      <trkpt lat="45.92312" lon="4.75853">
        <ele>173</ele>
        <time>2017-08-17T08:43:55Z</time>
      </trkpt>
      <trkpt lat="45.92317" lon="4.75856">
        <ele>173</ele>
        <time>2017-08-17T08:43:56Z</time>
      </trkpt>
      <trkpt lat="45.92322" lon="4.75859">
        <ele>173</ele>
        <time>2017-08-17T08:43:57Z</time>
      </trkpt>
      <trkpt lat="45.92326" lon="4.75863">
        <ele>173</ele>
        <time>2017-08-17T08:43:58Z</time>
      </trkpt>
      <trkpt lat="45.92331" lon="4.75866">
        <ele>173</ele>
        <time>2017-08-17T08:43:59Z</time>
      </trkpt>
      <trkpt lat="45.92336" lon="4.75869">
        <ele>173</ele>
        <time>2017-08-17T08:44:00Z</time>
      </trkpt>
      <trkpt lat="45.92341" lon="4.75872">
        <ele>173</ele>
        <time>2017-08-17T08:44:01Z</time>
      </trkpt>
      <trkpt lat="45.92346" lon="4.75876">
        <ele>173</ele>
        <time>2017-08-17T08:44:02Z</time>
      </trkpt>
      <trkpt lat="45.9235" lon="4.75878">
        <ele>173</ele>
        <time>2017-08-17T08:44:03Z</time>
      </trkpt>
      <trkpt lat="45.92355" lon="4.75882">
        <ele>173</ele>
        <time>2017-08-17T08:44:04Z</time>
      </trkpt>
      <trkpt lat="45.9236" lon="4.75885">
        <ele>173</ele>
        <time>2017-08-17T08:44:05Z</time>
      </trkpt>
      <trkpt lat="45.92366" lon="4.75889">
        <ele>173</ele>
        <time>2017-08-17T08:44:06Z</time>
      </trkpt>
      <trkpt lat="45.92371" lon="4.75892">
        <ele>173</ele>
        <time>2017-08-17T08:44:07Z</time>
      </trkpt>
      <trkpt lat="45.92376" lon="4.75895">
        <ele>173</ele>
        <time>2017-08-17T08:44:08Z</time>
      </trkpt>
      <trkpt lat="45.92382" lon="4.75899">
        <ele>173</ele>
        <time>2017-08-17T08:44:09Z</time>
      </trkpt>
      <trkpt lat="45.92388" lon="4.75903">
        <ele>173</ele>
        <time>2017-08-17T08:44:10Z</time>
      </trkpt>
      <trkpt lat="45.92393" lon="4.75907">
        <ele>173</ele>
        <time>2017-08-17T08:44:11Z</time>
      </trkpt>
      <trkpt lat="45.92399" lon="4.75912">
        <ele>173</ele>
        <time>2017-08-17T08:44:12Z</time>
      </trkpt>
      <trkpt lat="45.92404" lon="4.75915">
        <ele>172</ele>
        <time>2017-08-17T08:44:13Z</time>
      </trkpt>
      <trkpt lat="45.92409" lon="4.75919">
        <ele>172</ele>
        <time>2017-08-17T08:44:14Z</time>
      </trkpt>
      <trkpt lat="45.92414" lon="4.75922">
        <ele>172</ele>
        <time>2017-08-17T08:44:15Z</time>
      </trkpt>
      <trkpt lat="45.92419" lon="4.75926">
        <ele>172</ele>
        <time>2017-08-17T08:44:16Z</time>
      </trkpt>
      <trkpt lat="45.92423" lon="4.75929">
        <ele>172</ele>
        <time>2017-08-17T08:44:17Z</time>
      </trkpt>
      <trkpt lat="45.92428" lon="4.75932">
        <ele>172</ele>
        <time>2017-08-17T08:44:18Z</time>
      </trkpt>
      <trkpt lat="45.92432" lon="4.75936">
        <ele>172</ele>
        <time>2017-08-17T08:44:19Z</time>
      </trkpt>
      <trkpt lat="45.92436" lon="4.75939">
        <ele>172</ele>
        <time>2017-08-17T08:44:20Z</time>
      </trkpt>
      <trkpt lat="45.92441" lon="4.75943">
        <ele>172</ele>
        <time>2017-08-17T08:44:21Z</time>
      </trkpt>
      <trkpt lat="45.92446" lon="4.75947">
        <ele>172</ele>
        <time>2017-08-17T08:44:22Z</time>
      </trkpt>
      <trkpt lat="45.9245" lon="4.75951">
        <ele>172</ele>
        <time>2017-08-17T08:44:23Z</time>
      </trkpt>
      <trkpt lat="45.92455" lon="4.75954">
        <ele>172</ele>
        <time>2017-08-17T08:44:24Z</time>
      </trkpt>
      <trkpt lat="45.92459" lon="4.75958">
        <ele>172</ele>
        <time>2017-08-17T08:44:25Z</time>
      </trkpt>
      <trkpt lat="45.92463" lon="4.75962">
        <ele>172</ele>
        <time>2017-08-17T08:44:26Z</time>
      </trkpt>
      <trkpt lat="45.92468" lon="4.75965">
        <ele>172</ele>
        <time>2017-08-17T08:44:27Z</time>
      </trkpt>
      <trkpt lat="45.92472" lon="4.75969">
        <ele>172</ele>
        <time>2017-08-17T08:44:28Z</time>
      </trkpt>
      <trkpt lat="45.92477" lon="4.75972">
        <ele>172</ele>
        <time>2017-08-17T08:44:29Z</time>
      </trkpt>
      <trkpt lat="45.92482" lon="4.75976">
        <ele>172</ele>
        <time>2017-08-17T08:44:30Z</time>
      </trkpt>
      <trkpt lat="45.92487" lon="4.7598">
        <ele>172</ele>
        <time>2017-08-17T08:44:31Z</time>
      </trkpt>
      <trkpt lat="45.92491" lon="4.75983">
        <ele>172</ele>
        <time>2017-08-17T08:44:32Z</time>
      </trkpt>
      <trkpt lat="45.92496" lon="4.75987">
        <ele>172</ele>
        <time>2017-08-17T08:44:33Z</time>
      </trkpt>
      <trkpt lat="45.92501" lon="4.75991">
        <ele>172</ele>
        <time>2017-08-17T08:44:34Z</time>
      </trkpt>
      <trkpt lat="45.92506" lon="4.75994">
        <ele>172</ele>
        <time>2017-08-17T08:44:35Z</time>
      </trkpt>
      <trkpt lat="45.9251" lon="4.75997">
        <ele>172</ele>
        <time>2017-08-17T08:44:36Z</time>
      </trkpt>
      <trkpt lat="45.92515" lon="4.76">
        <ele>172</ele>
        <time>2017-08-17T08:44:37Z</time>
      </trkpt>
      <trkpt lat="45.92519" lon="4.76004">
        <ele>172</ele>
        <time>2017-08-17T08:44:38Z</time>
      </trkpt>
      <trkpt lat="45.92523" lon="4.76007">
        <ele>172</ele>
        <time>2017-08-17T08:44:39Z</time>
      </trkpt>
      <trkpt lat="45.92527" lon="4.7601">
        <ele>172</ele>
        <time>2017-08-17T08:44:40Z</time>
      </trkpt>
      <trkpt lat="45.92531" lon="4.76013">
        <ele>172</ele>
        <time>2017-08-17T08:44:41Z</time>
      </trkpt>
      <trkpt lat="45.92535" lon="4.76016">
        <ele>172</ele>
        <time>2017-08-17T08:44:42Z</time>
      </trkpt>
      <trkpt lat="45.9254" lon="4.76019">
        <ele>172</ele>
        <time>2017-08-17T08:44:43Z</time>
      </trkpt>
      <trkpt lat="45.92544" lon="4.76022">
        <ele>172</ele>
        <time>2017-08-17T08:44:44Z</time>
      </trkpt>
      <trkpt lat="45.9255" lon="4.76025">
        <ele>172</ele>
        <time>2017-08-17T08:44:45Z</time>
      </trkpt>
      <trkpt lat="45.92554" lon="4.76028">
        <ele>172</ele>
        <time>2017-08-17T08:44:46Z</time>
      </trkpt>
      <trkpt lat="45.92559" lon="4.76031">
        <ele>172</ele>
        <time>2017-08-17T08:44:47Z</time>
      </trkpt>
      <trkpt lat="45.92564" lon="4.76035">
        <ele>172</ele>
        <time>2017-08-17T08:44:48Z</time>
      </trkpt>
      <trkpt lat="45.92569" lon="4.76039">
        <ele>172</ele>
        <time>2017-08-17T08:44:49Z</time>
      </trkpt>
      <trkpt lat="45.92573" lon="4.76043">
        <ele>171</ele>
        <time>2017-08-17T08:44:50Z</time>
      </trkpt>
      <trkpt lat="45.92578" lon="4.76047">
        <ele>171</ele>
        <time>2017-08-17T08:44:51Z</time>
      </trkpt>
      <trkpt lat="45.92582" lon="4.76051">
        <ele>171</ele>
        <time>2017-08-17T08:44:52Z</time>
      </trkpt>
      <trkpt lat="45.92587" lon="4.76054">
        <ele>171</ele>
        <time>2017-08-17T08:44:53Z</time>
      </trkpt>
      <trkpt lat="45.92592" lon="4.76058">
        <ele>171</ele>
        <time>2017-08-17T08:44:54Z</time>
      </trkpt>
      <trkpt lat="45.92597" lon="4.76061">
        <ele>171</ele>
        <time>2017-08-17T08:44:55Z</time>
      </trkpt>
      <trkpt lat="45.92602" lon="4.76065">
        <ele>171</ele>
        <time>2017-08-17T08:44:56Z</time>
      </trkpt>
      <trkpt lat="45.92607" lon="4.76069">
        <ele>171</ele>
        <time>2017-08-17T08:44:57Z</time>
      </trkpt>
      <trkpt lat="45.92613" lon="4.76073">
        <ele>171</ele>
        <time>2017-08-17T08:44:58Z</time>
      </trkpt>
      <trkpt lat="45.92618" lon="4.76076">
        <ele>171</ele>
        <time>2017-08-17T08:44:59Z</time>
      </trkpt>
      <trkpt lat="45.92624" lon="4.7608">
        <ele>171</ele>
        <time>2017-08-17T08:45:00Z</time>
      </trkpt>
      <trkpt lat="45.9263" lon="4.76084">
        <ele>170</ele>
        <time>2017-08-17T08:45:01Z</time>
      </trkpt>
      <trkpt lat="45.92636" lon="4.76089">
        <ele>170</ele>
        <time>2017-08-17T08:45:02Z</time>
      </trkpt>
      <trkpt lat="45.92642" lon="4.76093">
        <ele>170</ele>
        <time>2017-08-17T08:45:03Z</time>
      </trkpt>
      <trkpt lat="45.92648" lon="4.76097">
        <ele>170</ele>
        <time>2017-08-17T08:45:04Z</time>
      </trkpt>
      <trkpt lat="45.92654" lon="4.76101">
        <ele>170</ele>
        <time>2017-08-17T08:45:05Z</time>
      </trkpt>
      <trkpt lat="45.92661" lon="4.76106">
        <ele>170</ele>
        <time>2017-08-17T08:45:06Z</time>
      </trkpt>
      <trkpt lat="45.92668" lon="4.7611">
        <ele>169</ele>
        <time>2017-08-17T08:45:07Z</time>
      </trkpt>
      <trkpt lat="45.92674" lon="4.76115">
        <ele>169</ele>
        <time>2017-08-17T08:45:08Z</time>
      </trkpt>
      <trkpt lat="45.92681" lon="4.76119">
        <ele>169</ele>
        <time>2017-08-17T08:45:09Z</time>
      </trkpt>
      <trkpt lat="45.92689" lon="4.76124">
        <ele>169</ele>
        <time>2017-08-17T08:45:10Z</time>
      </trkpt>
      <trkpt lat="45.92696" lon="4.76129">
        <ele>169</ele>
        <time>2017-08-17T08:45:11Z</time>
      </trkpt>
      <trkpt lat="45.92703" lon="4.76133">
        <ele>169</ele>
        <time>2017-08-17T08:45:12Z</time>
      </trkpt>
      <trkpt lat="45.92711" lon="4.76138">
        <ele>168</ele>
        <time>2017-08-17T08:45:13Z</time>
      </trkpt>
      <trkpt lat="45.92718" lon="4.76143">
        <ele>168</ele>
        <time>2017-08-17T08:45:14Z</time>
      </trkpt>
      <trkpt lat="45.92726" lon="4.76148">
        <ele>168</ele>
        <time>2017-08-17T08:45:15Z</time>
      </trkpt>
      <trkpt lat="45.92733" lon="4.76154">
        <ele>168</ele>
        <time>2017-08-17T08:45:16Z</time>
      </trkpt>
      <trkpt lat="45.9274" lon="4.76159">
        <ele>168</ele>
        <time>2017-08-17T08:45:17Z</time>
      </trkpt>
      <trkpt lat="45.92747" lon="4.76165">
        <ele>167</ele>
        <time>2017-08-17T08:45:18Z</time>
      </trkpt>
      <trkpt lat="45.92754" lon="4.7617">
        <ele>167</ele>
        <time>2017-08-17T08:45:19Z</time>
      </trkpt>
      <trkpt lat="45.92761" lon="4.76175">
        <ele>167</ele>
        <time>2017-08-17T08:45:20Z</time>
      </trkpt>
      <trkpt lat="45.92767" lon="4.7618">
        <ele>167</ele>
        <time>2017-08-17T08:45:21Z</time>
      </trkpt>
      <trkpt lat="45.92773" lon="4.76185">
        <ele>167</ele>
        <time>2017-08-17T08:45:22Z</time>
      </trkpt>
      <trkpt lat="45.92779" lon="4.7619">
        <ele>168</ele>
        <time>2017-08-17T08:45:23Z</time>
      </trkpt>
      <trkpt lat="45.92784" lon="4.76196">
        <ele>168</ele>
        <time>2017-08-17T08:45:24Z</time>
      </trkpt>
      <trkpt lat="45.9279" lon="4.76201">
        <ele>168</ele>
        <time>2017-08-17T08:45:25Z</time>
      </trkpt>
      <trkpt lat="45.92796" lon="4.76206">
        <ele>168</ele>
        <time>2017-08-17T08:45:26Z</time>
      </trkpt>
      <trkpt lat="45.92801" lon="4.76212">
        <ele>168</ele>
        <time>2017-08-17T08:45:27Z</time>
      </trkpt>
      <trkpt lat="45.92806" lon="4.76218">
        <ele>168</ele>
        <time>2017-08-17T08:45:28Z</time>
      </trkpt>
      <trkpt lat="45.92811" lon="4.76223">
        <ele>168</ele>
        <time>2017-08-17T08:45:29Z</time>
      </trkpt>
      <trkpt lat="45.92816" lon="4.76229">
        <ele>168</ele>
        <time>2017-08-17T08:45:30Z</time>
      </trkpt>
      <trkpt lat="45.92822" lon="4.76234">
        <ele>168</ele>
        <time>2017-08-17T08:45:31Z</time>
      </trkpt>
      <trkpt lat="45.92827" lon="4.76239">
        <ele>168</ele>
        <time>2017-08-17T08:45:32Z</time>
      </trkpt>
      <trkpt lat="45.92832" lon="4.76244">
        <ele>169</ele>
        <time>2017-08-17T08:45:33Z</time>
      </trkpt>
      <trkpt lat="45.92836" lon="4.76248">
        <ele>169</ele>
        <time>2017-08-17T08:45:34Z</time>
      </trkpt>
      <trkpt lat="45.92841" lon="4.76252">
        <ele>169</ele>
        <time>2017-08-17T08:45:35Z</time>
      </trkpt>
      <trkpt lat="45.92845" lon="4.76257">
        <ele>169</ele>
        <time>2017-08-17T08:45:36Z</time>
      </trkpt>
      <trkpt lat="45.92849" lon="4.76261">
        <ele>169</ele>
        <time>2017-08-17T08:45:37Z</time>
      </trkpt>
      <trkpt lat="45.92854" lon="4.76266">
        <ele>169</ele>
        <time>2017-08-17T08:45:38Z</time>
      </trkpt>
      <trkpt lat="45.92859" lon="4.7627">
        <ele>169</ele>
        <time>2017-08-17T08:45:39Z</time>
      </trkpt>
      <trkpt lat="45.92864" lon="4.76276">
        <ele>169</ele>
        <time>2017-08-17T08:45:40Z</time>
      </trkpt>
      <trkpt lat="45.9287" lon="4.76281">
        <ele>169</ele>
        <time>2017-08-17T08:45:41Z</time>
      </trkpt>
      <trkpt lat="45.92876" lon="4.76287">
        <ele>169</ele>
        <time>2017-08-17T08:45:42Z</time>
      </trkpt>
      <trkpt lat="45.92881" lon="4.76292">
        <ele>169</ele>
        <time>2017-08-17T08:45:43Z</time>
      </trkpt>
      <trkpt lat="45.92886" lon="4.76297">
        <ele>169</ele>
        <time>2017-08-17T08:45:44Z</time>
      </trkpt>
      <trkpt lat="45.92891" lon="4.76302">
        <ele>169</ele>
        <time>2017-08-17T08:45:45Z</time>
      </trkpt>
      <trkpt lat="45.92896" lon="4.76308">
        <ele>169</ele>
        <time>2017-08-17T08:45:46Z</time>
      </trkpt>
      <trkpt lat="45.92902" lon="4.76314">
        <ele>169</ele>
        <time>2017-08-17T08:45:47Z</time>
      </trkpt>
      <trkpt lat="45.92906" lon="4.76319">
        <ele>169</ele>
        <time>2017-08-17T08:45:48Z</time>
      </trkpt>
      <trkpt lat="45.92911" lon="4.76324">
        <ele>169</ele>
        <time>2017-08-17T08:45:49Z</time>
      </trkpt>
      <trkpt lat="45.92915" lon="4.76328">
        <ele>169</ele>
        <time>2017-08-17T08:45:50Z</time>
      </trkpt>
      <trkpt lat="45.92919" lon="4.76332">
        <ele>169</ele>
        <time>2017-08-17T08:45:51Z</time>
      </trkpt>
      <trkpt lat="45.92925" lon="4.76337">
        <ele>169</ele>
        <time>2017-08-17T08:45:52Z</time>
      </trkpt>
      <trkpt lat="45.92929" lon="4.76342">
        <ele>169</ele>
        <time>2017-08-17T08:45:53Z</time>
      </trkpt>
      <trkpt lat="45.92934" lon="4.76348">
        <ele>169</ele>
        <time>2017-08-17T08:45:54Z</time>
      </trkpt>
      <trkpt lat="45.92938" lon="4.76352">
        <ele>169</ele>
        <time>2017-08-17T08:45:55Z</time>
      </trkpt>
      <trkpt lat="45.92943" lon="4.76356">
        <ele>169</ele>
        <time>2017-08-17T08:45:56Z</time>
      </trkpt>
      <trkpt lat="45.92948" lon="4.76361">
        <ele>169</ele>
        <time>2017-08-17T08:45:57Z</time>
      </trkpt>
      <trkpt lat="45.92953" lon="4.76366">
        <ele>169</ele>
        <time>2017-08-17T08:45:58Z</time>
      </trkpt>
      <trkpt lat="45.92958" lon="4.76372">
        <ele>169</ele>
        <time>2017-08-17T08:45:59Z</time>
      </trkpt>
      <trkpt lat="45.92963" lon="4.76376">
        <ele>169</ele>
        <time>2017-08-17T08:46:00Z</time>
      </trkpt>
      <trkpt lat="45.92968" lon="4.76381">
        <ele>169</ele>
        <time>2017-08-17T08:46:01Z</time>
      </trkpt>
      <trkpt lat="45.92974" lon="4.76386">
        <ele>169</ele>
        <time>2017-08-17T08:46:02Z</time>
      </trkpt>
      <trkpt lat="45.92978" lon="4.76391">
        <ele>169</ele>
        <time>2017-08-17T08:46:03Z</time>
      </trkpt>
      <trkpt lat="45.92983" lon="4.76396">
        <ele>169</ele>
        <time>2017-08-17T08:46:04Z</time>
      </trkpt>
      <trkpt lat="45.92988" lon="4.76401">
        <ele>169</ele>
        <time>2017-08-17T08:46:05Z</time>
      </trkpt>
      <trkpt lat="45.92992" lon="4.76405">
        <ele>169</ele>
        <time>2017-08-17T08:46:06Z</time>
      </trkpt>
      <trkpt lat="45.92996" lon="4.76409">
        <ele>169</ele>
        <time>2017-08-17T08:46:07Z</time>
      </trkpt>
      <trkpt lat="45.93" lon="4.76413">
        <ele>169</ele>
        <time>2017-08-17T08:46:08Z</time>
      </trkpt>
      <trkpt lat="45.93004" lon="4.76416">
        <ele>169</ele>
        <time>2017-08-17T08:46:09Z</time>
      </trkpt>
      <trkpt lat="45.93009" lon="4.7642">
        <ele>169</ele>
        <time>2017-08-17T08:46:10Z</time>
      </trkpt>
      <trkpt lat="45.93014" lon="4.76424">
        <ele>169</ele>
        <time>2017-08-17T08:46:11Z</time>
      </trkpt>
      <trkpt lat="45.93019" lon="4.76428">
        <ele>169</ele>
        <time>2017-08-17T08:46:12Z</time>
      </trkpt>
      <trkpt lat="45.93023" lon="4.76433">
        <ele>169</ele>
        <time>2017-08-17T08:46:13Z</time>
      </trkpt>
      <trkpt lat="45.93029" lon="4.76439">
        <ele>169</ele>
        <time>2017-08-17T08:46:14Z</time>
      </trkpt>
      <trkpt lat="45.93034" lon="4.76444">
        <ele>169</ele>
        <time>2017-08-17T08:46:15Z</time>
      </trkpt>
      <trkpt lat="45.93039" lon="4.7645">
        <ele>169</ele>
        <time>2017-08-17T08:46:16Z</time>
      </trkpt>
      <trkpt lat="45.93044" lon="4.76455">
        <ele>169</ele>
        <time>2017-08-17T08:46:17Z</time>
      </trkpt>
      <trkpt lat="45.93049" lon="4.7646">
        <ele>169</ele>
        <time>2017-08-17T08:46:18Z</time>
      </trkpt>
      <trkpt lat="45.93054" lon="4.76466">
        <ele>169</ele>
        <time>2017-08-17T08:46:19Z</time>
      </trkpt>
      <trkpt lat="45.93059" lon="4.7647">
        <ele>169</ele>
        <time>2017-08-17T08:46:20Z</time>
      </trkpt>
      <trkpt lat="45.93064" lon="4.76475">
        <ele>169</ele>
        <time>2017-08-17T08:46:21Z</time>
      </trkpt>
      <trkpt lat="45.93069" lon="4.76479">
        <ele>169</ele>
        <time>2017-08-17T08:46:22Z</time>
      </trkpt>
      <trkpt lat="45.93074" lon="4.76484">
        <ele>169</ele>
        <time>2017-08-17T08:46:23Z</time>
      </trkpt>
      <trkpt lat="45.93079" lon="4.76488">
        <ele>170</ele>
        <time>2017-08-17T08:46:24Z</time>
      </trkpt>
      <trkpt lat="45.93083" lon="4.76493">
        <ele>170</ele>
        <time>2017-08-17T08:46:25Z</time>
      </trkpt>
      <trkpt lat="45.93087" lon="4.76497">
        <ele>170</ele>
        <time>2017-08-17T08:46:26Z</time>
      </trkpt>
      <trkpt lat="45.9309" lon="4.76501">
        <ele>170</ele>
        <time>2017-08-17T08:46:27Z</time>
      </trkpt>
      <trkpt lat="45.93094" lon="4.76505">
        <ele>170</ele>
        <time>2017-08-17T08:46:28Z</time>
      </trkpt>
      <trkpt lat="45.93098" lon="4.76509">
        <ele>170</ele>
        <time>2017-08-17T08:46:29Z</time>
      </trkpt>
      <trkpt lat="45.93102" lon="4.76513">
        <ele>170</ele>
        <time>2017-08-17T08:46:30Z</time>
      </trkpt>
      <trkpt lat="45.93106" lon="4.76517">
        <ele>170</ele>
        <time>2017-08-17T08:46:31Z</time>
      </trkpt>
      <trkpt lat="45.9311" lon="4.76521">
        <ele>170</ele>
        <time>2017-08-17T08:46:32Z</time>
      </trkpt>
      <trkpt lat="45.93114" lon="4.76526">
        <ele>170</ele>
        <time>2017-08-17T08:46:33Z</time>
      </trkpt>
      <trkpt lat="45.93119" lon="4.7653">
        <ele>170</ele>
        <time>2017-08-17T08:46:34Z</time>
      </trkpt>
      <trkpt lat="45.93124" lon="4.76534">
        <ele>170</ele>
        <time>2017-08-17T08:46:35Z</time>
      </trkpt>
      <trkpt lat="45.93129" lon="4.76538">
        <ele>170</ele>
        <time>2017-08-17T08:46:36Z</time>
      </trkpt>
      <trkpt lat="45.93134" lon="4.76543">
        <ele>170</ele>
        <time>2017-08-17T08:46:37Z</time>
      </trkpt>
      <trkpt lat="45.93139" lon="4.76548">
        <ele>170</ele>
        <time>2017-08-17T08:46:38Z</time>
      </trkpt>
      <trkpt lat="45.93143" lon="4.76553">
        <ele>170</ele>
        <time>2017-08-17T08:46:39Z</time>
      </trkpt>
      <trkpt lat="45.93147" lon="4.76558">
        <ele>170</ele>
        <time>2017-08-17T08:46:40Z</time>
      </trkpt>
      <trkpt lat="45.93151" lon="4.76562">
        <ele>170</ele>
        <time>2017-08-17T08:46:41Z</time>
      </trkpt>
      <trkpt lat="45.93155" lon="4.76566">
        <ele>170</ele>
        <time>2017-08-17T08:46:42Z</time>
      </trkpt>
      <trkpt lat="45.93158" lon="4.7657">
        <ele>170</ele>
        <time>2017-08-17T08:46:43Z</time>
      </trkpt>
      <trkpt lat="45.93162" lon="4.76573">
        <ele>171</ele>
        <time>2017-08-17T08:46:44Z</time>
      </trkpt>
      <trkpt lat="45.93166" lon="4.76577">
        <ele>171</ele>
        <time>2017-08-17T08:46:45Z</time>
      </trkpt>
      <trkpt lat="45.9317" lon="4.76581">
        <ele>171</ele>
        <time>2017-08-17T08:46:46Z</time>
      </trkpt>
      <trkpt lat="45.93174" lon="4.76585">
        <ele>171</ele>
        <time>2017-08-17T08:46:47Z</time>
      </trkpt>
      <trkpt lat="45.9318" lon="4.76591">
        <ele>171</ele>
        <time>2017-08-17T08:46:48Z</time>
      </trkpt>
      <trkpt lat="45.93185" lon="4.76595">
        <ele>171</ele>
        <time>2017-08-17T08:46:49Z</time>
      </trkpt>
      <trkpt lat="45.9319" lon="4.76599">
        <ele>170</ele>
        <time>2017-08-17T08:46:50Z</time>
      </trkpt>
      <trkpt lat="45.93195" lon="4.76603">
        <ele>170</ele>
        <time>2017-08-17T08:46:51Z</time>
      </trkpt>
      <trkpt lat="45.932" lon="4.76608">
        <ele>170</ele>
        <time>2017-08-17T08:46:52Z</time>
      </trkpt>
      <trkpt lat="45.93205" lon="4.76613">
        <ele>170</ele>
        <time>2017-08-17T08:46:53Z</time>
      </trkpt>
      <trkpt lat="45.9321" lon="4.7662">
        <ele>170</ele>
        <time>2017-08-17T08:46:54Z</time>
      </trkpt>
      <trkpt lat="45.93215" lon="4.76624">
        <ele>170</ele>
        <time>2017-08-17T08:46:55Z</time>
      </trkpt>
      <trkpt lat="45.93221" lon="4.76629">
        <ele>170</ele>
        <time>2017-08-17T08:46:56Z</time>
      </trkpt>
      <trkpt lat="45.93226" lon="4.76635">
        <ele>171</ele>
        <time>2017-08-17T08:46:57Z</time>
      </trkpt>
      <trkpt lat="45.93232" lon="4.7664">
        <ele>171</ele>
        <time>2017-08-17T08:46:58Z</time>
      </trkpt>
      <trkpt lat="45.93236" lon="4.76644">
        <ele>171</ele>
        <time>2017-08-17T08:46:59Z</time>
      </trkpt>
      <trkpt lat="45.93242" lon="4.76649">
        <ele>171</ele>
        <time>2017-08-17T08:47:00Z</time>
      </trkpt>
      <trkpt lat="45.93246" lon="4.76655">
        <ele>171</ele>
        <time>2017-08-17T08:47:01Z</time>
      </trkpt>
      <trkpt lat="45.9325" lon="4.7666">
        <ele>172</ele>
        <time>2017-08-17T08:47:02Z</time>
      </trkpt>
      <trkpt lat="45.93255" lon="4.76665">
        <ele>171</ele>
        <time>2017-08-17T08:47:03Z</time>
      </trkpt>
      <trkpt lat="45.9326" lon="4.7667">
        <ele>172</ele>
        <time>2017-08-17T08:47:04Z</time>
      </trkpt>
      <trkpt lat="45.93266" lon="4.76676">
        <ele>172</ele>
        <time>2017-08-17T08:47:05Z</time>
      </trkpt>
      <trkpt lat="45.93272" lon="4.76681">
        <ele>172</ele>
        <time>2017-08-17T08:47:06Z</time>
      </trkpt>
      <trkpt lat="45.93277" lon="4.76686">
        <ele>172</ele>
        <time>2017-08-17T08:47:07Z</time>
      </trkpt>
      <trkpt lat="45.93281" lon="4.76691">
        <ele>172</ele>
        <time>2017-08-17T08:47:08Z</time>
      </trkpt>
      <trkpt lat="45.93286" lon="4.76696">
        <ele>172</ele>
        <time>2017-08-17T08:47:09Z</time>
      </trkpt>
      <trkpt lat="45.93291" lon="4.76701">
        <ele>172</ele>
        <time>2017-08-17T08:47:10Z</time>
      </trkpt>
      <trkpt lat="45.93296" lon="4.76706">
        <ele>172</ele>
        <time>2017-08-17T08:47:11Z</time>
      </trkpt>
      <trkpt lat="45.93301" lon="4.76709">
        <ele>172</ele>
        <time>2017-08-17T08:47:12Z</time>
      </trkpt>
      <trkpt lat="45.93305" lon="4.76714">
        <ele>172</ele>
        <time>2017-08-17T08:47:13Z</time>
      </trkpt>
      <trkpt lat="45.9331" lon="4.76718">
        <ele>172</ele>
        <time>2017-08-17T08:47:14Z</time>
      </trkpt>
      <trkpt lat="45.93314" lon="4.76722">
        <ele>172</ele>
        <time>2017-08-17T08:47:15Z</time>
      </trkpt>
      <trkpt lat="45.93319" lon="4.76727">
        <ele>172</ele>
        <time>2017-08-17T08:47:16Z</time>
      </trkpt>
      <trkpt lat="45.93323" lon="4.76731">
        <ele>172</ele>
        <time>2017-08-17T08:47:17Z</time>
      </trkpt>
      <trkpt lat="45.93327" lon="4.76734">
        <ele>172</ele>
        <time>2017-08-17T08:47:18Z</time>
      </trkpt>
      <trkpt lat="45.93331" lon="4.76737">
        <ele>172</ele>
        <time>2017-08-17T08:47:19Z</time>
      </trkpt>
      <trkpt lat="45.93336" lon="4.76741">
        <ele>173</ele>
        <time>2017-08-17T08:47:20Z</time>
      </trkpt>
      <trkpt lat="45.9334" lon="4.76746">
        <ele>173</ele>
        <time>2017-08-17T08:47:21Z</time>
      </trkpt>
      <trkpt lat="45.93345" lon="4.76751">
        <ele>173</ele>
        <time>2017-08-17T08:47:22Z</time>
      </trkpt>
      <trkpt lat="45.9335" lon="4.76755">
        <ele>172</ele>
        <time>2017-08-17T08:47:23Z</time>
      </trkpt>
      <trkpt lat="45.93354" lon="4.7676">
        <ele>172</ele>
        <time>2017-08-17T08:47:24Z</time>
      </trkpt>
      <trkpt lat="45.93359" lon="4.76765">
        <ele>172</ele>
        <time>2017-08-17T08:47:25Z</time>
      </trkpt>
      <trkpt lat="45.93364" lon="4.76769">
        <ele>172</ele>
        <time>2017-08-17T08:47:26Z</time>
      </trkpt>
      <trkpt lat="45.9337" lon="4.76774">
        <ele>172</ele>
        <time>2017-08-17T08:47:27Z</time>
      </trkpt>
      <trkpt lat="45.93375" lon="4.76779">
        <ele>172</ele>
        <time>2017-08-17T08:47:28Z</time>
      </trkpt>
      <trkpt lat="45.9338" lon="4.76784">
        <ele>172</ele>
        <time>2017-08-17T08:47:29Z</time>
      </trkpt>
      <trkpt lat="45.93385" lon="4.76789">
        <ele>172</ele>
        <time>2017-08-17T08:47:30Z</time>
      </trkpt>
      <trkpt lat="45.93389" lon="4.76796">
        <ele>172</ele>
        <time>2017-08-17T08:47:31Z</time>
      </trkpt>
      <trkpt lat="45.93393" lon="4.76802">
        <ele>172</ele>
        <time>2017-08-17T08:47:32Z</time>
      </trkpt>
      <trkpt lat="45.93397" lon="4.76808">
        <ele>172</ele>
        <time>2017-08-17T08:47:33Z</time>
      </trkpt>
      <trkpt lat="45.93401" lon="4.76814">
        <ele>172</ele>
        <time>2017-08-17T08:47:34Z</time>
      </trkpt>
      <trkpt lat="45.93405" lon="4.76819">
        <ele>172</ele>
        <time>2017-08-17T08:47:35Z</time>
      </trkpt>
      <trkpt lat="45.93408" lon="4.76824">
        <ele>172</ele>
        <time>2017-08-17T08:47:36Z</time>
      </trkpt>
      <trkpt lat="45.93411" lon="4.7683">
        <ele>172</ele>
        <time>2017-08-17T08:47:37Z</time>
      </trkpt>
      <trkpt lat="45.93414" lon="4.76836">
        <ele>172</ele>
        <time>2017-08-17T08:47:38Z</time>
      </trkpt>
      <trkpt lat="45.93417" lon="4.76842">
        <ele>172</ele>
        <time>2017-08-17T08:47:39Z</time>
      </trkpt>
      <trkpt lat="45.9342" lon="4.76848">
        <ele>171</ele>
        <time>2017-08-17T08:47:40Z</time>
      </trkpt>
      <trkpt lat="45.93423" lon="4.76854">
        <ele>171</ele>
        <time>2017-08-17T08:47:41Z</time>
      </trkpt>
      <trkpt lat="45.93426" lon="4.76861">
        <ele>171</ele>
        <time>2017-08-17T08:47:42Z</time>
      </trkpt>
      <trkpt lat="45.93428" lon="4.76868">
        <ele>171</ele>
        <time>2017-08-17T08:47:43Z</time>
      </trkpt>
      <trkpt lat="45.93431" lon="4.76875">
        <ele>171</ele>
        <time>2017-08-17T08:47:44Z</time>
      </trkpt>
      <trkpt lat="45.93433" lon="4.76882">
        <ele>171</ele>
        <time>2017-08-17T08:47:45Z</time>
      </trkpt>
      <trkpt lat="45.93436" lon="4.7689">
        <ele>171</ele>
        <time>2017-08-17T08:47:46Z</time>
      </trkpt>
      <trkpt lat="45.93439" lon="4.76898">
        <ele>170</ele>
        <time>2017-08-17T08:47:47Z</time>
      </trkpt>
      <trkpt lat="45.93441" lon="4.76906">
        <ele>170</ele>
        <time>2017-08-17T08:47:48Z</time>
      </trkpt>
      <trkpt lat="45.93443" lon="4.76914">
        <ele>170</ele>
        <time>2017-08-17T08:47:49Z</time>
      </trkpt>
      <trkpt lat="45.93445" lon="4.76922">
        <ele>170</ele>
        <time>2017-08-17T08:47:50Z</time>
      </trkpt>
      <trkpt lat="45.93447" lon="4.7693">
        <ele>170</ele>
        <time>2017-08-17T08:47:51Z</time>
      </trkpt>
      <trkpt lat="45.93448" lon="4.76937">
        <ele>170</ele>
        <time>2017-08-17T08:47:52Z</time>
      </trkpt>
      <trkpt lat="45.93449" lon="4.76945">
        <ele>170</ele>
        <time>2017-08-17T08:47:53Z</time>
      </trkpt>
      <trkpt lat="45.9345" lon="4.76952">
        <ele>170</ele>
        <time>2017-08-17T08:47:54Z</time>
      </trkpt>
      <trkpt lat="45.93451" lon="4.7696">
        <ele>170</ele>
        <time>2017-08-17T08:47:55Z</time>
      </trkpt>
      <trkpt lat="45.93453" lon="4.76967">
        <ele>170</ele>
        <time>2017-08-17T08:47:56Z</time>
      </trkpt>
      <trkpt lat="45.93454" lon="4.76974">
        <ele>170</ele>
        <time>2017-08-17T08:47:57Z</time>
      </trkpt>
      <trkpt lat="45.93456" lon="4.7698">
        <ele>170</ele>
        <time>2017-08-17T08:47:58Z</time>
      </trkpt>
      <trkpt lat="45.93457" lon="4.76988">
        <ele>170</ele>
        <time>2017-08-17T08:47:59Z</time>
      </trkpt>
      <trkpt lat="45.93458" lon="4.76996">
        <ele>170</ele>
        <time>2017-08-17T08:48:00Z</time>
      </trkpt>
      <trkpt lat="45.93459" lon="4.77004">
        <ele>170</ele>
        <time>2017-08-17T08:48:01Z</time>
      </trkpt>
      <trkpt lat="45.93461" lon="4.77012">
        <ele>170</ele>
        <time>2017-08-17T08:48:02Z</time>
      </trkpt>
      <trkpt lat="45.93463" lon="4.7702">
        <ele>170</ele>
        <time>2017-08-17T08:48:03Z</time>
      </trkpt>
      <trkpt lat="45.93464" lon="4.77028">
        <ele>170</ele>
        <time>2017-08-17T08:48:04Z</time>
      </trkpt>
      <trkpt lat="45.93465" lon="4.77036">
        <ele>170</ele>
        <time>2017-08-17T08:48:05Z</time>
      </trkpt>
      <trkpt lat="45.93467" lon="4.77044">
        <ele>170</ele>
        <time>2017-08-17T08:48:06Z</time>
      </trkpt>
      <trkpt lat="45.93469" lon="4.77053">
        <ele>170</ele>
        <time>2017-08-17T08:48:07Z</time>
      </trkpt>
      <trkpt lat="45.9347" lon="4.77061">
        <ele>170</ele>
        <time>2017-08-17T08:48:08Z</time>
      </trkpt>
      <trkpt lat="45.93471" lon="4.77068">
        <ele>170</ele>
        <time>2017-08-17T08:48:09Z</time>
      </trkpt>
      <trkpt lat="45.93472" lon="4.77076">
        <ele>170</ele>
        <time>2017-08-17T08:48:10Z</time>
      </trkpt>
      <trkpt lat="45.93473" lon="4.77083">
        <ele>170</ele>
        <time>2017-08-17T08:48:11Z</time>
      </trkpt>
      <trkpt lat="45.93474" lon="4.7709">
        <ele>169</ele>
        <time>2017-08-17T08:48:12Z</time>
      </trkpt>
      <trkpt lat="45.93476" lon="4.77098">
        <ele>169</ele>
        <time>2017-08-17T08:48:13Z</time>
      </trkpt>
      <trkpt lat="45.93477" lon="4.77105">
        <ele>169</ele>
        <time>2017-08-17T08:48:14Z</time>
      </trkpt>
      <trkpt lat="45.93478" lon="4.77112">
        <ele>169</ele>
        <time>2017-08-17T08:48:15Z</time>
      </trkpt>
      <trkpt lat="45.93479" lon="4.77119">
        <ele>169</ele>
        <time>2017-08-17T08:48:16Z</time>
      </trkpt>
      <trkpt lat="45.9348" lon="4.77126">
        <ele>169</ele>
        <time>2017-08-17T08:48:17Z</time>
      </trkpt>
      <trkpt lat="45.93481" lon="4.77133">
        <ele>169</ele>
        <time>2017-08-17T08:48:18Z</time>
      </trkpt>
      <trkpt lat="45.93482" lon="4.77141">
        <ele>169</ele>
        <time>2017-08-17T08:48:19Z</time>
      </trkpt>
      <trkpt lat="45.93484" lon="4.77148">
        <ele>169</ele>
        <time>2017-08-17T08:48:20Z</time>
      </trkpt>
      <trkpt lat="45.93485" lon="4.77156">
        <ele>169</ele>
        <time>2017-08-17T08:48:21Z</time>
      </trkpt>
      <trkpt lat="45.93487" lon="4.77164">
        <ele>169</ele>
        <time>2017-08-17T08:48:22Z</time>
      </trkpt>
      <trkpt lat="45.93488" lon="4.77172">
        <ele>169</ele>
        <time>2017-08-17T08:48:23Z</time>
      </trkpt>
      <trkpt lat="45.9349" lon="4.7718">
        <ele>169</ele>
        <time>2017-08-17T08:48:24Z</time>
      </trkpt>
      <trkpt lat="45.93492" lon="4.77188">
        <ele>169</ele>
        <time>2017-08-17T08:48:25Z</time>
      </trkpt>
      <trkpt lat="45.93493" lon="4.77195">
        <ele>169</ele>
        <time>2017-08-17T08:48:26Z</time>
      </trkpt>
      <trkpt lat="45.93495" lon="4.77202">
        <ele>169</ele>
        <time>2017-08-17T08:48:27Z</time>
      </trkpt>
      <trkpt lat="45.93497" lon="4.77209">
        <ele>169</ele>
        <time>2017-08-17T08:48:28Z</time>
      </trkpt>
      <trkpt lat="45.93499" lon="4.77216">
        <ele>169</ele>
        <time>2017-08-17T08:48:29Z</time>
      </trkpt>
      <trkpt lat="45.93501" lon="4.77223">
        <ele>169</ele>
        <time>2017-08-17T08:48:30Z</time>
      </trkpt>
      <trkpt lat="45.93502" lon="4.7723">
        <ele>169</ele>
        <time>2017-08-17T08:48:31Z</time>
      </trkpt>
      <trkpt lat="45.93504" lon="4.77236">
        <ele>169</ele>
        <time>2017-08-17T08:48:32Z</time>
      </trkpt>
      <trkpt lat="45.93505" lon="4.77243">
        <ele>170</ele>
        <time>2017-08-17T08:48:33Z</time>
      </trkpt>
      <trkpt lat="45.93506" lon="4.77249">
        <ele>170</ele>
        <time>2017-08-17T08:48:34Z</time>
      </trkpt>
      <trkpt lat="45.93508" lon="4.77255">
        <ele>170</ele>
        <time>2017-08-17T08:48:35Z</time>
      </trkpt>
      <trkpt lat="45.93509" lon="4.77262">
        <ele>170</ele>
        <time>2017-08-17T08:48:36Z</time>
      </trkpt>
      <trkpt lat="45.93511" lon="4.7727">
        <ele>170</ele>
        <time>2017-08-17T08:48:37Z</time>
      </trkpt>
      <trkpt lat="45.93513" lon="4.77277">
        <ele>170</ele>
        <time>2017-08-17T08:48:38Z</time>
      </trkpt>
      <trkpt lat="45.93514" lon="4.77285">
        <ele>170</ele>
        <time>2017-08-17T08:48:39Z</time>
      </trkpt>
      <trkpt lat="45.93516" lon="4.77293">
        <ele>170</ele>
        <time>2017-08-17T08:48:40Z</time>
      </trkpt>
      <trkpt lat="45.93518" lon="4.77302">
        <ele>170</ele>
        <time>2017-08-17T08:48:41Z</time>
      </trkpt>
      <trkpt lat="45.93519" lon="4.7731">
        <ele>170</ele>
        <time>2017-08-17T08:48:42Z</time>
      </trkpt>
      <trkpt lat="45.93521" lon="4.77318">
        <ele>170</ele>
        <time>2017-08-17T08:48:43Z</time>
      </trkpt>
      <trkpt lat="45.93523" lon="4.77326">
        <ele>170</ele>
        <time>2017-08-17T08:48:44Z</time>
      </trkpt>
      <trkpt lat="45.93524" lon="4.77334">
        <ele>170</ele>
        <time>2017-08-17T08:48:45Z</time>
      </trkpt>
      <trkpt lat="45.93526" lon="4.77342">
        <ele>170</ele>
        <time>2017-08-17T08:48:46Z</time>
      </trkpt>
      <trkpt lat="45.93527" lon="4.7735">
        <ele>170</ele>
        <time>2017-08-17T08:48:47Z</time>
      </trkpt>
      <trkpt lat="45.93529" lon="4.77357">
        <ele>170</ele>
        <time>2017-08-17T08:48:48Z</time>
      </trkpt>
      <trkpt lat="45.9353" lon="4.77365">
        <ele>170</ele>
        <time>2017-08-17T08:48:49Z</time>
      </trkpt>
      <trkpt lat="45.93531" lon="4.77372">
        <ele>170</ele>
        <time>2017-08-17T08:48:50Z</time>
      </trkpt>
      <trkpt lat="45.93532" lon="4.77379">
        <ele>170</ele>
        <time>2017-08-17T08:48:51Z</time>
      </trkpt>
      <trkpt lat="45.93534" lon="4.77386">
        <ele>170</ele>
        <time>2017-08-17T08:48:52Z</time>
      </trkpt>
      <trkpt lat="45.93535" lon="4.77393">
        <ele>170</ele>
        <time>2017-08-17T08:48:53Z</time>
      </trkpt>
      <trkpt lat="45.93537" lon="4.774">
        <ele>170</ele>
        <time>2017-08-17T08:48:54Z</time>
      </trkpt>
      <trkpt lat="45.93539" lon="4.77407">
        <ele>170</ele>
        <time>2017-08-17T08:48:55Z</time>
      </trkpt>
      <trkpt lat="45.93541" lon="4.77415">
        <ele>170</ele>
        <time>2017-08-17T08:48:56Z</time>
      </trkpt>
      <trkpt lat="45.93543" lon="4.77423">
        <ele>170</ele>
        <time>2017-08-17T08:48:57Z</time>
      </trkpt>
      <trkpt lat="45.93545" lon="4.7743">
        <ele>169</ele>
        <time>2017-08-17T08:48:58Z</time>
      </trkpt>
      <trkpt lat="45.93548" lon="4.77438">
        <ele>169</ele>
        <time>2017-08-17T08:48:59Z</time>
      </trkpt>
      <trkpt lat="45.9355" lon="4.77446">
        <ele>169</ele>
        <time>2017-08-17T08:49:00Z</time>
      </trkpt>
      <trkpt lat="45.93551" lon="4.77454">
        <ele>169</ele>
        <time>2017-08-17T08:49:01Z</time>
      </trkpt>
      <trkpt lat="45.93553" lon="4.77463">
        <ele>169</ele>
        <time>2017-08-17T08:49:02Z</time>
      </trkpt>
      <trkpt lat="45.93556" lon="4.77472">
        <ele>169</ele>
        <time>2017-08-17T08:49:03Z</time>
      </trkpt>
      <trkpt lat="45.93558" lon="4.77479">
        <ele>169</ele>
        <time>2017-08-17T08:49:04Z</time>
      </trkpt>
      <trkpt lat="45.93559" lon="4.77487">
        <ele>169</ele>
        <time>2017-08-17T08:49:05Z</time>
      </trkpt>
      <trkpt lat="45.93561" lon="4.77495">
        <ele>169</ele>
        <time>2017-08-17T08:49:06Z</time>
      </trkpt>
      <trkpt lat="45.93563" lon="4.77502">
        <ele>169</ele>
        <time>2017-08-17T08:49:07Z</time>
      </trkpt>
      <trkpt lat="45.93565" lon="4.77509">
        <ele>169</ele>
        <time>2017-08-17T08:49:08Z</time>
      </trkpt>
      <trkpt lat="45.93566" lon="4.77516">
        <ele>169</ele>
        <time>2017-08-17T08:49:09Z</time>
      </trkpt>
      <trkpt lat="45.93568" lon="4.77522">
        <ele>169</ele>
        <time>2017-08-17T08:49:10Z</time>
      </trkpt>
      <trkpt lat="45.93569" lon="4.77529">
        <ele>169</ele>
        <time>2017-08-17T08:49:11Z</time>
      </trkpt>
      <trkpt lat="45.93571" lon="4.77536">
        <ele>169</ele>
        <time>2017-08-17T08:49:12Z</time>
      </trkpt>
      <trkpt lat="45.93573" lon="4.77543">
        <ele>169</ele>
        <time>2017-08-17T08:49:13Z</time>
      </trkpt>
      <trkpt lat="45.93575" lon="4.7755">
        <ele>169</ele>
        <time>2017-08-17T08:49:14Z</time>
      </trkpt>
      <trkpt lat="45.93577" lon="4.77557">
        <ele>169</ele>
        <time>2017-08-17T08:49:15Z</time>
      </trkpt>
      <trkpt lat="45.93579" lon="4.77565">
        <ele>169</ele>
        <time>2017-08-17T08:49:16Z</time>
      </trkpt>
      <trkpt lat="45.93581" lon="4.77573">
        <ele>170</ele>
        <time>2017-08-17T08:49:17Z</time>
      </trkpt>
      <trkpt lat="45.93584" lon="4.77581">
        <ele>170</ele>
        <time>2017-08-17T08:49:18Z</time>
      </trkpt>
      <trkpt lat="45.93586" lon="4.77589">
        <ele>170</ele>
        <time>2017-08-17T08:49:19Z</time>
      </trkpt>
      <trkpt lat="45.93589" lon="4.77597">
        <ele>170</ele>
        <time>2017-08-17T08:49:20Z</time>
      </trkpt>
      <trkpt lat="45.93592" lon="4.77605">
        <ele>170</ele>
        <time>2017-08-17T08:49:21Z</time>
      </trkpt>
      <trkpt lat="45.93594" lon="4.77613">
        <ele>170</ele>
        <time>2017-08-17T08:49:22Z</time>
      </trkpt>
      <trkpt lat="45.93597" lon="4.7762">
        <ele>170</ele>
        <time>2017-08-17T08:49:23Z</time>
      </trkpt>
      <trkpt lat="45.936" lon="4.77628">
        <ele>169</ele>
        <time>2017-08-17T08:49:24Z</time>
      </trkpt>
      <trkpt lat="45.93602" lon="4.77635">
        <ele>169</ele>
        <time>2017-08-17T08:49:25Z</time>
      </trkpt>
      <trkpt lat="45.93605" lon="4.77642">
        <ele>169</ele>
        <time>2017-08-17T08:49:26Z</time>
      </trkpt>
      <trkpt lat="45.93608" lon="4.77649">
        <ele>169</ele>
        <time>2017-08-17T08:49:27Z</time>
      </trkpt>
      <trkpt lat="45.93611" lon="4.77655">
        <ele>169</ele>
        <time>2017-08-17T08:49:28Z</time>
      </trkpt>
      <trkpt lat="45.93614" lon="4.77662">
        <ele>169</ele>
        <time>2017-08-17T08:49:29Z</time>
      </trkpt>
      <trkpt lat="45.93619" lon="4.77672">
        <ele>169</ele>
        <time>2017-08-17T08:49:31Z</time>
      </trkpt>
      <trkpt lat="45.93621" lon="4.77678">
        <ele>169</ele>
        <time>2017-08-17T08:49:32Z</time>
      </trkpt>
      <trkpt lat="45.93624" lon="4.77684">
        <ele>169</ele>
        <time>2017-08-17T08:49:33Z</time>
      </trkpt>
      <trkpt lat="45.93627" lon="4.77691">
        <ele>169</ele>
        <time>2017-08-17T08:49:34Z</time>
      </trkpt>
      <trkpt lat="45.93629" lon="4.77697">
        <ele>169</ele>
        <time>2017-08-17T08:49:35Z</time>
      </trkpt>
      <trkpt lat="45.93632" lon="4.77702">
        <ele>169</ele>
        <time>2017-08-17T08:49:36Z</time>
      </trkpt>
      <trkpt lat="45.93635" lon="4.77708">
        <ele>170</ele>
        <time>2017-08-17T08:49:37Z</time>
      </trkpt>
      <trkpt lat="45.93638" lon="4.77714">
        <ele>170</ele>
        <time>2017-08-17T08:49:38Z</time>
      </trkpt>
      <trkpt lat="45.93641" lon="4.7772">
        <ele>170</ele>
        <time>2017-08-17T08:49:39Z</time>
      </trkpt>
      <trkpt lat="45.93645" lon="4.77725">
        <ele>170</ele>
        <time>2017-08-17T08:49:40Z</time>
      </trkpt>
      <trkpt lat="45.93648" lon="4.77731">
        <ele>170</ele>
        <time>2017-08-17T08:49:41Z</time>
      </trkpt>
      <trkpt lat="45.93651" lon="4.77736">
        <ele>170</ele>
        <time>2017-08-17T08:49:42Z</time>
      </trkpt>
      <trkpt lat="45.93654" lon="4.77741">
        <ele>170</ele>
        <time>2017-08-17T08:49:43Z</time>
      </trkpt>
      <trkpt lat="45.93658" lon="4.77746">
        <ele>170</ele>
        <time>2017-08-17T08:49:44Z</time>
      </trkpt>
      <trkpt lat="45.93661" lon="4.77751">
        <ele>171</ele>
        <time>2017-08-17T08:49:45Z</time>
      </trkpt>
      <trkpt lat="45.93664" lon="4.77756">
        <ele>171</ele>
        <time>2017-08-17T08:49:46Z</time>
      </trkpt>
      <trkpt lat="45.9367" lon="4.77766">
        <ele>170</ele>
        <time>2017-08-17T08:49:48Z</time>
      </trkpt>
      <trkpt lat="45.93673" lon="4.77771">
        <ele>170</ele>
        <time>2017-08-17T08:49:49Z</time>
      </trkpt>
      <trkpt lat="45.93677" lon="4.77776">
        <ele>170</ele>
        <time>2017-08-17T08:49:50Z</time>
      </trkpt>
      <trkpt lat="45.9368" lon="4.77781">
        <ele>170</ele>
        <time>2017-08-17T08:49:51Z</time>
      </trkpt>
      <trkpt lat="45.93684" lon="4.77786">
        <ele>170</ele>
        <time>2017-08-17T08:49:52Z</time>
      </trkpt>
      <trkpt lat="45.93687" lon="4.77791">
        <ele>170</ele>
        <time>2017-08-17T08:49:53Z</time>
      </trkpt>
      <trkpt lat="45.93691" lon="4.77796">
        <ele>169</ele>
        <time>2017-08-17T08:49:54Z</time>
      </trkpt>
      <trkpt lat="45.93695" lon="4.77801">
        <ele>169</ele>
        <time>2017-08-17T08:49:55Z</time>
      </trkpt>
      <trkpt lat="45.93699" lon="4.77805">
        <ele>169</ele>
        <time>2017-08-17T08:49:56Z</time>
      </trkpt>
      <trkpt lat="45.93703" lon="4.7781">
        <ele>169</ele>
        <time>2017-08-17T08:49:57Z</time>
      </trkpt>
      <trkpt lat="45.93706" lon="4.77815">
        <ele>169</ele>
        <time>2017-08-17T08:49:58Z</time>
      </trkpt>
      <trkpt lat="45.9371" lon="4.7782">
        <ele>169</ele>
        <time>2017-08-17T08:49:59Z</time>
      </trkpt>
      <trkpt lat="45.93714" lon="4.77826">
        <ele>169</ele>
        <time>2017-08-17T08:50:00Z</time>
      </trkpt>
      <trkpt lat="45.93718" lon="4.77831">
        <ele>168</ele>
        <time>2017-08-17T08:50:01Z</time>
      </trkpt>
      <trkpt lat="45.93723" lon="4.77836">
        <ele>167</ele>
        <time>2017-08-17T08:50:02Z</time>
      </trkpt>
      <trkpt lat="45.93726" lon="4.7784">
        <ele>167</ele>
        <time>2017-08-17T08:50:03Z</time>
      </trkpt>
      <trkpt lat="45.9373" lon="4.77844">
        <ele>167</ele>
        <time>2017-08-17T08:50:04Z</time>
      </trkpt>
      <trkpt lat="45.93734" lon="4.7785">
        <ele>167</ele>
        <time>2017-08-17T08:50:05Z</time>
      </trkpt>
      <trkpt lat="45.93738" lon="4.77855">
        <ele>167</ele>
        <time>2017-08-17T08:50:06Z</time>
      </trkpt>
      <trkpt lat="45.93742" lon="4.77859">
        <ele>167</ele>
        <time>2017-08-17T08:50:07Z</time>
      </trkpt>
      <trkpt lat="45.93745" lon="4.77864">
        <ele>167</ele>
        <time>2017-08-17T08:50:08Z</time>
      </trkpt>
      <trkpt lat="45.93749" lon="4.77868">
        <ele>167</ele>
        <time>2017-08-17T08:50:09Z</time>
      </trkpt>
      <trkpt lat="45.93752" lon="4.77873">
        <ele>166</ele>
        <time>2017-08-17T08:50:10Z</time>
      </trkpt>
      <trkpt lat="45.93756" lon="4.77878">
        <ele>166</ele>
        <time>2017-08-17T08:50:11Z</time>
      </trkpt>
      <trkpt lat="45.93759" lon="4.77882">
        <ele>166</ele>
        <time>2017-08-17T08:50:12Z</time>
      </trkpt>
      <trkpt lat="45.93763" lon="4.77887">
        <ele>166</ele>
        <time>2017-08-17T08:50:13Z</time>
      </trkpt>
      <trkpt lat="45.93767" lon="4.77892">
        <ele>166</ele>
        <time>2017-08-17T08:50:14Z</time>
      </trkpt>
      <trkpt lat="45.9377" lon="4.77896">
        <ele>166</ele>
        <time>2017-08-17T08:50:15Z</time>
      </trkpt>
      <trkpt lat="45.93777" lon="4.77904">
        <ele>166</ele>
        <time>2017-08-17T08:50:17Z</time>
      </trkpt>
      <trkpt lat="45.9378" lon="4.77907">
        <ele>166</ele>
        <time>2017-08-17T08:50:18Z</time>
      </trkpt>
      <trkpt lat="45.93786" lon="4.77916">
        <ele>166</ele>
        <time>2017-08-17T08:50:20Z</time>
      </trkpt>
      <trkpt lat="45.93789" lon="4.77921">
        <ele>168</ele>
        <time>2017-08-17T08:50:21Z</time>
      </trkpt>
      <trkpt lat="45.93796" lon="4.7793">
        <ele>168</ele>
        <time>2017-08-17T08:50:23Z</time>
      </trkpt>
      <trkpt lat="45.93799" lon="4.77934">
        <ele>168</ele>
        <time>2017-08-17T08:50:24Z</time>
      </trkpt>
      <trkpt lat="45.93802" lon="4.77938">
        <ele>169</ele>
        <time>2017-08-17T08:50:25Z</time>
      </trkpt>
      <trkpt lat="45.93806" lon="4.77942">
        <ele>169</ele>
        <time>2017-08-17T08:50:26Z</time>
      </trkpt>
      <trkpt lat="45.9381" lon="4.77947">
        <ele>169</ele>
        <time>2017-08-17T08:50:27Z</time>
      </trkpt>
      <trkpt lat="45.93813" lon="4.77952">
        <ele>170</ele>
        <time>2017-08-17T08:50:28Z</time>
      </trkpt>
      <trkpt lat="45.93817" lon="4.77957">
        <ele>170</ele>
        <time>2017-08-17T08:50:29Z</time>
      </trkpt>
      <trkpt lat="45.9382" lon="4.77962">
        <ele>171</ele>
        <time>2017-08-17T08:50:30Z</time>
      </trkpt>
      <trkpt lat="45.93824" lon="4.77967">
        <ele>171</ele>
        <time>2017-08-17T08:50:31Z</time>
      </trkpt>
      <trkpt lat="45.93828" lon="4.77973">
        <ele>172</ele>
        <time>2017-08-17T08:50:32Z</time>
      </trkpt>
      <trkpt lat="45.93831" lon="4.77978">
        <ele>173</ele>
        <time>2017-08-17T08:50:33Z</time>
      </trkpt>
      <trkpt lat="45.93835" lon="4.77984">
        <ele>178</ele>
        <time>2017-08-17T08:50:34Z</time>
      </trkpt>
      <trkpt lat="45.93839" lon="4.77991">
        <ele>179</ele>
        <time>2017-08-17T08:50:35Z</time>
      </trkpt>
      <trkpt lat="45.93841" lon="4.77997">
        <ele>179</ele>
        <time>2017-08-17T08:50:36Z</time>
      </trkpt>
      <trkpt lat="45.93841" lon="4.78009">
        <ele>181</ele>
        <time>2017-08-17T08:50:38Z</time>
      </trkpt>
      <trkpt lat="45.9384" lon="4.78016">
        <ele>181</ele>
        <time>2017-08-17T08:50:39Z</time>
      </trkpt>
      <trkpt lat="45.93841" lon="4.78023">
        <ele>182</ele>
        <time>2017-08-17T08:50:40Z</time>
      </trkpt>
      <trkpt lat="45.93843" lon="4.78029">
        <ele>182</ele>
        <time>2017-08-17T08:50:41Z</time>
      </trkpt>
      <trkpt lat="45.93846" lon="4.78039">
        <ele>182</ele>
        <time>2017-08-17T08:50:43Z</time>
      </trkpt>
      <trkpt lat="45.93847" lon="4.78044">
        <ele>182</ele>
        <time>2017-08-17T08:50:44Z</time>
      </trkpt>
      <trkpt lat="45.93845" lon="4.78051">
        <ele>182</ele>
        <time>2017-08-17T08:50:45Z</time>
      </trkpt>
      <trkpt lat="45.93844" lon="4.78057">
        <ele>182</ele>
        <time>2017-08-17T08:50:46Z</time>
      </trkpt>
      <trkpt lat="45.93842" lon="4.78063">
        <ele>182</ele>
        <time>2017-08-17T08:50:47Z</time>
      </trkpt>
      <trkpt lat="45.9384" lon="4.7807">
        <ele>182</ele>
        <time>2017-08-17T08:50:48Z</time>
      </trkpt>
      <trkpt lat="45.93839" lon="4.78077">
        <ele>181</ele>
        <time>2017-08-17T08:50:49Z</time>
      </trkpt>
      <trkpt lat="45.93837" lon="4.78085">
        <ele>181</ele>
        <time>2017-08-17T08:50:50Z</time>
      </trkpt>
      <trkpt lat="45.93835" lon="4.78092">
        <ele>182</ele>
        <time>2017-08-17T08:50:51Z</time>
      </trkpt>
      <trkpt lat="45.93833" lon="4.781">
        <ele>180</ele>
        <time>2017-08-17T08:50:52Z</time>
      </trkpt>
      <trkpt lat="45.93832" lon="4.78107">
        <ele>179</ele>
        <time>2017-08-17T08:50:53Z</time>
      </trkpt>
      <trkpt lat="45.9383" lon="4.78115">
        <ele>179</ele>
        <time>2017-08-17T08:50:54Z</time>
      </trkpt>
      <trkpt lat="45.93829" lon="4.78122">
        <ele>180</ele>
        <time>2017-08-17T08:50:55Z</time>
      </trkpt>
      <trkpt lat="45.93827" lon="4.78129">
        <ele>180</ele>
        <time>2017-08-17T08:50:56Z</time>
      </trkpt>
      <trkpt lat="45.93824" lon="4.78135">
        <ele>180</ele>
        <time>2017-08-17T08:50:57Z</time>
      </trkpt>
      <trkpt lat="45.93823" lon="4.78141">
        <ele>180</ele>
        <time>2017-08-17T08:50:58Z</time>
      </trkpt>
      <trkpt lat="45.93821" lon="4.78147">
        <ele>180</ele>
        <time>2017-08-17T08:50:59Z</time>
      </trkpt>
      <trkpt lat="45.9382" lon="4.78153">
        <ele>180</ele>
        <time>2017-08-17T08:51:00Z</time>
      </trkpt>
      <trkpt lat="45.93819" lon="4.7816">
        <ele>180</ele>
        <time>2017-08-17T08:51:01Z</time>
      </trkpt>
      <trkpt lat="45.93818" lon="4.78167">
        <ele>182</ele>
        <time>2017-08-17T08:51:02Z</time>
      </trkpt>
      <trkpt lat="45.93816" lon="4.78174">
        <ele>182</ele>
        <time>2017-08-17T08:51:03Z</time>
      </trkpt>
      <trkpt lat="45.93815" lon="4.7818">
        <ele>182</ele>
        <time>2017-08-17T08:51:04Z</time>
      </trkpt>
      <trkpt lat="45.93813" lon="4.78187">
        <ele>182</ele>
        <time>2017-08-17T08:51:05Z</time>
      </trkpt>
      <trkpt lat="45.93812" lon="4.78194">
        <ele>182</ele>
        <time>2017-08-17T08:51:06Z</time>
      </trkpt>
      <trkpt lat="45.9381" lon="4.78201">
        <ele>182</ele>
        <time>2017-08-17T08:51:07Z</time>
      </trkpt>
      <trkpt lat="45.93808" lon="4.78208">
        <ele>182</ele>
        <time>2017-08-17T08:51:08Z</time>
      </trkpt>
      <trkpt lat="45.93806" lon="4.78215">
        <ele>182</ele>
        <time>2017-08-17T08:51:09Z</time>
      </trkpt>
      <trkpt lat="45.93804" lon="4.78222">
        <ele>182</ele>
        <time>2017-08-17T08:51:10Z</time>
      </trkpt>
      <trkpt lat="45.93801" lon="4.78227">
        <ele>182</ele>
        <time>2017-08-17T08:51:11Z</time>
      </trkpt>
      <trkpt lat="45.93798" lon="4.78232">
        <ele>182</ele>
        <time>2017-08-17T08:51:12Z</time>
      </trkpt>
      <trkpt lat="45.93795" lon="4.78237">
        <ele>182</ele>
        <time>2017-08-17T08:51:13Z</time>
      </trkpt>
      <trkpt lat="45.93793" lon="4.78243">
        <ele>182</ele>
        <time>2017-08-17T08:51:14Z</time>
      </trkpt>
      <trkpt lat="45.93791" lon="4.7825">
        <ele>182</ele>
        <time>2017-08-17T08:51:15Z</time>
      </trkpt>
      <trkpt lat="45.93791" lon="4.78257">
        <ele>183</ele>
        <time>2017-08-17T08:51:16Z</time>
      </trkpt>
      <trkpt lat="45.93789" lon="4.7827">
        <ele>183</ele>
        <time>2017-08-17T08:51:18Z</time>
      </trkpt>
      <trkpt lat="45.93787" lon="4.78276">
        <ele>183</ele>
        <time>2017-08-17T08:51:19Z</time>
      </trkpt>
      <trkpt lat="45.93783" lon="4.78287">
        <ele>183</ele>
        <time>2017-08-17T08:51:21Z</time>
      </trkpt>
      <trkpt lat="45.93781" lon="4.78292">
        <ele>183</ele>
        <time>2017-08-17T08:51:22Z</time>
      </trkpt>
      <trkpt lat="45.93779" lon="4.78298">
        <ele>183</ele>
        <time>2017-08-17T08:51:23Z</time>
      </trkpt>
      <trkpt lat="45.93776" lon="4.78304">
        <ele>183</ele>
        <time>2017-08-17T08:51:24Z</time>
      </trkpt>
      <trkpt lat="45.93774" lon="4.78311">
        <ele>183</ele>
        <time>2017-08-17T08:51:25Z</time>
      </trkpt>
      <trkpt lat="45.93772" lon="4.78317">
        <ele>183</ele>
        <time>2017-08-17T08:51:26Z</time>
      </trkpt>
      <trkpt lat="45.93769" lon="4.78324">
        <ele>183</ele>
        <time>2017-08-17T08:51:27Z</time>
      </trkpt>
      <trkpt lat="45.93767" lon="4.78331">
        <ele>183</ele>
        <time>2017-08-17T08:51:28Z</time>
      </trkpt>
      <trkpt lat="45.93766" lon="4.78338">
        <ele>183</ele>
        <time>2017-08-17T08:51:29Z</time>
      </trkpt>
      <trkpt lat="45.93764" lon="4.78345">
        <ele>183</ele>
        <time>2017-08-17T08:51:30Z</time>
      </trkpt>
      <trkpt lat="45.93762" lon="4.78351">
        <ele>183</ele>
        <time>2017-08-17T08:51:31Z</time>
      </trkpt>
      <trkpt lat="45.9376" lon="4.78358">
        <ele>183</ele>
        <time>2017-08-17T08:51:32Z</time>
      </trkpt>
      <trkpt lat="45.93757" lon="4.78364">
        <ele>183</ele>
        <time>2017-08-17T08:51:33Z</time>
      </trkpt>
      <trkpt lat="45.93755" lon="4.7837">
        <ele>183</ele>
        <time>2017-08-17T08:51:34Z</time>
      </trkpt>
      <trkpt lat="45.93754" lon="4.78377">
        <ele>183</ele>
        <time>2017-08-17T08:51:35Z</time>
      </trkpt>
      <trkpt lat="45.93752" lon="4.78385">
        <ele>183</ele>
        <time>2017-08-17T08:51:36Z</time>
      </trkpt>
      <trkpt lat="45.93751" lon="4.78394">
        <ele>183</ele>
        <time>2017-08-17T08:51:37Z</time>
      </trkpt>
      <trkpt lat="45.93749" lon="4.78403">
        <ele>181</ele>
        <time>2017-08-17T08:51:38Z</time>
      </trkpt>
      <trkpt lat="45.93746" lon="4.78411">
        <ele>181</ele>
        <time>2017-08-17T08:51:39Z</time>
      </trkpt>
      <trkpt lat="45.93744" lon="4.78419">
        <ele>181</ele>
        <time>2017-08-17T08:51:40Z</time>
      </trkpt>
      <trkpt lat="45.93741" lon="4.78427">
        <ele>180</ele>
        <time>2017-08-17T08:51:41Z</time>
      </trkpt>
      <trkpt lat="45.93739" lon="4.78436">
        <ele>180</ele>
        <time>2017-08-17T08:51:42Z</time>
      </trkpt>
      <trkpt lat="45.93737" lon="4.78444">
        <ele>180</ele>
        <time>2017-08-17T08:51:43Z</time>
      </trkpt>
      <trkpt lat="45.93736" lon="4.78453">
        <ele>180</ele>
        <time>2017-08-17T08:51:44Z</time>
      </trkpt>
      <trkpt lat="45.93733" lon="4.78462">
        <ele>180</ele>
        <time>2017-08-17T08:51:45Z</time>
      </trkpt>
      <trkpt lat="45.93731" lon="4.7847">
        <ele>180</ele>
        <time>2017-08-17T08:51:46Z</time>
      </trkpt>
      <trkpt lat="45.93728" lon="4.78479">
        <ele>180</ele>
        <time>2017-08-17T08:51:47Z</time>
      </trkpt>
      <trkpt lat="45.93726" lon="4.78488">
        <ele>180</ele>
        <time>2017-08-17T08:51:48Z</time>
      </trkpt>
      <trkpt lat="45.93724" lon="4.78497">
        <ele>180</ele>
        <time>2017-08-17T08:51:49Z</time>
      </trkpt>
      <trkpt lat="45.93721" lon="4.78506">
        <ele>179</ele>
        <time>2017-08-17T08:51:50Z</time>
      </trkpt>
      <trkpt lat="45.93719" lon="4.78515">
        <ele>179</ele>
        <time>2017-08-17T08:51:51Z</time>
      </trkpt>
      <trkpt lat="45.93716" lon="4.78523">
        <ele>178</ele>
        <time>2017-08-17T08:51:52Z</time>
      </trkpt>
      <trkpt lat="45.93714" lon="4.78532">
        <ele>178</ele>
        <time>2017-08-17T08:51:53Z</time>
      </trkpt>
      <trkpt lat="45.93712" lon="4.78542">
        <ele>178</ele>
        <time>2017-08-17T08:51:54Z</time>
      </trkpt>
      <trkpt lat="45.93709" lon="4.78551">
        <ele>178</ele>
        <time>2017-08-17T08:51:55Z</time>
      </trkpt>
      <trkpt lat="45.93708" lon="4.7856">
        <ele>177</ele>
        <time>2017-08-17T08:51:56Z</time>
      </trkpt>
      <trkpt lat="45.93706" lon="4.7857">
        <ele>177</ele>
        <time>2017-08-17T08:51:57Z</time>
      </trkpt>
      <trkpt lat="45.93705" lon="4.78578">
        <ele>177</ele>
        <time>2017-08-17T08:51:58Z</time>
      </trkpt>
      <trkpt lat="45.93703" lon="4.78585">
        <ele>176</ele>
        <time>2017-08-17T08:51:59Z</time>
      </trkpt>
      <trkpt lat="45.93702" lon="4.78591">
        <ele>176</ele>
        <time>2017-08-17T08:52:00Z</time>
      </trkpt>
      <trkpt lat="45.93698" lon="4.78601">
        <ele>176</ele>
        <time>2017-08-17T08:52:02Z</time>
      </trkpt>
      <trkpt lat="45.93696" lon="4.78606">
        <ele>176</ele>
        <time>2017-08-17T08:52:03Z</time>
      </trkpt>
      <trkpt lat="45.93695" lon="4.78613">
        <ele>176</ele>
        <time>2017-08-17T08:52:04Z</time>
      </trkpt>
      <trkpt lat="45.93696" lon="4.7862">
        <ele>176</ele>
        <time>2017-08-17T08:52:05Z</time>
      </trkpt>
      <trkpt lat="45.937" lon="4.78627">
        <ele>176</ele>
        <time>2017-08-17T08:52:06Z</time>
      </trkpt>
      <trkpt lat="45.93704" lon="4.7863">
        <ele>176</ele>
        <time>2017-08-17T08:52:07Z</time>
      </trkpt>
      <trkpt lat="45.93711" lon="4.78631">
        <ele>176</ele>
        <time>2017-08-17T08:52:09Z</time>
      </trkpt>
      <trkpt lat="45.93714" lon="4.7863">
        <ele>176</ele>
        <time>2017-08-17T08:52:10Z</time>
      </trkpt>
      <trkpt lat="45.93722" lon="4.78627">
        <ele>177</ele>
        <time>2017-08-17T08:52:12Z</time>
      </trkpt>
      <trkpt lat="45.93726" lon="4.78626">
        <ele>177</ele>
        <time>2017-08-17T08:52:13Z</time>
      </trkpt>
      <trkpt lat="45.93734" lon="4.78625">
        <ele>177</ele>
        <time>2017-08-17T08:52:15Z</time>
      </trkpt>
      <trkpt lat="45.93738" lon="4.78624">
        <ele>177</ele>
        <time>2017-08-17T08:52:16Z</time>
      </trkpt>
      <trkpt lat="45.93745" lon="4.78623">
        <ele>177</ele>
        <time>2017-08-17T08:52:18Z</time>
      </trkpt>
      <trkpt lat="45.93749" lon="4.78622">
        <ele>177</ele>
        <time>2017-08-17T08:52:19Z</time>
      </trkpt>
      <trkpt lat="45.93756" lon="4.78621">
        <ele>181</ele>
        <time>2017-08-17T08:52:21Z</time>
      </trkpt>
      <trkpt lat="45.9376" lon="4.78621">
        <ele>181</ele>
        <time>2017-08-17T08:52:22Z</time>
      </trkpt>
      <trkpt lat="45.93768" lon="4.78619">
        <ele>181</ele>
        <time>2017-08-17T08:52:24Z</time>
      </trkpt>
      <trkpt lat="45.93772" lon="4.78619">
        <ele>181</ele>
        <time>2017-08-17T08:52:25Z</time>
      </trkpt>
      <trkpt lat="45.93779" lon="4.78617">
        <ele>181</ele>
        <time>2017-08-17T08:52:27Z</time>
      </trkpt>
      <trkpt lat="45.93783" lon="4.78616">
        <ele>182</ele>
        <time>2017-08-17T08:52:28Z</time>
      </trkpt>
      <trkpt lat="45.93791" lon="4.78615">
        <ele>182</ele>
        <time>2017-08-17T08:52:30Z</time>
      </trkpt>
      <trkpt lat="45.93795" lon="4.78614">
        <ele>182</ele>
        <time>2017-08-17T08:52:31Z</time>
      </trkpt>
      <trkpt lat="45.93804" lon="4.78612">
        <ele>183</ele>
        <time>2017-08-17T08:52:33Z</time>
      </trkpt>
      <trkpt lat="45.93809" lon="4.78612">
        <ele>183</ele>
        <time>2017-08-17T08:52:34Z</time>
      </trkpt>
      <trkpt lat="45.93814" lon="4.78612">
        <ele>183</ele>
        <time>2017-08-17T08:52:35Z</time>
      </trkpt>
      <trkpt lat="45.93818" lon="4.78611">
        <ele>183</ele>
        <time>2017-08-17T08:52:36Z</time>
      </trkpt>
      <trkpt lat="45.93826" lon="4.78608">
        <ele>184</ele>
        <time>2017-08-17T08:52:38Z</time>
      </trkpt>
      <trkpt lat="45.9383" lon="4.78607">
        <ele>184</ele>
        <time>2017-08-17T08:52:39Z</time>
      </trkpt>
      <trkpt lat="45.93837" lon="4.78605">
        <ele>187</ele>
        <time>2017-08-17T08:52:41Z</time>
      </trkpt>
      <trkpt lat="45.9384" lon="4.78604">
        <ele>187</ele>
        <time>2017-08-17T08:52:42Z</time>
      </trkpt>
      <trkpt lat="45.93848" lon="4.78602">
        <ele>188</ele>
        <time>2017-08-17T08:52:45Z</time>
      </trkpt>
      <trkpt lat="45.93851" lon="4.78602">
        <ele>188</ele>
        <time>2017-08-17T08:52:46Z</time>
      </trkpt>
      <trkpt lat="45.93859" lon="4.78602">
        <ele>188</ele>
        <time>2017-08-17T08:52:49Z</time>
      </trkpt>
      <trkpt lat="45.93861" lon="4.78602">
        <ele>188</ele>
        <time>2017-08-17T08:52:50Z</time>
      </trkpt>
      <trkpt lat="45.93868" lon="4.78602">
        <ele>188</ele>
        <time>2017-08-17T08:52:53Z</time>
      </trkpt>
      <trkpt lat="45.93871" lon="4.78601">
        <ele>189</ele>
        <time>2017-08-17T08:52:54Z</time>
      </trkpt>
      <trkpt lat="45.93877" lon="4.78599">
        <ele>189</ele>
        <time>2017-08-17T08:52:57Z</time>
      </trkpt>
      <trkpt lat="45.9388" lon="4.78599">
        <ele>189</ele>
        <time>2017-08-17T08:52:58Z</time>
      </trkpt>
      <trkpt lat="45.93888" lon="4.78596">
        <ele>190</ele>
        <time>2017-08-17T08:53:02Z</time>
      </trkpt>
      <trkpt lat="45.9389" lon="4.78596">
        <ele>190</ele>
        <time>2017-08-17T08:53:03Z</time>
      </trkpt>
      <trkpt lat="45.93899" lon="4.78594">
        <ele>190</ele>
        <time>2017-08-17T08:53:09Z</time>
      </trkpt>
      <trkpt lat="45.93902" lon="4.78594">
        <ele>191</ele>
        <time>2017-08-17T08:53:10Z</time>
      </trkpt>
      <trkpt lat="45.93909" lon="4.78592">
        <ele>191</ele>
        <time>2017-08-17T08:53:13Z</time>
      </trkpt>
      <trkpt lat="45.93911" lon="4.78589">
        <ele>192</ele>
        <time>2017-08-17T08:53:14Z</time>
      </trkpt>
      <trkpt lat="45.93917" lon="4.78582">
        <ele>193</ele>
        <time>2017-08-17T08:53:17Z</time>
      </trkpt>
      <trkpt lat="45.93918" lon="4.78579">
        <ele>194</ele>
        <time>2017-08-17T08:53:18Z</time>
      </trkpt>
      <trkpt lat="45.93926" lon="4.78577">
        <ele>195</ele>
        <time>2017-08-17T08:53:22Z</time>
      </trkpt>
      <trkpt lat="45.93928" lon="4.78579">
        <ele>195</ele>
        <time>2017-08-17T08:53:23Z</time>
      </trkpt>
      <trkpt lat="45.93933" lon="4.78588">
        <ele>195</ele>
        <time>2017-08-17T08:53:28Z</time>
      </trkpt>
      <trkpt lat="45.93933" lon="4.78591">
        <ele>195</ele>
        <time>2017-08-17T08:53:29Z</time>
      </trkpt>
      <trkpt lat="45.93935" lon="4.78601">
        <ele>195</ele>
        <time>2017-08-17T08:53:32Z</time>
      </trkpt>
      <trkpt lat="45.93935" lon="4.78604">
        <ele>195</ele>
        <time>2017-08-17T08:53:33Z</time>
      </trkpt>
      <trkpt lat="45.93934" lon="4.78613">
        <ele>195</ele>
        <time>2017-08-17T08:53:35Z</time>
      </trkpt>
      <trkpt lat="45.93934" lon="4.78618">
        <ele>195</ele>
        <time>2017-08-17T08:53:36Z</time>
      </trkpt>
      <trkpt lat="45.93935" lon="4.78624">
        <ele>195</ele>
        <time>2017-08-17T08:53:37Z</time>
      </trkpt>
      <trkpt lat="45.93935" lon="4.78631">
        <ele>195</ele>
        <time>2017-08-17T08:53:38Z</time>
      </trkpt>
      <trkpt lat="45.93934" lon="4.78642">
        <ele>195</ele>
        <time>2017-08-17T08:53:40Z</time>
      </trkpt>
      <trkpt lat="45.93935" lon="4.78646">
        <ele>195</ele>
        <time>2017-08-17T08:53:41Z</time>
      </trkpt>
      <trkpt lat="45.93935" lon="4.78659">
        <ele>194</ele>
        <time>2017-08-17T08:53:44Z</time>
      </trkpt>
      <trkpt lat="45.93936" lon="4.78663">
        <ele>194</ele>
        <time>2017-08-17T08:53:45Z</time>
      </trkpt>
      <trkpt lat="45.93937" lon="4.78672">
        <ele>193</ele>
        <time>2017-08-17T08:53:47Z</time>
      </trkpt>
      <trkpt lat="45.93936" lon="4.78679">
        <ele>193</ele>
        <time>2017-08-17T08:53:48Z</time>
      </trkpt>
      <trkpt lat="45.93935" lon="4.7869">
        <ele>194</ele>
        <time>2017-08-17T08:53:50Z</time>
      </trkpt>
      <trkpt lat="45.93937" lon="4.78694">
        <ele>194</ele>
        <time>2017-08-17T08:53:51Z</time>
      </trkpt>
      <trkpt lat="45.93937" lon="4.78704">
        <ele>194</ele>
        <time>2017-08-17T08:53:53Z</time>
      </trkpt>
      <trkpt lat="45.93937" lon="4.78709">
        <ele>194</ele>
        <time>2017-08-17T08:53:54Z</time>
      </trkpt>
      <trkpt lat="45.93937" lon="4.78718">
        <ele>194</ele>
        <time>2017-08-17T08:53:56Z</time>
      </trkpt>
      <trkpt lat="45.93937" lon="4.78723">
        <ele>194</ele>
        <time>2017-08-17T08:53:57Z</time>
      </trkpt>
      <trkpt lat="45.93938" lon="4.78734">
        <ele>193</ele>
        <time>2017-08-17T08:53:59Z</time>
      </trkpt>
      <trkpt lat="45.93937" lon="4.78741">
        <ele>193</ele>
        <time>2017-08-17T08:54:00Z</time>
      </trkpt>
      <trkpt lat="45.93937" lon="4.78748">
        <ele>193</ele>
        <time>2017-08-17T08:54:01Z</time>
      </trkpt>
      <trkpt lat="45.93937" lon="4.78754">
        <ele>193</ele>
        <time>2017-08-17T08:54:02Z</time>
      </trkpt>
      <trkpt lat="45.93938" lon="4.78761">
        <ele>193</ele>
        <time>2017-08-17T08:54:03Z</time>
      </trkpt>
      <trkpt lat="45.93939" lon="4.78768">
        <ele>194</ele>
        <time>2017-08-17T08:54:04Z</time>
      </trkpt>
      <trkpt lat="45.93938" lon="4.78779">
        <ele>194</ele>
        <time>2017-08-17T08:54:06Z</time>
      </trkpt>
      <trkpt lat="45.93937" lon="4.78786">
        <ele>194</ele>
        <time>2017-08-17T08:54:07Z</time>
      </trkpt>
      <trkpt lat="45.93935" lon="4.78796">
        <ele>194</ele>
        <time>2017-08-17T08:54:08Z</time>
      </trkpt>
      <trkpt lat="45.93935" lon="4.78804">
        <ele>194</ele>
        <time>2017-08-17T08:54:09Z</time>
      </trkpt>
      <trkpt lat="45.93935" lon="4.78811">
        <ele>194</ele>
        <time>2017-08-17T08:54:10Z</time>
      </trkpt>
      <trkpt lat="45.93935" lon="4.78819">
        <ele>193</ele>
        <time>2017-08-17T08:54:11Z</time>
      </trkpt>
      <trkpt lat="45.93935" lon="4.78826">
        <ele>193</ele>
        <time>2017-08-17T08:54:12Z</time>
      </trkpt>
      <trkpt lat="45.93935" lon="4.78832">
        <ele>193</ele>
        <time>2017-08-17T08:54:13Z</time>
      </trkpt>
      <trkpt lat="45.93935" lon="4.78839">
        <ele>193</ele>
        <time>2017-08-17T08:54:14Z</time>
      </trkpt>
      <trkpt lat="45.93934" lon="4.78846">
        <ele>193</ele>
        <time>2017-08-17T08:54:15Z</time>
      </trkpt>
      <trkpt lat="45.93934" lon="4.78852">
        <ele>193</ele>
        <time>2017-08-17T08:54:16Z</time>
      </trkpt>
      <trkpt lat="45.93934" lon="4.78859">
        <ele>193</ele>
        <time>2017-08-17T08:54:17Z</time>
      </trkpt>
      <trkpt lat="45.93934" lon="4.78866">
        <ele>193</ele>
        <time>2017-08-17T08:54:18Z</time>
      </trkpt>
      <trkpt lat="45.93935" lon="4.78873">
        <ele>193</ele>
        <time>2017-08-17T08:54:19Z</time>
      </trkpt>
      <trkpt lat="45.93937" lon="4.78883">
        <ele>193</ele>
        <time>2017-08-17T08:54:21Z</time>
      </trkpt>
      <trkpt lat="45.93937" lon="4.78889">
        <ele>193</ele>
        <time>2017-08-17T08:54:22Z</time>
      </trkpt>
      <trkpt lat="45.93936" lon="4.78902">
        <ele>193</ele>
        <time>2017-08-17T08:54:24Z</time>
      </trkpt>
      <trkpt lat="45.93936" lon="4.78906">
        <ele>193</ele>
        <time>2017-08-17T08:54:25Z</time>
      </trkpt>
      <trkpt lat="45.93937" lon="4.78917">
        <ele>193</ele>
        <time>2017-08-17T08:54:27Z</time>
      </trkpt>
      <trkpt lat="45.93937" lon="4.78922">
        <ele>193</ele>
        <time>2017-08-17T08:54:28Z</time>
      </trkpt>
      <trkpt lat="45.93937" lon="4.78928">
        <ele>193</ele>
        <time>2017-08-17T08:54:29Z</time>
      </trkpt>
      <trkpt lat="45.93936" lon="4.78935">
        <ele>193</ele>
        <time>2017-08-17T08:54:30Z</time>
      </trkpt>
      <trkpt lat="45.93938" lon="4.78942">
        <ele>193</ele>
        <time>2017-08-17T08:54:31Z</time>
      </trkpt>
      <trkpt lat="45.93938" lon="4.78949">
        <ele>194</ele>
        <time>2017-08-17T08:54:32Z</time>
      </trkpt>
      <trkpt lat="45.9394" lon="4.7896">
        <ele>194</ele>
        <time>2017-08-17T08:54:34Z</time>
      </trkpt>
      <trkpt lat="45.93941" lon="4.78966">
        <ele>194</ele>
        <time>2017-08-17T08:54:35Z</time>
      </trkpt>
      <trkpt lat="45.93943" lon="4.78977">
        <ele>194</ele>
        <time>2017-08-17T08:54:37Z</time>
      </trkpt>
      <trkpt lat="45.93944" lon="4.78982">
        <ele>194</ele>
        <time>2017-08-17T08:54:38Z</time>
      </trkpt>
      <trkpt lat="45.93946" lon="4.78991">
        <ele>194</ele>
        <time>2017-08-17T08:54:40Z</time>
      </trkpt>
      <trkpt lat="45.93947" lon="4.78996">
        <ele>194</ele>
        <time>2017-08-17T08:54:41Z</time>
      </trkpt>
      <trkpt lat="45.93948" lon="4.79005">
        <ele>195</ele>
        <time>2017-08-17T08:54:43Z</time>
      </trkpt>
      <trkpt lat="45.93948" lon="4.7901">
        <ele>195</ele>
        <time>2017-08-17T08:54:44Z</time>
      </trkpt>
      <trkpt lat="45.93948" lon="4.79016">
        <ele>195</ele>
        <time>2017-08-17T08:54:45Z</time>
      </trkpt>
      <trkpt lat="45.93946" lon="4.79024">
        <ele>195</ele>
        <time>2017-08-17T08:54:46Z</time>
      </trkpt>
      <trkpt lat="45.93946" lon="4.79031">
        <ele>195</ele>
        <time>2017-08-17T08:54:47Z</time>
      </trkpt>
      <trkpt lat="45.93945" lon="4.79038">
        <ele>195</ele>
        <time>2017-08-17T08:54:48Z</time>
      </trkpt>
      <trkpt lat="45.93945" lon="4.79044">
        <ele>195</ele>
        <time>2017-08-17T08:54:49Z</time>
      </trkpt>
      <trkpt lat="45.93946" lon="4.79051">
        <ele>196</ele>
        <time>2017-08-17T08:54:50Z</time>
      </trkpt>
      <trkpt lat="45.93947" lon="4.79063">
        <ele>196</ele>
        <time>2017-08-17T08:54:52Z</time>
      </trkpt>
      <trkpt lat="45.93947" lon="4.7907">
        <ele>196</ele>
        <time>2017-08-17T08:54:53Z</time>
      </trkpt>
      <trkpt lat="45.93948" lon="4.79078">
        <ele>196</ele>
        <time>2017-08-17T08:54:54Z</time>
      </trkpt>
      <trkpt lat="45.93948" lon="4.79085">
        <ele>196</ele>
        <time>2017-08-17T08:54:55Z</time>
      </trkpt>
      <trkpt lat="45.93947" lon="4.79092">
        <ele>196</ele>
        <time>2017-08-17T08:54:56Z</time>
      </trkpt>
      <trkpt lat="45.93948" lon="4.79099">
        <ele>196</ele>
        <time>2017-08-17T08:54:57Z</time>
      </trkpt>
      <trkpt lat="45.93948" lon="4.79106">
        <ele>196</ele>
        <time>2017-08-17T08:54:58Z</time>
      </trkpt>
      <trkpt lat="45.93949" lon="4.79113">
        <ele>197</ele>
        <time>2017-08-17T08:54:59Z</time>
      </trkpt>
      <trkpt lat="45.93949" lon="4.7912">
        <ele>197</ele>
        <time>2017-08-17T08:55:00Z</time>
      </trkpt>
      <trkpt lat="45.93947" lon="4.7913">
        <ele>197</ele>
        <time>2017-08-17T08:55:01Z</time>
      </trkpt>
      <trkpt lat="45.93947" lon="4.79138">
        <ele>196</ele>
        <time>2017-08-17T08:55:02Z</time>
      </trkpt>
      <trkpt lat="45.93946" lon="4.79146">
        <ele>196</ele>
        <time>2017-08-17T08:55:03Z</time>
      </trkpt>
      <trkpt lat="45.93947" lon="4.79154">
        <ele>196</ele>
        <time>2017-08-17T08:55:04Z</time>
      </trkpt>
      <trkpt lat="45.93947" lon="4.79161">
        <ele>196</ele>
        <time>2017-08-17T08:55:05Z</time>
      </trkpt>
      <trkpt lat="45.93948" lon="4.79173">
        <ele>196</ele>
        <time>2017-08-17T08:55:07Z</time>
      </trkpt>
      <trkpt lat="45.93949" lon="4.7918">
        <ele>197</ele>
        <time>2017-08-17T08:55:08Z</time>
      </trkpt>
      <trkpt lat="45.93949" lon="4.79186">
        <ele>197</ele>
        <time>2017-08-17T08:55:09Z</time>
      </trkpt>
      <trkpt lat="45.93948" lon="4.79194">
        <ele>197</ele>
        <time>2017-08-17T08:55:10Z</time>
      </trkpt>
      <trkpt lat="45.93947" lon="4.79203">
        <ele>197</ele>
        <time>2017-08-17T08:55:11Z</time>
      </trkpt>
      <trkpt lat="45.93948" lon="4.79212">
        <ele>197</ele>
        <time>2017-08-17T08:55:12Z</time>
      </trkpt>
      <trkpt lat="45.93948" lon="4.7922">
        <ele>197</ele>
        <time>2017-08-17T08:55:13Z</time>
      </trkpt>
      <trkpt lat="45.93948" lon="4.79227">
        <ele>197</ele>
        <time>2017-08-17T08:55:14Z</time>
      </trkpt>
      <trkpt lat="45.93948" lon="4.7924">
        <ele>197</ele>
        <time>2017-08-17T08:55:16Z</time>
      </trkpt>
      <trkpt lat="45.93948" lon="4.79246">
        <ele>196</ele>
        <time>2017-08-17T08:55:17Z</time>
      </trkpt>
      <trkpt lat="45.93948" lon="4.79252">
        <ele>197</ele>
        <time>2017-08-17T08:55:18Z</time>
      </trkpt>
      <trkpt lat="45.93948" lon="4.79259">
        <ele>197</ele>
        <time>2017-08-17T08:55:19Z</time>
      </trkpt>
      <trkpt lat="45.93949" lon="4.7927">
        <ele>198</ele>
        <time>2017-08-17T08:55:21Z</time>
      </trkpt>
      <trkpt lat="45.93949" lon="4.79277">
        <ele>198</ele>
        <time>2017-08-17T08:55:22Z</time>
      </trkpt>
      <trkpt lat="45.93949" lon="4.79283">
        <ele>198</ele>
        <time>2017-08-17T08:55:23Z</time>
      </trkpt>
      <trkpt lat="45.9395" lon="4.7929">
        <ele>198</ele>
        <time>2017-08-17T08:55:24Z</time>
      </trkpt>
      <trkpt lat="45.9395" lon="4.79297">
        <ele>198</ele>
        <time>2017-08-17T08:55:25Z</time>
      </trkpt>
      <trkpt lat="45.9395" lon="4.79304">
        <ele>198</ele>
        <time>2017-08-17T08:55:26Z</time>
      </trkpt>
      <trkpt lat="45.93951" lon="4.79312">
        <ele>198</ele>
        <time>2017-08-17T08:55:27Z</time>
      </trkpt>
      <trkpt lat="45.93951" lon="4.79319">
        <ele>198</ele>
        <time>2017-08-17T08:55:28Z</time>
      </trkpt>
      <trkpt lat="45.93952" lon="4.79332">
        <ele>199</ele>
        <time>2017-08-17T08:55:30Z</time>
      </trkpt>
      <trkpt lat="45.93952" lon="4.79337">
        <ele>200</ele>
        <time>2017-08-17T08:55:31Z</time>
      </trkpt>
      <trkpt lat="45.93952" lon="4.79349">
        <ele>200</ele>
        <time>2017-08-17T08:55:33Z</time>
      </trkpt>
      <trkpt lat="45.93952" lon="4.79354">
        <ele>200</ele>
        <time>2017-08-17T08:55:34Z</time>
      </trkpt>
      <trkpt lat="45.93951" lon="4.79361">
        <ele>200</ele>
        <time>2017-08-17T08:55:35Z</time>
      </trkpt>
      <trkpt lat="45.93951" lon="4.79367">
        <ele>201</ele>
        <time>2017-08-17T08:55:36Z</time>
      </trkpt>
      <trkpt lat="45.93952" lon="4.79379">
        <ele>201</ele>
        <time>2017-08-17T08:55:38Z</time>
      </trkpt>
      <trkpt lat="45.93952" lon="4.79385">
        <ele>201</ele>
        <time>2017-08-17T08:55:39Z</time>
      </trkpt>
      <trkpt lat="45.93951" lon="4.79397">
        <ele>201</ele>
        <time>2017-08-17T08:55:41Z</time>
      </trkpt>
      <trkpt lat="45.93952" lon="4.79402">
        <ele>201</ele>
        <time>2017-08-17T08:55:42Z</time>
      </trkpt>
      <trkpt lat="45.93951" lon="4.79411">
        <ele>201</ele>
        <time>2017-08-17T08:55:44Z</time>
      </trkpt>
      <trkpt lat="45.93951" lon="4.79416">
        <ele>201</ele>
        <time>2017-08-17T08:55:45Z</time>
      </trkpt>
      <trkpt lat="45.93951" lon="4.79428">
        <ele>202</ele>
        <time>2017-08-17T08:55:47Z</time>
      </trkpt>
      <trkpt lat="45.9395" lon="4.79434">
        <ele>202</ele>
        <time>2017-08-17T08:55:48Z</time>
      </trkpt>
      <trkpt lat="45.93949" lon="4.79442">
        <ele>202</ele>
        <time>2017-08-17T08:55:49Z</time>
      </trkpt>
      <trkpt lat="45.93948" lon="4.79449">
        <ele>202</ele>
        <time>2017-08-17T08:55:50Z</time>
      </trkpt>
      <trkpt lat="45.93948" lon="4.79457">
        <ele>202</ele>
        <time>2017-08-17T08:55:51Z</time>
      </trkpt>
      <trkpt lat="45.93947" lon="4.79465">
        <ele>202</ele>
        <time>2017-08-17T08:55:52Z</time>
      </trkpt>
      <trkpt lat="45.93947" lon="4.79472">
        <ele>202</ele>
        <time>2017-08-17T08:55:53Z</time>
      </trkpt>
      <trkpt lat="45.93947" lon="4.7948">
        <ele>202</ele>
        <time>2017-08-17T08:55:54Z</time>
      </trkpt>
      <trkpt lat="45.93947" lon="4.79487">
        <ele>202</ele>
        <time>2017-08-17T08:55:55Z</time>
      </trkpt>
      <trkpt lat="45.93948" lon="4.79493">
        <ele>202</ele>
        <time>2017-08-17T08:55:56Z</time>
      </trkpt>
      <trkpt lat="45.93949" lon="4.79505">
        <ele>203</ele>
        <time>2017-08-17T08:55:58Z</time>
      </trkpt>
      <trkpt lat="45.93949" lon="4.7951">
        <ele>203</ele>
        <time>2017-08-17T08:55:59Z</time>
      </trkpt>
      <trkpt lat="45.9395" lon="4.7952">
        <ele>204</ele>
        <time>2017-08-17T08:56:01Z</time>
      </trkpt>
      <trkpt lat="45.9395" lon="4.79525">
        <ele>204</ele>
        <time>2017-08-17T08:56:02Z</time>
      </trkpt>
      <trkpt lat="45.93951" lon="4.79536">
        <ele>204</ele>
        <time>2017-08-17T08:56:04Z</time>
      </trkpt>
      <trkpt lat="45.93952" lon="4.79543">
        <ele>205</ele>
        <time>2017-08-17T08:56:05Z</time>
      </trkpt>
      <trkpt lat="45.93953" lon="4.79555">
        <ele>205</ele>
        <time>2017-08-17T08:56:07Z</time>
      </trkpt>
      <trkpt lat="45.93953" lon="4.7956">
        <ele>205</ele>
        <time>2017-08-17T08:56:08Z</time>
      </trkpt>
      <trkpt lat="45.93954" lon="4.79572">
        <ele>205</ele>
        <time>2017-08-17T08:56:10Z</time>
      </trkpt>
      <trkpt lat="45.93954" lon="4.79578">
        <ele>205</ele>
        <time>2017-08-17T08:56:11Z</time>
      </trkpt>
      <trkpt lat="45.93956" lon="4.79588">
        <ele>206</ele>
        <time>2017-08-17T08:56:13Z</time>
      </trkpt>
      <trkpt lat="45.93957" lon="4.79593">
        <ele>207</ele>
        <time>2017-08-17T08:56:14Z</time>
      </trkpt>
      <trkpt lat="45.93958" lon="4.79604">
        <ele>207</ele>
        <time>2017-08-17T08:56:16Z</time>
      </trkpt>
      <trkpt lat="45.93959" lon="4.79609">
        <ele>207</ele>
        <time>2017-08-17T08:56:17Z</time>
      </trkpt>
      <trkpt lat="45.9396" lon="4.7962">
        <ele>207</ele>
        <time>2017-08-17T08:56:19Z</time>
      </trkpt>
      <trkpt lat="45.93961" lon="4.79626">
        <ele>207</ele>
        <time>2017-08-17T08:56:20Z</time>
      </trkpt>
      <trkpt lat="45.93963" lon="4.79639">
        <ele>207</ele>
        <time>2017-08-17T08:56:22Z</time>
      </trkpt>
      <trkpt lat="45.93963" lon="4.79646">
        <ele>207</ele>
        <time>2017-08-17T08:56:23Z</time>
      </trkpt>
      <trkpt lat="45.93964" lon="4.79653">
        <ele>207</ele>
        <time>2017-08-17T08:56:24Z</time>
      </trkpt>
      <trkpt lat="45.93965" lon="4.7966">
        <ele>207</ele>
        <time>2017-08-17T08:56:25Z</time>
      </trkpt>
      <trkpt lat="45.93965" lon="4.79672">
        <ele>207</ele>
        <time>2017-08-17T08:56:27Z</time>
      </trkpt>
      <trkpt lat="45.93965" lon="4.79677">
        <ele>207</ele>
        <time>2017-08-17T08:56:28Z</time>
      </trkpt>
      <trkpt lat="45.93966" lon="4.79689">
        <ele>207</ele>
        <time>2017-08-17T08:56:30Z</time>
      </trkpt>
      <trkpt lat="45.93966" lon="4.79695">
        <ele>207</ele>
        <time>2017-08-17T08:56:31Z</time>
      </trkpt>
      <trkpt lat="45.93967" lon="4.79701">
        <ele>207</ele>
        <time>2017-08-17T08:56:32Z</time>
      </trkpt>
      <trkpt lat="45.93967" lon="4.79707">
        <ele>207</ele>
        <time>2017-08-17T08:56:33Z</time>
      </trkpt>
      <trkpt lat="45.93968" lon="4.79714">
        <ele>207</ele>
        <time>2017-08-17T08:56:34Z</time>
      </trkpt>
      <trkpt lat="45.93968" lon="4.79721">
        <ele>207</ele>
        <time>2017-08-17T08:56:35Z</time>
      </trkpt>
      <trkpt lat="45.93969" lon="4.79728">
        <ele>207</ele>
        <time>2017-08-17T08:56:36Z</time>
      </trkpt>
      <trkpt lat="45.93969" lon="4.79734">
        <ele>206</ele>
        <time>2017-08-17T08:56:37Z</time>
      </trkpt>
      <trkpt lat="45.9397" lon="4.79746">
        <ele>207</ele>
        <time>2017-08-17T08:56:39Z</time>
      </trkpt>
      <trkpt lat="45.93971" lon="4.7975">
        <ele>206</ele>
        <time>2017-08-17T08:56:40Z</time>
      </trkpt>
      <trkpt lat="45.93972" lon="4.79761">
        <ele>206</ele>
        <time>2017-08-17T08:56:42Z</time>
      </trkpt>
      <trkpt lat="45.93971" lon="4.79767">
        <ele>206</ele>
        <time>2017-08-17T08:56:43Z</time>
      </trkpt>
      <trkpt lat="45.93971" lon="4.79779">
        <ele>206</ele>
        <time>2017-08-17T08:56:45Z</time>
      </trkpt>
      <trkpt lat="45.93971" lon="4.79785">
        <ele>206</ele>
        <time>2017-08-17T08:56:46Z</time>
      </trkpt>
      <trkpt lat="45.9397" lon="4.79792">
        <ele>206</ele>
        <time>2017-08-17T08:56:47Z</time>
      </trkpt>
      <trkpt lat="45.9397" lon="4.79799">
        <ele>206</ele>
        <time>2017-08-17T08:56:48Z</time>
      </trkpt>
      <trkpt lat="45.93969" lon="4.79806">
        <ele>206</ele>
        <time>2017-08-17T08:56:49Z</time>
      </trkpt>
      <trkpt lat="45.93968" lon="4.79813">
        <ele>206</ele>
        <time>2017-08-17T08:56:50Z</time>
      </trkpt>
      <trkpt lat="45.93966" lon="4.7982">
        <ele>206</ele>
        <time>2017-08-17T08:56:51Z</time>
      </trkpt>
      <trkpt lat="45.93965" lon="4.79828">
        <ele>206</ele>
        <time>2017-08-17T08:56:52Z</time>
      </trkpt>
      <trkpt lat="45.93963" lon="4.79835">
        <ele>206</ele>
        <time>2017-08-17T08:56:53Z</time>
      </trkpt>
      <trkpt lat="45.93961" lon="4.79842">
        <ele>206</ele>
        <time>2017-08-17T08:56:54Z</time>
      </trkpt>
      <trkpt lat="45.9396" lon="4.79849">
        <ele>206</ele>
        <time>2017-08-17T08:56:55Z</time>
      </trkpt>
      <trkpt lat="45.93958" lon="4.79855">
        <ele>206</ele>
        <time>2017-08-17T08:56:56Z</time>
      </trkpt>
      <trkpt lat="45.93957" lon="4.79862">
        <ele>206</ele>
        <time>2017-08-17T08:56:57Z</time>
      </trkpt>
      <trkpt lat="45.93956" lon="4.79868">
        <ele>206</ele>
        <time>2017-08-17T08:56:58Z</time>
      </trkpt>
      <trkpt lat="45.93954" lon="4.7988">
        <ele>206</ele>
        <time>2017-08-17T08:57:00Z</time>
      </trkpt>
      <trkpt lat="45.93954" lon="4.79886">
        <ele>205</ele>
        <time>2017-08-17T08:57:01Z</time>
      </trkpt>
      <trkpt lat="45.93953" lon="4.79893">
        <ele>205</ele>
        <time>2017-08-17T08:57:02Z</time>
      </trkpt>
      <trkpt lat="45.93952" lon="4.799">
        <ele>205</ele>
        <time>2017-08-17T08:57:03Z</time>
      </trkpt>
      <trkpt lat="45.9395" lon="4.79907">
        <ele>205</ele>
        <time>2017-08-17T08:57:04Z</time>
      </trkpt>
      <trkpt lat="45.93949" lon="4.79914">
        <ele>205</ele>
        <time>2017-08-17T08:57:05Z</time>
      </trkpt>
      <trkpt lat="45.93947" lon="4.79921">
        <ele>205</ele>
        <time>2017-08-17T08:57:06Z</time>
      </trkpt>
      <trkpt lat="45.93946" lon="4.79928">
        <ele>205</ele>
        <time>2017-08-17T08:57:07Z</time>
      </trkpt>
      <trkpt lat="45.93945" lon="4.79935">
        <ele>205</ele>
        <time>2017-08-17T08:57:08Z</time>
      </trkpt>
      <trkpt lat="45.93943" lon="4.79942">
        <ele>205</ele>
        <time>2017-08-17T08:57:09Z</time>
      </trkpt>
      <trkpt lat="45.93942" lon="4.79949">
        <ele>205</ele>
        <time>2017-08-17T08:57:10Z</time>
      </trkpt>
      <trkpt lat="45.93942" lon="4.79956">
        <ele>205</ele>
        <time>2017-08-17T08:57:11Z</time>
      </trkpt>
      <trkpt lat="45.93941" lon="4.79963">
        <ele>205</ele>
        <time>2017-08-17T08:57:12Z</time>
      </trkpt>
      <trkpt lat="45.9394" lon="4.79969">
        <ele>205</ele>
        <time>2017-08-17T08:57:13Z</time>
      </trkpt>
      <trkpt lat="45.93938" lon="4.79976">
        <ele>204</ele>
        <time>2017-08-17T08:57:14Z</time>
      </trkpt>
      <trkpt lat="45.93937" lon="4.79982">
        <ele>204</ele>
        <time>2017-08-17T08:57:15Z</time>
      </trkpt>
      <trkpt lat="45.93935" lon="4.79993">
        <ele>204</ele>
        <time>2017-08-17T08:57:17Z</time>
      </trkpt>
      <trkpt lat="45.93935" lon="4.8">
        <ele>204</ele>
        <time>2017-08-17T08:57:18Z</time>
      </trkpt>
      <trkpt lat="45.93934" lon="4.80007">
        <ele>205</ele>
        <time>2017-08-17T08:57:19Z</time>
      </trkpt>
      <trkpt lat="45.93933" lon="4.80013">
        <ele>205</ele>
        <time>2017-08-17T08:57:20Z</time>
      </trkpt>
      <trkpt lat="45.93933" lon="4.80021">
        <ele>206</ele>
        <time>2017-08-17T08:57:21Z</time>
      </trkpt>
      <trkpt lat="45.93933" lon="4.80028">
        <ele>206</ele>
        <time>2017-08-17T08:57:22Z</time>
      </trkpt>
      <trkpt lat="45.93932" lon="4.80035">
        <ele>207</ele>
        <time>2017-08-17T08:57:23Z</time>
      </trkpt>
      <trkpt lat="45.93932" lon="4.80043">
        <ele>207</ele>
        <time>2017-08-17T08:57:24Z</time>
      </trkpt>
      <trkpt lat="45.93931" lon="4.8005">
        <ele>207</ele>
        <time>2017-08-17T08:57:25Z</time>
      </trkpt>
      <trkpt lat="45.93931" lon="4.80057">
        <ele>207</ele>
        <time>2017-08-17T08:57:26Z</time>
      </trkpt>
      <trkpt lat="45.93931" lon="4.80065">
        <ele>207</ele>
        <time>2017-08-17T08:57:27Z</time>
      </trkpt>
      <trkpt lat="45.93932" lon="4.80072">
        <ele>207</ele>
        <time>2017-08-17T08:57:28Z</time>
      </trkpt>
      <trkpt lat="45.93932" lon="4.80079">
        <ele>207</ele>
        <time>2017-08-17T08:57:29Z</time>
      </trkpt>
      <trkpt lat="45.93933" lon="4.80087">
        <ele>207</ele>
        <time>2017-08-17T08:57:30Z</time>
      </trkpt>
      <trkpt lat="45.93933" lon="4.80094">
        <ele>208</ele>
        <time>2017-08-17T08:57:31Z</time>
      </trkpt>
      <trkpt lat="45.93933" lon="4.80102">
        <ele>208</ele>
        <time>2017-08-17T08:57:32Z</time>
      </trkpt>
      <trkpt lat="45.93935" lon="4.80111">
        <ele>208</ele>
        <time>2017-08-17T08:57:33Z</time>
      </trkpt>
      <trkpt lat="45.93936" lon="4.80118">
        <ele>208</ele>
        <time>2017-08-17T08:57:34Z</time>
      </trkpt>
      <trkpt lat="45.93937" lon="4.80126">
        <ele>208</ele>
        <time>2017-08-17T08:57:35Z</time>
      </trkpt>
      <trkpt lat="45.93938" lon="4.80133">
        <ele>208</ele>
        <time>2017-08-17T08:57:36Z</time>
      </trkpt>
      <trkpt lat="45.93939" lon="4.80141">
        <ele>208</ele>
        <time>2017-08-17T08:57:37Z</time>
      </trkpt>
      <trkpt lat="45.9394" lon="4.80148">
        <ele>208</ele>
        <time>2017-08-17T08:57:38Z</time>
      </trkpt>
      <trkpt lat="45.93941" lon="4.80155">
        <ele>208</ele>
        <time>2017-08-17T08:57:39Z</time>
      </trkpt>
      <trkpt lat="45.93943" lon="4.80162">
        <ele>208</ele>
        <time>2017-08-17T08:57:40Z</time>
      </trkpt>
      <trkpt lat="45.93944" lon="4.80169">
        <ele>205</ele>
        <time>2017-08-17T08:57:41Z</time>
      </trkpt>
      <trkpt lat="45.93946" lon="4.80176">
        <ele>206</ele>
        <time>2017-08-17T08:57:42Z</time>
      </trkpt>
      <trkpt lat="45.93947" lon="4.80184">
        <ele>205</ele>
        <time>2017-08-17T08:57:43Z</time>
      </trkpt>
      <trkpt lat="45.93948" lon="4.80191">
        <ele>205</ele>
        <time>2017-08-17T08:57:44Z</time>
      </trkpt>
      <trkpt lat="45.93951" lon="4.80197">
        <ele>205</ele>
        <time>2017-08-17T08:57:45Z</time>
      </trkpt>
      <trkpt lat="45.93953" lon="4.80204">
        <ele>205</ele>
        <time>2017-08-17T08:57:46Z</time>
      </trkpt>
      <trkpt lat="45.93955" lon="4.80211">
        <ele>205</ele>
        <time>2017-08-17T08:57:47Z</time>
      </trkpt>
      <trkpt lat="45.93957" lon="4.80218">
        <ele>205</ele>
        <time>2017-08-17T08:57:48Z</time>
      </trkpt>
      <trkpt lat="45.93958" lon="4.80224">
        <ele>205</ele>
        <time>2017-08-17T08:57:49Z</time>
      </trkpt>
      <trkpt lat="45.9396" lon="4.80231">
        <ele>204</ele>
        <time>2017-08-17T08:57:50Z</time>
      </trkpt>
      <trkpt lat="45.93962" lon="4.80238">
        <ele>204</ele>
        <time>2017-08-17T08:57:51Z</time>
      </trkpt>
      <trkpt lat="45.93963" lon="4.80244">
        <ele>204</ele>
        <time>2017-08-17T08:57:52Z</time>
      </trkpt>
      <trkpt lat="45.93965" lon="4.80251">
        <ele>202</ele>
        <time>2017-08-17T08:57:53Z</time>
      </trkpt>
      <trkpt lat="45.93968" lon="4.80258">
        <ele>202</ele>
        <time>2017-08-17T08:57:54Z</time>
      </trkpt>
      <trkpt lat="45.93969" lon="4.80266">
        <ele>202</ele>
        <time>2017-08-17T08:57:55Z</time>
      </trkpt>
      <trkpt lat="45.93972" lon="4.80273">
        <ele>202</ele>
        <time>2017-08-17T08:57:56Z</time>
      </trkpt>
      <trkpt lat="45.93974" lon="4.8028">
        <ele>203</ele>
        <time>2017-08-17T08:57:57Z</time>
      </trkpt>
      <trkpt lat="45.93976" lon="4.80287">
        <ele>203</ele>
        <time>2017-08-17T08:57:58Z</time>
      </trkpt>
      <trkpt lat="45.93978" lon="4.80295">
        <ele>203</ele>
        <time>2017-08-17T08:57:59Z</time>
      </trkpt>
      <trkpt lat="45.93979" lon="4.80302">
        <ele>203</ele>
        <time>2017-08-17T08:58:00Z</time>
      </trkpt>
      <trkpt lat="45.93981" lon="4.80308">
        <ele>203</ele>
        <time>2017-08-17T08:58:01Z</time>
      </trkpt>
      <trkpt lat="45.93983" lon="4.80315">
        <ele>203</ele>
        <time>2017-08-17T08:58:02Z</time>
      </trkpt>
      <trkpt lat="45.93985" lon="4.80321">
        <ele>204</ele>
        <time>2017-08-17T08:58:03Z</time>
      </trkpt>
      <trkpt lat="45.93987" lon="4.80327">
        <ele>204</ele>
        <time>2017-08-17T08:58:04Z</time>
      </trkpt>
      <trkpt lat="45.9399" lon="4.80338">
        <ele>206</ele>
        <time>2017-08-17T08:58:06Z</time>
      </trkpt>
      <trkpt lat="45.93991" lon="4.80343">
        <ele>206</ele>
        <time>2017-08-17T08:58:07Z</time>
      </trkpt>
      <trkpt lat="45.93994" lon="4.80352">
        <ele>206</ele>
        <time>2017-08-17T08:58:09Z</time>
      </trkpt>
      <trkpt lat="45.93996" lon="4.80356">
        <ele>206</ele>
        <time>2017-08-17T08:58:10Z</time>
      </trkpt>
      <trkpt lat="45.93998" lon="4.80364">
        <ele>207</ele>
        <time>2017-08-17T08:58:12Z</time>
      </trkpt>
      <trkpt lat="45.93999" lon="4.80369">
        <ele>207</ele>
        <time>2017-08-17T08:58:13Z</time>
      </trkpt>
      <trkpt lat="45.94003" lon="4.80378">
        <ele>216</ele>
        <time>2017-08-17T08:58:15Z</time>
      </trkpt>
      <trkpt lat="45.94004" lon="4.80383">
        <ele>217</ele>
        <time>2017-08-17T08:58:16Z</time>
      </trkpt>
      <trkpt lat="45.94006" lon="4.80392">
        <ele>217</ele>
        <time>2017-08-17T08:58:18Z</time>
      </trkpt>
      <trkpt lat="45.94008" lon="4.80396">
        <ele>217</ele>
        <time>2017-08-17T08:58:19Z</time>
      </trkpt>
      <trkpt lat="45.94011" lon="4.80405">
        <ele>217</ele>
        <time>2017-08-17T08:58:21Z</time>
      </trkpt>
      <trkpt lat="45.94012" lon="4.80409">
        <ele>217</ele>
        <time>2017-08-17T08:58:22Z</time>
      </trkpt>
      <trkpt lat="45.94014" lon="4.80421">
        <ele>220</ele>
        <time>2017-08-17T08:58:25Z</time>
      </trkpt>
      <trkpt lat="45.94014" lon="4.80425">
        <ele>220</ele>
        <time>2017-08-17T08:58:26Z</time>
      </trkpt>
      <trkpt lat="45.94017" lon="4.80436">
        <ele>222</ele>
        <time>2017-08-17T08:58:29Z</time>
      </trkpt>
      <trkpt lat="45.94017" lon="4.8044">
        <ele>222</ele>
        <time>2017-08-17T08:58:30Z</time>
      </trkpt>
      <trkpt lat="45.94018" lon="4.80448">
        <ele>223</ele>
        <time>2017-08-17T08:58:32Z</time>
      </trkpt>
      <trkpt lat="45.94017" lon="4.80453">
        <ele>223</ele>
        <time>2017-08-17T08:58:33Z</time>
      </trkpt>
      <trkpt lat="45.94016" lon="4.80462">
        <ele>223</ele>
        <time>2017-08-17T08:58:35Z</time>
      </trkpt>
      <trkpt lat="45.94015" lon="4.80466">
        <ele>223</ele>
        <time>2017-08-17T08:58:36Z</time>
      </trkpt>
      <trkpt lat="45.94014" lon="4.80478">
        <ele>222</ele>
        <time>2017-08-17T08:58:39Z</time>
      </trkpt>
      <trkpt lat="45.94014" lon="4.80481">
        <ele>222</ele>
        <time>2017-08-17T08:58:40Z</time>
      </trkpt>
      <trkpt lat="45.94013" lon="4.80493">
        <ele>221</ele>
        <time>2017-08-17T08:58:45Z</time>
      </trkpt>
      <trkpt lat="45.94011" lon="4.80496">
        <ele>221</ele>
        <time>2017-08-17T08:58:46Z</time>
      </trkpt>
      <trkpt lat="45.9401" lon="4.80504">
        <ele>221</ele>
        <time>2017-08-17T08:58:48Z</time>
      </trkpt>
      <trkpt lat="45.94009" lon="4.80508">
        <ele>221</ele>
        <time>2017-08-17T08:58:49Z</time>
      </trkpt>
      <trkpt lat="45.9401" lon="4.80517">
        <ele>223</ele>
        <time>2017-08-17T08:58:51Z</time>
      </trkpt>
      <trkpt lat="45.9401" lon="4.80521">
        <ele>223</ele>
        <time>2017-08-17T08:58:52Z</time>
      </trkpt>
      <trkpt lat="45.94012" lon="4.80531">
        <ele>224</ele>
        <time>2017-08-17T08:58:54Z</time>
      </trkpt>
      <trkpt lat="45.94012" lon="4.80536">
        <ele>224</ele>
        <time>2017-08-17T08:58:55Z</time>
      </trkpt>
      <trkpt lat="45.94013" lon="4.80549">
        <ele>224</ele>
        <time>2017-08-17T08:58:57Z</time>
      </trkpt>
      <trkpt lat="45.94012" lon="4.80553">
        <ele>224</ele>
        <time>2017-08-17T08:58:58Z</time>
      </trkpt>
      <trkpt lat="45.94013" lon="4.80564">
        <ele>223</ele>
        <time>2017-08-17T08:59:01Z</time>
      </trkpt>
      <trkpt lat="45.94014" lon="4.80568">
        <ele>223</ele>
        <time>2017-08-17T08:59:02Z</time>
      </trkpt>
      <trkpt lat="45.94016" lon="4.80579">
        <ele>222</ele>
        <time>2017-08-17T08:59:06Z</time>
      </trkpt>
      <trkpt lat="45.94017" lon="4.80583">
        <ele>222</ele>
        <time>2017-08-17T08:59:07Z</time>
      </trkpt>
      <trkpt lat="45.9402" lon="4.80592">
        <ele>223</ele>
        <time>2017-08-17T08:59:10Z</time>
      </trkpt>
      <trkpt lat="45.94021" lon="4.80595">
        <ele>223</ele>
        <time>2017-08-17T08:59:11Z</time>
      </trkpt>
      <trkpt lat="45.94024" lon="4.80605">
        <ele>224</ele>
        <time>2017-08-17T08:59:14Z</time>
      </trkpt>
      <trkpt lat="45.94024" lon="4.80608">
        <ele>224</ele>
        <time>2017-08-17T08:59:15Z</time>
      </trkpt>
      <trkpt lat="45.94026" lon="4.80618">
        <ele>225</ele>
        <time>2017-08-17T08:59:18Z</time>
      </trkpt>
      <trkpt lat="45.94026" lon="4.80622">
        <ele>225</ele>
        <time>2017-08-17T08:59:19Z</time>
      </trkpt>
      <trkpt lat="45.94028" lon="4.80632">
        <ele>225</ele>
        <time>2017-08-17T08:59:22Z</time>
      </trkpt>
      <trkpt lat="45.94029" lon="4.80636">
        <ele>225</ele>
        <time>2017-08-17T08:59:23Z</time>
      </trkpt>
      <trkpt lat="45.94028" lon="4.80645">
        <ele>225</ele>
        <time>2017-08-17T08:59:25Z</time>
      </trkpt>
      <trkpt lat="45.94029" lon="4.80651">
        <ele>225</ele>
        <time>2017-08-17T08:59:26Z</time>
      </trkpt>
      <trkpt lat="45.94032" lon="4.80659">
        <ele>225</ele>
        <time>2017-08-17T08:59:28Z</time>
      </trkpt>
      <trkpt lat="45.94032" lon="4.80667">
        <ele>225</ele>
        <time>2017-08-17T08:59:29Z</time>
      </trkpt>
      <trkpt lat="45.94033" lon="4.80678">
        <ele>225</ele>
        <time>2017-08-17T08:59:31Z</time>
      </trkpt>
      <trkpt lat="45.94034" lon="4.80681">
        <ele>225</ele>
        <time>2017-08-17T08:59:32Z</time>
      </trkpt>
      <trkpt lat="45.94032" lon="4.80691">
        <ele>225</ele>
        <time>2017-08-17T08:59:35Z</time>
      </trkpt>
      <trkpt lat="45.94033" lon="4.80695">
        <ele>225</ele>
        <time>2017-08-17T08:59:36Z</time>
      </trkpt>
      <trkpt lat="45.94035" lon="4.80706">
        <ele>226</ele>
        <time>2017-08-17T08:59:39Z</time>
      </trkpt>
      <trkpt lat="45.94035" lon="4.8071">
        <ele>226</ele>
        <time>2017-08-17T08:59:40Z</time>
      </trkpt>
      <trkpt lat="45.94037" lon="4.80722">
        <ele>226</ele>
        <time>2017-08-17T08:59:44Z</time>
      </trkpt>
      <trkpt lat="45.94038" lon="4.80725">
        <ele>226</ele>
        <time>2017-08-17T08:59:45Z</time>
      </trkpt>
      <trkpt lat="45.9404" lon="4.80737">
        <ele>227</ele>
        <time>2017-08-17T08:59:48Z</time>
      </trkpt>
      <trkpt lat="45.9404" lon="4.80741">
        <ele>227</ele>
        <time>2017-08-17T08:59:49Z</time>
      </trkpt>
      <trkpt lat="45.94041" lon="4.80753">
        <ele>228</ele>
        <time>2017-08-17T08:59:52Z</time>
      </trkpt>
      <trkpt lat="45.94041" lon="4.80757">
        <ele>228</ele>
        <time>2017-08-17T08:59:53Z</time>
      </trkpt>
      <trkpt lat="45.94042" lon="4.8077">
        <ele>228</ele>
        <time>2017-08-17T08:59:56Z</time>
      </trkpt>
      <trkpt lat="45.94042" lon="4.80777">
        <ele>228</ele>
        <time>2017-08-17T08:59:57Z</time>
      </trkpt>
      <trkpt lat="45.94043" lon="4.80788">
        <ele>228</ele>
        <time>2017-08-17T09:00:00Z</time>
      </trkpt>
      <trkpt lat="45.94043" lon="4.80793">
        <ele>228</ele>
        <time>2017-08-17T09:00:01Z</time>
      </trkpt>
      <trkpt lat="45.94044" lon="4.80805">
        <ele>228</ele>
        <time>2017-08-17T09:00:04Z</time>
      </trkpt>
      <trkpt lat="45.94045" lon="4.80808">
        <ele>229</ele>
        <time>2017-08-17T09:00:05Z</time>
      </trkpt>
      <trkpt lat="45.94047" lon="4.80819">
        <ele>229</ele>
        <time>2017-08-17T09:00:08Z</time>
      </trkpt>
      <trkpt lat="45.94048" lon="4.80822">
        <ele>229</ele>
        <time>2017-08-17T09:00:09Z</time>
      </trkpt>
      <trkpt lat="45.94049" lon="4.80832">
        <ele>230</ele>
        <time>2017-08-17T09:00:12Z</time>
      </trkpt>
      <trkpt lat="45.94049" lon="4.80835">
        <ele>230</ele>
        <time>2017-08-17T09:00:13Z</time>
      </trkpt>
      <trkpt lat="45.9405" lon="4.80846">
        <ele>230</ele>
        <time>2017-08-17T09:00:16Z</time>
      </trkpt>
      <trkpt lat="45.94051" lon="4.8085">
        <ele>230</ele>
        <time>2017-08-17T09:00:17Z</time>
      </trkpt>
      <trkpt lat="45.94052" lon="4.80863">
        <ele>230</ele>
        <time>2017-08-17T09:00:20Z</time>
      </trkpt>
      <trkpt lat="45.94052" lon="4.80867">
        <ele>230</ele>
        <time>2017-08-17T09:00:21Z</time>
      </trkpt>
      <trkpt lat="45.94053" lon="4.8088">
        <ele>230</ele>
        <time>2017-08-17T09:00:24Z</time>
      </trkpt>
      <trkpt lat="45.94054" lon="4.80883">
        <ele>230</ele>
        <time>2017-08-17T09:00:25Z</time>
      </trkpt>
      <trkpt lat="45.94055" lon="4.80894">
        <ele>231</ele>
        <time>2017-08-17T09:00:28Z</time>
      </trkpt>
      <trkpt lat="45.94055" lon="4.80898">
        <ele>231</ele>
        <time>2017-08-17T09:00:29Z</time>
      </trkpt>
      <trkpt lat="45.94057" lon="4.80907">
        <ele>231</ele>
        <time>2017-08-17T09:00:32Z</time>
      </trkpt>
      <trkpt lat="45.94057" lon="4.8091">
        <ele>231</ele>
        <time>2017-08-17T09:00:33Z</time>
      </trkpt>
      <trkpt lat="45.94058" lon="4.8092">
        <ele>232</ele>
        <time>2017-08-17T09:00:36Z</time>
      </trkpt>
      <trkpt lat="45.94057" lon="4.80924">
        <ele>232</ele>
        <time>2017-08-17T09:00:37Z</time>
      </trkpt>
      <trkpt lat="45.94059" lon="4.80933">
        <ele>232</ele>
        <time>2017-08-17T09:00:40Z</time>
      </trkpt>
      <trkpt lat="45.9406" lon="4.80936">
        <ele>232</ele>
        <time>2017-08-17T09:00:41Z</time>
      </trkpt>
      <trkpt lat="45.94062" lon="4.80947">
        <ele>232</ele>
        <time>2017-08-17T09:00:44Z</time>
      </trkpt>
      <trkpt lat="45.94062" lon="4.80951">
        <ele>232</ele>
        <time>2017-08-17T09:00:45Z</time>
      </trkpt>
      <trkpt lat="45.94064" lon="4.80961">
        <ele>232</ele>
        <time>2017-08-17T09:00:48Z</time>
      </trkpt>
      <trkpt lat="45.94064" lon="4.80964">
        <ele>232</ele>
        <time>2017-08-17T09:00:49Z</time>
      </trkpt>
      <trkpt lat="45.94066" lon="4.80974">
        <ele>233</ele>
        <time>2017-08-17T09:00:52Z</time>
      </trkpt>
      <trkpt lat="45.94066" lon="4.80977">
        <ele>233</ele>
        <time>2017-08-17T09:00:53Z</time>
      </trkpt>
      <trkpt lat="45.94067" lon="4.80987">
        <ele>234</ele>
        <time>2017-08-17T09:00:56Z</time>
      </trkpt>
      <trkpt lat="45.94068" lon="4.80991">
        <ele>235</ele>
        <time>2017-08-17T09:00:57Z</time>
      </trkpt>
      <trkpt lat="45.9407" lon="4.81">
        <ele>236</ele>
        <time>2017-08-17T09:01:00Z</time>
      </trkpt>
      <trkpt lat="45.94072" lon="4.81004">
        <ele>236</ele>
        <time>2017-08-17T09:01:01Z</time>
      </trkpt>
      <trkpt lat="45.94075" lon="4.81015">
        <ele>235</ele>
        <time>2017-08-17T09:01:04Z</time>
      </trkpt>
      <trkpt lat="45.94076" lon="4.81018">
        <ele>235</ele>
        <time>2017-08-17T09:01:05Z</time>
      </trkpt>
      <trkpt lat="45.94078" lon="4.81028">
        <ele>234</ele>
        <time>2017-08-17T09:01:08Z</time>
      </trkpt>
      <trkpt lat="45.94079" lon="4.81031">
        <ele>234</ele>
        <time>2017-08-17T09:01:09Z</time>
      </trkpt>
      <trkpt lat="45.94082" lon="4.81041">
        <ele>234</ele>
        <time>2017-08-17T09:01:12Z</time>
      </trkpt>
      <trkpt lat="45.94082" lon="4.81044">
        <ele>233</ele>
        <time>2017-08-17T09:01:13Z</time>
      </trkpt>
      <trkpt lat="45.94086" lon="4.81053">
        <ele>243</ele>
        <time>2017-08-17T09:01:16Z</time>
      </trkpt>
      <trkpt lat="45.94087" lon="4.81056">
        <ele>243</ele>
        <time>2017-08-17T09:01:17Z</time>
      </trkpt>
      <trkpt lat="45.94091" lon="4.81066">
        <ele>242</ele>
        <time>2017-08-17T09:01:20Z</time>
      </trkpt>
      <trkpt lat="45.94092" lon="4.81068">
        <ele>242</ele>
        <time>2017-08-17T09:01:21Z</time>
      </trkpt>
      <trkpt lat="45.94097" lon="4.81079">
        <ele>241</ele>
        <time>2017-08-17T09:01:25Z</time>
      </trkpt>
      <trkpt lat="45.94098" lon="4.81082">
        <ele>241</ele>
        <time>2017-08-17T09:01:26Z</time>
      </trkpt>
      <trkpt lat="45.94102" lon="4.8109">
        <ele>241</ele>
        <time>2017-08-17T09:01:29Z</time>
      </trkpt>
      <trkpt lat="45.94104" lon="4.81094">
        <ele>241</ele>
        <time>2017-08-17T09:01:30Z</time>
      </trkpt>
      <trkpt lat="45.9411" lon="4.811">
        <ele>242</ele>
        <time>2017-08-17T09:01:33Z</time>
      </trkpt>
      <trkpt lat="45.94112" lon="4.81103">
        <ele>242</ele>
        <time>2017-08-17T09:01:34Z</time>
      </trkpt>
      <trkpt lat="45.94115" lon="4.81111">
        <ele>243</ele>
        <time>2017-08-17T09:01:36Z</time>
      </trkpt>
      <trkpt lat="45.94117" lon="4.81114">
        <ele>243</ele>
        <time>2017-08-17T09:01:37Z</time>
      </trkpt>
      <trkpt lat="45.9412" lon="4.81123">
        <ele>243</ele>
        <time>2017-08-17T09:01:40Z</time>
      </trkpt>
      <trkpt lat="45.94121" lon="4.81126">
        <ele>243</ele>
        <time>2017-08-17T09:01:41Z</time>
      </trkpt>
      <trkpt lat="45.94126" lon="4.81135">
        <ele>243</ele>
        <time>2017-08-17T09:01:44Z</time>
      </trkpt>
      <trkpt lat="45.94127" lon="4.81138">
        <ele>243</ele>
        <time>2017-08-17T09:01:45Z</time>
      </trkpt>
      <trkpt lat="45.9413" lon="4.81146">
        <ele>243</ele>
        <time>2017-08-17T09:01:48Z</time>
      </trkpt>
      <trkpt lat="45.94131" lon="4.8115">
        <ele>243</ele>
        <time>2017-08-17T09:01:49Z</time>
      </trkpt>
      <trkpt lat="45.94135" lon="4.8116">
        <ele>244</ele>
        <time>2017-08-17T09:01:52Z</time>
      </trkpt>
      <trkpt lat="45.94137" lon="4.81163">
        <ele>244</ele>
        <time>2017-08-17T09:01:53Z</time>
      </trkpt>
      <trkpt lat="45.94141" lon="4.81171">
        <ele>244</ele>
        <time>2017-08-17T09:01:56Z</time>
      </trkpt>
      <trkpt lat="45.94143" lon="4.81174">
        <ele>244</ele>
        <time>2017-08-17T09:01:57Z</time>
      </trkpt>
      <trkpt lat="45.94146" lon="4.81183">
        <ele>244</ele>
        <time>2017-08-17T09:02:00Z</time>
      </trkpt>
      <trkpt lat="45.94147" lon="4.81186">
        <ele>244</ele>
        <time>2017-08-17T09:02:01Z</time>
      </trkpt>
      <trkpt lat="45.9415" lon="4.81196">
        <ele>244</ele>
        <time>2017-08-17T09:02:04Z</time>
      </trkpt>
      <trkpt lat="45.94151" lon="4.81199">
        <ele>244</ele>
        <time>2017-08-17T09:02:05Z</time>
      </trkpt>
      <trkpt lat="45.94154" lon="4.8121">
        <ele>244</ele>
        <time>2017-08-17T09:02:09Z</time>
      </trkpt>
      <trkpt lat="45.94154" lon="4.81214">
        <ele>245</ele>
        <time>2017-08-17T09:02:10Z</time>
      </trkpt>
      <trkpt lat="45.94156" lon="4.81223">
        <ele>245</ele>
        <time>2017-08-17T09:02:13Z</time>
      </trkpt>
      <trkpt lat="45.94157" lon="4.81227">
        <ele>245</ele>
        <time>2017-08-17T09:02:14Z</time>
      </trkpt>
      <trkpt lat="45.94158" lon="4.81235">
        <ele>246</ele>
        <time>2017-08-17T09:02:17Z</time>
      </trkpt>
      <trkpt lat="45.94159" lon="4.81239">
        <ele>247</ele>
        <time>2017-08-17T09:02:18Z</time>
      </trkpt>
      <trkpt lat="45.9416" lon="4.8125">
        <ele>248</ele>
        <time>2017-08-17T09:02:21Z</time>
      </trkpt>
      <trkpt lat="45.9416" lon="4.81253">
        <ele>249</ele>
        <time>2017-08-17T09:02:22Z</time>
      </trkpt>
      <trkpt lat="45.94162" lon="4.81264">
        <ele>248</ele>
        <time>2017-08-17T09:02:25Z</time>
      </trkpt>
      <trkpt lat="45.94162" lon="4.81267">
        <ele>248</ele>
        <time>2017-08-17T09:02:26Z</time>
      </trkpt>
      <trkpt lat="45.94164" lon="4.81279">
        <ele>247</ele>
        <time>2017-08-17T09:02:29Z</time>
      </trkpt>
      <trkpt lat="45.94164" lon="4.81282">
        <ele>247</ele>
        <time>2017-08-17T09:02:30Z</time>
      </trkpt>
      <trkpt lat="45.94166" lon="4.8129">
        <ele>247</ele>
        <time>2017-08-17T09:02:32Z</time>
      </trkpt>
      <trkpt lat="45.94167" lon="4.81295">
        <ele>247</ele>
        <time>2017-08-17T09:02:33Z</time>
      </trkpt>
      <trkpt lat="45.94167" lon="4.81307">
        <ele>255</ele>
        <time>2017-08-17T09:02:36Z</time>
      </trkpt>
      <trkpt lat="45.94168" lon="4.8131">
        <ele>255</ele>
        <time>2017-08-17T09:02:37Z</time>
      </trkpt>
      <trkpt lat="45.94168" lon="4.81321">
        <ele>254</ele>
        <time>2017-08-17T09:02:40Z</time>
      </trkpt>
      <trkpt lat="45.94168" lon="4.81324">
        <ele>254</ele>
        <time>2017-08-17T09:02:41Z</time>
      </trkpt>
      <trkpt lat="45.94168" lon="4.81337">
        <ele>253</ele>
        <time>2017-08-17T09:02:44Z</time>
      </trkpt>
      <trkpt lat="45.94168" lon="4.8134">
        <ele>254</ele>
        <time>2017-08-17T09:02:45Z</time>
      </trkpt>
      <trkpt lat="45.94167" lon="4.81352">
        <ele>256</ele>
        <time>2017-08-17T09:02:49Z</time>
      </trkpt>
      <trkpt lat="45.94167" lon="4.81355">
        <ele>256</ele>
        <time>2017-08-17T09:02:50Z</time>
      </trkpt>
      <trkpt lat="45.94165" lon="4.81365">
        <ele>251</ele>
        <time>2017-08-17T09:02:53Z</time>
      </trkpt>
      <trkpt lat="45.94165" lon="4.81368">
        <ele>251</ele>
        <time>2017-08-17T09:02:54Z</time>
      </trkpt>
      <trkpt lat="45.94162" lon="4.81378">
        <ele>251</ele>
        <time>2017-08-17T09:02:57Z</time>
      </trkpt>
      <trkpt lat="45.94161" lon="4.81381">
        <ele>251</ele>
        <time>2017-08-17T09:02:58Z</time>
      </trkpt>
      <trkpt lat="45.9416" lon="4.81391">
        <ele>252</ele>
        <time>2017-08-17T09:03:01Z</time>
      </trkpt>
      <trkpt lat="45.9416" lon="4.81396">
        <ele>252</ele>
        <time>2017-08-17T09:03:02Z</time>
      </trkpt>
      <trkpt lat="45.94159" lon="4.81408">
        <ele>253</ele>
        <time>2017-08-17T09:03:04Z</time>
      </trkpt>
      <trkpt lat="45.94158" lon="4.81412">
        <ele>254</ele>
        <time>2017-08-17T09:03:05Z</time>
      </trkpt>
      <trkpt lat="45.94157" lon="4.81423">
        <ele>256</ele>
        <time>2017-08-17T09:03:08Z</time>
      </trkpt>
      <trkpt lat="45.94156" lon="4.81427">
        <ele>256</ele>
        <time>2017-08-17T09:03:09Z</time>
      </trkpt>
      <trkpt lat="45.94154" lon="4.81438">
        <ele>256</ele>
        <time>2017-08-17T09:03:12Z</time>
      </trkpt>
      <trkpt lat="45.94153" lon="4.81442">
        <ele>256</ele>
        <time>2017-08-17T09:03:13Z</time>
      </trkpt>
      <trkpt lat="45.94151" lon="4.81452">
        <ele>257</ele>
        <time>2017-08-17T09:03:16Z</time>
      </trkpt>
      <trkpt lat="45.9415" lon="4.81456">
        <ele>257</ele>
        <time>2017-08-17T09:03:17Z</time>
      </trkpt>
      <trkpt lat="45.94147" lon="4.81468">
        <ele>257</ele>
        <time>2017-08-17T09:03:21Z</time>
      </trkpt>
      <trkpt lat="45.94146" lon="4.81471">
        <ele>258</ele>
        <time>2017-08-17T09:03:22Z</time>
      </trkpt>
      <trkpt lat="45.94145" lon="4.81482">
        <ele>258</ele>
        <time>2017-08-17T09:03:25Z</time>
      </trkpt>
      <trkpt lat="45.94145" lon="4.81486">
        <ele>259</ele>
        <time>2017-08-17T09:03:26Z</time>
      </trkpt>
      <trkpt lat="45.94144" lon="4.81496">
        <ele>259</ele>
        <time>2017-08-17T09:03:29Z</time>
      </trkpt>
      <trkpt lat="45.94144" lon="4.81499">
        <ele>259</ele>
        <time>2017-08-17T09:03:30Z</time>
      </trkpt>
      <trkpt lat="45.94146" lon="4.81509">
        <ele>263</ele>
        <time>2017-08-17T09:03:33Z</time>
      </trkpt>
      <trkpt lat="45.94146" lon="4.81514">
        <ele>263</ele>
        <time>2017-08-17T09:03:34Z</time>
      </trkpt>
      <trkpt lat="45.94147" lon="4.81524">
        <ele>263</ele>
        <time>2017-08-17T09:03:37Z</time>
      </trkpt>
      <trkpt lat="45.94147" lon="4.81528">
        <ele>263</ele>
        <time>2017-08-17T09:03:38Z</time>
      </trkpt>
      <trkpt lat="45.94149" lon="4.81537">
        <ele>264</ele>
        <time>2017-08-17T09:03:40Z</time>
      </trkpt>
      <trkpt lat="45.9415" lon="4.81542">
        <ele>264</ele>
        <time>2017-08-17T09:03:41Z</time>
      </trkpt>
      <trkpt lat="45.94152" lon="4.81551">
        <ele>264</ele>
        <time>2017-08-17T09:03:43Z</time>
      </trkpt>
      <trkpt lat="45.94152" lon="4.81556">
        <ele>264</ele>
        <time>2017-08-17T09:03:44Z</time>
      </trkpt>
      <trkpt lat="45.94154" lon="4.81566">
        <ele>265</ele>
        <time>2017-08-17T09:03:47Z</time>
      </trkpt>
      <trkpt lat="45.94155" lon="4.81571">
        <ele>265</ele>
        <time>2017-08-17T09:03:48Z</time>
      </trkpt>
      <trkpt lat="45.94158" lon="4.81579">
        <ele>266</ele>
        <time>2017-08-17T09:03:50Z</time>
      </trkpt>
      <trkpt lat="45.94159" lon="4.81583">
        <ele>266</ele>
        <time>2017-08-17T09:03:51Z</time>
      </trkpt>
      <trkpt lat="45.94161" lon="4.81594">
        <ele>267</ele>
        <time>2017-08-17T09:03:54Z</time>
      </trkpt>
      <trkpt lat="45.94161" lon="4.81598">
        <ele>267</ele>
        <time>2017-08-17T09:03:55Z</time>
      </trkpt>
      <trkpt lat="45.94162" lon="4.81606">
        <ele>267</ele>
        <time>2017-08-17T09:03:57Z</time>
      </trkpt>
      <trkpt lat="45.94164" lon="4.8161">
        <ele>267</ele>
        <time>2017-08-17T09:03:58Z</time>
      </trkpt>
      <trkpt lat="45.94168" lon="4.81622">
        <ele>267</ele>
        <time>2017-08-17T09:04:01Z</time>
      </trkpt>
      <trkpt lat="45.94169" lon="4.81626">
        <ele>267</ele>
        <time>2017-08-17T09:04:02Z</time>
      </trkpt>
      <trkpt lat="45.9417" lon="4.81638">
        <ele>268</ele>
        <time>2017-08-17T09:04:05Z</time>
      </trkpt>
      <trkpt lat="45.94171" lon="4.81643">
        <ele>268</ele>
        <time>2017-08-17T09:04:06Z</time>
      </trkpt>
      <trkpt lat="45.94172" lon="4.81652">
        <ele>268</ele>
        <time>2017-08-17T09:04:08Z</time>
      </trkpt>
      <trkpt lat="45.94173" lon="4.81656">
        <ele>268</ele>
        <time>2017-08-17T09:04:09Z</time>
      </trkpt>
      <trkpt lat="45.94174" lon="4.81668">
        <ele>268</ele>
        <time>2017-08-17T09:04:12Z</time>
      </trkpt>
      <trkpt lat="45.94176" lon="4.81672">
        <ele>268</ele>
        <time>2017-08-17T09:04:13Z</time>
      </trkpt>
      <trkpt lat="45.94178" lon="4.8168">
        <ele>268</ele>
        <time>2017-08-17T09:04:15Z</time>
      </trkpt>
      <trkpt lat="45.94179" lon="4.81686">
        <ele>267</ele>
        <time>2017-08-17T09:04:16Z</time>
      </trkpt>
      <trkpt lat="45.9418" lon="4.81697">
        <ele>267</ele>
        <time>2017-08-17T09:04:18Z</time>
      </trkpt>
      <trkpt lat="45.94181" lon="4.81701">
        <ele>267</ele>
        <time>2017-08-17T09:04:19Z</time>
      </trkpt>
      <trkpt lat="45.94181" lon="4.8171">
        <ele>267</ele>
        <time>2017-08-17T09:04:21Z</time>
      </trkpt>
      <trkpt lat="45.94181" lon="4.81714">
        <ele>267</ele>
        <time>2017-08-17T09:04:22Z</time>
      </trkpt>
      <trkpt lat="45.94181" lon="4.81726">
        <ele>267</ele>
        <time>2017-08-17T09:04:25Z</time>
      </trkpt>
      <trkpt lat="45.94183" lon="4.8173">
        <ele>267</ele>
        <time>2017-08-17T09:04:26Z</time>
      </trkpt>
      <trkpt lat="45.94186" lon="4.81739">
        <ele>267</ele>
        <time>2017-08-17T09:04:28Z</time>
      </trkpt>
      <trkpt lat="45.94187" lon="4.81742">
        <ele>267</ele>
        <time>2017-08-17T09:04:29Z</time>
      </trkpt>
      <trkpt lat="45.94192" lon="4.81753">
        <ele>266</ele>
        <time>2017-08-17T09:04:32Z</time>
      </trkpt>
      <trkpt lat="45.94193" lon="4.81757">
        <ele>266</ele>
        <time>2017-08-17T09:04:33Z</time>
      </trkpt>
      <trkpt lat="45.94196" lon="4.81766">
        <ele>266</ele>
        <time>2017-08-17T09:04:35Z</time>
      </trkpt>
      <trkpt lat="45.94197" lon="4.8177">
        <ele>266</ele>
        <time>2017-08-17T09:04:36Z</time>
      </trkpt>
      <trkpt lat="45.94199" lon="4.81779">
        <ele>266</ele>
        <time>2017-08-17T09:04:38Z</time>
      </trkpt>
      <trkpt lat="45.94198" lon="4.81785">
        <ele>266</ele>
        <time>2017-08-17T09:04:39Z</time>
      </trkpt>
      <trkpt lat="45.94199" lon="4.81796">
        <ele>266</ele>
        <time>2017-08-17T09:04:41Z</time>
      </trkpt>
      <trkpt lat="45.94198" lon="4.81801">
        <ele>266</ele>
        <time>2017-08-17T09:04:42Z</time>
      </trkpt>
      <trkpt lat="45.94199" lon="4.81812">
        <ele>266</ele>
        <time>2017-08-17T09:04:44Z</time>
      </trkpt>
      <trkpt lat="45.94199" lon="4.81817">
        <ele>266</ele>
        <time>2017-08-17T09:04:45Z</time>
      </trkpt>
      <trkpt lat="45.94201" lon="4.81827">
        <ele>266</ele>
        <time>2017-08-17T09:04:47Z</time>
      </trkpt>
      <trkpt lat="45.94202" lon="4.81831">
        <ele>266</ele>
        <time>2017-08-17T09:04:48Z</time>
      </trkpt>
      <trkpt lat="45.94203" lon="4.81839">
        <ele>266</ele>
        <time>2017-08-17T09:04:50Z</time>
      </trkpt>
      <trkpt lat="45.94204" lon="4.81844">
        <ele>266</ele>
        <time>2017-08-17T09:04:51Z</time>
      </trkpt>
      <trkpt lat="45.94207" lon="4.81854">
        <ele>265</ele>
        <time>2017-08-17T09:04:53Z</time>
      </trkpt>
      <trkpt lat="45.94208" lon="4.8186">
        <ele>265</ele>
        <time>2017-08-17T09:04:54Z</time>
      </trkpt>
      <trkpt lat="45.9421" lon="4.81871">
        <ele>265</ele>
        <time>2017-08-17T09:04:56Z</time>
      </trkpt>
      <trkpt lat="45.94211" lon="4.81876">
        <ele>265</ele>
        <time>2017-08-17T09:04:57Z</time>
      </trkpt>
      <trkpt lat="45.94213" lon="4.81887">
        <ele>265</ele>
        <time>2017-08-17T09:04:59Z</time>
      </trkpt>
      <trkpt lat="45.94214" lon="4.81892">
        <ele>265</ele>
        <time>2017-08-17T09:05:00Z</time>
      </trkpt>
      <trkpt lat="45.94216" lon="4.81902">
        <ele>265</ele>
        <time>2017-08-17T09:05:02Z</time>
      </trkpt>
      <trkpt lat="45.94217" lon="4.81908">
        <ele>265</ele>
        <time>2017-08-17T09:05:03Z</time>
      </trkpt>
      <trkpt lat="45.94219" lon="4.81917">
        <ele>264</ele>
        <time>2017-08-17T09:05:05Z</time>
      </trkpt>
      <trkpt lat="45.9422" lon="4.81922">
        <ele>264</ele>
        <time>2017-08-17T09:05:06Z</time>
      </trkpt>
      <trkpt lat="45.94221" lon="4.81932">
        <ele>264</ele>
        <time>2017-08-17T09:05:08Z</time>
      </trkpt>
      <trkpt lat="45.94222" lon="4.81937">
        <ele>264</ele>
        <time>2017-08-17T09:05:09Z</time>
      </trkpt>
      <trkpt lat="45.94224" lon="4.81947">
        <ele>264</ele>
        <time>2017-08-17T09:05:11Z</time>
      </trkpt>
      <trkpt lat="45.94225" lon="4.81952">
        <ele>264</ele>
        <time>2017-08-17T09:05:12Z</time>
      </trkpt>
      <trkpt lat="45.94227" lon="4.81959">
        <ele>264</ele>
        <time>2017-08-17T09:05:13Z</time>
      </trkpt>
      <trkpt lat="45.94228" lon="4.81965">
        <ele>264</ele>
        <time>2017-08-17T09:05:14Z</time>
      </trkpt>
      <trkpt lat="45.94231" lon="4.81977">
        <ele>264</ele>
        <time>2017-08-17T09:05:16Z</time>
      </trkpt>
      <trkpt lat="45.94232" lon="4.81983">
        <ele>263</ele>
        <time>2017-08-17T09:05:17Z</time>
      </trkpt>
      <trkpt lat="45.94235" lon="4.81994">
        <ele>263</ele>
        <time>2017-08-17T09:05:19Z</time>
      </trkpt>
      <trkpt lat="45.94236" lon="4.82">
        <ele>263</ele>
        <time>2017-08-17T09:05:20Z</time>
      </trkpt>
      <trkpt lat="45.94238" lon="4.8201">
        <ele>263</ele>
        <time>2017-08-17T09:05:22Z</time>
      </trkpt>
      <trkpt lat="45.94239" lon="4.82014">
        <ele>263</ele>
        <time>2017-08-17T09:05:23Z</time>
      </trkpt>
      <trkpt lat="45.94242" lon="4.82025">
        <ele>263</ele>
        <time>2017-08-17T09:05:25Z</time>
      </trkpt>
      <trkpt lat="45.94243" lon="4.82031">
        <ele>263</ele>
        <time>2017-08-17T09:05:26Z</time>
      </trkpt>
      <trkpt lat="45.94246" lon="4.82042">
        <ele>263</ele>
        <time>2017-08-17T09:05:28Z</time>
      </trkpt>
      <trkpt lat="45.94247" lon="4.82048">
        <ele>263</ele>
        <time>2017-08-17T09:05:29Z</time>
      </trkpt>
      <trkpt lat="45.94249" lon="4.82061">
        <ele>263</ele>
        <time>2017-08-17T09:05:31Z</time>
      </trkpt>
      <trkpt lat="45.94251" lon="4.82068">
        <ele>262</ele>
        <time>2017-08-17T09:05:32Z</time>
      </trkpt>
      <trkpt lat="45.94252" lon="4.82075">
        <ele>262</ele>
        <time>2017-08-17T09:05:33Z</time>
      </trkpt>
      <trkpt lat="45.94254" lon="4.82082">
        <ele>262</ele>
        <time>2017-08-17T09:05:34Z</time>
      </trkpt>
      <trkpt lat="45.94255" lon="4.82088">
        <ele>262</ele>
        <time>2017-08-17T09:05:35Z</time>
      </trkpt>
      <trkpt lat="45.94257" lon="4.82095">
        <ele>262</ele>
        <time>2017-08-17T09:05:36Z</time>
      </trkpt>
      <trkpt lat="45.94258" lon="4.82101">
        <ele>262</ele>
        <time>2017-08-17T09:05:37Z</time>
      </trkpt>
      <trkpt lat="45.94259" lon="4.82107">
        <ele>263</ele>
        <time>2017-08-17T09:05:38Z</time>
      </trkpt>
      <trkpt lat="45.94261" lon="4.82114">
        <ele>263</ele>
        <time>2017-08-17T09:05:39Z</time>
      </trkpt>
      <trkpt lat="45.94261" lon="4.8212">
        <ele>263</ele>
        <time>2017-08-17T09:05:40Z</time>
      </trkpt>
      <trkpt lat="45.94263" lon="4.82131">
        <ele>263</ele>
        <time>2017-08-17T09:05:42Z</time>
      </trkpt>
      <trkpt lat="45.94264" lon="4.82137">
        <ele>263</ele>
        <time>2017-08-17T09:05:43Z</time>
      </trkpt>
      <trkpt lat="45.94267" lon="4.82149">
        <ele>263</ele>
        <time>2017-08-17T09:05:45Z</time>
      </trkpt>
      <trkpt lat="45.94269" lon="4.82156">
        <ele>263</ele>
        <time>2017-08-17T09:05:46Z</time>
      </trkpt>
      <trkpt lat="45.94271" lon="4.82162">
        <ele>263</ele>
        <time>2017-08-17T09:05:47Z</time>
      </trkpt>
      <trkpt lat="45.94273" lon="4.82169">
        <ele>264</ele>
        <time>2017-08-17T09:05:48Z</time>
      </trkpt>
      <trkpt lat="45.94274" lon="4.82176">
        <ele>264</ele>
        <time>2017-08-17T09:05:49Z</time>
      </trkpt>
      <trkpt lat="45.94276" lon="4.82183">
        <ele>264</ele>
        <time>2017-08-17T09:05:50Z</time>
      </trkpt>
      <trkpt lat="45.94277" lon="4.8219">
        <ele>264</ele>
        <time>2017-08-17T09:05:51Z</time>
      </trkpt>
      <trkpt lat="45.94278" lon="4.82197">
        <ele>264</ele>
        <time>2017-08-17T09:05:52Z</time>
      </trkpt>
      <trkpt lat="45.94278" lon="4.82204">
        <ele>264</ele>
        <time>2017-08-17T09:05:53Z</time>
      </trkpt>
      <trkpt lat="45.94278" lon="4.82211">
        <ele>264</ele>
        <time>2017-08-17T09:05:54Z</time>
      </trkpt>
      <trkpt lat="45.94279" lon="4.82223">
        <ele>264</ele>
        <time>2017-08-17T09:05:56Z</time>
      </trkpt>
      <trkpt lat="45.94279" lon="4.82229">
        <ele>264</ele>
        <time>2017-08-17T09:05:57Z</time>
      </trkpt>
      <trkpt lat="45.94279" lon="4.8224">
        <ele>264</ele>
        <time>2017-08-17T09:05:59Z</time>
      </trkpt>
      <trkpt lat="45.94279" lon="4.82247">
        <ele>264</ele>
        <time>2017-08-17T09:06:00Z</time>
      </trkpt>
      <trkpt lat="45.9428" lon="4.82253">
        <ele>265</ele>
        <time>2017-08-17T09:06:01Z</time>
      </trkpt>
      <trkpt lat="45.9428" lon="4.82261">
        <ele>265</ele>
        <time>2017-08-17T09:06:02Z</time>
      </trkpt>
      <trkpt lat="45.9428" lon="4.82268">
        <ele>265</ele>
        <time>2017-08-17T09:06:03Z</time>
      </trkpt>
      <trkpt lat="45.94281" lon="4.82276">
        <ele>265</ele>
        <time>2017-08-17T09:06:04Z</time>
      </trkpt>
      <trkpt lat="45.94282" lon="4.82283">
        <ele>265</ele>
        <time>2017-08-17T09:06:05Z</time>
      </trkpt>
      <trkpt lat="45.94282" lon="4.82289">
        <ele>265</ele>
        <time>2017-08-17T09:06:06Z</time>
      </trkpt>
      <trkpt lat="45.94283" lon="4.82302">
        <ele>265</ele>
        <time>2017-08-17T09:06:08Z</time>
      </trkpt>
      <trkpt lat="45.94284" lon="4.82307">
        <ele>265</ele>
        <time>2017-08-17T09:06:09Z</time>
      </trkpt>
      <trkpt lat="45.94284" lon="4.82318">
        <ele>265</ele>
        <time>2017-08-17T09:06:11Z</time>
      </trkpt>
      <trkpt lat="45.94284" lon="4.82324">
        <ele>265</ele>
        <time>2017-08-17T09:06:12Z</time>
      </trkpt>
      <trkpt lat="45.94284" lon="4.8233">
        <ele>265</ele>
        <time>2017-08-17T09:06:13Z</time>
      </trkpt>
      <trkpt lat="45.94284" lon="4.82337">
        <ele>264</ele>
        <time>2017-08-17T09:06:14Z</time>
      </trkpt>
      <trkpt lat="45.94285" lon="4.82344">
        <ele>264</ele>
        <time>2017-08-17T09:06:15Z</time>
      </trkpt>
      <trkpt lat="45.94285" lon="4.82351">
        <ele>264</ele>
        <time>2017-08-17T09:06:16Z</time>
      </trkpt>
      <trkpt lat="45.94285" lon="4.82361">
        <ele>264</ele>
        <time>2017-08-17T09:06:18Z</time>
      </trkpt>
      <trkpt lat="45.94285" lon="4.82363">
        <ele>264</ele>
        <time>2017-08-17T09:06:19Z</time>
      </trkpt>
      <trkpt lat="45.94286" lon="4.82355">
        <ele>264</ele>
        <time>2017-08-17T09:06:29Z</time>
      </trkpt>
      <trkpt lat="45.94286" lon="4.82353">
        <ele>264</ele>
        <time>2017-08-17T09:06:30Z</time>
      </trkpt>
      <trkpt lat="45.94285" lon="4.82363">
        <ele>264</ele>
        <time>2017-08-17T09:06:52Z</time>
      </trkpt>
      <trkpt lat="45.94286" lon="4.82367">
        <ele>264</ele>
        <time>2017-08-17T09:06:53Z</time>
      </trkpt>
      <trkpt lat="45.94286" lon="4.82376">
        <ele>264</ele>
        <time>2017-08-17T09:06:55Z</time>
      </trkpt>
      <trkpt lat="45.94286" lon="4.82382">
        <ele>264</ele>
        <time>2017-08-17T09:06:56Z</time>
      </trkpt>
      <trkpt lat="45.94286" lon="4.82393">
        <ele>264</ele>
        <time>2017-08-17T09:06:58Z</time>
      </trkpt>
      <trkpt lat="45.94287" lon="4.82399">
        <ele>264</ele>
        <time>2017-08-17T09:06:59Z</time>
      </trkpt>
      <trkpt lat="45.94287" lon="4.82411">
        <ele>264</ele>
        <time>2017-08-17T09:07:01Z</time>
      </trkpt>
      <trkpt lat="45.94287" lon="4.82416">
        <ele>264</ele>
        <time>2017-08-17T09:07:02Z</time>
      </trkpt>
      <trkpt lat="45.94288" lon="4.82429">
        <ele>264</ele>
        <time>2017-08-17T09:07:04Z</time>
      </trkpt>
      <trkpt lat="45.94288" lon="4.82436">
        <ele>264</ele>
        <time>2017-08-17T09:07:05Z</time>
      </trkpt>
      <trkpt lat="45.94289" lon="4.82447">
        <ele>264</ele>
        <time>2017-08-17T09:07:07Z</time>
      </trkpt>
      <trkpt lat="45.94289" lon="4.82453">
        <ele>264</ele>
        <time>2017-08-17T09:07:08Z</time>
      </trkpt>
      <trkpt lat="45.9429" lon="4.82464">
        <ele>264</ele>
        <time>2017-08-17T09:07:10Z</time>
      </trkpt>
      <trkpt lat="45.9429" lon="4.82471">
        <ele>264</ele>
        <time>2017-08-17T09:07:11Z</time>
      </trkpt>
      <trkpt lat="45.94291" lon="4.82477">
        <ele>264</ele>
        <time>2017-08-17T09:07:12Z</time>
      </trkpt>
      <trkpt lat="45.94291" lon="4.82484">
        <ele>264</ele>
        <time>2017-08-17T09:07:13Z</time>
      </trkpt>
      <trkpt lat="45.94291" lon="4.82491">
        <ele>264</ele>
        <time>2017-08-17T09:07:14Z</time>
      </trkpt>
      <trkpt lat="45.94291" lon="4.82497">
        <ele>264</ele>
        <time>2017-08-17T09:07:15Z</time>
      </trkpt>
      <trkpt lat="45.9429" lon="4.8251">
        <ele>264</ele>
        <time>2017-08-17T09:07:17Z</time>
      </trkpt>
      <trkpt lat="45.9429" lon="4.82516">
        <ele>264</ele>
        <time>2017-08-17T09:07:18Z</time>
      </trkpt>
      <trkpt lat="45.94289" lon="4.82526">
        <ele>264</ele>
        <time>2017-08-17T09:07:20Z</time>
      </trkpt>
      <trkpt lat="45.9429" lon="4.82531">
        <ele>264</ele>
        <time>2017-08-17T09:07:21Z</time>
      </trkpt>
      <trkpt lat="45.9429" lon="4.82543">
        <ele>264</ele>
        <time>2017-08-17T09:07:23Z</time>
      </trkpt>
      <trkpt lat="45.94289" lon="4.82549">
        <ele>264</ele>
        <time>2017-08-17T09:07:24Z</time>
      </trkpt>
      <trkpt lat="45.94289" lon="4.82556">
        <ele>264</ele>
        <time>2017-08-17T09:07:25Z</time>
      </trkpt>
      <trkpt lat="45.9429" lon="4.82564">
        <ele>264</ele>
        <time>2017-08-17T09:07:26Z</time>
      </trkpt>
      <trkpt lat="45.9429" lon="4.82571">
        <ele>265</ele>
        <time>2017-08-17T09:07:27Z</time>
      </trkpt>
      <trkpt lat="45.9429" lon="4.82579">
        <ele>265</ele>
        <time>2017-08-17T09:07:28Z</time>
      </trkpt>
      <trkpt lat="45.94289" lon="4.82586">
        <ele>265</ele>
        <time>2017-08-17T09:07:29Z</time>
      </trkpt>
      <trkpt lat="45.94289" lon="4.82593">
        <ele>265</ele>
        <time>2017-08-17T09:07:30Z</time>
      </trkpt>
      <trkpt lat="45.94289" lon="4.826">
        <ele>265</ele>
        <time>2017-08-17T09:07:31Z</time>
      </trkpt>
      <trkpt lat="45.94289" lon="4.82607">
        <ele>265</ele>
        <time>2017-08-17T09:07:32Z</time>
      </trkpt>
      <trkpt lat="45.94289" lon="4.82614">
        <ele>265</ele>
        <time>2017-08-17T09:07:33Z</time>
      </trkpt>
      <trkpt lat="45.94288" lon="4.82621">
        <ele>265</ele>
        <time>2017-08-17T09:07:34Z</time>
      </trkpt>
      <trkpt lat="45.94288" lon="4.82628">
        <ele>265</ele>
        <time>2017-08-17T09:07:35Z</time>
      </trkpt>
      <trkpt lat="45.94288" lon="4.82636">
        <ele>265</ele>
        <time>2017-08-17T09:07:36Z</time>
      </trkpt>
      <trkpt lat="45.94288" lon="4.82644">
        <ele>265</ele>
        <time>2017-08-17T09:07:37Z</time>
      </trkpt>
      <trkpt lat="45.94288" lon="4.82652">
        <ele>265</ele>
        <time>2017-08-17T09:07:38Z</time>
      </trkpt>
      <trkpt lat="45.94288" lon="4.82661">
        <ele>265</ele>
        <time>2017-08-17T09:07:39Z</time>
      </trkpt>
      <trkpt lat="45.94288" lon="4.82668">
        <ele>265</ele>
        <time>2017-08-17T09:07:40Z</time>
      </trkpt>
      <trkpt lat="45.94288" lon="4.82676">
        <ele>265</ele>
        <time>2017-08-17T09:07:41Z</time>
      </trkpt>
      <trkpt lat="45.94288" lon="4.82683">
        <ele>265</ele>
        <time>2017-08-17T09:07:42Z</time>
      </trkpt>
      <trkpt lat="45.94288" lon="4.8269">
        <ele>265</ele>
        <time>2017-08-17T09:07:43Z</time>
      </trkpt>
      <trkpt lat="45.94288" lon="4.82697">
        <ele>265</ele>
        <time>2017-08-17T09:07:44Z</time>
      </trkpt>
      <trkpt lat="45.94288" lon="4.82704">
        <ele>265</ele>
        <time>2017-08-17T09:07:45Z</time>
      </trkpt>
      <trkpt lat="45.94288" lon="4.8271">
        <ele>265</ele>
        <time>2017-08-17T09:07:46Z</time>
      </trkpt>
      <trkpt lat="45.94288" lon="4.82723">
        <ele>265</ele>
        <time>2017-08-17T09:07:48Z</time>
      </trkpt>
      <trkpt lat="45.94288" lon="4.8273">
        <ele>265</ele>
        <time>2017-08-17T09:07:49Z</time>
      </trkpt>
      <trkpt lat="45.94288" lon="4.82736">
        <ele>265</ele>
        <time>2017-08-17T09:07:50Z</time>
      </trkpt>
      <trkpt lat="45.94288" lon="4.82743">
        <ele>265</ele>
        <time>2017-08-17T09:07:51Z</time>
      </trkpt>
      <trkpt lat="45.94289" lon="4.8275">
        <ele>265</ele>
        <time>2017-08-17T09:07:52Z</time>
      </trkpt>
      <trkpt lat="45.94288" lon="4.82757">
        <ele>265</ele>
        <time>2017-08-17T09:07:53Z</time>
      </trkpt>
      <trkpt lat="45.94289" lon="4.82764">
        <ele>265</ele>
        <time>2017-08-17T09:07:54Z</time>
      </trkpt>
      <trkpt lat="45.94289" lon="4.82771">
        <ele>265</ele>
        <time>2017-08-17T09:07:55Z</time>
      </trkpt>
      <trkpt lat="45.94289" lon="4.82778">
        <ele>265</ele>
        <time>2017-08-17T09:07:56Z</time>
      </trkpt>
      <trkpt lat="45.94289" lon="4.82785">
        <ele>265</ele>
        <time>2017-08-17T09:07:57Z</time>
      </trkpt>
      <trkpt lat="45.94288" lon="4.82797">
        <ele>265</ele>
        <time>2017-08-17T09:07:59Z</time>
      </trkpt>
      <trkpt lat="45.94288" lon="4.82803">
        <ele>265</ele>
        <time>2017-08-17T09:08:00Z</time>
      </trkpt>
      <trkpt lat="45.94288" lon="4.8281">
        <ele>265</ele>
        <time>2017-08-17T09:08:01Z</time>
      </trkpt>
      <trkpt lat="45.94288" lon="4.82817">
        <ele>265</ele>
        <time>2017-08-17T09:08:02Z</time>
      </trkpt>
      <trkpt lat="45.94288" lon="4.82824">
        <ele>265</ele>
        <time>2017-08-17T09:08:03Z</time>
      </trkpt>
      <trkpt lat="45.94288" lon="4.82831">
        <ele>265</ele>
        <time>2017-08-17T09:08:04Z</time>
      </trkpt>
      <trkpt lat="45.94287" lon="4.82838">
        <ele>265</ele>
        <time>2017-08-17T09:08:05Z</time>
      </trkpt>
      <trkpt lat="45.94287" lon="4.82846">
        <ele>265</ele>
        <time>2017-08-17T09:08:06Z</time>
      </trkpt>
      <trkpt lat="45.94286" lon="4.82854">
        <ele>265</ele>
        <time>2017-08-17T09:08:07Z</time>
      </trkpt>
      <trkpt lat="45.94286" lon="4.82862">
        <ele>265</ele>
        <time>2017-08-17T09:08:08Z</time>
      </trkpt>
      <trkpt lat="45.94285" lon="4.82869">
        <ele>265</ele>
        <time>2017-08-17T09:08:09Z</time>
      </trkpt>
      <trkpt lat="45.94285" lon="4.82875">
        <ele>265</ele>
        <time>2017-08-17T09:08:10Z</time>
      </trkpt>
      <trkpt lat="45.94285" lon="4.82882">
        <ele>265</ele>
        <time>2017-08-17T09:08:11Z</time>
      </trkpt>
      <trkpt lat="45.94285" lon="4.82888">
        <ele>265</ele>
        <time>2017-08-17T09:08:12Z</time>
      </trkpt>
      <trkpt lat="45.94285" lon="4.82895">
        <ele>265</ele>
        <time>2017-08-17T09:08:13Z</time>
      </trkpt>
      <trkpt lat="45.94284" lon="4.82902">
        <ele>265</ele>
        <time>2017-08-17T09:08:14Z</time>
      </trkpt>
      <trkpt lat="45.94283" lon="4.82909">
        <ele>265</ele>
        <time>2017-08-17T09:08:15Z</time>
      </trkpt>
      <trkpt lat="45.94282" lon="4.82917">
        <ele>265</ele>
        <time>2017-08-17T09:08:16Z</time>
      </trkpt>
      <trkpt lat="45.94281" lon="4.82924">
        <ele>265</ele>
        <time>2017-08-17T09:08:17Z</time>
      </trkpt>
      <trkpt lat="45.9428" lon="4.82932">
        <ele>265</ele>
        <time>2017-08-17T09:08:18Z</time>
      </trkpt>
      <trkpt lat="45.9428" lon="4.82938">
        <ele>265</ele>
        <time>2017-08-17T09:08:19Z</time>
      </trkpt>
      <trkpt lat="45.9428" lon="4.82945">
        <ele>265</ele>
        <time>2017-08-17T09:08:20Z</time>
      </trkpt>
      <trkpt lat="45.9428" lon="4.82952">
        <ele>265</ele>
        <time>2017-08-17T09:08:21Z</time>
      </trkpt>
      <trkpt lat="45.94282" lon="4.82959">
        <ele>265</ele>
        <time>2017-08-17T09:08:22Z</time>
      </trkpt>
      <trkpt lat="45.94284" lon="4.82965">
        <ele>265</ele>
        <time>2017-08-17T09:08:23Z</time>
      </trkpt>
      <trkpt lat="45.94286" lon="4.82971">
        <ele>265</ele>
        <time>2017-08-17T09:08:24Z</time>
      </trkpt>
      <trkpt lat="45.94288" lon="4.82978">
        <ele>265</ele>
        <time>2017-08-17T09:08:25Z</time>
      </trkpt>
      <trkpt lat="45.9429" lon="4.82984">
        <ele>265</ele>
        <time>2017-08-17T09:08:26Z</time>
      </trkpt>
      <trkpt lat="45.94292" lon="4.8299">
        <ele>265</ele>
        <time>2017-08-17T09:08:27Z</time>
      </trkpt>
      <trkpt lat="45.94294" lon="4.82997">
        <ele>265</ele>
        <time>2017-08-17T09:08:28Z</time>
      </trkpt>
      <trkpt lat="45.94295" lon="4.83005">
        <ele>266</ele>
        <time>2017-08-17T09:08:29Z</time>
      </trkpt>
      <trkpt lat="45.94296" lon="4.83012">
        <ele>266</ele>
        <time>2017-08-17T09:08:30Z</time>
      </trkpt>
      <trkpt lat="45.94297" lon="4.83019">
        <ele>266</ele>
        <time>2017-08-17T09:08:31Z</time>
      </trkpt>
      <trkpt lat="45.94298" lon="4.83026">
        <ele>266</ele>
        <time>2017-08-17T09:08:32Z</time>
      </trkpt>
      <trkpt lat="45.94299" lon="4.83032">
        <ele>266</ele>
        <time>2017-08-17T09:08:33Z</time>
      </trkpt>
      <trkpt lat="45.943" lon="4.83038">
        <ele>266</ele>
        <time>2017-08-17T09:08:34Z</time>
      </trkpt>
      <trkpt lat="45.94302" lon="4.8305">
        <ele>266</ele>
        <time>2017-08-17T09:08:36Z</time>
      </trkpt>
      <trkpt lat="45.94303" lon="4.83055">
        <ele>266</ele>
        <time>2017-08-17T09:08:37Z</time>
      </trkpt>
      <trkpt lat="45.94305" lon="4.83066">
        <ele>266</ele>
        <time>2017-08-17T09:08:39Z</time>
      </trkpt>
      <trkpt lat="45.94307" lon="4.83071">
        <ele>266</ele>
        <time>2017-08-17T09:08:40Z</time>
      </trkpt>
      <trkpt lat="45.94309" lon="4.83082">
        <ele>266</ele>
        <time>2017-08-17T09:08:42Z</time>
      </trkpt>
      <trkpt lat="45.9431" lon="4.83088">
        <ele>266</ele>
        <time>2017-08-17T09:08:43Z</time>
      </trkpt>
      <trkpt lat="45.94312" lon="4.83093">
        <ele>266</ele>
        <time>2017-08-17T09:08:44Z</time>
      </trkpt>
      <trkpt lat="45.94314" lon="4.831">
        <ele>266</ele>
        <time>2017-08-17T09:08:45Z</time>
      </trkpt>
      <trkpt lat="45.94316" lon="4.83106">
        <ele>266</ele>
        <time>2017-08-17T09:08:46Z</time>
      </trkpt>
      <trkpt lat="45.94319" lon="4.83113">
        <ele>266</ele>
        <time>2017-08-17T09:08:47Z</time>
      </trkpt>
      <trkpt lat="45.94321" lon="4.8312">
        <ele>266</ele>
        <time>2017-08-17T09:08:48Z</time>
      </trkpt>
      <trkpt lat="45.94323" lon="4.83127">
        <ele>266</ele>
        <time>2017-08-17T09:08:49Z</time>
      </trkpt>
      <trkpt lat="45.94325" lon="4.83134">
        <ele>266</ele>
        <time>2017-08-17T09:08:50Z</time>
      </trkpt>
      <trkpt lat="45.94328" lon="4.8314">
        <ele>266</ele>
        <time>2017-08-17T09:08:51Z</time>
      </trkpt>
      <trkpt lat="45.9433" lon="4.83147">
        <ele>266</ele>
        <time>2017-08-17T09:08:52Z</time>
      </trkpt>
      <trkpt lat="45.94332" lon="4.83154">
        <ele>266</ele>
        <time>2017-08-17T09:08:53Z</time>
      </trkpt>
      <trkpt lat="45.94335" lon="4.8316">
        <ele>266</ele>
        <time>2017-08-17T09:08:54Z</time>
      </trkpt>
      <trkpt lat="45.94337" lon="4.83166">
        <ele>266</ele>
        <time>2017-08-17T09:08:55Z</time>
      </trkpt>
      <trkpt lat="45.94339" lon="4.83172">
        <ele>266</ele>
        <time>2017-08-17T09:08:56Z</time>
      </trkpt>
      <trkpt lat="45.94342" lon="4.83178">
        <ele>266</ele>
        <time>2017-08-17T09:08:57Z</time>
      </trkpt>
      <trkpt lat="45.94344" lon="4.83184">
        <ele>266</ele>
        <time>2017-08-17T09:08:58Z</time>
      </trkpt>
      <trkpt lat="45.94346" lon="4.83189">
        <ele>266</ele>
        <time>2017-08-17T09:08:59Z</time>
      </trkpt>
      <trkpt lat="45.94348" lon="4.83195">
        <ele>266</ele>
        <time>2017-08-17T09:09:00Z</time>
      </trkpt>
      <trkpt lat="45.9435" lon="4.83201">
        <ele>266</ele>
        <time>2017-08-17T09:09:01Z</time>
      </trkpt>
      <trkpt lat="45.94353" lon="4.83207">
        <ele>266</ele>
        <time>2017-08-17T09:09:02Z</time>
      </trkpt>
      <trkpt lat="45.94354" lon="4.83213">
        <ele>266</ele>
        <time>2017-08-17T09:09:03Z</time>
      </trkpt>
      <trkpt lat="45.94356" lon="4.8322">
        <ele>266</ele>
        <time>2017-08-17T09:09:04Z</time>
      </trkpt>
      <trkpt lat="45.94358" lon="4.83226">
        <ele>266</ele>
        <time>2017-08-17T09:09:05Z</time>
      </trkpt>
      <trkpt lat="45.9436" lon="4.83233">
        <ele>265</ele>
        <time>2017-08-17T09:09:06Z</time>
      </trkpt>
      <trkpt lat="45.94362" lon="4.83239">
        <ele>265</ele>
        <time>2017-08-17T09:09:07Z</time>
      </trkpt>
      <trkpt lat="45.94364" lon="4.83245">
        <ele>265</ele>
        <time>2017-08-17T09:09:08Z</time>
      </trkpt>
      <trkpt lat="45.94366" lon="4.83251">
        <ele>265</ele>
        <time>2017-08-17T09:09:09Z</time>
      </trkpt>
      <trkpt lat="45.94369" lon="4.83258">
        <ele>265</ele>
        <time>2017-08-17T09:09:10Z</time>
      </trkpt>
      <trkpt lat="45.94371" lon="4.83264">
        <ele>264</ele>
        <time>2017-08-17T09:09:11Z</time>
      </trkpt>
      <trkpt lat="45.94373" lon="4.83271">
        <ele>264</ele>
        <time>2017-08-17T09:09:12Z</time>
      </trkpt>
      <trkpt lat="45.94376" lon="4.83278">
        <ele>264</ele>
        <time>2017-08-17T09:09:13Z</time>
      </trkpt>
      <trkpt lat="45.94378" lon="4.83284">
        <ele>264</ele>
        <time>2017-08-17T09:09:14Z</time>
      </trkpt>
      <trkpt lat="45.94381" lon="4.83291">
        <ele>264</ele>
        <time>2017-08-17T09:09:15Z</time>
      </trkpt>
      <trkpt lat="45.94383" lon="4.83297">
        <ele>264</ele>
        <time>2017-08-17T09:09:16Z</time>
      </trkpt>
      <trkpt lat="45.94385" lon="4.83304">
        <ele>264</ele>
        <time>2017-08-17T09:09:17Z</time>
      </trkpt>
      <trkpt lat="45.94388" lon="4.8331">
        <ele>264</ele>
        <time>2017-08-17T09:09:18Z</time>
      </trkpt>
      <trkpt lat="45.9439" lon="4.83317">
        <ele>264</ele>
        <time>2017-08-17T09:09:19Z</time>
      </trkpt>
      <trkpt lat="45.94393" lon="4.83323">
        <ele>264</ele>
        <time>2017-08-17T09:09:20Z</time>
      </trkpt>
      <trkpt lat="45.94395" lon="4.8333">
        <ele>264</ele>
        <time>2017-08-17T09:09:21Z</time>
      </trkpt>
      <trkpt lat="45.94397" lon="4.83336">
        <ele>263</ele>
        <time>2017-08-17T09:09:22Z</time>
      </trkpt>
      <trkpt lat="45.944" lon="4.83343">
        <ele>263</ele>
        <time>2017-08-17T09:09:23Z</time>
      </trkpt>
      <trkpt lat="45.94403" lon="4.83349">
        <ele>263</ele>
        <time>2017-08-17T09:09:24Z</time>
      </trkpt>
      <trkpt lat="45.94407" lon="4.83356">
        <ele>263</ele>
        <time>2017-08-17T09:09:25Z</time>
      </trkpt>
      <trkpt lat="45.9441" lon="4.83363">
        <ele>264</ele>
        <time>2017-08-17T09:09:26Z</time>
      </trkpt>
      <trkpt lat="45.94413" lon="4.8337">
        <ele>264</ele>
        <time>2017-08-17T09:09:27Z</time>
      </trkpt>
      <trkpt lat="45.94415" lon="4.83377">
        <ele>264</ele>
        <time>2017-08-17T09:09:28Z</time>
      </trkpt>
      <trkpt lat="45.94418" lon="4.83384">
        <ele>264</ele>
        <time>2017-08-17T09:09:29Z</time>
      </trkpt>
      <trkpt lat="45.94421" lon="4.8339">
        <ele>264</ele>
        <time>2017-08-17T09:09:30Z</time>
      </trkpt>
      <trkpt lat="45.94425" lon="4.83396">
        <ele>264</ele>
        <time>2017-08-17T09:09:31Z</time>
      </trkpt>
      <trkpt lat="45.94427" lon="4.83403">
        <ele>264</ele>
        <time>2017-08-17T09:09:32Z</time>
      </trkpt>
      <trkpt lat="45.94431" lon="4.83409">
        <ele>264</ele>
        <time>2017-08-17T09:09:33Z</time>
      </trkpt>
      <trkpt lat="45.94434" lon="4.83414">
        <ele>264</ele>
        <time>2017-08-17T09:09:34Z</time>
      </trkpt>
      <trkpt lat="45.94436" lon="4.8342">
        <ele>264</ele>
        <time>2017-08-17T09:09:35Z</time>
      </trkpt>
      <trkpt lat="45.94439" lon="4.83426">
        <ele>264</ele>
        <time>2017-08-17T09:09:36Z</time>
      </trkpt>
      <trkpt lat="45.94442" lon="4.83431">
        <ele>263</ele>
        <time>2017-08-17T09:09:37Z</time>
      </trkpt>
      <trkpt lat="45.94444" lon="4.83437">
        <ele>263</ele>
        <time>2017-08-17T09:09:38Z</time>
      </trkpt>
      <trkpt lat="45.94447" lon="4.83443">
        <ele>263</ele>
        <time>2017-08-17T09:09:39Z</time>
      </trkpt>
      <trkpt lat="45.94451" lon="4.83449">
        <ele>263</ele>
        <time>2017-08-17T09:09:40Z</time>
      </trkpt>
      <trkpt lat="45.94454" lon="4.83454">
        <ele>263</ele>
        <time>2017-08-17T09:09:41Z</time>
      </trkpt>
      <trkpt lat="45.94456" lon="4.8346">
        <ele>263</ele>
        <time>2017-08-17T09:09:42Z</time>
      </trkpt>
      <trkpt lat="45.94459" lon="4.83466">
        <ele>263</ele>
        <time>2017-08-17T09:09:43Z</time>
      </trkpt>
      <trkpt lat="45.94463" lon="4.83472">
        <ele>263</ele>
        <time>2017-08-17T09:09:44Z</time>
      </trkpt>
      <trkpt lat="45.94467" lon="4.83479">
        <ele>263</ele>
        <time>2017-08-17T09:09:45Z</time>
      </trkpt>
      <trkpt lat="45.9447" lon="4.83485">
        <ele>263</ele>
        <time>2017-08-17T09:09:46Z</time>
      </trkpt>
      <trkpt lat="45.94474" lon="4.83491">
        <ele>263</ele>
        <time>2017-08-17T09:09:47Z</time>
      </trkpt>
      <trkpt lat="45.94478" lon="4.83498">
        <ele>263</ele>
        <time>2017-08-17T09:09:48Z</time>
      </trkpt>
      <trkpt lat="45.94481" lon="4.83504">
        <ele>262</ele>
        <time>2017-08-17T09:09:49Z</time>
      </trkpt>
      <trkpt lat="45.94485" lon="4.83509">
        <ele>262</ele>
        <time>2017-08-17T09:09:50Z</time>
      </trkpt>
      <trkpt lat="45.94489" lon="4.83515">
        <ele>262</ele>
        <time>2017-08-17T09:09:51Z</time>
      </trkpt>
      <trkpt lat="45.94492" lon="4.83521">
        <ele>262</ele>
        <time>2017-08-17T09:09:52Z</time>
      </trkpt>
      <trkpt lat="45.94495" lon="4.83526">
        <ele>262</ele>
        <time>2017-08-17T09:09:53Z</time>
      </trkpt>
      <trkpt lat="45.94499" lon="4.83531">
        <ele>262</ele>
        <time>2017-08-17T09:09:54Z</time>
      </trkpt>
      <trkpt lat="45.94502" lon="4.83537">
        <ele>262</ele>
        <time>2017-08-17T09:09:55Z</time>
      </trkpt>
      <trkpt lat="45.94505" lon="4.83542">
        <ele>262</ele>
        <time>2017-08-17T09:09:56Z</time>
      </trkpt>
      <trkpt lat="45.94509" lon="4.83548">
        <ele>261</ele>
        <time>2017-08-17T09:09:57Z</time>
      </trkpt>
      <trkpt lat="45.94512" lon="4.83552">
        <ele>261</ele>
        <time>2017-08-17T09:09:58Z</time>
      </trkpt>
      <trkpt lat="45.94516" lon="4.83557">
        <ele>261</ele>
        <time>2017-08-17T09:09:59Z</time>
      </trkpt>
      <trkpt lat="45.9452" lon="4.83562">
        <ele>261</ele>
        <time>2017-08-17T09:10:00Z</time>
      </trkpt>
      <trkpt lat="45.94523" lon="4.83568">
        <ele>261</ele>
        <time>2017-08-17T09:10:01Z</time>
      </trkpt>
      <trkpt lat="45.94527" lon="4.83573">
        <ele>261</ele>
        <time>2017-08-17T09:10:02Z</time>
      </trkpt>
      <trkpt lat="45.94532" lon="4.83579">
        <ele>261</ele>
        <time>2017-08-17T09:10:03Z</time>
      </trkpt>
      <trkpt lat="45.94537" lon="4.83584">
        <ele>261</ele>
        <time>2017-08-17T09:10:04Z</time>
      </trkpt>
      <trkpt lat="45.94541" lon="4.83589">
        <ele>261</ele>
        <time>2017-08-17T09:10:05Z</time>
      </trkpt>
      <trkpt lat="45.94545" lon="4.83595">
        <ele>261</ele>
        <time>2017-08-17T09:10:06Z</time>
      </trkpt>
      <trkpt lat="45.9455" lon="4.83601">
        <ele>261</ele>
        <time>2017-08-17T09:10:07Z</time>
      </trkpt>
      <trkpt lat="45.94555" lon="4.83606">
        <ele>261</ele>
        <time>2017-08-17T09:10:08Z</time>
      </trkpt>
      <trkpt lat="45.9456" lon="4.83611">
        <ele>261</ele>
        <time>2017-08-17T09:10:09Z</time>
      </trkpt>
      <trkpt lat="45.94564" lon="4.83615">
        <ele>261</ele>
        <time>2017-08-17T09:10:10Z</time>
      </trkpt>
      <trkpt lat="45.94569" lon="4.8362">
        <ele>261</ele>
        <time>2017-08-17T09:10:11Z</time>
      </trkpt>
      <trkpt lat="45.94574" lon="4.83625">
        <ele>261</ele>
        <time>2017-08-17T09:10:12Z</time>
      </trkpt>
      <trkpt lat="45.94578" lon="4.83631">
        <ele>261</ele>
        <time>2017-08-17T09:10:13Z</time>
      </trkpt>
      <trkpt lat="45.94583" lon="4.83635">
        <ele>261</ele>
        <time>2017-08-17T09:10:14Z</time>
      </trkpt>
      <trkpt lat="45.94587" lon="4.83639">
        <ele>260</ele>
        <time>2017-08-17T09:10:15Z</time>
      </trkpt>
      <trkpt lat="45.94592" lon="4.83644">
        <ele>260</ele>
        <time>2017-08-17T09:10:16Z</time>
      </trkpt>
      <trkpt lat="45.94596" lon="4.83648">
        <ele>260</ele>
        <time>2017-08-17T09:10:17Z</time>
      </trkpt>
      <trkpt lat="45.946" lon="4.83652">
        <ele>260</ele>
        <time>2017-08-17T09:10:18Z</time>
      </trkpt>
      <trkpt lat="45.94604" lon="4.83656">
        <ele>260</ele>
        <time>2017-08-17T09:10:19Z</time>
      </trkpt>
      <trkpt lat="45.94609" lon="4.8366">
        <ele>260</ele>
        <time>2017-08-17T09:10:20Z</time>
      </trkpt>
      <trkpt lat="45.94613" lon="4.83664">
        <ele>260</ele>
        <time>2017-08-17T09:10:21Z</time>
      </trkpt>
      <trkpt lat="45.94618" lon="4.83669">
        <ele>261</ele>
        <time>2017-08-17T09:10:22Z</time>
      </trkpt>
      <trkpt lat="45.94623" lon="4.83674">
        <ele>261</ele>
        <time>2017-08-17T09:10:23Z</time>
      </trkpt>
      <trkpt lat="45.94628" lon="4.83679">
        <ele>261</ele>
        <time>2017-08-17T09:10:24Z</time>
      </trkpt>
      <trkpt lat="45.94633" lon="4.83684">
        <ele>261</ele>
        <time>2017-08-17T09:10:25Z</time>
      </trkpt>
      <trkpt lat="45.94638" lon="4.83689">
        <ele>261</ele>
        <time>2017-08-17T09:10:26Z</time>
      </trkpt>
      <trkpt lat="45.94643" lon="4.83694">
        <ele>261</ele>
        <time>2017-08-17T09:10:27Z</time>
      </trkpt>
      <trkpt lat="45.94648" lon="4.83699">
        <ele>261</ele>
        <time>2017-08-17T09:10:28Z</time>
      </trkpt>
      <trkpt lat="45.94653" lon="4.83705">
        <ele>261</ele>
        <time>2017-08-17T09:10:29Z</time>
      </trkpt>
      <trkpt lat="45.94658" lon="4.83709">
        <ele>261</ele>
        <time>2017-08-17T09:10:30Z</time>
      </trkpt>
      <trkpt lat="45.94663" lon="4.83714">
        <ele>261</ele>
        <time>2017-08-17T09:10:31Z</time>
      </trkpt>
      <trkpt lat="45.94667" lon="4.83719">
        <ele>261</ele>
        <time>2017-08-17T09:10:32Z</time>
      </trkpt>
      <trkpt lat="45.94672" lon="4.83724">
        <ele>261</ele>
        <time>2017-08-17T09:10:33Z</time>
      </trkpt>
      <trkpt lat="45.94676" lon="4.83729">
        <ele>261</ele>
        <time>2017-08-17T09:10:34Z</time>
      </trkpt>
      <trkpt lat="45.9468" lon="4.83734">
        <ele>262</ele>
        <time>2017-08-17T09:10:35Z</time>
      </trkpt>
      <trkpt lat="45.94685" lon="4.83738">
        <ele>262</ele>
        <time>2017-08-17T09:10:36Z</time>
      </trkpt>
      <trkpt lat="45.94688" lon="4.83742">
        <ele>262</ele>
        <time>2017-08-17T09:10:37Z</time>
      </trkpt>
      <trkpt lat="45.94695" lon="4.8375">
        <ele>263</ele>
        <time>2017-08-17T09:10:39Z</time>
      </trkpt>
      <trkpt lat="45.94699" lon="4.83755">
        <ele>263</ele>
        <time>2017-08-17T09:10:40Z</time>
      </trkpt>
      <trkpt lat="45.94702" lon="4.83759">
        <ele>263</ele>
        <time>2017-08-17T09:10:41Z</time>
      </trkpt>
      <trkpt lat="45.94706" lon="4.83763">
        <ele>263</ele>
        <time>2017-08-17T09:10:42Z</time>
      </trkpt>
      <trkpt lat="45.94709" lon="4.83767">
        <ele>263</ele>
        <time>2017-08-17T09:10:43Z</time>
      </trkpt>
      <trkpt lat="45.94713" lon="4.83772">
        <ele>263</ele>
        <time>2017-08-17T09:10:44Z</time>
      </trkpt>
      <trkpt lat="45.94716" lon="4.83776">
        <ele>263</ele>
        <time>2017-08-17T09:10:45Z</time>
      </trkpt>
      <trkpt lat="45.9472" lon="4.8378">
        <ele>263</ele>
        <time>2017-08-17T09:10:46Z</time>
      </trkpt>
      <trkpt lat="45.94723" lon="4.83785">
        <ele>263</ele>
        <time>2017-08-17T09:10:47Z</time>
      </trkpt>
      <trkpt lat="45.94727" lon="4.83789">
        <ele>263</ele>
        <time>2017-08-17T09:10:48Z</time>
      </trkpt>
      <trkpt lat="45.9473" lon="4.83794">
        <ele>264</ele>
        <time>2017-08-17T09:10:49Z</time>
      </trkpt>
      <trkpt lat="45.94734" lon="4.83798">
        <ele>264</ele>
        <time>2017-08-17T09:10:50Z</time>
      </trkpt>
      <trkpt lat="45.9474" lon="4.83806">
        <ele>264</ele>
        <time>2017-08-17T09:10:52Z</time>
      </trkpt>
      <trkpt lat="45.94743" lon="4.83811">
        <ele>264</ele>
        <time>2017-08-17T09:10:53Z</time>
      </trkpt>
      <trkpt lat="45.94747" lon="4.83815">
        <ele>264</ele>
        <time>2017-08-17T09:10:54Z</time>
      </trkpt>
      <trkpt lat="45.94751" lon="4.83819">
        <ele>264</ele>
        <time>2017-08-17T09:10:55Z</time>
      </trkpt>
      <trkpt lat="45.94754" lon="4.83823">
        <ele>264</ele>
        <time>2017-08-17T09:10:56Z</time>
      </trkpt>
      <trkpt lat="45.94758" lon="4.83828">
        <ele>265</ele>
        <time>2017-08-17T09:10:57Z</time>
      </trkpt>
      <trkpt lat="45.94762" lon="4.83832">
        <ele>264</ele>
        <time>2017-08-17T09:10:58Z</time>
      </trkpt>
      <trkpt lat="45.94765" lon="4.83837">
        <ele>265</ele>
        <time>2017-08-17T09:10:59Z</time>
      </trkpt>
      <trkpt lat="45.94769" lon="4.83842">
        <ele>265</ele>
        <time>2017-08-17T09:11:00Z</time>
      </trkpt>
      <trkpt lat="45.94772" lon="4.83847">
        <ele>265</ele>
        <time>2017-08-17T09:11:01Z</time>
      </trkpt>
      <trkpt lat="45.94776" lon="4.83852">
        <ele>265</ele>
        <time>2017-08-17T09:11:02Z</time>
      </trkpt>
      <trkpt lat="45.94779" lon="4.83857">
        <ele>265</ele>
        <time>2017-08-17T09:11:03Z</time>
      </trkpt>
      <trkpt lat="45.94782" lon="4.83862">
        <ele>265</ele>
        <time>2017-08-17T09:11:04Z</time>
      </trkpt>
      <trkpt lat="45.94786" lon="4.83868">
        <ele>265</ele>
        <time>2017-08-17T09:11:05Z</time>
      </trkpt>
      <trkpt lat="45.94789" lon="4.83873">
        <ele>266</ele>
        <time>2017-08-17T09:11:06Z</time>
      </trkpt>
      <trkpt lat="45.94792" lon="4.83878">
        <ele>266</ele>
        <time>2017-08-17T09:11:07Z</time>
      </trkpt>
      <trkpt lat="45.94795" lon="4.83883">
        <ele>266</ele>
        <time>2017-08-17T09:11:08Z</time>
      </trkpt>
      <trkpt lat="45.94798" lon="4.83888">
        <ele>266</ele>
        <time>2017-08-17T09:11:09Z</time>
      </trkpt>
      <trkpt lat="45.94802" lon="4.83893">
        <ele>266</ele>
        <time>2017-08-17T09:11:10Z</time>
      </trkpt>
      <trkpt lat="45.94805" lon="4.83898">
        <ele>265</ele>
        <time>2017-08-17T09:11:11Z</time>
      </trkpt>
      <trkpt lat="45.94808" lon="4.83903">
        <ele>265</ele>
        <time>2017-08-17T09:11:12Z</time>
      </trkpt>
      <trkpt lat="45.94811" lon="4.83909">
        <ele>265</ele>
        <time>2017-08-17T09:11:13Z</time>
      </trkpt>
      <trkpt lat="45.94814" lon="4.83915">
        <ele>265</ele>
        <time>2017-08-17T09:11:14Z</time>
      </trkpt>
      <trkpt lat="45.94818" lon="4.83921">
        <ele>266</ele>
        <time>2017-08-17T09:11:15Z</time>
      </trkpt>
      <trkpt lat="45.94821" lon="4.83927">
        <ele>266</ele>
        <time>2017-08-17T09:11:16Z</time>
      </trkpt>
      <trkpt lat="45.94824" lon="4.83932">
        <ele>266</ele>
        <time>2017-08-17T09:11:17Z</time>
      </trkpt>
      <trkpt lat="45.94827" lon="4.83938">
        <ele>266</ele>
        <time>2017-08-17T09:11:18Z</time>
      </trkpt>
      <trkpt lat="45.9483" lon="4.83943">
        <ele>266</ele>
        <time>2017-08-17T09:11:19Z</time>
      </trkpt>
      <trkpt lat="45.94832" lon="4.83949">
        <ele>266</ele>
        <time>2017-08-17T09:11:20Z</time>
      </trkpt>
      <trkpt lat="45.94835" lon="4.83954">
        <ele>265</ele>
        <time>2017-08-17T09:11:21Z</time>
      </trkpt>
      <trkpt lat="45.94837" lon="4.83959">
        <ele>265</ele>
        <time>2017-08-17T09:11:22Z</time>
      </trkpt>
      <trkpt lat="45.9484" lon="4.83965">
        <ele>265</ele>
        <time>2017-08-17T09:11:23Z</time>
      </trkpt>
      <trkpt lat="45.94843" lon="4.83971">
        <ele>265</ele>
        <time>2017-08-17T09:11:24Z</time>
      </trkpt>
      <trkpt lat="45.94845" lon="4.83977">
        <ele>265</ele>
        <time>2017-08-17T09:11:25Z</time>
      </trkpt>
      <trkpt lat="45.94848" lon="4.83983">
        <ele>265</ele>
        <time>2017-08-17T09:11:26Z</time>
      </trkpt>
      <trkpt lat="45.9485" lon="4.8399">
        <ele>265</ele>
        <time>2017-08-17T09:11:27Z</time>
      </trkpt>
      <trkpt lat="45.94852" lon="4.83997">
        <ele>265</ele>
        <time>2017-08-17T09:11:28Z</time>
      </trkpt>
      <trkpt lat="45.94854" lon="4.84004">
        <ele>266</ele>
        <time>2017-08-17T09:11:29Z</time>
      </trkpt>
      <trkpt lat="45.94856" lon="4.84011">
        <ele>266</ele>
        <time>2017-08-17T09:11:30Z</time>
      </trkpt>
      <trkpt lat="45.94859" lon="4.84018">
        <ele>266</ele>
        <time>2017-08-17T09:11:31Z</time>
      </trkpt>
      <trkpt lat="45.94861" lon="4.84024">
        <ele>266</ele>
        <time>2017-08-17T09:11:32Z</time>
      </trkpt>
      <trkpt lat="45.94863" lon="4.84031">
        <ele>266</ele>
        <time>2017-08-17T09:11:33Z</time>
      </trkpt>
      <trkpt lat="45.94866" lon="4.84037">
        <ele>266</ele>
        <time>2017-08-17T09:11:34Z</time>
      </trkpt>
      <trkpt lat="45.94868" lon="4.84044">
        <ele>266</ele>
        <time>2017-08-17T09:11:35Z</time>
      </trkpt>
      <trkpt lat="45.94871" lon="4.8405">
        <ele>267</ele>
        <time>2017-08-17T09:11:36Z</time>
      </trkpt>
      <trkpt lat="45.94873" lon="4.84055">
        <ele>267</ele>
        <time>2017-08-17T09:11:37Z</time>
      </trkpt>
      <trkpt lat="45.94875" lon="4.84061">
        <ele>267</ele>
        <time>2017-08-17T09:11:38Z</time>
      </trkpt>
      <trkpt lat="45.94877" lon="4.84067">
        <ele>267</ele>
        <time>2017-08-17T09:11:39Z</time>
      </trkpt>
      <trkpt lat="45.94879" lon="4.84073">
        <ele>267</ele>
        <time>2017-08-17T09:11:40Z</time>
      </trkpt>
      <trkpt lat="45.94882" lon="4.8408">
        <ele>267</ele>
        <time>2017-08-17T09:11:41Z</time>
      </trkpt>
      <trkpt lat="45.94884" lon="4.84086">
        <ele>267</ele>
        <time>2017-08-17T09:11:42Z</time>
      </trkpt>
      <trkpt lat="45.94887" lon="4.84092">
        <ele>267</ele>
        <time>2017-08-17T09:11:43Z</time>
      </trkpt>
      <trkpt lat="45.9489" lon="4.84099">
        <ele>267</ele>
        <time>2017-08-17T09:11:44Z</time>
      </trkpt>
      <trkpt lat="45.94893" lon="4.84105">
        <ele>267</ele>
        <time>2017-08-17T09:11:45Z</time>
      </trkpt>
      <trkpt lat="45.94896" lon="4.84112">
        <ele>267</ele>
        <time>2017-08-17T09:11:46Z</time>
      </trkpt>
      <trkpt lat="45.94899" lon="4.84118">
        <ele>267</ele>
        <time>2017-08-17T09:11:47Z</time>
      </trkpt>
      <trkpt lat="45.94902" lon="4.84125">
        <ele>267</ele>
        <time>2017-08-17T09:11:48Z</time>
      </trkpt>
      <trkpt lat="45.94905" lon="4.84131">
        <ele>267</ele>
        <time>2017-08-17T09:11:49Z</time>
      </trkpt>
      <trkpt lat="45.94909" lon="4.84137">
        <ele>268</ele>
        <time>2017-08-17T09:11:50Z</time>
      </trkpt>
      <trkpt lat="45.94912" lon="4.84142">
        <ele>268</ele>
        <time>2017-08-17T09:11:51Z</time>
      </trkpt>
      <trkpt lat="45.94916" lon="4.84148">
        <ele>268</ele>
        <time>2017-08-17T09:11:52Z</time>
      </trkpt>
      <trkpt lat="45.9492" lon="4.84153">
        <ele>268</ele>
        <time>2017-08-17T09:11:53Z</time>
      </trkpt>
      <trkpt lat="45.94923" lon="4.84159">
        <ele>268</ele>
        <time>2017-08-17T09:11:54Z</time>
      </trkpt>
      <trkpt lat="45.94927" lon="4.84164">
        <ele>268</ele>
        <time>2017-08-17T09:11:55Z</time>
      </trkpt>
      <trkpt lat="45.94931" lon="4.8417">
        <ele>268</ele>
        <time>2017-08-17T09:11:56Z</time>
      </trkpt>
      <trkpt lat="45.94935" lon="4.84176">
        <ele>267</ele>
        <time>2017-08-17T09:11:57Z</time>
      </trkpt>
      <trkpt lat="45.94938" lon="4.84181">
        <ele>267</ele>
        <time>2017-08-17T09:11:58Z</time>
      </trkpt>
      <trkpt lat="45.94941" lon="4.84186">
        <ele>267</ele>
        <time>2017-08-17T09:11:59Z</time>
      </trkpt>
      <trkpt lat="45.94944" lon="4.84192">
        <ele>267</ele>
        <time>2017-08-17T09:12:00Z</time>
      </trkpt>
      <trkpt lat="45.94948" lon="4.84197">
        <ele>267</ele>
        <time>2017-08-17T09:12:01Z</time>
      </trkpt>
      <trkpt lat="45.94954" lon="4.84205">
        <ele>267</ele>
        <time>2017-08-17T09:12:03Z</time>
      </trkpt>
      <trkpt lat="45.94956" lon="4.84209">
        <ele>267</ele>
        <time>2017-08-17T09:12:04Z</time>
      </trkpt>
      <trkpt lat="45.94962" lon="4.84218">
        <ele>267</ele>
        <time>2017-08-17T09:12:06Z</time>
      </trkpt>
      <trkpt lat="45.94965" lon="4.84222">
        <ele>267</ele>
        <time>2017-08-17T09:12:07Z</time>
      </trkpt>
      <trkpt lat="45.94971" lon="4.84231">
        <ele>267</ele>
        <time>2017-08-17T09:12:09Z</time>
      </trkpt>
      <trkpt lat="45.94974" lon="4.84235">
        <ele>267</ele>
        <time>2017-08-17T09:12:10Z</time>
      </trkpt>
      <trkpt lat="45.94979" lon="4.84244">
        <ele>267</ele>
        <time>2017-08-17T09:12:12Z</time>
      </trkpt>
      <trkpt lat="45.94982" lon="4.84249">
        <ele>267</ele>
        <time>2017-08-17T09:12:13Z</time>
      </trkpt>
      <trkpt lat="45.94988" lon="4.84259">
        <ele>267</ele>
        <time>2017-08-17T09:12:15Z</time>
      </trkpt>
      <trkpt lat="45.94991" lon="4.84264">
        <ele>267</ele>
        <time>2017-08-17T09:12:16Z</time>
      </trkpt>
      <trkpt lat="45.94994" lon="4.84269">
        <ele>267</ele>
        <time>2017-08-17T09:12:17Z</time>
      </trkpt>
      <trkpt lat="45.94997" lon="4.84273">
        <ele>267</ele>
        <time>2017-08-17T09:12:18Z</time>
      </trkpt>
      <trkpt lat="45.95001" lon="4.84279">
        <ele>267</ele>
        <time>2017-08-17T09:12:19Z</time>
      </trkpt>
      <trkpt lat="45.95004" lon="4.84284">
        <ele>267</ele>
        <time>2017-08-17T09:12:20Z</time>
      </trkpt>
      <trkpt lat="45.95007" lon="4.84288">
        <ele>267</ele>
        <time>2017-08-17T09:12:21Z</time>
      </trkpt>
      <trkpt lat="45.9501" lon="4.84293">
        <ele>267</ele>
        <time>2017-08-17T09:12:22Z</time>
      </trkpt>
      <trkpt lat="45.95015" lon="4.84303">
        <ele>267</ele>
        <time>2017-08-17T09:12:24Z</time>
      </trkpt>
      <trkpt lat="45.95017" lon="4.84307">
        <ele>267</ele>
        <time>2017-08-17T09:12:25Z</time>
      </trkpt>
      <trkpt lat="45.95023" lon="4.84316">
        <ele>267</ele>
        <time>2017-08-17T09:12:27Z</time>
      </trkpt>
      <trkpt lat="45.95025" lon="4.84321">
        <ele>267</ele>
        <time>2017-08-17T09:12:28Z</time>
      </trkpt>
      <trkpt lat="45.95028" lon="4.84326">
        <ele>267</ele>
        <time>2017-08-17T09:12:29Z</time>
      </trkpt>
      <trkpt lat="45.95032" lon="4.84332">
        <ele>267</ele>
        <time>2017-08-17T09:12:30Z</time>
      </trkpt>
      <trkpt lat="45.95035" lon="4.84338">
        <ele>267</ele>
        <time>2017-08-17T09:12:31Z</time>
      </trkpt>
      <trkpt lat="45.95039" lon="4.84343">
        <ele>267</ele>
        <time>2017-08-17T09:12:32Z</time>
      </trkpt>
      <trkpt lat="45.95042" lon="4.84349">
        <ele>267</ele>
        <time>2017-08-17T09:12:33Z</time>
      </trkpt>
      <trkpt lat="45.95046" lon="4.84355">
        <ele>267</ele>
        <time>2017-08-17T09:12:34Z</time>
      </trkpt>
      <trkpt lat="45.95049" lon="4.84361">
        <ele>267</ele>
        <time>2017-08-17T09:12:35Z</time>
      </trkpt>
      <trkpt lat="45.95053" lon="4.84367">
        <ele>267</ele>
        <time>2017-08-17T09:12:36Z</time>
      </trkpt>
      <trkpt lat="45.95057" lon="4.84372">
        <ele>267</ele>
        <time>2017-08-17T09:12:37Z</time>
      </trkpt>
      <trkpt lat="45.95061" lon="4.84378">
        <ele>267</ele>
        <time>2017-08-17T09:12:38Z</time>
      </trkpt>
      <trkpt lat="45.95065" lon="4.84383">
        <ele>267</ele>
        <time>2017-08-17T09:12:39Z</time>
      </trkpt>
      <trkpt lat="45.95069" lon="4.84388">
        <ele>267</ele>
        <time>2017-08-17T09:12:40Z</time>
      </trkpt>
      <trkpt lat="45.95073" lon="4.84393">
        <ele>267</ele>
        <time>2017-08-17T09:12:41Z</time>
      </trkpt>
      <trkpt lat="45.95078" lon="4.84398">
        <ele>267</ele>
        <time>2017-08-17T09:12:42Z</time>
      </trkpt>
      <trkpt lat="45.95082" lon="4.84403">
        <ele>267</ele>
        <time>2017-08-17T09:12:43Z</time>
      </trkpt>
      <trkpt lat="45.95087" lon="4.84407">
        <ele>267</ele>
        <time>2017-08-17T09:12:44Z</time>
      </trkpt>
      <trkpt lat="45.95092" lon="4.84411">
        <ele>267</ele>
        <time>2017-08-17T09:12:45Z</time>
      </trkpt>
      <trkpt lat="45.95096" lon="4.84416">
        <ele>267</ele>
        <time>2017-08-17T09:12:46Z</time>
      </trkpt>
      <trkpt lat="45.95101" lon="4.84421">
        <ele>267</ele>
        <time>2017-08-17T09:12:47Z</time>
      </trkpt>
      <trkpt lat="45.95106" lon="4.84426">
        <ele>267</ele>
        <time>2017-08-17T09:12:48Z</time>
      </trkpt>
      <trkpt lat="45.95111" lon="4.8443">
        <ele>267</ele>
        <time>2017-08-17T09:12:49Z</time>
      </trkpt>
      <trkpt lat="45.95116" lon="4.84434">
        <ele>267</ele>
        <time>2017-08-17T09:12:50Z</time>
      </trkpt>
      <trkpt lat="45.95121" lon="4.84439">
        <ele>267</ele>
        <time>2017-08-17T09:12:51Z</time>
      </trkpt>
      <trkpt lat="45.95126" lon="4.84443">
        <ele>267</ele>
        <time>2017-08-17T09:12:52Z</time>
      </trkpt>
      <trkpt lat="45.95131" lon="4.84449">
        <ele>267</ele>
        <time>2017-08-17T09:12:53Z</time>
      </trkpt>
      <trkpt lat="45.95135" lon="4.84454">
        <ele>267</ele>
        <time>2017-08-17T09:12:54Z</time>
      </trkpt>
      <trkpt lat="45.9514" lon="4.84458">
        <ele>267</ele>
        <time>2017-08-17T09:12:55Z</time>
      </trkpt>
      <trkpt lat="45.95145" lon="4.84463">
        <ele>266</ele>
        <time>2017-08-17T09:12:56Z</time>
      </trkpt>
      <trkpt lat="45.9515" lon="4.84469">
        <ele>266</ele>
        <time>2017-08-17T09:12:57Z</time>
      </trkpt>
      <trkpt lat="45.95154" lon="4.84475">
        <ele>266</ele>
        <time>2017-08-17T09:12:58Z</time>
      </trkpt>
      <trkpt lat="45.95159" lon="4.8448">
        <ele>266</ele>
        <time>2017-08-17T09:12:59Z</time>
      </trkpt>
      <trkpt lat="45.95164" lon="4.84486">
        <ele>266</ele>
        <time>2017-08-17T09:13:00Z</time>
      </trkpt>
      <trkpt lat="45.95168" lon="4.84492">
        <ele>266</ele>
        <time>2017-08-17T09:13:01Z</time>
      </trkpt>
      <trkpt lat="45.95173" lon="4.84498">
        <ele>266</ele>
        <time>2017-08-17T09:13:02Z</time>
      </trkpt>
      <trkpt lat="45.95177" lon="4.84503">
        <ele>265</ele>
        <time>2017-08-17T09:13:03Z</time>
      </trkpt>
      <trkpt lat="45.95182" lon="4.84509">
        <ele>265</ele>
        <time>2017-08-17T09:13:04Z</time>
      </trkpt>
      <trkpt lat="45.95186" lon="4.84515">
        <ele>265</ele>
        <time>2017-08-17T09:13:05Z</time>
      </trkpt>
      <trkpt lat="45.95191" lon="4.84521">
        <ele>265</ele>
        <time>2017-08-17T09:13:06Z</time>
      </trkpt>
      <trkpt lat="45.95195" lon="4.84527">
        <ele>265</ele>
        <time>2017-08-17T09:13:07Z</time>
      </trkpt>
      <trkpt lat="45.952" lon="4.84533">
        <ele>265</ele>
        <time>2017-08-17T09:13:08Z</time>
      </trkpt>
      <trkpt lat="45.95205" lon="4.84538">
        <ele>265</ele>
        <time>2017-08-17T09:13:09Z</time>
      </trkpt>
      <trkpt lat="45.95209" lon="4.84543">
        <ele>264</ele>
        <time>2017-08-17T09:13:10Z</time>
      </trkpt>
      <trkpt lat="45.95213" lon="4.84549">
        <ele>264</ele>
        <time>2017-08-17T09:13:11Z</time>
      </trkpt>
      <trkpt lat="45.95217" lon="4.84554">
        <ele>264</ele>
        <time>2017-08-17T09:13:12Z</time>
      </trkpt>
      <trkpt lat="45.95221" lon="4.84558">
        <ele>264</ele>
        <time>2017-08-17T09:13:13Z</time>
      </trkpt>
      <trkpt lat="45.95225" lon="4.84563">
        <ele>264</ele>
        <time>2017-08-17T09:13:14Z</time>
      </trkpt>
      <trkpt lat="45.95229" lon="4.84568">
        <ele>264</ele>
        <time>2017-08-17T09:13:15Z</time>
      </trkpt>
      <trkpt lat="45.95233" lon="4.84573">
        <ele>264</ele>
        <time>2017-08-17T09:13:16Z</time>
      </trkpt>
      <trkpt lat="45.95237" lon="4.84577">
        <ele>264</ele>
        <time>2017-08-17T09:13:17Z</time>
      </trkpt>
      <trkpt lat="45.9524" lon="4.84582">
        <ele>264</ele>
        <time>2017-08-17T09:13:18Z</time>
      </trkpt>
      <trkpt lat="45.95244" lon="4.84586">
        <ele>264</ele>
        <time>2017-08-17T09:13:19Z</time>
      </trkpt>
      <trkpt lat="45.95248" lon="4.84591">
        <ele>264</ele>
        <time>2017-08-17T09:13:20Z</time>
      </trkpt>
      <trkpt lat="45.95252" lon="4.84596">
        <ele>264</ele>
        <time>2017-08-17T09:13:21Z</time>
      </trkpt>
      <trkpt lat="45.95256" lon="4.84601">
        <ele>264</ele>
        <time>2017-08-17T09:13:22Z</time>
      </trkpt>
      <trkpt lat="45.95259" lon="4.84606">
        <ele>264</ele>
        <time>2017-08-17T09:13:23Z</time>
      </trkpt>
      <trkpt lat="45.95264" lon="4.84611">
        <ele>264</ele>
        <time>2017-08-17T09:13:24Z</time>
      </trkpt>
      <trkpt lat="45.95268" lon="4.84617">
        <ele>264</ele>
        <time>2017-08-17T09:13:25Z</time>
      </trkpt>
      <trkpt lat="45.95273" lon="4.84622">
        <ele>264</ele>
        <time>2017-08-17T09:13:26Z</time>
      </trkpt>
      <trkpt lat="45.95277" lon="4.84627">
        <ele>264</ele>
        <time>2017-08-17T09:13:27Z</time>
      </trkpt>
      <trkpt lat="45.95281" lon="4.84631">
        <ele>264</ele>
        <time>2017-08-17T09:13:28Z</time>
      </trkpt>
      <trkpt lat="45.95285" lon="4.84635">
        <ele>264</ele>
        <time>2017-08-17T09:13:29Z</time>
      </trkpt>
      <trkpt lat="45.95288" lon="4.8464">
        <ele>264</ele>
        <time>2017-08-17T09:13:30Z</time>
      </trkpt>
      <trkpt lat="45.95293" lon="4.84644">
        <ele>264</ele>
        <time>2017-08-17T09:13:31Z</time>
      </trkpt>
      <trkpt lat="45.95297" lon="4.84648">
        <ele>264</ele>
        <time>2017-08-17T09:13:32Z</time>
      </trkpt>
      <trkpt lat="45.95301" lon="4.84653">
        <ele>264</ele>
        <time>2017-08-17T09:13:33Z</time>
      </trkpt>
      <trkpt lat="45.95306" lon="4.84657">
        <ele>265</ele>
        <time>2017-08-17T09:13:34Z</time>
      </trkpt>
      <trkpt lat="45.95311" lon="4.84661">
        <ele>265</ele>
        <time>2017-08-17T09:13:35Z</time>
      </trkpt>
      <trkpt lat="45.95316" lon="4.84665">
        <ele>265</ele>
        <time>2017-08-17T09:13:36Z</time>
      </trkpt>
      <trkpt lat="45.95321" lon="4.84669">
        <ele>265</ele>
        <time>2017-08-17T09:13:37Z</time>
      </trkpt>
      <trkpt lat="45.95326" lon="4.84673">
        <ele>265</ele>
        <time>2017-08-17T09:13:38Z</time>
      </trkpt>
      <trkpt lat="45.95331" lon="4.84676">
        <ele>265</ele>
        <time>2017-08-17T09:13:39Z</time>
      </trkpt>
      <trkpt lat="45.95336" lon="4.8468">
        <ele>265</ele>
        <time>2017-08-17T09:13:40Z</time>
      </trkpt>
      <trkpt lat="45.95341" lon="4.84685">
        <ele>266</ele>
        <time>2017-08-17T09:13:41Z</time>
      </trkpt>
      <trkpt lat="45.95346" lon="4.84689">
        <ele>266</ele>
        <time>2017-08-17T09:13:42Z</time>
      </trkpt>
      <trkpt lat="45.9535" lon="4.84692">
        <ele>266</ele>
        <time>2017-08-17T09:13:43Z</time>
      </trkpt>
      <trkpt lat="45.95355" lon="4.84695">
        <ele>266</ele>
        <time>2017-08-17T09:13:44Z</time>
      </trkpt>
      <trkpt lat="45.95359" lon="4.84699">
        <ele>266</ele>
        <time>2017-08-17T09:13:45Z</time>
      </trkpt>
      <trkpt lat="45.95363" lon="4.84702">
        <ele>266</ele>
        <time>2017-08-17T09:13:46Z</time>
      </trkpt>
      <trkpt lat="45.9537" lon="4.84708">
        <ele>266</ele>
        <time>2017-08-17T09:13:48Z</time>
      </trkpt>
      <trkpt lat="45.95374" lon="4.84712">
        <ele>266</ele>
        <time>2017-08-17T09:13:49Z</time>
      </trkpt>
      <trkpt lat="45.95378" lon="4.84715">
        <ele>266</ele>
        <time>2017-08-17T09:13:50Z</time>
      </trkpt>
      <trkpt lat="45.95382" lon="4.84719">
        <ele>266</ele>
        <time>2017-08-17T09:13:51Z</time>
      </trkpt>
      <trkpt lat="45.95385" lon="4.84722">
        <ele>266</ele>
        <time>2017-08-17T09:13:52Z</time>
      </trkpt>
      <trkpt lat="45.9539" lon="4.84726">
        <ele>266</ele>
        <time>2017-08-17T09:13:53Z</time>
      </trkpt>
      <trkpt lat="45.95394" lon="4.84729">
        <ele>266</ele>
        <time>2017-08-17T09:13:54Z</time>
      </trkpt>
      <trkpt lat="45.95398" lon="4.84733">
        <ele>266</ele>
        <time>2017-08-17T09:13:55Z</time>
      </trkpt>
      <trkpt lat="45.95402" lon="4.84736">
        <ele>266</ele>
        <time>2017-08-17T09:13:56Z</time>
      </trkpt>
      <trkpt lat="45.95405" lon="4.8474">
        <ele>267</ele>
        <time>2017-08-17T09:13:57Z</time>
      </trkpt>
      <trkpt lat="45.95409" lon="4.84744">
        <ele>267</ele>
        <time>2017-08-17T09:13:58Z</time>
      </trkpt>
      <trkpt lat="45.95414" lon="4.84747">
        <ele>267</ele>
        <time>2017-08-17T09:13:59Z</time>
      </trkpt>
      <trkpt lat="45.95418" lon="4.84751">
        <ele>267</ele>
        <time>2017-08-17T09:14:00Z</time>
      </trkpt>
      <trkpt lat="45.95422" lon="4.84755">
        <ele>267</ele>
        <time>2017-08-17T09:14:01Z</time>
      </trkpt>
      <trkpt lat="45.95429" lon="4.84762">
        <ele>267</ele>
        <time>2017-08-17T09:14:03Z</time>
      </trkpt>
      <trkpt lat="45.95432" lon="4.84765">
        <ele>267</ele>
        <time>2017-08-17T09:14:04Z</time>
      </trkpt>
      <trkpt lat="45.95438" lon="4.8477">
        <ele>267</ele>
        <time>2017-08-17T09:14:06Z</time>
      </trkpt>
      <trkpt lat="45.95441" lon="4.84774">
        <ele>267</ele>
        <time>2017-08-17T09:14:07Z</time>
      </trkpt>
      <trkpt lat="45.95446" lon="4.8478">
        <ele>267</ele>
        <time>2017-08-17T09:14:09Z</time>
      </trkpt>
      <trkpt lat="45.95449" lon="4.84784">
        <ele>267</ele>
        <time>2017-08-17T09:14:10Z</time>
      </trkpt>
      <trkpt lat="45.95456" lon="4.8479">
        <ele>267</ele>
        <time>2017-08-17T09:14:12Z</time>
      </trkpt>
      <trkpt lat="45.95459" lon="4.84794">
        <ele>267</ele>
        <time>2017-08-17T09:14:13Z</time>
      </trkpt>
      <trkpt lat="45.95465" lon="4.84803">
        <ele>267</ele>
        <time>2017-08-17T09:14:15Z</time>
      </trkpt>
      <trkpt lat="45.95468" lon="4.84807">
        <ele>267</ele>
        <time>2017-08-17T09:14:16Z</time>
      </trkpt>
      <trkpt lat="45.95474" lon="4.84814">
        <ele>267</ele>
        <time>2017-08-17T09:14:18Z</time>
      </trkpt>
      <trkpt lat="45.95477" lon="4.84818">
        <ele>267</ele>
        <time>2017-08-17T09:14:19Z</time>
      </trkpt>
      <trkpt lat="45.95483" lon="4.84825">
        <ele>267</ele>
        <time>2017-08-17T09:14:21Z</time>
      </trkpt>
      <trkpt lat="45.95487" lon="4.84828">
        <ele>267</ele>
        <time>2017-08-17T09:14:22Z</time>
      </trkpt>
      <trkpt lat="45.95493" lon="4.84835">
        <ele>267</ele>
        <time>2017-08-17T09:14:24Z</time>
      </trkpt>
      <trkpt lat="45.95497" lon="4.84839">
        <ele>267</ele>
        <time>2017-08-17T09:14:25Z</time>
      </trkpt>
      <trkpt lat="45.95503" lon="4.84847">
        <ele>267</ele>
        <time>2017-08-17T09:14:27Z</time>
      </trkpt>
      <trkpt lat="45.95507" lon="4.84851">
        <ele>268</ele>
        <time>2017-08-17T09:14:28Z</time>
      </trkpt>
      <trkpt lat="45.95513" lon="4.84858">
        <ele>268</ele>
        <time>2017-08-17T09:14:30Z</time>
      </trkpt>
      <trkpt lat="45.95516" lon="4.84862">
        <ele>268</ele>
        <time>2017-08-17T09:14:31Z</time>
      </trkpt>
      <trkpt lat="45.95523" lon="4.84868">
        <ele>268</ele>
        <time>2017-08-17T09:14:33Z</time>
      </trkpt>
      <trkpt lat="45.95526" lon="4.84871">
        <ele>268</ele>
        <time>2017-08-17T09:14:34Z</time>
      </trkpt>
      <trkpt lat="45.95533" lon="4.84877">
        <ele>268</ele>
        <time>2017-08-17T09:14:36Z</time>
      </trkpt>
      <trkpt lat="45.95536" lon="4.8488">
        <ele>268</ele>
        <time>2017-08-17T09:14:37Z</time>
      </trkpt>
      <trkpt lat="45.95542" lon="4.84887">
        <ele>268</ele>
        <time>2017-08-17T09:14:39Z</time>
      </trkpt>
      <trkpt lat="45.95546" lon="4.8489">
        <ele>268</ele>
        <time>2017-08-17T09:14:40Z</time>
      </trkpt>
      <trkpt lat="45.95554" lon="4.84897">
        <ele>268</ele>
        <time>2017-08-17T09:14:42Z</time>
      </trkpt>
      <trkpt lat="45.95558" lon="4.84899">
        <ele>268</ele>
        <time>2017-08-17T09:14:43Z</time>
      </trkpt>
      <trkpt lat="45.95562" lon="4.84902">
        <ele>268</ele>
        <time>2017-08-17T09:14:44Z</time>
      </trkpt>
      <trkpt lat="45.95566" lon="4.84905">
        <ele>268</ele>
        <time>2017-08-17T09:14:45Z</time>
      </trkpt>
      <trkpt lat="45.9557" lon="4.84909">
        <ele>269</ele>
        <time>2017-08-17T09:14:46Z</time>
      </trkpt>
      <trkpt lat="45.95574" lon="4.84912">
        <ele>269</ele>
        <time>2017-08-17T09:14:47Z</time>
      </trkpt>
      <trkpt lat="45.95579" lon="4.84914">
        <ele>269</ele>
        <time>2017-08-17T09:14:48Z</time>
      </trkpt>
      <trkpt lat="45.95583" lon="4.84917">
        <ele>269</ele>
        <time>2017-08-17T09:14:49Z</time>
      </trkpt>
      <trkpt lat="45.95587" lon="4.84919">
        <ele>269</ele>
        <time>2017-08-17T09:14:50Z</time>
      </trkpt>
      <trkpt lat="45.95592" lon="4.84922">
        <ele>270</ele>
        <time>2017-08-17T09:14:51Z</time>
      </trkpt>
      <trkpt lat="45.95599" lon="4.84927">
        <ele>270</ele>
        <time>2017-08-17T09:14:53Z</time>
      </trkpt>
      <trkpt lat="45.95603" lon="4.8493">
        <ele>270</ele>
        <time>2017-08-17T09:14:54Z</time>
      </trkpt>
      <trkpt lat="45.9561" lon="4.84934">
        <ele>270</ele>
        <time>2017-08-17T09:14:56Z</time>
      </trkpt>
      <trkpt lat="45.95613" lon="4.84936">
        <ele>270</ele>
        <time>2017-08-17T09:14:57Z</time>
      </trkpt>
      <trkpt lat="45.9562" lon="4.84943">
        <ele>270</ele>
        <time>2017-08-17T09:14:59Z</time>
      </trkpt>
      <trkpt lat="45.95624" lon="4.84946">
        <ele>271</ele>
        <time>2017-08-17T09:15:00Z</time>
      </trkpt>
      <trkpt lat="45.95632" lon="4.84952">
        <ele>271</ele>
        <time>2017-08-17T09:15:02Z</time>
      </trkpt>
      <trkpt lat="45.95636" lon="4.84955">
        <ele>271</ele>
        <time>2017-08-17T09:15:03Z</time>
      </trkpt>
      <trkpt lat="45.95643" lon="4.84962">
        <ele>271</ele>
        <time>2017-08-17T09:15:05Z</time>
      </trkpt>
      <trkpt lat="45.95646" lon="4.84966">
        <ele>271</ele>
        <time>2017-08-17T09:15:06Z</time>
      </trkpt>
      <trkpt lat="45.95654" lon="4.84973">
        <ele>271</ele>
        <time>2017-08-17T09:15:08Z</time>
      </trkpt>
      <trkpt lat="45.95657" lon="4.84977">
        <ele>272</ele>
        <time>2017-08-17T09:15:09Z</time>
      </trkpt>
      <trkpt lat="45.95662" lon="4.84986">
        <ele>272</ele>
        <time>2017-08-17T09:15:11Z</time>
      </trkpt>
      <trkpt lat="45.95665" lon="4.8499">
        <ele>272</ele>
        <time>2017-08-17T09:15:12Z</time>
      </trkpt>
      <trkpt lat="45.95671" lon="4.84999">
        <ele>273</ele>
        <time>2017-08-17T09:15:14Z</time>
      </trkpt>
      <trkpt lat="45.95673" lon="4.85004">
        <ele>274</ele>
        <time>2017-08-17T09:15:15Z</time>
      </trkpt>
      <trkpt lat="45.95679" lon="4.85012">
        <ele>275</ele>
        <time>2017-08-17T09:15:17Z</time>
      </trkpt>
      <trkpt lat="45.95682" lon="4.85016">
        <ele>275</ele>
        <time>2017-08-17T09:15:18Z</time>
      </trkpt>
      <trkpt lat="45.95687" lon="4.85025">
        <ele>275</ele>
        <time>2017-08-17T09:15:20Z</time>
      </trkpt>
      <trkpt lat="45.95689" lon="4.8503">
        <ele>276</ele>
        <time>2017-08-17T09:15:21Z</time>
      </trkpt>
      <trkpt lat="45.95694" lon="4.85039">
        <ele>276</ele>
        <time>2017-08-17T09:15:23Z</time>
      </trkpt>
      <trkpt lat="45.95697" lon="4.85044">
        <ele>276</ele>
        <time>2017-08-17T09:15:24Z</time>
      </trkpt>
      <trkpt lat="45.95702" lon="4.85054">
        <ele>276</ele>
        <time>2017-08-17T09:15:26Z</time>
      </trkpt>
      <trkpt lat="45.95704" lon="4.85059">
        <ele>276</ele>
        <time>2017-08-17T09:15:27Z</time>
      </trkpt>
      <trkpt lat="45.95709" lon="4.85069">
        <ele>277</ele>
        <time>2017-08-17T09:15:29Z</time>
      </trkpt>
      <trkpt lat="45.95712" lon="4.85073">
        <ele>277</ele>
        <time>2017-08-17T09:15:30Z</time>
      </trkpt>
      <trkpt lat="45.95717" lon="4.8508">
        <ele>277</ele>
        <time>2017-08-17T09:15:32Z</time>
      </trkpt>
      <trkpt lat="45.9572" lon="4.85084">
        <ele>279</ele>
        <time>2017-08-17T09:15:33Z</time>
      </trkpt>
      <trkpt lat="45.95723" lon="4.85092">
        <ele>279</ele>
        <time>2017-08-17T09:15:35Z</time>
      </trkpt>
      <trkpt lat="45.95726" lon="4.85096">
        <ele>279</ele>
        <time>2017-08-17T09:15:36Z</time>
      </trkpt>
      <trkpt lat="45.95731" lon="4.85105">
        <ele>279</ele>
        <time>2017-08-17T09:15:38Z</time>
      </trkpt>
      <trkpt lat="45.95735" lon="4.85109">
        <ele>279</ele>
        <time>2017-08-17T09:15:39Z</time>
      </trkpt>
      <trkpt lat="45.95741" lon="4.85118">
        <ele>279</ele>
        <time>2017-08-17T09:15:41Z</time>
      </trkpt>
      <trkpt lat="45.95743" lon="4.85122">
        <ele>279</ele>
        <time>2017-08-17T09:15:42Z</time>
      </trkpt>
      <trkpt lat="45.95749" lon="4.85129">
        <ele>279</ele>
        <time>2017-08-17T09:15:44Z</time>
      </trkpt>
      <trkpt lat="45.95753" lon="4.85133">
        <ele>276</ele>
        <time>2017-08-17T09:15:45Z</time>
      </trkpt>
      <trkpt lat="45.95759" lon="4.85141">
        <ele>276</ele>
        <time>2017-08-17T09:15:47Z</time>
      </trkpt>
      <trkpt lat="45.95761" lon="4.85145">
        <ele>276</ele>
        <time>2017-08-17T09:15:48Z</time>
      </trkpt>
      <trkpt lat="45.95768" lon="4.85152">
        <ele>276</ele>
        <time>2017-08-17T09:15:50Z</time>
      </trkpt>
      <trkpt lat="45.95772" lon="4.85155">
        <ele>276</ele>
        <time>2017-08-17T09:15:51Z</time>
      </trkpt>
      <trkpt lat="45.95778" lon="4.85161">
        <ele>276</ele>
        <time>2017-08-17T09:15:53Z</time>
      </trkpt>
      <trkpt lat="45.9578" lon="4.85164">
        <ele>276</ele>
        <time>2017-08-17T09:15:54Z</time>
      </trkpt>
      <trkpt lat="45.95788" lon="4.85171">
        <ele>276</ele>
        <time>2017-08-17T09:15:56Z</time>
      </trkpt>
      <trkpt lat="45.95791" lon="4.85175">
        <ele>276</ele>
        <time>2017-08-17T09:15:57Z</time>
      </trkpt>
      <trkpt lat="45.95799" lon="4.85182">
        <ele>275</ele>
        <time>2017-08-17T09:15:58Z</time>
      </trkpt>
      <trkpt lat="45.95806" lon="4.8519">
        <ele>275</ele>
        <time>2017-08-17T09:15:59Z</time>
      </trkpt>
      <trkpt lat="45.9581" lon="4.85201">
        <ele>275</ele>
        <time>2017-08-17T09:16:00Z</time>
      </trkpt>
      <trkpt lat="45.95813" lon="4.8521">
        <ele>275</ele>
        <time>2017-08-17T09:16:01Z</time>
      </trkpt>
      <trkpt lat="45.95818" lon="4.85216">
        <ele>275</ele>
        <time>2017-08-17T09:16:02Z</time>
      </trkpt>
      <trkpt lat="45.95821" lon="4.85222">
        <ele>275</ele>
        <time>2017-08-17T09:16:03Z</time>
      </trkpt>
      <trkpt lat="45.95825" lon="4.85229">
        <ele>274</ele>
        <time>2017-08-17T09:16:04Z</time>
      </trkpt>
      <trkpt lat="45.95829" lon="4.85236">
        <ele>274</ele>
        <time>2017-08-17T09:16:05Z</time>
      </trkpt>
      <trkpt lat="45.95832" lon="4.85243">
        <ele>273</ele>
        <time>2017-08-17T09:16:06Z</time>
      </trkpt>
      <trkpt lat="45.95836" lon="4.8525">
        <ele>272</ele>
        <time>2017-08-17T09:16:07Z</time>
      </trkpt>
      <trkpt lat="45.9584" lon="4.85258">
        <ele>271</ele>
        <time>2017-08-17T09:16:08Z</time>
      </trkpt>
      <trkpt lat="45.95844" lon="4.85265">
        <ele>271</ele>
        <time>2017-08-17T09:16:09Z</time>
      </trkpt>
      <trkpt lat="45.95848" lon="4.85272">
        <ele>270</ele>
        <time>2017-08-17T09:16:10Z</time>
      </trkpt>
      <trkpt lat="45.95853" lon="4.85279">
        <ele>270</ele>
        <time>2017-08-17T09:16:11Z</time>
      </trkpt>
      <trkpt lat="45.95858" lon="4.85287">
        <ele>270</ele>
        <time>2017-08-17T09:16:12Z</time>
      </trkpt>
      <trkpt lat="45.95862" lon="4.85294">
        <ele>270</ele>
        <time>2017-08-17T09:16:13Z</time>
      </trkpt>
      <trkpt lat="45.95866" lon="4.85301">
        <ele>269</ele>
        <time>2017-08-17T09:16:14Z</time>
      </trkpt>
      <trkpt lat="45.95871" lon="4.85307">
        <ele>269</ele>
        <time>2017-08-17T09:16:15Z</time>
      </trkpt>
      <trkpt lat="45.95875" lon="4.85314">
        <ele>269</ele>
        <time>2017-08-17T09:16:16Z</time>
      </trkpt>
      <trkpt lat="45.9588" lon="4.85319">
        <ele>269</ele>
        <time>2017-08-17T09:16:17Z</time>
      </trkpt>
      <trkpt lat="45.95885" lon="4.85325">
        <ele>269</ele>
        <time>2017-08-17T09:16:18Z</time>
      </trkpt>
      <trkpt lat="45.95891" lon="4.8533">
        <ele>269</ele>
        <time>2017-08-17T09:16:19Z</time>
      </trkpt>
      <trkpt lat="45.95896" lon="4.85335">
        <ele>267</ele>
        <time>2017-08-17T09:16:20Z</time>
      </trkpt>
      <trkpt lat="45.95902" lon="4.85338">
        <ele>267</ele>
        <time>2017-08-17T09:16:21Z</time>
      </trkpt>
      <trkpt lat="45.95909" lon="4.85341">
        <ele>267</ele>
        <time>2017-08-17T09:16:22Z</time>
      </trkpt>
      <trkpt lat="45.95915" lon="4.85344">
        <ele>267</ele>
        <time>2017-08-17T09:16:23Z</time>
      </trkpt>
      <trkpt lat="45.95922" lon="4.85346">
        <ele>266</ele>
        <time>2017-08-17T09:16:24Z</time>
      </trkpt>
      <trkpt lat="45.95928" lon="4.85348">
        <ele>266</ele>
        <time>2017-08-17T09:16:25Z</time>
      </trkpt>
      <trkpt lat="45.95934" lon="4.85349">
        <ele>266</ele>
        <time>2017-08-17T09:16:26Z</time>
      </trkpt>
      <trkpt lat="45.9594" lon="4.8535">
        <ele>266</ele>
        <time>2017-08-17T09:16:27Z</time>
      </trkpt>
      <trkpt lat="45.95946" lon="4.85351">
        <ele>266</ele>
        <time>2017-08-17T09:16:28Z</time>
      </trkpt>
      <trkpt lat="45.95953" lon="4.85351">
        <ele>266</ele>
        <time>2017-08-17T09:16:29Z</time>
      </trkpt>
      <trkpt lat="45.9596" lon="4.85351">
        <ele>265</ele>
        <time>2017-08-17T09:16:30Z</time>
      </trkpt>
      <trkpt lat="45.95966" lon="4.85351">
        <ele>265</ele>
        <time>2017-08-17T09:16:31Z</time>
      </trkpt>
      <trkpt lat="45.95974" lon="4.85351">
        <ele>265</ele>
        <time>2017-08-17T09:16:32Z</time>
      </trkpt>
      <trkpt lat="45.95981" lon="4.85351">
        <ele>265</ele>
        <time>2017-08-17T09:16:33Z</time>
      </trkpt>
      <trkpt lat="45.95988" lon="4.85352">
        <ele>265</ele>
        <time>2017-08-17T09:16:34Z</time>
      </trkpt>
      <trkpt lat="45.95996" lon="4.85351">
        <ele>265</ele>
        <time>2017-08-17T09:16:35Z</time>
      </trkpt>
      <trkpt lat="45.96003" lon="4.85351">
        <ele>264</ele>
        <time>2017-08-17T09:16:36Z</time>
      </trkpt>
      <trkpt lat="45.96011" lon="4.8535">
        <ele>264</ele>
        <time>2017-08-17T09:16:37Z</time>
      </trkpt>
      <trkpt lat="45.9602" lon="4.8535">
        <ele>263</ele>
        <time>2017-08-17T09:16:38Z</time>
      </trkpt>
      <trkpt lat="45.96029" lon="4.85349">
        <ele>263</ele>
        <time>2017-08-17T09:16:39Z</time>
      </trkpt>
      <trkpt lat="45.96038" lon="4.8535">
        <ele>263</ele>
        <time>2017-08-17T09:16:40Z</time>
      </trkpt>
      <trkpt lat="45.96046" lon="4.85351">
        <ele>262</ele>
        <time>2017-08-17T09:16:41Z</time>
      </trkpt>
      <trkpt lat="45.96055" lon="4.85352">
        <ele>262</ele>
        <time>2017-08-17T09:16:42Z</time>
      </trkpt>
      <trkpt lat="45.96063" lon="4.85352">
        <ele>262</ele>
        <time>2017-08-17T09:16:43Z</time>
      </trkpt>
      <trkpt lat="45.96073" lon="4.85353">
        <ele>262</ele>
        <time>2017-08-17T09:16:44Z</time>
      </trkpt>
      <trkpt lat="45.96082" lon="4.85356">
        <ele>262</ele>
        <time>2017-08-17T09:16:45Z</time>
      </trkpt>
      <trkpt lat="45.96091" lon="4.8536">
        <ele>259</ele>
        <time>2017-08-17T09:16:46Z</time>
      </trkpt>
      <trkpt lat="45.961" lon="4.85364">
        <ele>259</ele>
        <time>2017-08-17T09:16:47Z</time>
      </trkpt>
      <trkpt lat="45.96109" lon="4.85369">
        <ele>259</ele>
        <time>2017-08-17T09:16:48Z</time>
      </trkpt>
      <trkpt lat="45.96119" lon="4.85373">
        <ele>258</ele>
        <time>2017-08-17T09:16:49Z</time>
      </trkpt>
      <trkpt lat="45.96127" lon="4.85377">
        <ele>258</ele>
        <time>2017-08-17T09:16:50Z</time>
      </trkpt>
      <trkpt lat="45.96136" lon="4.85381">
        <ele>258</ele>
        <time>2017-08-17T09:16:51Z</time>
      </trkpt>
      <trkpt lat="45.96144" lon="4.85384">
        <ele>258</ele>
        <time>2017-08-17T09:16:52Z</time>
      </trkpt>
      <trkpt lat="45.96152" lon="4.85388">
        <ele>258</ele>
        <time>2017-08-17T09:16:53Z</time>
      </trkpt>
      <trkpt lat="45.96158" lon="4.85392">
        <ele>258</ele>
        <time>2017-08-17T09:16:54Z</time>
      </trkpt>
      <trkpt lat="45.96165" lon="4.85397">
        <ele>258</ele>
        <time>2017-08-17T09:16:55Z</time>
      </trkpt>
      <trkpt lat="45.96172" lon="4.85401">
        <ele>258</ele>
        <time>2017-08-17T09:16:56Z</time>
      </trkpt>
      <trkpt lat="45.96177" lon="4.85406">
        <ele>258</ele>
        <time>2017-08-17T09:16:57Z</time>
      </trkpt>
      <trkpt lat="45.96182" lon="4.8541">
        <ele>258</ele>
        <time>2017-08-17T09:16:58Z</time>
      </trkpt>
      <trkpt lat="45.96187" lon="4.85414">
        <ele>258</ele>
        <time>2017-08-17T09:16:59Z</time>
      </trkpt>
      <trkpt lat="45.96192" lon="4.85419">
        <ele>260</ele>
        <time>2017-08-17T09:17:00Z</time>
      </trkpt>
      <trkpt lat="45.96197" lon="4.85423">
        <ele>260</ele>
        <time>2017-08-17T09:17:01Z</time>
      </trkpt>
      <trkpt lat="45.96201" lon="4.85426">
        <ele>260</ele>
        <time>2017-08-17T09:17:02Z</time>
      </trkpt>
      <trkpt lat="45.96205" lon="4.85429">
        <ele>260</ele>
        <time>2017-08-17T09:17:03Z</time>
      </trkpt>
      <trkpt lat="45.9621" lon="4.85432">
        <ele>261</ele>
        <time>2017-08-17T09:17:04Z</time>
      </trkpt>
      <trkpt lat="45.96214" lon="4.85434">
        <ele>261</ele>
        <time>2017-08-17T09:17:05Z</time>
      </trkpt>
      <trkpt lat="45.96218" lon="4.85437">
        <ele>261</ele>
        <time>2017-08-17T09:17:06Z</time>
      </trkpt>
      <trkpt lat="45.96223" lon="4.85438">
        <ele>261</ele>
        <time>2017-08-17T09:17:07Z</time>
      </trkpt>
      <trkpt lat="45.96228" lon="4.8544">
        <ele>261</ele>
        <time>2017-08-17T09:17:08Z</time>
      </trkpt>
      <trkpt lat="45.96232" lon="4.85441">
        <ele>261</ele>
        <time>2017-08-17T09:17:09Z</time>
      </trkpt>
      <trkpt lat="45.96237" lon="4.85443">
        <ele>261</ele>
        <time>2017-08-17T09:17:10Z</time>
      </trkpt>
      <trkpt lat="45.96241" lon="4.85445">
        <ele>261</ele>
        <time>2017-08-17T09:17:11Z</time>
      </trkpt>
      <trkpt lat="45.9625" lon="4.85448">
        <ele>261</ele>
        <time>2017-08-17T09:17:13Z</time>
      </trkpt>
      <trkpt lat="45.96255" lon="4.85449">
        <ele>264</ele>
        <time>2017-08-17T09:17:14Z</time>
      </trkpt>
      <trkpt lat="45.9626" lon="4.85451">
        <ele>264</ele>
        <time>2017-08-17T09:17:15Z</time>
      </trkpt>
      <trkpt lat="45.96265" lon="4.85453">
        <ele>264</ele>
        <time>2017-08-17T09:17:16Z</time>
      </trkpt>
      <trkpt lat="45.9627" lon="4.85455">
        <ele>264</ele>
        <time>2017-08-17T09:17:17Z</time>
      </trkpt>
      <trkpt lat="45.96275" lon="4.85456">
        <ele>264</ele>
        <time>2017-08-17T09:17:18Z</time>
      </trkpt>
      <trkpt lat="45.96279" lon="4.85458">
        <ele>264</ele>
        <time>2017-08-17T09:17:19Z</time>
      </trkpt>
      <trkpt lat="45.96284" lon="4.8546">
        <ele>265</ele>
        <time>2017-08-17T09:17:20Z</time>
      </trkpt>
      <trkpt lat="45.96289" lon="4.85461">
        <ele>265</ele>
        <time>2017-08-17T09:17:21Z</time>
      </trkpt>
      <trkpt lat="45.96293" lon="4.85462">
        <ele>265</ele>
        <time>2017-08-17T09:17:22Z</time>
      </trkpt>
      <trkpt lat="45.96302" lon="4.85463">
        <ele>265</ele>
        <time>2017-08-17T09:17:24Z</time>
      </trkpt>
      <trkpt lat="45.96307" lon="4.85463">
        <ele>265</ele>
        <time>2017-08-17T09:17:25Z</time>
      </trkpt>
      <trkpt lat="45.96311" lon="4.85464">
        <ele>265</ele>
        <time>2017-08-17T09:17:26Z</time>
      </trkpt>
      <trkpt lat="45.96316" lon="4.85465">
        <ele>265</ele>
        <time>2017-08-17T09:17:27Z</time>
      </trkpt>
      <trkpt lat="45.9632" lon="4.85465">
        <ele>265</ele>
        <time>2017-08-17T09:17:28Z</time>
      </trkpt>
      <trkpt lat="45.96325" lon="4.85466">
        <ele>265</ele>
        <time>2017-08-17T09:17:29Z</time>
      </trkpt>
      <trkpt lat="45.9633" lon="4.85466">
        <ele>265</ele>
        <time>2017-08-17T09:17:30Z</time>
      </trkpt>
      <trkpt lat="45.96335" lon="4.85467">
        <ele>268</ele>
        <time>2017-08-17T09:17:31Z</time>
      </trkpt>
      <trkpt lat="45.96344" lon="4.85468">
        <ele>268</ele>
        <time>2017-08-17T09:17:33Z</time>
      </trkpt>
      <trkpt lat="45.96347" lon="4.85468">
        <ele>268</ele>
        <time>2017-08-17T09:17:34Z</time>
      </trkpt>
      <trkpt lat="45.96354" lon="4.85469">
        <ele>268</ele>
        <time>2017-08-17T09:17:36Z</time>
      </trkpt>
      <trkpt lat="45.96357" lon="4.85471">
        <ele>268</ele>
        <time>2017-08-17T09:17:37Z</time>
      </trkpt>
      <trkpt lat="45.96365" lon="4.85472">
        <ele>268</ele>
        <time>2017-08-17T09:17:39Z</time>
      </trkpt>
      <trkpt lat="45.96368" lon="4.85472">
        <ele>268</ele>
        <time>2017-08-17T09:17:40Z</time>
      </trkpt>
      <trkpt lat="45.96374" lon="4.85472">
        <ele>268</ele>
        <time>2017-08-17T09:17:42Z</time>
      </trkpt>
      <trkpt lat="45.96377" lon="4.85472">
        <ele>268</ele>
        <time>2017-08-17T09:17:43Z</time>
      </trkpt>
      <trkpt lat="45.96382" lon="4.85473">
        <ele>268</ele>
        <time>2017-08-17T09:17:45Z</time>
      </trkpt>
      <trkpt lat="45.96386" lon="4.85474">
        <ele>269</ele>
        <time>2017-08-17T09:17:46Z</time>
      </trkpt>
      <trkpt lat="45.96393" lon="4.85476">
        <ele>269</ele>
        <time>2017-08-17T09:17:48Z</time>
      </trkpt>
      <trkpt lat="45.96396" lon="4.85476">
        <ele>269</ele>
        <time>2017-08-17T09:17:49Z</time>
      </trkpt>
      <trkpt lat="45.96402" lon="4.85477">
        <ele>269</ele>
        <time>2017-08-17T09:17:51Z</time>
      </trkpt>
      <trkpt lat="45.96405" lon="4.85477">
        <ele>269</ele>
        <time>2017-08-17T09:17:52Z</time>
      </trkpt>
      <trkpt lat="45.96414" lon="4.85478">
        <ele>269</ele>
        <time>2017-08-17T09:17:55Z</time>
      </trkpt>
      <trkpt lat="45.96417" lon="4.85479">
        <ele>271</ele>
        <time>2017-08-17T09:17:56Z</time>
      </trkpt>
      <trkpt lat="45.96423" lon="4.85479">
        <ele>271</ele>
        <time>2017-08-17T09:17:58Z</time>
      </trkpt>
      <trkpt lat="45.96428" lon="4.85479">
        <ele>271</ele>
        <time>2017-08-17T09:17:59Z</time>
      </trkpt>
      <trkpt lat="45.96436" lon="4.8548">
        <ele>271</ele>
        <time>2017-08-17T09:18:01Z</time>
      </trkpt>
      <trkpt lat="45.9644" lon="4.85479">
        <ele>271</ele>
        <time>2017-08-17T09:18:02Z</time>
      </trkpt>
      <trkpt lat="45.96446" lon="4.85481">
        <ele>272</ele>
        <time>2017-08-17T09:18:04Z</time>
      </trkpt>
      <trkpt lat="45.96449" lon="4.85481">
        <ele>272</ele>
        <time>2017-08-17T09:18:05Z</time>
      </trkpt>
      <trkpt lat="45.96455" lon="4.85482">
        <ele>272</ele>
        <time>2017-08-17T09:18:07Z</time>
      </trkpt>
      <trkpt lat="45.96458" lon="4.85482">
        <ele>272</ele>
        <time>2017-08-17T09:18:08Z</time>
      </trkpt>
      <trkpt lat="45.96466" lon="4.85484">
        <ele>272</ele>
        <time>2017-08-17T09:18:11Z</time>
      </trkpt>
      <trkpt lat="45.96468" lon="4.85484">
        <ele>272</ele>
        <time>2017-08-17T09:18:12Z</time>
      </trkpt>
      <trkpt lat="45.96477" lon="4.85484">
        <ele>273</ele>
        <time>2017-08-17T09:18:16Z</time>
      </trkpt>
      <trkpt lat="45.9648" lon="4.85482">
        <ele>273</ele>
        <time>2017-08-17T09:18:17Z</time>
      </trkpt>
      <trkpt lat="45.96487" lon="4.85481">
        <ele>273</ele>
        <time>2017-08-17T09:18:19Z</time>
      </trkpt>
      <trkpt lat="45.9649" lon="4.8548">
        <ele>273</ele>
        <time>2017-08-17T09:18:20Z</time>
      </trkpt>
      <trkpt lat="45.96497" lon="4.85479">
        <ele>273</ele>
        <time>2017-08-17T09:18:22Z</time>
      </trkpt>
      <trkpt lat="45.965" lon="4.85478">
        <ele>275</ele>
        <time>2017-08-17T09:18:23Z</time>
      </trkpt>
      <trkpt lat="45.96507" lon="4.85474">
        <ele>275</ele>
        <time>2017-08-17T09:18:25Z</time>
      </trkpt>
      <trkpt lat="45.9651" lon="4.85473">
        <ele>275</ele>
        <time>2017-08-17T09:18:26Z</time>
      </trkpt>
      <trkpt lat="45.96516" lon="4.85471">
        <ele>275</ele>
        <time>2017-08-17T09:18:28Z</time>
      </trkpt>
      <trkpt lat="45.9652" lon="4.8547">
        <ele>275</ele>
        <time>2017-08-17T09:18:29Z</time>
      </trkpt>
      <trkpt lat="45.96526" lon="4.85469">
        <ele>275</ele>
        <time>2017-08-17T09:18:31Z</time>
      </trkpt>
      <trkpt lat="45.96529" lon="4.85468">
        <ele>275</ele>
        <time>2017-08-17T09:18:32Z</time>
      </trkpt>
      <trkpt lat="45.96536" lon="4.85467">
        <ele>275</ele>
        <time>2017-08-17T09:18:34Z</time>
      </trkpt>
      <trkpt lat="45.9654" lon="4.85467">
        <ele>275</ele>
        <time>2017-08-17T09:18:35Z</time>
      </trkpt>
      <trkpt lat="45.96547" lon="4.85468">
        <ele>275</ele>
        <time>2017-08-17T09:18:37Z</time>
      </trkpt>
      <trkpt lat="45.9655" lon="4.85467">
        <ele>275</ele>
        <time>2017-08-17T09:18:38Z</time>
      </trkpt>
      <trkpt lat="45.96558" lon="4.85465">
        <ele>275</ele>
        <time>2017-08-17T09:18:40Z</time>
      </trkpt>
      <trkpt lat="45.96561" lon="4.85464">
        <ele>275</ele>
        <time>2017-08-17T09:18:41Z</time>
      </trkpt>
      <trkpt lat="45.9657" lon="4.85464">
        <ele>275</ele>
        <time>2017-08-17T09:18:43Z</time>
      </trkpt>
      <trkpt lat="45.96574" lon="4.85463">
        <ele>275</ele>
        <time>2017-08-17T09:18:44Z</time>
      </trkpt>
      <trkpt lat="45.96582" lon="4.85462">
        <ele>275</ele>
        <time>2017-08-17T09:18:46Z</time>
      </trkpt>
      <trkpt lat="45.96587" lon="4.85461">
        <ele>276</ele>
        <time>2017-08-17T09:18:47Z</time>
      </trkpt>
      <trkpt lat="45.96594" lon="4.85458">
        <ele>276</ele>
        <time>2017-08-17T09:18:49Z</time>
      </trkpt>
      <trkpt lat="45.96597" lon="4.85457">
        <ele>276</ele>
        <time>2017-08-17T09:18:50Z</time>
      </trkpt>
      <trkpt lat="45.96606" lon="4.85455">
        <ele>276</ele>
        <time>2017-08-17T09:18:53Z</time>
      </trkpt>
      <trkpt lat="45.96609" lon="4.85454">
        <ele>276</ele>
        <time>2017-08-17T09:18:54Z</time>
      </trkpt>
      <trkpt lat="45.96615" lon="4.8545">
        <ele>276</ele>
        <time>2017-08-17T09:18:56Z</time>
      </trkpt>
      <trkpt lat="45.96619" lon="4.85449">
        <ele>276</ele>
        <time>2017-08-17T09:18:57Z</time>
      </trkpt>
      <trkpt lat="45.96626" lon="4.85446">
        <ele>276</ele>
        <time>2017-08-17T09:18:59Z</time>
      </trkpt>
      <trkpt lat="45.9663" lon="4.85445">
        <ele>276</ele>
        <time>2017-08-17T09:19:00Z</time>
      </trkpt>
      <trkpt lat="45.96636" lon="4.85442">
        <ele>276</ele>
        <time>2017-08-17T09:19:02Z</time>
      </trkpt>
      <trkpt lat="45.9664" lon="4.85441">
        <ele>276</ele>
        <time>2017-08-17T09:19:03Z</time>
      </trkpt>
      <trkpt lat="45.96646" lon="4.85437">
        <ele>276</ele>
        <time>2017-08-17T09:19:05Z</time>
      </trkpt>
      <trkpt lat="45.9665" lon="4.85435">
        <ele>276</ele>
        <time>2017-08-17T09:19:06Z</time>
      </trkpt>
      <trkpt lat="45.96659" lon="4.85432">
        <ele>276</ele>
        <time>2017-08-17T09:19:08Z</time>
      </trkpt>
      <trkpt lat="45.96663" lon="4.85431">
        <ele>276</ele>
        <time>2017-08-17T09:19:09Z</time>
      </trkpt>
      <trkpt lat="45.9667" lon="4.8543">
        <ele>276</ele>
        <time>2017-08-17T09:19:11Z</time>
      </trkpt>
      <trkpt lat="45.96673" lon="4.85429">
        <ele>276</ele>
        <time>2017-08-17T09:19:12Z</time>
      </trkpt>
      <trkpt lat="45.9668" lon="4.85425">
        <ele>276</ele>
        <time>2017-08-17T09:19:15Z</time>
      </trkpt>
      <trkpt lat="45.96683" lon="4.85425">
        <ele>276</ele>
        <time>2017-08-17T09:19:16Z</time>
      </trkpt>
      <trkpt lat="45.9669" lon="4.85423">
        <ele>276</ele>
        <time>2017-08-17T09:19:18Z</time>
      </trkpt>
      <trkpt lat="45.96694" lon="4.85422">
        <ele>276</ele>
        <time>2017-08-17T09:19:19Z</time>
      </trkpt>
      <trkpt lat="45.96702" lon="4.85418">
        <ele>276</ele>
        <time>2017-08-17T09:19:21Z</time>
      </trkpt>
      <trkpt lat="45.96706" lon="4.85416">
        <ele>276</ele>
        <time>2017-08-17T09:19:22Z</time>
      </trkpt>
      <trkpt lat="45.96714" lon="4.85412">
        <ele>276</ele>
        <time>2017-08-17T09:19:24Z</time>
      </trkpt>
      <trkpt lat="45.96718" lon="4.8541">
        <ele>276</ele>
        <time>2017-08-17T09:19:25Z</time>
      </trkpt>
      <trkpt lat="45.96725" lon="4.85405">
        <ele>277</ele>
        <time>2017-08-17T09:19:27Z</time>
      </trkpt>
      <trkpt lat="45.96729" lon="4.85402">
        <ele>277</ele>
        <time>2017-08-17T09:19:28Z</time>
      </trkpt>
      <trkpt lat="45.96736" lon="4.85396">
        <ele>277</ele>
        <time>2017-08-17T09:19:30Z</time>
      </trkpt>
      <trkpt lat="45.96739" lon="4.85393">
        <ele>277</ele>
        <time>2017-08-17T09:19:31Z</time>
      </trkpt>
      <trkpt lat="45.96746" lon="4.85388">
        <ele>277</ele>
        <time>2017-08-17T09:19:33Z</time>
      </trkpt>
      <trkpt lat="45.9675" lon="4.85385">
        <ele>277</ele>
        <time>2017-08-17T09:19:34Z</time>
      </trkpt>
      <trkpt lat="45.96757" lon="4.85381">
        <ele>278</ele>
        <time>2017-08-17T09:19:36Z</time>
      </trkpt>
      <trkpt lat="45.9676" lon="4.85378">
        <ele>278</ele>
        <time>2017-08-17T09:19:37Z</time>
      </trkpt>
      <trkpt lat="45.96767" lon="4.85372">
        <ele>278</ele>
        <time>2017-08-17T09:19:39Z</time>
      </trkpt>
      <trkpt lat="45.9677" lon="4.85369">
        <ele>278</ele>
        <time>2017-08-17T09:19:40Z</time>
      </trkpt>
      <trkpt lat="45.96776" lon="4.85364">
        <ele>278</ele>
        <time>2017-08-17T09:19:42Z</time>
      </trkpt>
      <trkpt lat="45.9678" lon="4.85361">
        <ele>278</ele>
        <time>2017-08-17T09:19:43Z</time>
      </trkpt>
      <trkpt lat="45.96787" lon="4.85358">
        <ele>278</ele>
        <time>2017-08-17T09:19:45Z</time>
      </trkpt>
      <trkpt lat="45.9679" lon="4.85355">
        <ele>278</ele>
        <time>2017-08-17T09:19:46Z</time>
      </trkpt>
      <trkpt lat="45.96796" lon="4.8535">
        <ele>279</ele>
        <time>2017-08-17T09:19:48Z</time>
      </trkpt>
      <trkpt lat="45.968" lon="4.85348">
        <ele>279</ele>
        <time>2017-08-17T09:19:49Z</time>
      </trkpt>
      <trkpt lat="45.96807" lon="4.85346">
        <ele>279</ele>
        <time>2017-08-17T09:19:51Z</time>
      </trkpt>
      <trkpt lat="45.96811" lon="4.85344">
        <ele>279</ele>
        <time>2017-08-17T09:19:52Z</time>
      </trkpt>
      <trkpt lat="45.96817" lon="4.8534">
        <ele>279</ele>
        <time>2017-08-17T09:19:54Z</time>
      </trkpt>
      <trkpt lat="45.96821" lon="4.85338">
        <ele>279</ele>
        <time>2017-08-17T09:19:55Z</time>
      </trkpt>
      <trkpt lat="45.96828" lon="4.85335">
        <ele>280</ele>
        <time>2017-08-17T09:19:57Z</time>
      </trkpt>
      <trkpt lat="45.96831" lon="4.85333">
        <ele>280</ele>
        <time>2017-08-17T09:19:58Z</time>
      </trkpt>
      <trkpt lat="45.96838" lon="4.85331">
        <ele>281</ele>
        <time>2017-08-17T09:20:00Z</time>
      </trkpt>
      <trkpt lat="45.96841" lon="4.85329">
        <ele>281</ele>
        <time>2017-08-17T09:20:01Z</time>
      </trkpt>
      <trkpt lat="45.96847" lon="4.85327">
        <ele>281</ele>
        <time>2017-08-17T09:20:03Z</time>
      </trkpt>
      <trkpt lat="45.9685" lon="4.85325">
        <ele>281</ele>
        <time>2017-08-17T09:20:04Z</time>
      </trkpt>
      <trkpt lat="45.96857" lon="4.85323">
        <ele>282</ele>
        <time>2017-08-17T09:20:06Z</time>
      </trkpt>
      <trkpt lat="45.9686" lon="4.85322">
        <ele>282</ele>
        <time>2017-08-17T09:20:07Z</time>
      </trkpt>
      <trkpt lat="45.96867" lon="4.8532">
        <ele>282</ele>
        <time>2017-08-17T09:20:09Z</time>
      </trkpt>
      <trkpt lat="45.9687" lon="4.85319">
        <ele>282</ele>
        <time>2017-08-17T09:20:10Z</time>
      </trkpt>
      <trkpt lat="45.96876" lon="4.85316">
        <ele>283</ele>
        <time>2017-08-17T09:20:12Z</time>
      </trkpt>
      <trkpt lat="45.9688" lon="4.85315">
        <ele>283</ele>
        <time>2017-08-17T09:20:13Z</time>
      </trkpt>
      <trkpt lat="45.96886" lon="4.85313">
        <ele>283</ele>
        <time>2017-08-17T09:20:15Z</time>
      </trkpt>
      <trkpt lat="45.9689" lon="4.85312">
        <ele>283</ele>
        <time>2017-08-17T09:20:16Z</time>
      </trkpt>
      <trkpt lat="45.96897" lon="4.8531">
        <ele>283</ele>
        <time>2017-08-17T09:20:18Z</time>
      </trkpt>
      <trkpt lat="45.969" lon="4.8531">
        <ele>284</ele>
        <time>2017-08-17T09:20:19Z</time>
      </trkpt>
      <trkpt lat="45.96906" lon="4.85309">
        <ele>284</ele>
        <time>2017-08-17T09:20:21Z</time>
      </trkpt>
      <trkpt lat="45.9691" lon="4.85308">
        <ele>284</ele>
        <time>2017-08-17T09:20:22Z</time>
      </trkpt>
      <trkpt lat="45.96917" lon="4.85306">
        <ele>285</ele>
        <time>2017-08-17T09:20:24Z</time>
      </trkpt>
      <trkpt lat="45.9692" lon="4.85305">
        <ele>284</ele>
        <time>2017-08-17T09:20:25Z</time>
      </trkpt>
      <trkpt lat="45.96927" lon="4.85302">
        <ele>284</ele>
        <time>2017-08-17T09:20:27Z</time>
      </trkpt>
      <trkpt lat="45.96931" lon="4.85301">
        <ele>284</ele>
        <time>2017-08-17T09:20:28Z</time>
      </trkpt>
      <trkpt lat="45.96938" lon="4.85299">
        <ele>284</ele>
        <time>2017-08-17T09:20:30Z</time>
      </trkpt>
      <trkpt lat="45.96941" lon="4.85298">
        <ele>284</ele>
        <time>2017-08-17T09:20:31Z</time>
      </trkpt>
      <trkpt lat="45.96948" lon="4.85297">
        <ele>284</ele>
        <time>2017-08-17T09:20:33Z</time>
      </trkpt>
      <trkpt lat="45.96952" lon="4.85296">
        <ele>284</ele>
        <time>2017-08-17T09:20:34Z</time>
      </trkpt>
      <trkpt lat="45.96958" lon="4.85294">
        <ele>284</ele>
        <time>2017-08-17T09:20:36Z</time>
      </trkpt>
      <trkpt lat="45.96962" lon="4.85294">
        <ele>284</ele>
        <time>2017-08-17T09:20:37Z</time>
      </trkpt>
      <trkpt lat="45.96969" lon="4.85293">
        <ele>284</ele>
        <time>2017-08-17T09:20:39Z</time>
      </trkpt>
      <trkpt lat="45.96973" lon="4.85292">
        <ele>284</ele>
        <time>2017-08-17T09:20:40Z</time>
      </trkpt>
      <trkpt lat="45.96981" lon="4.85291">
        <ele>284</ele>
        <time>2017-08-17T09:20:42Z</time>
      </trkpt>
      <trkpt lat="45.96985" lon="4.8529">
        <ele>284</ele>
        <time>2017-08-17T09:20:43Z</time>
      </trkpt>
      <trkpt lat="45.96989" lon="4.85289">
        <ele>284</ele>
        <time>2017-08-17T09:20:44Z</time>
      </trkpt>
      <trkpt lat="45.96994" lon="4.85288">
        <ele>284</ele>
        <time>2017-08-17T09:20:45Z</time>
      </trkpt>
      <trkpt lat="45.96998" lon="4.85288">
        <ele>283</ele>
        <time>2017-08-17T09:20:46Z</time>
      </trkpt>
      <trkpt lat="45.97003" lon="4.85287">
        <ele>282</ele>
        <time>2017-08-17T09:20:47Z</time>
      </trkpt>
      <trkpt lat="45.97008" lon="4.85287">
        <ele>282</ele>
        <time>2017-08-17T09:20:48Z</time>
      </trkpt>
      <trkpt lat="45.97013" lon="4.85287">
        <ele>282</ele>
        <time>2017-08-17T09:20:49Z</time>
      </trkpt>
      <trkpt lat="45.97019" lon="4.85287">
        <ele>282</ele>
        <time>2017-08-17T09:20:50Z</time>
      </trkpt>
      <trkpt lat="45.97025" lon="4.85286">
        <ele>282</ele>
        <time>2017-08-17T09:20:51Z</time>
      </trkpt>
      <trkpt lat="45.9703" lon="4.85285">
        <ele>282</ele>
        <time>2017-08-17T09:20:52Z</time>
      </trkpt>
      <trkpt lat="45.97036" lon="4.85285">
        <ele>282</ele>
        <time>2017-08-17T09:20:53Z</time>
      </trkpt>
      <trkpt lat="45.97042" lon="4.85284">
        <ele>282</ele>
        <time>2017-08-17T09:20:54Z</time>
      </trkpt>
      <trkpt lat="45.97048" lon="4.85283">
        <ele>282</ele>
        <time>2017-08-17T09:20:55Z</time>
      </trkpt>
      <trkpt lat="45.97054" lon="4.85282">
        <ele>282</ele>
        <time>2017-08-17T09:20:56Z</time>
      </trkpt>
      <trkpt lat="45.97061" lon="4.85281">
        <ele>282</ele>
        <time>2017-08-17T09:20:57Z</time>
      </trkpt>
      <trkpt lat="45.97067" lon="4.8528">
        <ele>282</ele>
        <time>2017-08-17T09:20:58Z</time>
      </trkpt>
      <trkpt lat="45.97074" lon="4.85279">
        <ele>281</ele>
        <time>2017-08-17T09:20:59Z</time>
      </trkpt>
      <trkpt lat="45.97081" lon="4.85279">
        <ele>281</ele>
        <time>2017-08-17T09:21:00Z</time>
      </trkpt>
      <trkpt lat="45.97087" lon="4.85279">
        <ele>280</ele>
        <time>2017-08-17T09:21:01Z</time>
      </trkpt>
      <trkpt lat="45.97094" lon="4.85278">
        <ele>280</ele>
        <time>2017-08-17T09:21:02Z</time>
      </trkpt>
      <trkpt lat="45.97101" lon="4.85278">
        <ele>280</ele>
        <time>2017-08-17T09:21:03Z</time>
      </trkpt>
      <trkpt lat="45.97108" lon="4.85277">
        <ele>280</ele>
        <time>2017-08-17T09:21:04Z</time>
      </trkpt>
      <trkpt lat="45.97115" lon="4.85277">
        <ele>280</ele>
        <time>2017-08-17T09:21:05Z</time>
      </trkpt>
      <trkpt lat="45.97122" lon="4.85277">
        <ele>280</ele>
        <time>2017-08-17T09:21:06Z</time>
      </trkpt>
      <trkpt lat="45.97129" lon="4.85277">
        <ele>279</ele>
        <time>2017-08-17T09:21:07Z</time>
      </trkpt>
      <trkpt lat="45.97136" lon="4.85277">
        <ele>279</ele>
        <time>2017-08-17T09:21:08Z</time>
      </trkpt>
      <trkpt lat="45.97143" lon="4.85276">
        <ele>279</ele>
        <time>2017-08-17T09:21:09Z</time>
      </trkpt>
      <trkpt lat="45.9715" lon="4.85276">
        <ele>279</ele>
        <time>2017-08-17T09:21:10Z</time>
      </trkpt>
      <trkpt lat="45.97156" lon="4.85275">
        <ele>279</ele>
        <time>2017-08-17T09:21:11Z</time>
      </trkpt>
      <trkpt lat="45.97163" lon="4.85275">
        <ele>279</ele>
        <time>2017-08-17T09:21:12Z</time>
      </trkpt>
      <trkpt lat="45.9717" lon="4.85275">
        <ele>279</ele>
        <time>2017-08-17T09:21:13Z</time>
      </trkpt>
      <trkpt lat="45.97177" lon="4.85276">
        <ele>279</ele>
        <time>2017-08-17T09:21:14Z</time>
      </trkpt>
      <trkpt lat="45.97183" lon="4.85276">
        <ele>279</ele>
        <time>2017-08-17T09:21:15Z</time>
      </trkpt>
      <trkpt lat="45.9719" lon="4.85276">
        <ele>279</ele>
        <time>2017-08-17T09:21:16Z</time>
      </trkpt>
      <trkpt lat="45.97196" lon="4.85274">
        <ele>279</ele>
        <time>2017-08-17T09:21:17Z</time>
      </trkpt>
      <trkpt lat="45.97202" lon="4.85273">
        <ele>279</ele>
        <time>2017-08-17T09:21:18Z</time>
      </trkpt>
      <trkpt lat="45.97208" lon="4.85273">
        <ele>279</ele>
        <time>2017-08-17T09:21:19Z</time>
      </trkpt>
      <trkpt lat="45.97214" lon="4.85273">
        <ele>279</ele>
        <time>2017-08-17T09:21:20Z</time>
      </trkpt>
      <trkpt lat="45.9722" lon="4.85273">
        <ele>279</ele>
        <time>2017-08-17T09:21:21Z</time>
      </trkpt>
      <trkpt lat="45.97225" lon="4.85273">
        <ele>279</ele>
        <time>2017-08-17T09:21:22Z</time>
      </trkpt>
      <trkpt lat="45.97231" lon="4.85273">
        <ele>279</ele>
        <time>2017-08-17T09:21:23Z</time>
      </trkpt>
      <trkpt lat="45.97236" lon="4.85272">
        <ele>279</ele>
        <time>2017-08-17T09:21:24Z</time>
      </trkpt>
      <trkpt lat="45.97241" lon="4.85272">
        <ele>279</ele>
        <time>2017-08-17T09:21:25Z</time>
      </trkpt>
      <trkpt lat="45.97246" lon="4.85272">
        <ele>279</ele>
        <time>2017-08-17T09:21:26Z</time>
      </trkpt>
      <trkpt lat="45.97251" lon="4.85272">
        <ele>281</ele>
        <time>2017-08-17T09:21:27Z</time>
      </trkpt>
      <trkpt lat="45.97256" lon="4.85272">
        <ele>281</ele>
        <time>2017-08-17T09:21:28Z</time>
      </trkpt>
      <trkpt lat="45.9726" lon="4.85272">
        <ele>281</ele>
        <time>2017-08-17T09:21:29Z</time>
      </trkpt>
      <trkpt lat="45.97265" lon="4.85272">
        <ele>281</ele>
        <time>2017-08-17T09:21:30Z</time>
      </trkpt>
      <trkpt lat="45.9727" lon="4.85272">
        <ele>281</ele>
        <time>2017-08-17T09:21:31Z</time>
      </trkpt>
      <trkpt lat="45.97274" lon="4.85272">
        <ele>281</ele>
        <time>2017-08-17T09:21:32Z</time>
      </trkpt>
      <trkpt lat="45.97279" lon="4.85271">
        <ele>281</ele>
        <time>2017-08-17T09:21:33Z</time>
      </trkpt>
      <trkpt lat="45.97284" lon="4.85271">
        <ele>281</ele>
        <time>2017-08-17T09:21:34Z</time>
      </trkpt>
      <trkpt lat="45.97289" lon="4.85271">
        <ele>281</ele>
        <time>2017-08-17T09:21:35Z</time>
      </trkpt>
      <trkpt lat="45.97293" lon="4.85271">
        <ele>282</ele>
        <time>2017-08-17T09:21:36Z</time>
      </trkpt>
      <trkpt lat="45.97298" lon="4.85271">
        <ele>282</ele>
        <time>2017-08-17T09:21:37Z</time>
      </trkpt>
      <trkpt lat="45.97306" lon="4.85271">
        <ele>282</ele>
        <time>2017-08-17T09:21:39Z</time>
      </trkpt>
      <trkpt lat="45.97311" lon="4.85271">
        <ele>282</ele>
        <time>2017-08-17T09:21:40Z</time>
      </trkpt>
      <trkpt lat="45.97316" lon="4.8527">
        <ele>282</ele>
        <time>2017-08-17T09:21:41Z</time>
      </trkpt>
      <trkpt lat="45.9732" lon="4.85269">
        <ele>282</ele>
        <time>2017-08-17T09:21:42Z</time>
      </trkpt>
      <trkpt lat="45.97325" lon="4.85269">
        <ele>282</ele>
        <time>2017-08-17T09:21:43Z</time>
      </trkpt>
      <trkpt lat="45.9733" lon="4.85269">
        <ele>282</ele>
        <time>2017-08-17T09:21:44Z</time>
      </trkpt>
      <trkpt lat="45.97338" lon="4.8527">
        <ele>284</ele>
        <time>2017-08-17T09:21:46Z</time>
      </trkpt>
      <trkpt lat="45.97342" lon="4.85271">
        <ele>284</ele>
        <time>2017-08-17T09:21:47Z</time>
      </trkpt>
      <trkpt lat="45.9735" lon="4.85271">
        <ele>284</ele>
        <time>2017-08-17T09:21:49Z</time>
      </trkpt>
      <trkpt lat="45.97355" lon="4.85272">
        <ele>284</ele>
        <time>2017-08-17T09:21:50Z</time>
      </trkpt>
      <trkpt lat="45.9736" lon="4.85272">
        <ele>284</ele>
        <time>2017-08-17T09:21:51Z</time>
      </trkpt>
      <trkpt lat="45.97365" lon="4.85271">
        <ele>285</ele>
        <time>2017-08-17T09:21:52Z</time>
      </trkpt>
      <trkpt lat="45.97373" lon="4.85272">
        <ele>285</ele>
        <time>2017-08-17T09:21:54Z</time>
      </trkpt>
      <trkpt lat="45.97377" lon="4.85272">
        <ele>285</ele>
        <time>2017-08-17T09:21:55Z</time>
      </trkpt>
      <trkpt lat="45.97382" lon="4.85272">
        <ele>285</ele>
        <time>2017-08-17T09:21:56Z</time>
      </trkpt>
      <trkpt lat="45.97387" lon="4.85272">
        <ele>285</ele>
        <time>2017-08-17T09:21:57Z</time>
      </trkpt>
      <trkpt lat="45.97393" lon="4.85272">
        <ele>286</ele>
        <time>2017-08-17T09:21:58Z</time>
      </trkpt>
      <trkpt lat="45.97398" lon="4.85272">
        <ele>286</ele>
        <time>2017-08-17T09:21:59Z</time>
      </trkpt>
      <trkpt lat="45.97403" lon="4.85272">
        <ele>286</ele>
        <time>2017-08-17T09:22:00Z</time>
      </trkpt>
      <trkpt lat="45.97408" lon="4.85273">
        <ele>286</ele>
        <time>2017-08-17T09:22:01Z</time>
      </trkpt>
      <trkpt lat="45.97413" lon="4.85274">
        <ele>286</ele>
        <time>2017-08-17T09:22:02Z</time>
      </trkpt>
      <trkpt lat="45.97417" lon="4.85274">
        <ele>285</ele>
        <time>2017-08-17T09:22:03Z</time>
      </trkpt>
      <trkpt lat="45.97422" lon="4.85275">
        <ele>285</ele>
        <time>2017-08-17T09:22:04Z</time>
      </trkpt>
      <trkpt lat="45.97429" lon="4.85276">
        <ele>285</ele>
        <time>2017-08-17T09:22:05Z</time>
      </trkpt>
      <trkpt lat="45.97434" lon="4.85277">
        <ele>285</ele>
        <time>2017-08-17T09:22:06Z</time>
      </trkpt>
      <trkpt lat="45.9744" lon="4.85277">
        <ele>285</ele>
        <time>2017-08-17T09:22:07Z</time>
      </trkpt>
      <trkpt lat="45.97445" lon="4.85277">
        <ele>285</ele>
        <time>2017-08-17T09:22:08Z</time>
      </trkpt>
      <trkpt lat="45.9745" lon="4.85278">
        <ele>285</ele>
        <time>2017-08-17T09:22:09Z</time>
      </trkpt>
      <trkpt lat="45.97456" lon="4.85278">
        <ele>284</ele>
        <time>2017-08-17T09:22:10Z</time>
      </trkpt>
      <trkpt lat="45.97462" lon="4.85277">
        <ele>284</ele>
        <time>2017-08-17T09:22:11Z</time>
      </trkpt>
      <trkpt lat="45.97468" lon="4.85277">
        <ele>284</ele>
        <time>2017-08-17T09:22:12Z</time>
      </trkpt>
      <trkpt lat="45.97474" lon="4.85276">
        <ele>284</ele>
        <time>2017-08-17T09:22:13Z</time>
      </trkpt>
      <trkpt lat="45.97481" lon="4.85275">
        <ele>284</ele>
        <time>2017-08-17T09:22:14Z</time>
      </trkpt>
      <trkpt lat="45.97487" lon="4.85274">
        <ele>284</ele>
        <time>2017-08-17T09:22:15Z</time>
      </trkpt>
      <trkpt lat="45.97492" lon="4.85275">
        <ele>283</ele>
        <time>2017-08-17T09:22:16Z</time>
      </trkpt>
      <trkpt lat="45.97498" lon="4.85275">
        <ele>283</ele>
        <time>2017-08-17T09:22:17Z</time>
      </trkpt>
      <trkpt lat="45.97503" lon="4.85275">
        <ele>281</ele>
        <time>2017-08-17T09:22:18Z</time>
      </trkpt>
      <trkpt lat="45.97511" lon="4.85272">
        <ele>281</ele>
        <time>2017-08-17T09:22:19Z</time>
      </trkpt>
      <trkpt lat="45.97518" lon="4.85272">
        <ele>281</ele>
        <time>2017-08-17T09:22:20Z</time>
      </trkpt>
      <trkpt lat="45.97525" lon="4.85271">
        <ele>281</ele>
        <time>2017-08-17T09:22:21Z</time>
      </trkpt>
      <trkpt lat="45.97532" lon="4.8527">
        <ele>281</ele>
        <time>2017-08-17T09:22:22Z</time>
      </trkpt>
      <trkpt lat="45.97539" lon="4.85269">
        <ele>281</ele>
        <time>2017-08-17T09:22:23Z</time>
      </trkpt>
      <trkpt lat="45.97546" lon="4.85269">
        <ele>281</ele>
        <time>2017-08-17T09:22:24Z</time>
      </trkpt>
      <trkpt lat="45.97553" lon="4.85268">
        <ele>281</ele>
        <time>2017-08-17T09:22:25Z</time>
      </trkpt>
      <trkpt lat="45.97559" lon="4.85268">
        <ele>281</ele>
        <time>2017-08-17T09:22:26Z</time>
      </trkpt>
      <trkpt lat="45.97565" lon="4.85268">
        <ele>281</ele>
        <time>2017-08-17T09:22:27Z</time>
      </trkpt>
      <trkpt lat="45.97571" lon="4.85268">
        <ele>281</ele>
        <time>2017-08-17T09:22:28Z</time>
      </trkpt>
      <trkpt lat="45.97577" lon="4.85268">
        <ele>281</ele>
        <time>2017-08-17T09:22:29Z</time>
      </trkpt>
      <trkpt lat="45.97583" lon="4.85268">
        <ele>281</ele>
        <time>2017-08-17T09:22:30Z</time>
      </trkpt>
      <trkpt lat="45.97588" lon="4.85267">
        <ele>280</ele>
        <time>2017-08-17T09:22:31Z</time>
      </trkpt>
      <trkpt lat="45.97594" lon="4.85267">
        <ele>280</ele>
        <time>2017-08-17T09:22:32Z</time>
      </trkpt>
      <trkpt lat="45.97599" lon="4.85265">
        <ele>280</ele>
        <time>2017-08-17T09:22:33Z</time>
      </trkpt>
      <trkpt lat="45.97604" lon="4.85265">
        <ele>279</ele>
        <time>2017-08-17T09:22:34Z</time>
      </trkpt>
      <trkpt lat="45.97609" lon="4.85264">
        <ele>279</ele>
        <time>2017-08-17T09:22:35Z</time>
      </trkpt>
      <trkpt lat="45.97614" lon="4.85263">
        <ele>279</ele>
        <time>2017-08-17T09:22:36Z</time>
      </trkpt>
      <trkpt lat="45.97619" lon="4.85262">
        <ele>279</ele>
        <time>2017-08-17T09:22:37Z</time>
      </trkpt>
      <trkpt lat="45.97624" lon="4.85261">
        <ele>278</ele>
        <time>2017-08-17T09:22:38Z</time>
      </trkpt>
      <trkpt lat="45.9763" lon="4.8526">
        <ele>278</ele>
        <time>2017-08-17T09:22:39Z</time>
      </trkpt>
      <trkpt lat="45.97636" lon="4.8526">
        <ele>278</ele>
        <time>2017-08-17T09:22:40Z</time>
      </trkpt>
      <trkpt lat="45.97642" lon="4.85259">
        <ele>278</ele>
        <time>2017-08-17T09:22:41Z</time>
      </trkpt>
      <trkpt lat="45.97648" lon="4.85258">
        <ele>277</ele>
        <time>2017-08-17T09:22:42Z</time>
      </trkpt>
      <trkpt lat="45.97654" lon="4.85257">
        <ele>277</ele>
        <time>2017-08-17T09:22:43Z</time>
      </trkpt>
      <trkpt lat="45.9766" lon="4.85256">
        <ele>277</ele>
        <time>2017-08-17T09:22:44Z</time>
      </trkpt>
      <trkpt lat="45.97666" lon="4.85256">
        <ele>276</ele>
        <time>2017-08-17T09:22:45Z</time>
      </trkpt>
      <trkpt lat="45.97672" lon="4.85254">
        <ele>276</ele>
        <time>2017-08-17T09:22:46Z</time>
      </trkpt>
      <trkpt lat="45.97678" lon="4.85254">
        <ele>276</ele>
        <time>2017-08-17T09:22:47Z</time>
      </trkpt>
      <trkpt lat="45.97684" lon="4.85254">
        <ele>276</ele>
        <time>2017-08-17T09:22:48Z</time>
      </trkpt>
      <trkpt lat="45.9769" lon="4.85253">
        <ele>276</ele>
        <time>2017-08-17T09:22:49Z</time>
      </trkpt>
      <trkpt lat="45.97694" lon="4.85251">
        <ele>276</ele>
        <time>2017-08-17T09:22:50Z</time>
      </trkpt>
      <trkpt lat="45.97699" lon="4.85251">
        <ele>276</ele>
        <time>2017-08-17T09:22:51Z</time>
      </trkpt>
      <trkpt lat="45.97705" lon="4.8525">
        <ele>276</ele>
        <time>2017-08-17T09:22:52Z</time>
      </trkpt>
      <trkpt lat="45.9771" lon="4.85249">
        <ele>275</ele>
        <time>2017-08-17T09:22:53Z</time>
      </trkpt>
      <trkpt lat="45.97714" lon="4.85248">
        <ele>275</ele>
        <time>2017-08-17T09:22:54Z</time>
      </trkpt>
      <trkpt lat="45.97719" lon="4.85247">
        <ele>275</ele>
        <time>2017-08-17T09:22:55Z</time>
      </trkpt>
      <trkpt lat="45.97724" lon="4.85247">
        <ele>275</ele>
        <time>2017-08-17T09:22:56Z</time>
      </trkpt>
      <trkpt lat="45.97729" lon="4.85247">
        <ele>275</ele>
        <time>2017-08-17T09:22:57Z</time>
      </trkpt>
      <trkpt lat="45.97734" lon="4.85247">
        <ele>275</ele>
        <time>2017-08-17T09:22:58Z</time>
      </trkpt>
      <trkpt lat="45.9774" lon="4.85246">
        <ele>274</ele>
        <time>2017-08-17T09:22:59Z</time>
      </trkpt>
      <trkpt lat="45.97745" lon="4.85246">
        <ele>274</ele>
        <time>2017-08-17T09:23:00Z</time>
      </trkpt>
      <trkpt lat="45.9775" lon="4.85245">
        <ele>274</ele>
        <time>2017-08-17T09:23:01Z</time>
      </trkpt>
      <trkpt lat="45.97756" lon="4.85244">
        <ele>274</ele>
        <time>2017-08-17T09:23:02Z</time>
      </trkpt>
      <trkpt lat="45.97762" lon="4.85243">
        <ele>274</ele>
        <time>2017-08-17T09:23:03Z</time>
      </trkpt>
      <trkpt lat="45.97768" lon="4.85243">
        <ele>274</ele>
        <time>2017-08-17T09:23:04Z</time>
      </trkpt>
      <trkpt lat="45.97774" lon="4.85242">
        <ele>274</ele>
        <time>2017-08-17T09:23:05Z</time>
      </trkpt>
      <trkpt lat="45.9778" lon="4.85242">
        <ele>274</ele>
        <time>2017-08-17T09:23:06Z</time>
      </trkpt>
      <trkpt lat="45.97786" lon="4.85242">
        <ele>274</ele>
        <time>2017-08-17T09:23:07Z</time>
      </trkpt>
      <trkpt lat="45.97791" lon="4.85242">
        <ele>274</ele>
        <time>2017-08-17T09:23:08Z</time>
      </trkpt>
      <trkpt lat="45.97797" lon="4.85241">
        <ele>274</ele>
        <time>2017-08-17T09:23:09Z</time>
      </trkpt>
      <trkpt lat="45.97802" lon="4.8524">
        <ele>274</ele>
        <time>2017-08-17T09:23:10Z</time>
      </trkpt>
      <trkpt lat="45.97808" lon="4.8524">
        <ele>274</ele>
        <time>2017-08-17T09:23:11Z</time>
      </trkpt>
      <trkpt lat="45.97813" lon="4.85239">
        <ele>275</ele>
        <time>2017-08-17T09:23:12Z</time>
      </trkpt>
      <trkpt lat="45.97818" lon="4.85239">
        <ele>275</ele>
        <time>2017-08-17T09:23:13Z</time>
      </trkpt>
      <trkpt lat="45.97823" lon="4.85238">
        <ele>275</ele>
        <time>2017-08-17T09:23:14Z</time>
      </trkpt>
      <trkpt lat="45.97828" lon="4.85237">
        <ele>275</ele>
        <time>2017-08-17T09:23:15Z</time>
      </trkpt>
      <trkpt lat="45.97833" lon="4.85237">
        <ele>275</ele>
        <time>2017-08-17T09:23:16Z</time>
      </trkpt>
      <trkpt lat="45.97838" lon="4.85236">
        <ele>275</ele>
        <time>2017-08-17T09:23:17Z</time>
      </trkpt>
      <trkpt lat="45.97843" lon="4.85236">
        <ele>275</ele>
        <time>2017-08-17T09:23:18Z</time>
      </trkpt>
      <trkpt lat="45.97848" lon="4.85236">
        <ele>275</ele>
        <time>2017-08-17T09:23:19Z</time>
      </trkpt>
      <trkpt lat="45.97854" lon="4.85235">
        <ele>275</ele>
        <time>2017-08-17T09:23:20Z</time>
      </trkpt>
      <trkpt lat="45.9786" lon="4.85235">
        <ele>275</ele>
        <time>2017-08-17T09:23:21Z</time>
      </trkpt>
      <trkpt lat="45.97866" lon="4.85235">
        <ele>275</ele>
        <time>2017-08-17T09:23:22Z</time>
      </trkpt>
      <trkpt lat="45.97872" lon="4.85234">
        <ele>275</ele>
        <time>2017-08-17T09:23:23Z</time>
      </trkpt>
      <trkpt lat="45.97878" lon="4.85233">
        <ele>275</ele>
        <time>2017-08-17T09:23:24Z</time>
      </trkpt>
      <trkpt lat="45.97884" lon="4.85232">
        <ele>275</ele>
        <time>2017-08-17T09:23:25Z</time>
      </trkpt>
      <trkpt lat="45.97891" lon="4.85231">
        <ele>275</ele>
        <time>2017-08-17T09:23:26Z</time>
      </trkpt>
      <trkpt lat="45.97897" lon="4.85231">
        <ele>275</ele>
        <time>2017-08-17T09:23:27Z</time>
      </trkpt>
      <trkpt lat="45.97903" lon="4.85231">
        <ele>275</ele>
        <time>2017-08-17T09:23:28Z</time>
      </trkpt>
      <trkpt lat="45.97909" lon="4.8523">
        <ele>275</ele>
        <time>2017-08-17T09:23:29Z</time>
      </trkpt>
      <trkpt lat="45.97915" lon="4.8523">
        <ele>275</ele>
        <time>2017-08-17T09:23:30Z</time>
      </trkpt>
      <trkpt lat="45.9792" lon="4.85229">
        <ele>276</ele>
        <time>2017-08-17T09:23:31Z</time>
      </trkpt>
      <trkpt lat="45.97926" lon="4.85229">
        <ele>276</ele>
        <time>2017-08-17T09:23:32Z</time>
      </trkpt>
      <trkpt lat="45.97931" lon="4.85228">
        <ele>276</ele>
        <time>2017-08-17T09:23:33Z</time>
      </trkpt>
      <trkpt lat="45.97936" lon="4.85228">
        <ele>276</ele>
        <time>2017-08-17T09:23:34Z</time>
      </trkpt>
      <trkpt lat="45.97941" lon="4.85227">
        <ele>276</ele>
        <time>2017-08-17T09:23:35Z</time>
      </trkpt>
      <trkpt lat="45.97947" lon="4.85226">
        <ele>276</ele>
        <time>2017-08-17T09:23:36Z</time>
      </trkpt>
      <trkpt lat="45.97953" lon="4.85225">
        <ele>276</ele>
        <time>2017-08-17T09:23:37Z</time>
      </trkpt>
      <trkpt lat="45.97959" lon="4.85225">
        <ele>276</ele>
        <time>2017-08-17T09:23:38Z</time>
      </trkpt>
      <trkpt lat="45.97965" lon="4.85224">
        <ele>276</ele>
        <time>2017-08-17T09:23:39Z</time>
      </trkpt>
      <trkpt lat="45.9797" lon="4.85223">
        <ele>276</ele>
        <time>2017-08-17T09:23:40Z</time>
      </trkpt>
      <trkpt lat="45.97976" lon="4.85222">
        <ele>276</ele>
        <time>2017-08-17T09:23:41Z</time>
      </trkpt>
      <trkpt lat="45.97981" lon="4.85222">
        <ele>276</ele>
        <time>2017-08-17T09:23:42Z</time>
      </trkpt>
      <trkpt lat="45.97987" lon="4.85221">
        <ele>276</ele>
        <time>2017-08-17T09:23:43Z</time>
      </trkpt>
      <trkpt lat="45.97992" lon="4.85221">
        <ele>276</ele>
        <time>2017-08-17T09:23:44Z</time>
      </trkpt>
      <trkpt lat="45.97996" lon="4.8522">
        <ele>276</ele>
        <time>2017-08-17T09:23:45Z</time>
      </trkpt>
      <trkpt lat="45.98001" lon="4.85219">
        <ele>276</ele>
        <time>2017-08-17T09:23:46Z</time>
      </trkpt>
      <trkpt lat="45.98006" lon="4.85219">
        <ele>276</ele>
        <time>2017-08-17T09:23:47Z</time>
      </trkpt>
      <trkpt lat="45.98011" lon="4.85218">
        <ele>276</ele>
        <time>2017-08-17T09:23:48Z</time>
      </trkpt>
      <trkpt lat="45.98016" lon="4.85218">
        <ele>276</ele>
        <time>2017-08-17T09:23:49Z</time>
      </trkpt>
      <trkpt lat="45.98021" lon="4.85218">
        <ele>276</ele>
        <time>2017-08-17T09:23:50Z</time>
      </trkpt>
      <trkpt lat="45.98026" lon="4.85217">
        <ele>276</ele>
        <time>2017-08-17T09:23:51Z</time>
      </trkpt>
      <trkpt lat="45.98031" lon="4.85217">
        <ele>276</ele>
        <time>2017-08-17T09:23:52Z</time>
      </trkpt>
      <trkpt lat="45.98036" lon="4.85216">
        <ele>276</ele>
        <time>2017-08-17T09:23:53Z</time>
      </trkpt>
      <trkpt lat="45.98042" lon="4.85216">
        <ele>276</ele>
        <time>2017-08-17T09:23:54Z</time>
      </trkpt>
      <trkpt lat="45.98048" lon="4.85216">
        <ele>276</ele>
        <time>2017-08-17T09:23:55Z</time>
      </trkpt>
      <trkpt lat="45.98054" lon="4.85216">
        <ele>276</ele>
        <time>2017-08-17T09:23:56Z</time>
      </trkpt>
      <trkpt lat="45.9806" lon="4.85215">
        <ele>276</ele>
        <time>2017-08-17T09:23:57Z</time>
      </trkpt>
      <trkpt lat="45.98066" lon="4.85214">
        <ele>276</ele>
        <time>2017-08-17T09:23:58Z</time>
      </trkpt>
      <trkpt lat="45.98072" lon="4.85214">
        <ele>276</ele>
        <time>2017-08-17T09:23:59Z</time>
      </trkpt>
      <trkpt lat="45.98078" lon="4.85214">
        <ele>276</ele>
        <time>2017-08-17T09:24:00Z</time>
      </trkpt>
      <trkpt lat="45.98084" lon="4.85213">
        <ele>275</ele>
        <time>2017-08-17T09:24:01Z</time>
      </trkpt>
      <trkpt lat="45.9809" lon="4.85212">
        <ele>275</ele>
        <time>2017-08-17T09:24:02Z</time>
      </trkpt>
      <trkpt lat="45.98096" lon="4.85211">
        <ele>275</ele>
        <time>2017-08-17T09:24:03Z</time>
      </trkpt>
      <trkpt lat="45.98102" lon="4.85211">
        <ele>275</ele>
        <time>2017-08-17T09:24:04Z</time>
      </trkpt>
      <trkpt lat="45.98107" lon="4.8521">
        <ele>275</ele>
        <time>2017-08-17T09:24:05Z</time>
      </trkpt>
      <trkpt lat="45.98113" lon="4.8521">
        <ele>275</ele>
        <time>2017-08-17T09:24:06Z</time>
      </trkpt>
      <trkpt lat="45.98119" lon="4.85209">
        <ele>275</ele>
        <time>2017-08-17T09:24:07Z</time>
      </trkpt>
      <trkpt lat="45.98124" lon="4.85208">
        <ele>275</ele>
        <time>2017-08-17T09:24:08Z</time>
      </trkpt>
      <trkpt lat="45.9813" lon="4.85208">
        <ele>275</ele>
        <time>2017-08-17T09:24:09Z</time>
      </trkpt>
      <trkpt lat="45.98136" lon="4.85208">
        <ele>275</ele>
        <time>2017-08-17T09:24:10Z</time>
      </trkpt>
      <trkpt lat="45.98142" lon="4.85207">
        <ele>275</ele>
        <time>2017-08-17T09:24:11Z</time>
      </trkpt>
      <trkpt lat="45.98148" lon="4.85206">
        <ele>275</ele>
        <time>2017-08-17T09:24:12Z</time>
      </trkpt>
      <trkpt lat="45.98154" lon="4.85205">
        <ele>275</ele>
        <time>2017-08-17T09:24:13Z</time>
      </trkpt>
      <trkpt lat="45.98161" lon="4.85204">
        <ele>274</ele>
        <time>2017-08-17T09:24:14Z</time>
      </trkpt>
      <trkpt lat="45.98167" lon="4.85204">
        <ele>274</ele>
        <time>2017-08-17T09:24:15Z</time>
      </trkpt>
      <trkpt lat="45.98173" lon="4.85203">
        <ele>274</ele>
        <time>2017-08-17T09:24:16Z</time>
      </trkpt>
      <trkpt lat="45.9818" lon="4.85203">
        <ele>274</ele>
        <time>2017-08-17T09:24:17Z</time>
      </trkpt>
      <trkpt lat="45.98186" lon="4.85202">
        <ele>274</ele>
        <time>2017-08-17T09:24:18Z</time>
      </trkpt>
      <trkpt lat="45.98193" lon="4.85202">
        <ele>274</ele>
        <time>2017-08-17T09:24:19Z</time>
      </trkpt>
      <trkpt lat="45.98199" lon="4.85201">
        <ele>274</ele>
        <time>2017-08-17T09:24:20Z</time>
      </trkpt>
      <trkpt lat="45.98206" lon="4.852">
        <ele>274</ele>
        <time>2017-08-17T09:24:21Z</time>
      </trkpt>
      <trkpt lat="45.98212" lon="4.85199">
        <ele>274</ele>
        <time>2017-08-17T09:24:22Z</time>
      </trkpt>
      <trkpt lat="45.98219" lon="4.85199">
        <ele>274</ele>
        <time>2017-08-17T09:24:23Z</time>
      </trkpt>
      <trkpt lat="45.98226" lon="4.85198">
        <ele>274</ele>
        <time>2017-08-17T09:24:24Z</time>
      </trkpt>
      <trkpt lat="45.98233" lon="4.85198">
        <ele>274</ele>
        <time>2017-08-17T09:24:25Z</time>
      </trkpt>
      <trkpt lat="45.9824" lon="4.85197">
        <ele>274</ele>
        <time>2017-08-17T09:24:26Z</time>
      </trkpt>
      <trkpt lat="45.98246" lon="4.85197">
        <ele>274</ele>
        <time>2017-08-17T09:24:27Z</time>
      </trkpt>
      <trkpt lat="45.98253" lon="4.85195">
        <ele>274</ele>
        <time>2017-08-17T09:24:28Z</time>
      </trkpt>
      <trkpt lat="45.9826" lon="4.85195">
        <ele>274</ele>
        <time>2017-08-17T09:24:29Z</time>
      </trkpt>
      <trkpt lat="45.98267" lon="4.85194">
        <ele>274</ele>
        <time>2017-08-17T09:24:30Z</time>
      </trkpt>
      <trkpt lat="45.98274" lon="4.85193">
        <ele>274</ele>
        <time>2017-08-17T09:24:31Z</time>
      </trkpt>
      <trkpt lat="45.98281" lon="4.85193">
        <ele>274</ele>
        <time>2017-08-17T09:24:32Z</time>
      </trkpt>
      <trkpt lat="45.98287" lon="4.85192">
        <ele>274</ele>
        <time>2017-08-17T09:24:33Z</time>
      </trkpt>
      <trkpt lat="45.98294" lon="4.85192">
        <ele>274</ele>
        <time>2017-08-17T09:24:34Z</time>
      </trkpt>
      <trkpt lat="45.98301" lon="4.85191">
        <ele>274</ele>
        <time>2017-08-17T09:24:35Z</time>
      </trkpt>
      <trkpt lat="45.98307" lon="4.8519">
        <ele>274</ele>
        <time>2017-08-17T09:24:36Z</time>
      </trkpt>
      <trkpt lat="45.98314" lon="4.85189">
        <ele>274</ele>
        <time>2017-08-17T09:24:37Z</time>
      </trkpt>
      <trkpt lat="45.98322" lon="4.85189">
        <ele>274</ele>
        <time>2017-08-17T09:24:38Z</time>
      </trkpt>
      <trkpt lat="45.98329" lon="4.85188">
        <ele>274</ele>
        <time>2017-08-17T09:24:39Z</time>
      </trkpt>
      <trkpt lat="45.98335" lon="4.85188">
        <ele>275</ele>
        <time>2017-08-17T09:24:40Z</time>
      </trkpt>
      <trkpt lat="45.98343" lon="4.85187">
        <ele>275</ele>
        <time>2017-08-17T09:24:41Z</time>
      </trkpt>
      <trkpt lat="45.9835" lon="4.85187">
        <ele>275</ele>
        <time>2017-08-17T09:24:42Z</time>
      </trkpt>
      <trkpt lat="45.98357" lon="4.85186">
        <ele>275</ele>
        <time>2017-08-17T09:24:43Z</time>
      </trkpt>
      <trkpt lat="45.98364" lon="4.85185">
        <ele>275</ele>
        <time>2017-08-17T09:24:44Z</time>
      </trkpt>
      <trkpt lat="45.98371" lon="4.85184">
        <ele>275</ele>
        <time>2017-08-17T09:24:45Z</time>
      </trkpt>
      <trkpt lat="45.98378" lon="4.85183">
        <ele>275</ele>
        <time>2017-08-17T09:24:46Z</time>
      </trkpt>
      <trkpt lat="45.98386" lon="4.85182">
        <ele>275</ele>
        <time>2017-08-17T09:24:47Z</time>
      </trkpt>
      <trkpt lat="45.98393" lon="4.85181">
        <ele>275</ele>
        <time>2017-08-17T09:24:48Z</time>
      </trkpt>
      <trkpt lat="45.984" lon="4.85181">
        <ele>275</ele>
        <time>2017-08-17T09:24:49Z</time>
      </trkpt>
      <trkpt lat="45.98407" lon="4.8518">
        <ele>275</ele>
        <time>2017-08-17T09:24:50Z</time>
      </trkpt>
      <trkpt lat="45.98415" lon="4.85179">
        <ele>276</ele>
        <time>2017-08-17T09:24:51Z</time>
      </trkpt>
      <trkpt lat="45.98422" lon="4.85179">
        <ele>275</ele>
        <time>2017-08-17T09:24:52Z</time>
      </trkpt>
      <trkpt lat="45.98428" lon="4.85179">
        <ele>275</ele>
        <time>2017-08-17T09:24:53Z</time>
      </trkpt>
      <trkpt lat="45.98434" lon="4.85179">
        <ele>275</ele>
        <time>2017-08-17T09:24:54Z</time>
      </trkpt>
      <trkpt lat="45.9844" lon="4.85179">
        <ele>275</ele>
        <time>2017-08-17T09:24:55Z</time>
      </trkpt>
      <trkpt lat="45.98446" lon="4.85179">
        <ele>275</ele>
        <time>2017-08-17T09:24:56Z</time>
      </trkpt>
      <trkpt lat="45.98452" lon="4.85178">
        <ele>275</ele>
        <time>2017-08-17T09:24:57Z</time>
      </trkpt>
      <trkpt lat="45.98459" lon="4.85178">
        <ele>275</ele>
        <time>2017-08-17T09:24:58Z</time>
      </trkpt>
      <trkpt lat="45.98465" lon="4.85177">
        <ele>275</ele>
        <time>2017-08-17T09:24:59Z</time>
      </trkpt>
      <trkpt lat="45.98472" lon="4.85177">
        <ele>275</ele>
        <time>2017-08-17T09:25:00Z</time>
      </trkpt>
      <trkpt lat="45.98478" lon="4.85176">
        <ele>275</ele>
        <time>2017-08-17T09:25:01Z</time>
      </trkpt>
      <trkpt lat="45.98485" lon="4.85175">
        <ele>275</ele>
        <time>2017-08-17T09:25:02Z</time>
      </trkpt>
      <trkpt lat="45.98492" lon="4.85174">
        <ele>275</ele>
        <time>2017-08-17T09:25:03Z</time>
      </trkpt>
      <trkpt lat="45.98498" lon="4.85173">
        <ele>275</ele>
        <time>2017-08-17T09:25:04Z</time>
      </trkpt>
      <trkpt lat="45.98505" lon="4.85172">
        <ele>274</ele>
        <time>2017-08-17T09:25:05Z</time>
      </trkpt>
      <trkpt lat="45.98511" lon="4.8517">
        <ele>274</ele>
        <time>2017-08-17T09:25:06Z</time>
      </trkpt>
      <trkpt lat="45.98517" lon="4.85169">
        <ele>274</ele>
        <time>2017-08-17T09:25:07Z</time>
      </trkpt>
      <trkpt lat="45.98523" lon="4.85168">
        <ele>273</ele>
        <time>2017-08-17T09:25:08Z</time>
      </trkpt>
      <trkpt lat="45.98529" lon="4.85167">
        <ele>274</ele>
        <time>2017-08-17T09:25:09Z</time>
      </trkpt>
      <trkpt lat="45.98535" lon="4.85165">
        <ele>274</ele>
        <time>2017-08-17T09:25:10Z</time>
      </trkpt>
      <trkpt lat="45.9854" lon="4.85163">
        <ele>274</ele>
        <time>2017-08-17T09:25:11Z</time>
      </trkpt>
      <trkpt lat="45.98546" lon="4.85161">
        <ele>274</ele>
        <time>2017-08-17T09:25:12Z</time>
      </trkpt>
      <trkpt lat="45.98552" lon="4.85159">
        <ele>274</ele>
        <time>2017-08-17T09:25:13Z</time>
      </trkpt>
      <trkpt lat="45.98558" lon="4.85157">
        <ele>274</ele>
        <time>2017-08-17T09:25:14Z</time>
      </trkpt>
      <trkpt lat="45.98564" lon="4.85155">
        <ele>273</ele>
        <time>2017-08-17T09:25:15Z</time>
      </trkpt>
      <trkpt lat="45.98571" lon="4.85152">
        <ele>273</ele>
        <time>2017-08-17T09:25:16Z</time>
      </trkpt>
      <trkpt lat="45.98577" lon="4.85149">
        <ele>273</ele>
        <time>2017-08-17T09:25:17Z</time>
      </trkpt>
      <trkpt lat="45.98584" lon="4.85146">
        <ele>272</ele>
        <time>2017-08-17T09:25:18Z</time>
      </trkpt>
      <trkpt lat="45.98591" lon="4.85143">
        <ele>272</ele>
        <time>2017-08-17T09:25:19Z</time>
      </trkpt>
      <trkpt lat="45.98598" lon="4.85139">
        <ele>272</ele>
        <time>2017-08-17T09:25:20Z</time>
      </trkpt>
      <trkpt lat="45.98604" lon="4.85135">
        <ele>272</ele>
        <time>2017-08-17T09:25:21Z</time>
      </trkpt>
      <trkpt lat="45.98611" lon="4.85132">
        <ele>272</ele>
        <time>2017-08-17T09:25:22Z</time>
      </trkpt>
      <trkpt lat="45.98617" lon="4.85129">
        <ele>272</ele>
        <time>2017-08-17T09:25:23Z</time>
      </trkpt>
      <trkpt lat="45.98624" lon="4.85125">
        <ele>272</ele>
        <time>2017-08-17T09:25:24Z</time>
      </trkpt>
      <trkpt lat="45.98631" lon="4.85122">
        <ele>272</ele>
        <time>2017-08-17T09:25:25Z</time>
      </trkpt>
      <trkpt lat="45.98638" lon="4.85119">
        <ele>272</ele>
        <time>2017-08-17T09:25:26Z</time>
      </trkpt>
      <trkpt lat="45.98644" lon="4.85116">
        <ele>272</ele>
        <time>2017-08-17T09:25:27Z</time>
      </trkpt>
      <trkpt lat="45.98651" lon="4.85114">
        <ele>271</ele>
        <time>2017-08-17T09:25:28Z</time>
      </trkpt>
      <trkpt lat="45.98657" lon="4.8511">
        <ele>271</ele>
        <time>2017-08-17T09:25:29Z</time>
      </trkpt>
      <trkpt lat="45.98664" lon="4.85107">
        <ele>271</ele>
        <time>2017-08-17T09:25:30Z</time>
      </trkpt>
      <trkpt lat="45.9867" lon="4.85104">
        <ele>270</ele>
        <time>2017-08-17T09:25:31Z</time>
      </trkpt>
      <trkpt lat="45.98676" lon="4.85101">
        <ele>270</ele>
        <time>2017-08-17T09:25:32Z</time>
      </trkpt>
      <trkpt lat="45.98682" lon="4.85098">
        <ele>270</ele>
        <time>2017-08-17T09:25:33Z</time>
      </trkpt>
      <trkpt lat="45.98689" lon="4.85095">
        <ele>270</ele>
        <time>2017-08-17T09:25:34Z</time>
      </trkpt>
      <trkpt lat="45.98695" lon="4.85092">
        <ele>270</ele>
        <time>2017-08-17T09:25:35Z</time>
      </trkpt>
      <trkpt lat="45.98702" lon="4.85089">
        <ele>270</ele>
        <time>2017-08-17T09:25:36Z</time>
      </trkpt>
      <trkpt lat="45.98708" lon="4.85086">
        <ele>270</ele>
        <time>2017-08-17T09:25:37Z</time>
      </trkpt>
      <trkpt lat="45.98714" lon="4.85082">
        <ele>270</ele>
        <time>2017-08-17T09:25:38Z</time>
      </trkpt>
      <trkpt lat="45.98721" lon="4.85079">
        <ele>270</ele>
        <time>2017-08-17T09:25:39Z</time>
      </trkpt>
      <trkpt lat="45.98727" lon="4.85076">
        <ele>270</ele>
        <time>2017-08-17T09:25:40Z</time>
      </trkpt>
      <trkpt lat="45.98733" lon="4.85072">
        <ele>269</ele>
        <time>2017-08-17T09:25:41Z</time>
      </trkpt>
      <trkpt lat="45.98739" lon="4.85069">
        <ele>269</ele>
        <time>2017-08-17T09:25:42Z</time>
      </trkpt>
      <trkpt lat="45.98745" lon="4.85066">
        <ele>269</ele>
        <time>2017-08-17T09:25:43Z</time>
      </trkpt>
      <trkpt lat="45.98752" lon="4.85063">
        <ele>268</ele>
        <time>2017-08-17T09:25:44Z</time>
      </trkpt>
      <trkpt lat="45.98758" lon="4.8506">
        <ele>268</ele>
        <time>2017-08-17T09:25:45Z</time>
      </trkpt>
      <trkpt lat="45.98764" lon="4.85057">
        <ele>268</ele>
        <time>2017-08-17T09:25:46Z</time>
      </trkpt>
      <trkpt lat="45.9877" lon="4.85054">
        <ele>268</ele>
        <time>2017-08-17T09:25:47Z</time>
      </trkpt>
      <trkpt lat="45.98776" lon="4.8505">
        <ele>267</ele>
        <time>2017-08-17T09:25:48Z</time>
      </trkpt>
      <trkpt lat="45.98783" lon="4.85046">
        <ele>267</ele>
        <time>2017-08-17T09:25:49Z</time>
      </trkpt>
      <trkpt lat="45.9879" lon="4.85042">
        <ele>267</ele>
        <time>2017-08-17T09:25:50Z</time>
      </trkpt>
      <trkpt lat="45.98797" lon="4.85038">
        <ele>267</ele>
        <time>2017-08-17T09:25:51Z</time>
      </trkpt>
      <trkpt lat="45.98804" lon="4.85035">
        <ele>267</ele>
        <time>2017-08-17T09:25:52Z</time>
      </trkpt>
      <trkpt lat="45.98812" lon="4.85032">
        <ele>267</ele>
        <time>2017-08-17T09:25:53Z</time>
      </trkpt>
      <trkpt lat="45.9882" lon="4.85028">
        <ele>267</ele>
        <time>2017-08-17T09:25:54Z</time>
      </trkpt>
      <trkpt lat="45.98827" lon="4.85024">
        <ele>267</ele>
        <time>2017-08-17T09:25:55Z</time>
      </trkpt>
      <trkpt lat="45.98835" lon="4.85021">
        <ele>267</ele>
        <time>2017-08-17T09:25:56Z</time>
      </trkpt>
      <trkpt lat="45.98842" lon="4.85018">
        <ele>267</ele>
        <time>2017-08-17T09:25:57Z</time>
      </trkpt>
      <trkpt lat="45.98849" lon="4.85014">
        <ele>267</ele>
        <time>2017-08-17T09:25:58Z</time>
      </trkpt>
      <trkpt lat="45.98856" lon="4.8501">
        <ele>267</ele>
        <time>2017-08-17T09:25:59Z</time>
      </trkpt>
      <trkpt lat="45.98862" lon="4.85006">
        <ele>267</ele>
        <time>2017-08-17T09:26:00Z</time>
      </trkpt>
      <trkpt lat="45.98869" lon="4.85002">
        <ele>267</ele>
        <time>2017-08-17T09:26:01Z</time>
      </trkpt>
      <trkpt lat="45.98875" lon="4.84998">
        <ele>267</ele>
        <time>2017-08-17T09:26:02Z</time>
      </trkpt>
      <trkpt lat="45.98882" lon="4.84995">
        <ele>267</ele>
        <time>2017-08-17T09:26:03Z</time>
      </trkpt>
      <trkpt lat="45.98888" lon="4.84991">
        <ele>267</ele>
        <time>2017-08-17T09:26:04Z</time>
      </trkpt>
      <trkpt lat="45.98894" lon="4.84988">
        <ele>267</ele>
        <time>2017-08-17T09:26:05Z</time>
      </trkpt>
      <trkpt lat="45.98901" lon="4.84985">
        <ele>267</ele>
        <time>2017-08-17T09:26:06Z</time>
      </trkpt>
      <trkpt lat="45.98907" lon="4.84982">
        <ele>267</ele>
        <time>2017-08-17T09:26:07Z</time>
      </trkpt>
      <trkpt lat="45.98914" lon="4.84979">
        <ele>267</ele>
        <time>2017-08-17T09:26:08Z</time>
      </trkpt>
      <trkpt lat="45.9892" lon="4.84976">
        <ele>267</ele>
        <time>2017-08-17T09:26:09Z</time>
      </trkpt>
      <trkpt lat="45.98926" lon="4.84973">
        <ele>267</ele>
        <time>2017-08-17T09:26:10Z</time>
      </trkpt>
      <trkpt lat="45.98933" lon="4.8497">
        <ele>266</ele>
        <time>2017-08-17T09:26:11Z</time>
      </trkpt>
      <trkpt lat="45.98939" lon="4.84967">
        <ele>266</ele>
        <time>2017-08-17T09:26:12Z</time>
      </trkpt>
      <trkpt lat="45.98946" lon="4.84963">
        <ele>266</ele>
        <time>2017-08-17T09:26:13Z</time>
      </trkpt>
      <trkpt lat="45.98953" lon="4.84959">
        <ele>266</ele>
        <time>2017-08-17T09:26:14Z</time>
      </trkpt>
      <trkpt lat="45.98959" lon="4.84956">
        <ele>266</ele>
        <time>2017-08-17T09:26:15Z</time>
      </trkpt>
      <trkpt lat="45.98966" lon="4.84952">
        <ele>266</ele>
        <time>2017-08-17T09:26:16Z</time>
      </trkpt>
      <trkpt lat="45.98973" lon="4.84949">
        <ele>266</ele>
        <time>2017-08-17T09:26:17Z</time>
      </trkpt>
      <trkpt lat="45.9898" lon="4.84946">
        <ele>266</ele>
        <time>2017-08-17T09:26:18Z</time>
      </trkpt>
      <trkpt lat="45.98986" lon="4.84942">
        <ele>266</ele>
        <time>2017-08-17T09:26:19Z</time>
      </trkpt>
      <trkpt lat="45.98993" lon="4.84938">
        <ele>266</ele>
        <time>2017-08-17T09:26:20Z</time>
      </trkpt>
      <trkpt lat="45.99" lon="4.84934">
        <ele>266</ele>
        <time>2017-08-17T09:26:21Z</time>
      </trkpt>
      <trkpt lat="45.99006" lon="4.8493">
        <ele>265</ele>
        <time>2017-08-17T09:26:22Z</time>
      </trkpt>
      <trkpt lat="45.99012" lon="4.84927">
        <ele>265</ele>
        <time>2017-08-17T09:26:23Z</time>
      </trkpt>
      <trkpt lat="45.99019" lon="4.84924">
        <ele>265</ele>
        <time>2017-08-17T09:26:24Z</time>
      </trkpt>
      <trkpt lat="45.99025" lon="4.8492">
        <ele>264</ele>
        <time>2017-08-17T09:26:25Z</time>
      </trkpt>
      <trkpt lat="45.99031" lon="4.84917">
        <ele>264</ele>
        <time>2017-08-17T09:26:26Z</time>
      </trkpt>
      <trkpt lat="45.99037" lon="4.84914">
        <ele>264</ele>
        <time>2017-08-17T09:26:27Z</time>
      </trkpt>
      <trkpt lat="45.99043" lon="4.84912">
        <ele>264</ele>
        <time>2017-08-17T09:26:28Z</time>
      </trkpt>
      <trkpt lat="45.99049" lon="4.84909">
        <ele>264</ele>
        <time>2017-08-17T09:26:29Z</time>
      </trkpt>
      <trkpt lat="45.99055" lon="4.84905">
        <ele>263</ele>
        <time>2017-08-17T09:26:30Z</time>
      </trkpt>
      <trkpt lat="45.99061" lon="4.84903">
        <ele>263</ele>
        <time>2017-08-17T09:26:31Z</time>
      </trkpt>
      <trkpt lat="45.99067" lon="4.84899">
        <ele>263</ele>
        <time>2017-08-17T09:26:32Z</time>
      </trkpt>
      <trkpt lat="45.99073" lon="4.84896">
        <ele>263</ele>
        <time>2017-08-17T09:26:33Z</time>
      </trkpt>
      <trkpt lat="45.99079" lon="4.84893">
        <ele>263</ele>
        <time>2017-08-17T09:26:34Z</time>
      </trkpt>
      <trkpt lat="45.99085" lon="4.8489">
        <ele>261</ele>
        <time>2017-08-17T09:26:35Z</time>
      </trkpt>
      <trkpt lat="45.99091" lon="4.84887">
        <ele>261</ele>
        <time>2017-08-17T09:26:36Z</time>
      </trkpt>
      <trkpt lat="45.99097" lon="4.84884">
        <ele>261</ele>
        <time>2017-08-17T09:26:37Z</time>
      </trkpt>
      <trkpt lat="45.99103" lon="4.84881">
        <ele>261</ele>
        <time>2017-08-17T09:26:38Z</time>
      </trkpt>
      <trkpt lat="45.99109" lon="4.84877">
        <ele>260</ele>
        <time>2017-08-17T09:26:39Z</time>
      </trkpt>
      <trkpt lat="45.99116" lon="4.84875">
        <ele>260</ele>
        <time>2017-08-17T09:26:40Z</time>
      </trkpt>
      <trkpt lat="45.99122" lon="4.84872">
        <ele>260</ele>
        <time>2017-08-17T09:26:41Z</time>
      </trkpt>
      <trkpt lat="45.99128" lon="4.84868">
        <ele>260</ele>
        <time>2017-08-17T09:26:42Z</time>
      </trkpt>
      <trkpt lat="45.99135" lon="4.84865">
        <ele>260</ele>
        <time>2017-08-17T09:26:43Z</time>
      </trkpt>
      <trkpt lat="45.99141" lon="4.84861">
        <ele>260</ele>
        <time>2017-08-17T09:26:44Z</time>
      </trkpt>
      <trkpt lat="45.99148" lon="4.84857">
        <ele>260</ele>
        <time>2017-08-17T09:26:45Z</time>
      </trkpt>
      <trkpt lat="45.99155" lon="4.84853">
        <ele>259</ele>
        <time>2017-08-17T09:26:46Z</time>
      </trkpt>
      <trkpt lat="45.99162" lon="4.84849">
        <ele>259</ele>
        <time>2017-08-17T09:26:47Z</time>
      </trkpt>
      <trkpt lat="45.99169" lon="4.84845">
        <ele>258</ele>
        <time>2017-08-17T09:26:48Z</time>
      </trkpt>
      <trkpt lat="45.99177" lon="4.84841">
        <ele>258</ele>
        <time>2017-08-17T09:26:49Z</time>
      </trkpt>
      <trkpt lat="45.99184" lon="4.84837">
        <ele>257</ele>
        <time>2017-08-17T09:26:50Z</time>
      </trkpt>
      <trkpt lat="45.99192" lon="4.84832">
        <ele>258</ele>
        <time>2017-08-17T09:26:51Z</time>
      </trkpt>
      <trkpt lat="45.992" lon="4.84828">
        <ele>258</ele>
        <time>2017-08-17T09:26:52Z</time>
      </trkpt>
      <trkpt lat="45.99208" lon="4.84824">
        <ele>257</ele>
        <time>2017-08-17T09:26:53Z</time>
      </trkpt>
      <trkpt lat="45.99216" lon="4.8482">
        <ele>257</ele>
        <time>2017-08-17T09:26:54Z</time>
      </trkpt>
      <trkpt lat="45.99223" lon="4.84816">
        <ele>257</ele>
        <time>2017-08-17T09:26:55Z</time>
      </trkpt>
      <trkpt lat="45.99231" lon="4.8481">
        <ele>256</ele>
        <time>2017-08-17T09:26:56Z</time>
      </trkpt>
      <trkpt lat="45.99239" lon="4.84806">
        <ele>256</ele>
        <time>2017-08-17T09:26:57Z</time>
      </trkpt>
      <trkpt lat="45.99246" lon="4.84801">
        <ele>256</ele>
        <time>2017-08-17T09:26:58Z</time>
      </trkpt>
      <trkpt lat="45.99254" lon="4.84797">
        <ele>254</ele>
        <time>2017-08-17T09:26:59Z</time>
      </trkpt>
      <trkpt lat="45.99261" lon="4.84792">
        <ele>253</ele>
        <time>2017-08-17T09:27:00Z</time>
      </trkpt>
      <trkpt lat="45.99269" lon="4.84788">
        <ele>253</ele>
        <time>2017-08-17T09:27:01Z</time>
      </trkpt>
      <trkpt lat="45.99277" lon="4.84784">
        <ele>253</ele>
        <time>2017-08-17T09:27:02Z</time>
      </trkpt>
      <trkpt lat="45.99285" lon="4.8478">
        <ele>253</ele>
        <time>2017-08-17T09:27:03Z</time>
      </trkpt>
      <trkpt lat="45.99293" lon="4.84776">
        <ele>253</ele>
        <time>2017-08-17T09:27:04Z</time>
      </trkpt>
      <trkpt lat="45.99301" lon="4.84772">
        <ele>253</ele>
        <time>2017-08-17T09:27:05Z</time>
      </trkpt>
      <trkpt lat="45.99309" lon="4.84768">
        <ele>253</ele>
        <time>2017-08-17T09:27:06Z</time>
      </trkpt>
      <trkpt lat="45.99317" lon="4.84764">
        <ele>252</ele>
        <time>2017-08-17T09:27:07Z</time>
      </trkpt>
      <trkpt lat="45.99325" lon="4.8476">
        <ele>252</ele>
        <time>2017-08-17T09:27:08Z</time>
      </trkpt>
      <trkpt lat="45.99333" lon="4.84756">
        <ele>251</ele>
        <time>2017-08-17T09:27:09Z</time>
      </trkpt>
      <trkpt lat="45.99341" lon="4.84752">
        <ele>251</ele>
        <time>2017-08-17T09:27:10Z</time>
      </trkpt>
      <trkpt lat="45.99348" lon="4.84749">
        <ele>250</ele>
        <time>2017-08-17T09:27:11Z</time>
      </trkpt>
      <trkpt lat="45.99355" lon="4.84745">
        <ele>250</ele>
        <time>2017-08-17T09:27:12Z</time>
      </trkpt>
      <trkpt lat="45.99362" lon="4.84741">
        <ele>250</ele>
        <time>2017-08-17T09:27:13Z</time>
      </trkpt>
      <trkpt lat="45.99369" lon="4.84737">
        <ele>250</ele>
        <time>2017-08-17T09:27:14Z</time>
      </trkpt>
      <trkpt lat="45.99376" lon="4.84734">
        <ele>250</ele>
        <time>2017-08-17T09:27:15Z</time>
      </trkpt>
      <trkpt lat="45.99383" lon="4.84731">
        <ele>250</ele>
        <time>2017-08-17T09:27:16Z</time>
      </trkpt>
      <trkpt lat="45.9939" lon="4.84727">
        <ele>249</ele>
        <time>2017-08-17T09:27:17Z</time>
      </trkpt>
      <trkpt lat="45.99396" lon="4.84723">
        <ele>249</ele>
        <time>2017-08-17T09:27:18Z</time>
      </trkpt>
      <trkpt lat="45.99403" lon="4.8472">
        <ele>249</ele>
        <time>2017-08-17T09:27:19Z</time>
      </trkpt>
      <trkpt lat="45.9941" lon="4.84717">
        <ele>249</ele>
        <time>2017-08-17T09:27:20Z</time>
      </trkpt>
      <trkpt lat="45.99417" lon="4.84713">
        <ele>249</ele>
        <time>2017-08-17T09:27:21Z</time>
      </trkpt>
      <trkpt lat="45.99423" lon="4.8471">
        <ele>249</ele>
        <time>2017-08-17T09:27:22Z</time>
      </trkpt>
      <trkpt lat="45.99429" lon="4.84706">
        <ele>249</ele>
        <time>2017-08-17T09:27:23Z</time>
      </trkpt>
      <trkpt lat="45.99435" lon="4.84703">
        <ele>249</ele>
        <time>2017-08-17T09:27:24Z</time>
      </trkpt>
      <trkpt lat="45.99441" lon="4.84699">
        <ele>249</ele>
        <time>2017-08-17T09:27:25Z</time>
      </trkpt>
      <trkpt lat="45.99447" lon="4.84695">
        <ele>250</ele>
        <time>2017-08-17T09:27:26Z</time>
      </trkpt>
      <trkpt lat="45.99453" lon="4.84692">
        <ele>250</ele>
        <time>2017-08-17T09:27:27Z</time>
      </trkpt>
      <trkpt lat="45.99459" lon="4.84688">
        <ele>250</ele>
        <time>2017-08-17T09:27:28Z</time>
      </trkpt>
      <trkpt lat="45.99464" lon="4.84685">
        <ele>250</ele>
        <time>2017-08-17T09:27:29Z</time>
      </trkpt>
      <trkpt lat="45.9947" lon="4.84683">
        <ele>250</ele>
        <time>2017-08-17T09:27:30Z</time>
      </trkpt>
      <trkpt lat="45.99476" lon="4.84681">
        <ele>250</ele>
        <time>2017-08-17T09:27:31Z</time>
      </trkpt>
      <trkpt lat="45.99481" lon="4.84679">
        <ele>250</ele>
        <time>2017-08-17T09:27:32Z</time>
      </trkpt>
      <trkpt lat="45.99488" lon="4.84677">
        <ele>250</ele>
        <time>2017-08-17T09:27:33Z</time>
      </trkpt>
      <trkpt lat="45.99493" lon="4.84676">
        <ele>251</ele>
        <time>2017-08-17T09:27:34Z</time>
      </trkpt>
      <trkpt lat="45.99502" lon="4.84672">
        <ele>251</ele>
        <time>2017-08-17T09:27:35Z</time>
      </trkpt>
      <trkpt lat="45.99509" lon="4.8467">
        <ele>251</ele>
        <time>2017-08-17T09:27:36Z</time>
      </trkpt>
      <trkpt lat="45.99516" lon="4.84668">
        <ele>251</ele>
        <time>2017-08-17T09:27:37Z</time>
      </trkpt>
      <trkpt lat="45.99524" lon="4.84667">
        <ele>251</ele>
        <time>2017-08-17T09:27:38Z</time>
      </trkpt>
      <trkpt lat="45.99532" lon="4.84666">
        <ele>250</ele>
        <time>2017-08-17T09:27:39Z</time>
      </trkpt>
      <trkpt lat="45.99539" lon="4.84664">
        <ele>250</ele>
        <time>2017-08-17T09:27:40Z</time>
      </trkpt>
      <trkpt lat="45.99546" lon="4.84662">
        <ele>250</ele>
        <time>2017-08-17T09:27:41Z</time>
      </trkpt>
      <trkpt lat="45.99553" lon="4.84661">
        <ele>250</ele>
        <time>2017-08-17T09:27:42Z</time>
      </trkpt>
      <trkpt lat="45.99559" lon="4.84659">
        <ele>250</ele>
        <time>2017-08-17T09:27:43Z</time>
      </trkpt>
      <trkpt lat="45.99565" lon="4.84658">
        <ele>250</ele>
        <time>2017-08-17T09:27:44Z</time>
      </trkpt>
      <trkpt lat="45.99571" lon="4.84658">
        <ele>250</ele>
        <time>2017-08-17T09:27:45Z</time>
      </trkpt>
      <trkpt lat="45.99578" lon="4.84656">
        <ele>250</ele>
        <time>2017-08-17T09:27:46Z</time>
      </trkpt>
      <trkpt lat="45.99584" lon="4.84655">
        <ele>250</ele>
        <time>2017-08-17T09:27:47Z</time>
      </trkpt>
      <trkpt lat="45.9959" lon="4.84654">
        <ele>250</ele>
        <time>2017-08-17T09:27:48Z</time>
      </trkpt>
      <trkpt lat="45.99596" lon="4.84653">
        <ele>250</ele>
        <time>2017-08-17T09:27:49Z</time>
      </trkpt>
      <trkpt lat="45.99603" lon="4.84651">
        <ele>250</ele>
        <time>2017-08-17T09:27:50Z</time>
      </trkpt>
      <trkpt lat="45.99609" lon="4.8465">
        <ele>250</ele>
        <time>2017-08-17T09:27:51Z</time>
      </trkpt>
      <trkpt lat="45.99615" lon="4.84648">
        <ele>250</ele>
        <time>2017-08-17T09:27:52Z</time>
      </trkpt>
      <trkpt lat="45.99622" lon="4.84647">
        <ele>250</ele>
        <time>2017-08-17T09:27:53Z</time>
      </trkpt>
      <trkpt lat="45.99628" lon="4.84645">
        <ele>250</ele>
        <time>2017-08-17T09:27:54Z</time>
      </trkpt>
      <trkpt lat="45.99635" lon="4.84644">
        <ele>250</ele>
        <time>2017-08-17T09:27:55Z</time>
      </trkpt>
      <trkpt lat="45.99641" lon="4.84643">
        <ele>250</ele>
        <time>2017-08-17T09:27:56Z</time>
      </trkpt>
      <trkpt lat="45.99647" lon="4.84641">
        <ele>250</ele>
        <time>2017-08-17T09:27:57Z</time>
      </trkpt>
      <trkpt lat="45.99653" lon="4.8464">
        <ele>250</ele>
        <time>2017-08-17T09:27:58Z</time>
      </trkpt>
      <trkpt lat="45.99659" lon="4.84639">
        <ele>250</ele>
        <time>2017-08-17T09:27:59Z</time>
      </trkpt>
      <trkpt lat="45.99665" lon="4.84638">
        <ele>250</ele>
        <time>2017-08-17T09:28:00Z</time>
      </trkpt>
      <trkpt lat="45.99671" lon="4.84637">
        <ele>251</ele>
        <time>2017-08-17T09:28:01Z</time>
      </trkpt>
      <trkpt lat="45.99676" lon="4.84636">
        <ele>252</ele>
        <time>2017-08-17T09:28:02Z</time>
      </trkpt>
      <trkpt lat="45.99682" lon="4.84636">
        <ele>252</ele>
        <time>2017-08-17T09:28:03Z</time>
      </trkpt>
      <trkpt lat="45.99687" lon="4.84636">
        <ele>252</ele>
        <time>2017-08-17T09:28:04Z</time>
      </trkpt>
      <trkpt lat="45.99692" lon="4.84635">
        <ele>252</ele>
        <time>2017-08-17T09:28:05Z</time>
      </trkpt>
      <trkpt lat="45.99698" lon="4.84633">
        <ele>252</ele>
        <time>2017-08-17T09:28:06Z</time>
      </trkpt>
      <trkpt lat="45.99704" lon="4.84632">
        <ele>252</ele>
        <time>2017-08-17T09:28:07Z</time>
      </trkpt>
      <trkpt lat="45.9971" lon="4.84631">
        <ele>252</ele>
        <time>2017-08-17T09:28:08Z</time>
      </trkpt>
      <trkpt lat="45.99716" lon="4.8463">
        <ele>252</ele>
        <time>2017-08-17T09:28:09Z</time>
      </trkpt>
      <trkpt lat="45.99721" lon="4.84629">
        <ele>252</ele>
        <time>2017-08-17T09:28:10Z</time>
      </trkpt>
      <trkpt lat="45.99727" lon="4.84628">
        <ele>252</ele>
        <time>2017-08-17T09:28:11Z</time>
      </trkpt>
      <trkpt lat="45.99733" lon="4.84627">
        <ele>252</ele>
        <time>2017-08-17T09:28:12Z</time>
      </trkpt>
      <trkpt lat="45.99739" lon="4.84626">
        <ele>252</ele>
        <time>2017-08-17T09:28:13Z</time>
      </trkpt>
      <trkpt lat="45.99744" lon="4.84626">
        <ele>253</ele>
        <time>2017-08-17T09:28:14Z</time>
      </trkpt>
      <trkpt lat="45.9975" lon="4.84625">
        <ele>254</ele>
        <time>2017-08-17T09:28:15Z</time>
      </trkpt>
      <trkpt lat="45.99756" lon="4.84625">
        <ele>254</ele>
        <time>2017-08-17T09:28:16Z</time>
      </trkpt>
      <trkpt lat="45.99762" lon="4.84625">
        <ele>254</ele>
        <time>2017-08-17T09:28:17Z</time>
      </trkpt>
      <trkpt lat="45.99768" lon="4.84626">
        <ele>254</ele>
        <time>2017-08-17T09:28:18Z</time>
      </trkpt>
      <trkpt lat="45.99774" lon="4.84626">
        <ele>254</ele>
        <time>2017-08-17T09:28:19Z</time>
      </trkpt>
      <trkpt lat="45.9978" lon="4.84627">
        <ele>254</ele>
        <time>2017-08-17T09:28:20Z</time>
      </trkpt>
      <trkpt lat="45.99785" lon="4.84628">
        <ele>254</ele>
        <time>2017-08-17T09:28:21Z</time>
      </trkpt>
      <trkpt lat="45.99791" lon="4.8463">
        <ele>254</ele>
        <time>2017-08-17T09:28:22Z</time>
      </trkpt>
      <trkpt lat="45.99796" lon="4.84631">
        <ele>254</ele>
        <time>2017-08-17T09:28:23Z</time>
      </trkpt>
      <trkpt lat="45.998" lon="4.84633">
        <ele>254</ele>
        <time>2017-08-17T09:28:24Z</time>
      </trkpt>
      <trkpt lat="45.99805" lon="4.84634">
        <ele>254</ele>
        <time>2017-08-17T09:28:25Z</time>
      </trkpt>
      <trkpt lat="45.99811" lon="4.84635">
        <ele>254</ele>
        <time>2017-08-17T09:28:26Z</time>
      </trkpt>
      <trkpt lat="45.99816" lon="4.84636">
        <ele>254</ele>
        <time>2017-08-17T09:28:27Z</time>
      </trkpt>
      <trkpt lat="45.99821" lon="4.84637">
        <ele>254</ele>
        <time>2017-08-17T09:28:28Z</time>
      </trkpt>
      <trkpt lat="45.99825" lon="4.84638">
        <ele>254</ele>
        <time>2017-08-17T09:28:29Z</time>
      </trkpt>
      <trkpt lat="45.9983" lon="4.8464">
        <ele>254</ele>
        <time>2017-08-17T09:28:30Z</time>
      </trkpt>
      <trkpt lat="45.99835" lon="4.84641">
        <ele>254</ele>
        <time>2017-08-17T09:28:31Z</time>
      </trkpt>
      <trkpt lat="45.9984" lon="4.84643">
        <ele>254</ele>
        <time>2017-08-17T09:28:32Z</time>
      </trkpt>
      <trkpt lat="45.99845" lon="4.84644">
        <ele>254</ele>
        <time>2017-08-17T09:28:33Z</time>
      </trkpt>
      <trkpt lat="45.99851" lon="4.84646">
        <ele>254</ele>
        <time>2017-08-17T09:28:34Z</time>
      </trkpt>
      <trkpt lat="45.99856" lon="4.84647">
        <ele>254</ele>
        <time>2017-08-17T09:28:35Z</time>
      </trkpt>
      <trkpt lat="45.99861" lon="4.84648">
        <ele>254</ele>
        <time>2017-08-17T09:28:36Z</time>
      </trkpt>
      <trkpt lat="45.99865" lon="4.8465">
        <ele>254</ele>
        <time>2017-08-17T09:28:37Z</time>
      </trkpt>
      <trkpt lat="45.9987" lon="4.84651">
        <ele>254</ele>
        <time>2017-08-17T09:28:38Z</time>
      </trkpt>
      <trkpt lat="45.99875" lon="4.84652">
        <ele>254</ele>
        <time>2017-08-17T09:28:39Z</time>
      </trkpt>
      <trkpt lat="45.99879" lon="4.84653">
        <ele>254</ele>
        <time>2017-08-17T09:28:40Z</time>
      </trkpt>
      <trkpt lat="45.99884" lon="4.84654">
        <ele>254</ele>
        <time>2017-08-17T09:28:41Z</time>
      </trkpt>
      <trkpt lat="45.99889" lon="4.84655">
        <ele>254</ele>
        <time>2017-08-17T09:28:42Z</time>
      </trkpt>
      <trkpt lat="45.99894" lon="4.84656">
        <ele>254</ele>
        <time>2017-08-17T09:28:43Z</time>
      </trkpt>
      <trkpt lat="45.99899" lon="4.84658">
        <ele>254</ele>
        <time>2017-08-17T09:28:44Z</time>
      </trkpt>
      <trkpt lat="45.99904" lon="4.84659">
        <ele>254</ele>
        <time>2017-08-17T09:28:45Z</time>
      </trkpt>
      <trkpt lat="45.99909" lon="4.8466">
        <ele>254</ele>
        <time>2017-08-17T09:28:46Z</time>
      </trkpt>
      <trkpt lat="45.99913" lon="4.84661">
        <ele>254</ele>
        <time>2017-08-17T09:28:47Z</time>
      </trkpt>
      <trkpt lat="45.99918" lon="4.84663">
        <ele>254</ele>
        <time>2017-08-17T09:28:48Z</time>
      </trkpt>
      <trkpt lat="45.99922" lon="4.84664">
        <ele>254</ele>
        <time>2017-08-17T09:28:49Z</time>
      </trkpt>
      <trkpt lat="45.99926" lon="4.84665">
        <ele>254</ele>
        <time>2017-08-17T09:28:50Z</time>
      </trkpt>
      <trkpt lat="45.99931" lon="4.84666">
        <ele>254</ele>
        <time>2017-08-17T09:28:51Z</time>
      </trkpt>
      <trkpt lat="45.99936" lon="4.84668">
        <ele>255</ele>
        <time>2017-08-17T09:28:52Z</time>
      </trkpt>
      <trkpt lat="45.9994" lon="4.84669">
        <ele>255</ele>
        <time>2017-08-17T09:28:53Z</time>
      </trkpt>
      <trkpt lat="45.99945" lon="4.84671">
        <ele>255</ele>
        <time>2017-08-17T09:28:54Z</time>
      </trkpt>
      <trkpt lat="45.9995" lon="4.84673">
        <ele>255</ele>
        <time>2017-08-17T09:28:55Z</time>
      </trkpt>
      <trkpt lat="45.99955" lon="4.84674">
        <ele>255</ele>
        <time>2017-08-17T09:28:56Z</time>
      </trkpt>
      <trkpt lat="45.99959" lon="4.84675">
        <ele>255</ele>
        <time>2017-08-17T09:28:57Z</time>
      </trkpt>
      <trkpt lat="45.99963" lon="4.84677">
        <ele>255</ele>
        <time>2017-08-17T09:28:58Z</time>
      </trkpt>
      <trkpt lat="45.99968" lon="4.84679">
        <ele>255</ele>
        <time>2017-08-17T09:28:59Z</time>
      </trkpt>
      <trkpt lat="45.99972" lon="4.8468">
        <ele>255</ele>
        <time>2017-08-17T09:29:00Z</time>
      </trkpt>
      <trkpt lat="45.99977" lon="4.84681">
        <ele>255</ele>
        <time>2017-08-17T09:29:01Z</time>
      </trkpt>
      <trkpt lat="45.99985" lon="4.84683">
        <ele>255</ele>
        <time>2017-08-17T09:29:03Z</time>
      </trkpt>
      <trkpt lat="45.99989" lon="4.84684">
        <ele>255</ele>
        <time>2017-08-17T09:29:04Z</time>
      </trkpt>
      <trkpt lat="45.99994" lon="4.84687">
        <ele>255</ele>
        <time>2017-08-17T09:29:05Z</time>
      </trkpt>
      <trkpt lat="45.99998" lon="4.8469">
        <ele>256</ele>
        <time>2017-08-17T09:29:06Z</time>
      </trkpt>
      <trkpt lat="46.00003" lon="4.84691">
        <ele>256</ele>
        <time>2017-08-17T09:29:07Z</time>
      </trkpt>
      <trkpt lat="46.00009" lon="4.84691">
        <ele>256</ele>
        <time>2017-08-17T09:29:08Z</time>
      </trkpt>
      <trkpt lat="46.00018" lon="4.84693">
        <ele>256</ele>
        <time>2017-08-17T09:29:10Z</time>
      </trkpt>
      <trkpt lat="46.00022" lon="4.84694">
        <ele>256</ele>
        <time>2017-08-17T09:29:11Z</time>
      </trkpt>
      <trkpt lat="46.00027" lon="4.84694">
        <ele>256</ele>
        <time>2017-08-17T09:29:12Z</time>
      </trkpt>
      <trkpt lat="46.00032" lon="4.84695">
        <ele>256</ele>
        <time>2017-08-17T09:29:13Z</time>
      </trkpt>
      <trkpt lat="46.00041" lon="4.84695">
        <ele>256</ele>
        <time>2017-08-17T09:29:15Z</time>
      </trkpt>
      <trkpt lat="46.00045" lon="4.84696">
        <ele>256</ele>
        <time>2017-08-17T09:29:16Z</time>
      </trkpt>
      <trkpt lat="46.00052" lon="4.84697">
        <ele>256</ele>
        <time>2017-08-17T09:29:18Z</time>
      </trkpt>
      <trkpt lat="46.00056" lon="4.84697">
        <ele>256</ele>
        <time>2017-08-17T09:29:19Z</time>
      </trkpt>
      <trkpt lat="46.00063" lon="4.84697">
        <ele>256</ele>
        <time>2017-08-17T09:29:21Z</time>
      </trkpt>
      <trkpt lat="46.00066" lon="4.84698">
        <ele>256</ele>
        <time>2017-08-17T09:29:22Z</time>
      </trkpt>
      <trkpt lat="46.00075" lon="4.84698">
        <ele>256</ele>
        <time>2017-08-17T09:29:25Z</time>
      </trkpt>
      <trkpt lat="46.00077" lon="4.84698">
        <ele>257</ele>
        <time>2017-08-17T09:29:26Z</time>
      </trkpt>
      <trkpt lat="46.00084" lon="4.84694">
        <ele>257</ele>
        <time>2017-08-17T09:29:29Z</time>
      </trkpt>
      <trkpt lat="46.00085" lon="4.84689">
        <ele>257</ele>
        <time>2017-08-17T09:29:30Z</time>
      </trkpt>
      <trkpt lat="46.00084" lon="4.84678">
        <ele>257</ele>
        <time>2017-08-17T09:29:32Z</time>
      </trkpt>
      <trkpt lat="46.00084" lon="4.84671">
        <ele>256</ele>
        <time>2017-08-17T09:29:33Z</time>
      </trkpt>
      <trkpt lat="46.00084" lon="4.84665">
        <ele>256</ele>
        <time>2017-08-17T09:29:34Z</time>
      </trkpt>
      <trkpt lat="46.00084" lon="4.84658">
        <ele>256</ele>
        <time>2017-08-17T09:29:35Z</time>
      </trkpt>
      <trkpt lat="46.00085" lon="4.8465">
        <ele>257</ele>
        <time>2017-08-17T09:29:36Z</time>
      </trkpt>
      <trkpt lat="46.00085" lon="4.84643">
        <ele>257</ele>
        <time>2017-08-17T09:29:37Z</time>
      </trkpt>
      <trkpt lat="46.00085" lon="4.84637">
        <ele>257</ele>
        <time>2017-08-17T09:29:38Z</time>
      </trkpt>
      <trkpt lat="46.00085" lon="4.8463">
        <ele>257</ele>
        <time>2017-08-17T09:29:39Z</time>
      </trkpt>
      <trkpt lat="46.00086" lon="4.84618">
        <ele>257</ele>
        <time>2017-08-17T09:29:41Z</time>
      </trkpt>
      <trkpt lat="46.00085" lon="4.84612">
        <ele>257</ele>
        <time>2017-08-17T09:29:42Z</time>
      </trkpt>
      <trkpt lat="46.00085" lon="4.84601">
        <ele>257</ele>
        <time>2017-08-17T09:29:44Z</time>
      </trkpt>
      <trkpt lat="46.00085" lon="4.84596">
        <ele>257</ele>
        <time>2017-08-17T09:29:45Z</time>
      </trkpt>
      <trkpt lat="46.00085" lon="4.84586">
        <ele>257</ele>
        <time>2017-08-17T09:29:47Z</time>
      </trkpt>
      <trkpt lat="46.00085" lon="4.84581">
        <ele>257</ele>
        <time>2017-08-17T09:29:48Z</time>
      </trkpt>
      <trkpt lat="46.00085" lon="4.8457">
        <ele>258</ele>
        <time>2017-08-17T09:29:50Z</time>
      </trkpt>
      <trkpt lat="46.00084" lon="4.84564">
        <ele>258</ele>
        <time>2017-08-17T09:29:51Z</time>
      </trkpt>
      <trkpt lat="46.00084" lon="4.84555">
        <ele>258</ele>
        <time>2017-08-17T09:29:53Z</time>
      </trkpt>
      <trkpt lat="46.00084" lon="4.8455">
        <ele>258</ele>
        <time>2017-08-17T09:29:54Z</time>
      </trkpt>
      <trkpt lat="46.00085" lon="4.84539">
        <ele>258</ele>
        <time>2017-08-17T09:29:56Z</time>
      </trkpt>
      <trkpt lat="46.00086" lon="4.84533">
        <ele>258</ele>
        <time>2017-08-17T09:29:57Z</time>
      </trkpt>
      <trkpt lat="46.00088" lon="4.84521">
        <ele>259</ele>
        <time>2017-08-17T09:29:59Z</time>
      </trkpt>
      <trkpt lat="46.00089" lon="4.84514">
        <ele>259</ele>
        <time>2017-08-17T09:30:00Z</time>
      </trkpt>
      <trkpt lat="46.0009" lon="4.84508">
        <ele>259</ele>
        <time>2017-08-17T09:30:01Z</time>
      </trkpt>
      <trkpt lat="46.0009" lon="4.84501">
        <ele>259</ele>
        <time>2017-08-17T09:30:02Z</time>
      </trkpt>
      <trkpt lat="46.00092" lon="4.84489">
        <ele>259</ele>
        <time>2017-08-17T09:30:04Z</time>
      </trkpt>
      <trkpt lat="46.00092" lon="4.84485">
        <ele>259</ele>
        <time>2017-08-17T09:30:05Z</time>
      </trkpt>
      <trkpt lat="46.00094" lon="4.84474">
        <ele>260</ele>
        <time>2017-08-17T09:30:07Z</time>
      </trkpt>
      <trkpt lat="46.00094" lon="4.84471">
        <ele>260</ele>
        <time>2017-08-17T09:30:08Z</time>
      </trkpt>
      <trkpt lat="46.00087" lon="4.84462">
        <ele>260</ele>
        <time>2017-08-17T09:30:14Z</time>
      </trkpt>
      <trkpt lat="46.00086" lon="4.84461">
        <ele>260</ele>
        <time>2017-08-17T09:30:15Z</time>
      </trkpt>
      <trkpt lat="46.0008" lon="4.84452">
        <ele>258</ele>
        <time>2017-08-17T09:38:02Z</time>
      </trkpt>
      <trkpt lat="46.0008" lon="4.84452">
        <ele>258</ele>
        <time>2017-08-17T09:38:03Z</time>
      </trkpt>
      <trkpt lat="46.00084" lon="4.84463">
        <ele>260</ele>
        <time>2017-08-17T09:38:54Z</time>
      </trkpt>
      <trkpt lat="46.00086" lon="4.84463">
        <ele>260</ele>
        <time>2017-08-17T09:38:55Z</time>
      </trkpt>
      <trkpt lat="46.00087" lon="4.84476">
        <ele>260</ele>
        <time>2017-08-17T09:39:01Z</time>
      </trkpt>
      <trkpt lat="46.00087" lon="4.84479">
        <ele>259</ele>
        <time>2017-08-17T09:39:02Z</time>
      </trkpt>
      <trkpt lat="46.00084" lon="4.8449">
        <ele>259</ele>
        <time>2017-08-17T09:39:05Z</time>
      </trkpt>
      <trkpt lat="46.00084" lon="4.84494">
        <ele>259</ele>
        <time>2017-08-17T09:39:06Z</time>
      </trkpt>
      <trkpt lat="46.0008" lon="4.84503">
        <ele>259</ele>
        <time>2017-08-17T09:39:08Z</time>
      </trkpt>
      <trkpt lat="46.00077" lon="4.84506">
        <ele>258</ele>
        <time>2017-08-17T09:39:09Z</time>
      </trkpt>
      <trkpt lat="46.00071" lon="4.84496">
        <ele>259</ele>
        <time>2017-08-17T09:39:12Z</time>
      </trkpt>
      <trkpt lat="46.00071" lon="4.84491">
        <ele>258</ele>
        <time>2017-08-17T09:39:13Z</time>
      </trkpt>
      <trkpt lat="46.0007" lon="4.8448">
        <ele>258</ele>
        <time>2017-08-17T09:39:15Z</time>
      </trkpt>
      <trkpt lat="46.00069" lon="4.84474">
        <ele>258</ele>
        <time>2017-08-17T09:39:16Z</time>
      </trkpt>
      <trkpt lat="46.00068" lon="4.84461">
        <ele>258</ele>
        <time>2017-08-17T09:39:18Z</time>
      </trkpt>
      <trkpt lat="46.00068" lon="4.84455">
        <ele>258</ele>
        <time>2017-08-17T09:39:19Z</time>
      </trkpt>
      <trkpt lat="46.00067" lon="4.84449">
        <ele>258</ele>
        <time>2017-08-17T09:39:20Z</time>
      </trkpt>
      <trkpt lat="46.00067" lon="4.84442">
        <ele>258</ele>
        <time>2017-08-17T09:39:21Z</time>
      </trkpt>
      <trkpt lat="46.00066" lon="4.84435">
        <ele>258</ele>
        <time>2017-08-17T09:39:22Z</time>
      </trkpt>
      <trkpt lat="46.00065" lon="4.84428">
        <ele>258</ele>
        <time>2017-08-17T09:39:23Z</time>
      </trkpt>
      <trkpt lat="46.00064" lon="4.84421">
        <ele>258</ele>
        <time>2017-08-17T09:39:24Z</time>
      </trkpt>
      <trkpt lat="46.00063" lon="4.84414">
        <ele>259</ele>
        <time>2017-08-17T09:39:25Z</time>
      </trkpt>
      <trkpt lat="46.00062" lon="4.84407">
        <ele>259</ele>
        <time>2017-08-17T09:39:26Z</time>
      </trkpt>
      <trkpt lat="46.00061" lon="4.844">
        <ele>259</ele>
        <time>2017-08-17T09:39:27Z</time>
      </trkpt>
      <trkpt lat="46.0006" lon="4.84392">
        <ele>259</ele>
        <time>2017-08-17T09:39:28Z</time>
      </trkpt>
      <trkpt lat="46.00059" lon="4.84385">
        <ele>259</ele>
        <time>2017-08-17T09:39:29Z</time>
      </trkpt>
      <trkpt lat="46.00057" lon="4.84379">
        <ele>259</ele>
        <time>2017-08-17T09:39:30Z</time>
      </trkpt>
      <trkpt lat="46.00056" lon="4.84372">
        <ele>259</ele>
        <time>2017-08-17T09:39:31Z</time>
      </trkpt>
      <trkpt lat="46.00054" lon="4.8436">
        <ele>259</ele>
        <time>2017-08-17T09:39:33Z</time>
      </trkpt>
      <trkpt lat="46.00053" lon="4.84353">
        <ele>259</ele>
        <time>2017-08-17T09:39:34Z</time>
      </trkpt>
      <trkpt lat="46.00052" lon="4.84347">
        <ele>259</ele>
        <time>2017-08-17T09:39:35Z</time>
      </trkpt>
      <trkpt lat="46.00051" lon="4.84341">
        <ele>259</ele>
        <time>2017-08-17T09:39:36Z</time>
      </trkpt>
      <trkpt lat="46.00049" lon="4.84334">
        <ele>259</ele>
        <time>2017-08-17T09:39:37Z</time>
      </trkpt>
      <trkpt lat="46.00047" lon="4.84327">
        <ele>260</ele>
        <time>2017-08-17T09:39:38Z</time>
      </trkpt>
      <trkpt lat="46.00045" lon="4.84321">
        <ele>260</ele>
        <time>2017-08-17T09:39:39Z</time>
      </trkpt>
      <trkpt lat="46.00044" lon="4.84315">
        <ele>260</ele>
        <time>2017-08-17T09:39:40Z</time>
      </trkpt>
      <trkpt lat="46.0004" lon="4.84304">
        <ele>259</ele>
        <time>2017-08-17T09:39:42Z</time>
      </trkpt>
      <trkpt lat="46.00039" lon="4.84298">
        <ele>259</ele>
        <time>2017-08-17T09:39:43Z</time>
      </trkpt>
      <trkpt lat="46.00036" lon="4.84286">
        <ele>260</ele>
        <time>2017-08-17T09:39:45Z</time>
      </trkpt>
      <trkpt lat="46.00034" lon="4.8428">
        <ele>260</ele>
        <time>2017-08-17T09:39:46Z</time>
      </trkpt>
      <trkpt lat="46.00032" lon="4.84273">
        <ele>260</ele>
        <time>2017-08-17T09:39:47Z</time>
      </trkpt>
      <trkpt lat="46.0003" lon="4.84267">
        <ele>260</ele>
        <time>2017-08-17T09:39:48Z</time>
      </trkpt>
      <trkpt lat="46.00028" lon="4.8426">
        <ele>260</ele>
        <time>2017-08-17T09:39:49Z</time>
      </trkpt>
      <trkpt lat="46.00026" lon="4.84254">
        <ele>260</ele>
        <time>2017-08-17T09:39:50Z</time>
      </trkpt>
      <trkpt lat="46.00025" lon="4.84248">
        <ele>259</ele>
        <time>2017-08-17T09:39:51Z</time>
      </trkpt>
      <trkpt lat="46.00023" lon="4.84241">
        <ele>259</ele>
        <time>2017-08-17T09:39:52Z</time>
      </trkpt>
      <trkpt lat="46.00021" lon="4.84235">
        <ele>259</ele>
        <time>2017-08-17T09:39:53Z</time>
      </trkpt>
      <trkpt lat="46.00019" lon="4.84228">
        <ele>259</ele>
        <time>2017-08-17T09:39:54Z</time>
      </trkpt>
      <trkpt lat="46.00017" lon="4.84222">
        <ele>259</ele>
        <time>2017-08-17T09:39:55Z</time>
      </trkpt>
      <trkpt lat="46.00015" lon="4.84215">
        <ele>259</ele>
        <time>2017-08-17T09:39:56Z</time>
      </trkpt>
      <trkpt lat="46.00012" lon="4.84208">
        <ele>259</ele>
        <time>2017-08-17T09:39:57Z</time>
      </trkpt>
      <trkpt lat="46.0001" lon="4.84202">
        <ele>259</ele>
        <time>2017-08-17T09:39:58Z</time>
      </trkpt>
      <trkpt lat="46.00008" lon="4.84195">
        <ele>258</ele>
        <time>2017-08-17T09:39:59Z</time>
      </trkpt>
      <trkpt lat="46.00005" lon="4.84187">
        <ele>258</ele>
        <time>2017-08-17T09:40:00Z</time>
      </trkpt>
      <trkpt lat="46.00003" lon="4.84179">
        <ele>258</ele>
        <time>2017-08-17T09:40:01Z</time>
      </trkpt>
      <trkpt lat="46" lon="4.84171">
        <ele>257</ele>
        <time>2017-08-17T09:40:02Z</time>
      </trkpt>
      <trkpt lat="45.99998" lon="4.84164">
        <ele>257</ele>
        <time>2017-08-17T09:40:03Z</time>
      </trkpt>
      <trkpt lat="45.99996" lon="4.84156">
        <ele>257</ele>
        <time>2017-08-17T09:40:04Z</time>
      </trkpt>
      <trkpt lat="45.99994" lon="4.84149">
        <ele>257</ele>
        <time>2017-08-17T09:40:05Z</time>
      </trkpt>
      <trkpt lat="45.99992" lon="4.84142">
        <ele>257</ele>
        <time>2017-08-17T09:40:06Z</time>
      </trkpt>
      <trkpt lat="45.99991" lon="4.84135">
        <ele>257</ele>
        <time>2017-08-17T09:40:07Z</time>
      </trkpt>
      <trkpt lat="45.99989" lon="4.84128">
        <ele>257</ele>
        <time>2017-08-17T09:40:08Z</time>
      </trkpt>
      <trkpt lat="45.99987" lon="4.84122">
        <ele>258</ele>
        <time>2017-08-17T09:40:09Z</time>
      </trkpt>
      <trkpt lat="45.99985" lon="4.84115">
        <ele>258</ele>
        <time>2017-08-17T09:40:10Z</time>
      </trkpt>
      <trkpt lat="45.99983" lon="4.84109">
        <ele>258</ele>
        <time>2017-08-17T09:40:11Z</time>
      </trkpt>
      <trkpt lat="45.99982" lon="4.84102">
        <ele>258</ele>
        <time>2017-08-17T09:40:12Z</time>
      </trkpt>
      <trkpt lat="45.99979" lon="4.84095">
        <ele>258</ele>
        <time>2017-08-17T09:40:13Z</time>
      </trkpt>
      <trkpt lat="45.99977" lon="4.84089">
        <ele>258</ele>
        <time>2017-08-17T09:40:14Z</time>
      </trkpt>
      <trkpt lat="45.99975" lon="4.84082">
        <ele>259</ele>
        <time>2017-08-17T09:40:15Z</time>
      </trkpt>
      <trkpt lat="45.99973" lon="4.84074">
        <ele>259</ele>
        <time>2017-08-17T09:40:16Z</time>
      </trkpt>
      <trkpt lat="45.99971" lon="4.84067">
        <ele>259</ele>
        <time>2017-08-17T09:40:17Z</time>
      </trkpt>
      <trkpt lat="45.99969" lon="4.8406">
        <ele>259</ele>
        <time>2017-08-17T09:40:18Z</time>
      </trkpt>
      <trkpt lat="45.99967" lon="4.84052">
        <ele>259</ele>
        <time>2017-08-17T09:40:19Z</time>
      </trkpt>
      <trkpt lat="45.99965" lon="4.84044">
        <ele>259</ele>
        <time>2017-08-17T09:40:20Z</time>
      </trkpt>
      <trkpt lat="45.99963" lon="4.84036">
        <ele>259</ele>
        <time>2017-08-17T09:40:21Z</time>
      </trkpt>
      <trkpt lat="45.99961" lon="4.84029">
        <ele>259</ele>
        <time>2017-08-17T09:40:22Z</time>
      </trkpt>
      <trkpt lat="45.99959" lon="4.84021">
        <ele>259</ele>
        <time>2017-08-17T09:40:23Z</time>
      </trkpt>
      <trkpt lat="45.99957" lon="4.84014">
        <ele>259</ele>
        <time>2017-08-17T09:40:24Z</time>
      </trkpt>
      <trkpt lat="45.99955" lon="4.84007">
        <ele>259</ele>
        <time>2017-08-17T09:40:25Z</time>
      </trkpt>
      <trkpt lat="45.99954" lon="4.84001">
        <ele>259</ele>
        <time>2017-08-17T09:40:26Z</time>
      </trkpt>
      <trkpt lat="45.99952" lon="4.83994">
        <ele>259</ele>
        <time>2017-08-17T09:40:27Z</time>
      </trkpt>
      <trkpt lat="45.9995" lon="4.83988">
        <ele>259</ele>
        <time>2017-08-17T09:40:28Z</time>
      </trkpt>
      <trkpt lat="45.99947" lon="4.83976">
        <ele>259</ele>
        <time>2017-08-17T09:40:30Z</time>
      </trkpt>
      <trkpt lat="45.99945" lon="4.8397">
        <ele>259</ele>
        <time>2017-08-17T09:40:31Z</time>
      </trkpt>
      <trkpt lat="45.99943" lon="4.83963">
        <ele>259</ele>
        <time>2017-08-17T09:40:32Z</time>
      </trkpt>
      <trkpt lat="45.99941" lon="4.83957">
        <ele>259</ele>
        <time>2017-08-17T09:40:33Z</time>
      </trkpt>
      <trkpt lat="45.99939" lon="4.8395">
        <ele>259</ele>
        <time>2017-08-17T09:40:34Z</time>
      </trkpt>
      <trkpt lat="45.99937" lon="4.83943">
        <ele>259</ele>
        <time>2017-08-17T09:40:35Z</time>
      </trkpt>
      <trkpt lat="45.99935" lon="4.83936">
        <ele>259</ele>
        <time>2017-08-17T09:40:36Z</time>
      </trkpt>
      <trkpt lat="45.99933" lon="4.83928">
        <ele>259</ele>
        <time>2017-08-17T09:40:37Z</time>
      </trkpt>
      <trkpt lat="45.99931" lon="4.8392">
        <ele>259</ele>
        <time>2017-08-17T09:40:38Z</time>
      </trkpt>
      <trkpt lat="45.99929" lon="4.83913">
        <ele>259</ele>
        <time>2017-08-17T09:40:39Z</time>
      </trkpt>
      <trkpt lat="45.99927" lon="4.83905">
        <ele>259</ele>
        <time>2017-08-17T09:40:40Z</time>
      </trkpt>
      <trkpt lat="45.99925" lon="4.83898">
        <ele>259</ele>
        <time>2017-08-17T09:40:41Z</time>
      </trkpt>
      <trkpt lat="45.99923" lon="4.83891">
        <ele>259</ele>
        <time>2017-08-17T09:40:42Z</time>
      </trkpt>
      <trkpt lat="45.99921" lon="4.83884">
        <ele>259</ele>
        <time>2017-08-17T09:40:43Z</time>
      </trkpt>
      <trkpt lat="45.99919" lon="4.83878">
        <ele>259</ele>
        <time>2017-08-17T09:40:44Z</time>
      </trkpt>
      <trkpt lat="45.99917" lon="4.83871">
        <ele>259</ele>
        <time>2017-08-17T09:40:45Z</time>
      </trkpt>
      <trkpt lat="45.99916" lon="4.83865">
        <ele>258</ele>
        <time>2017-08-17T09:40:46Z</time>
      </trkpt>
      <trkpt lat="45.99914" lon="4.83858">
        <ele>258</ele>
        <time>2017-08-17T09:40:47Z</time>
      </trkpt>
      <trkpt lat="45.99912" lon="4.83851">
        <ele>258</ele>
        <time>2017-08-17T09:40:48Z</time>
      </trkpt>
      <trkpt lat="45.9991" lon="4.83844">
        <ele>258</ele>
        <time>2017-08-17T09:40:49Z</time>
      </trkpt>
      <trkpt lat="45.99908" lon="4.83837">
        <ele>258</ele>
        <time>2017-08-17T09:40:50Z</time>
      </trkpt>
      <trkpt lat="45.99906" lon="4.83829">
        <ele>257</ele>
        <time>2017-08-17T09:40:51Z</time>
      </trkpt>
      <trkpt lat="45.99904" lon="4.83821">
        <ele>257</ele>
        <time>2017-08-17T09:40:52Z</time>
      </trkpt>
      <trkpt lat="45.99902" lon="4.83813">
        <ele>257</ele>
        <time>2017-08-17T09:40:53Z</time>
      </trkpt>
      <trkpt lat="45.99899" lon="4.83805">
        <ele>257</ele>
        <time>2017-08-17T09:40:54Z</time>
      </trkpt>
      <trkpt lat="45.99897" lon="4.83797">
        <ele>257</ele>
        <time>2017-08-17T09:40:55Z</time>
      </trkpt>
      <trkpt lat="45.99895" lon="4.83789">
        <ele>257</ele>
        <time>2017-08-17T09:40:56Z</time>
      </trkpt>
      <trkpt lat="45.99892" lon="4.83781">
        <ele>257</ele>
        <time>2017-08-17T09:40:57Z</time>
      </trkpt>
      <trkpt lat="45.9989" lon="4.83773">
        <ele>257</ele>
        <time>2017-08-17T09:40:58Z</time>
      </trkpt>
      <trkpt lat="45.99888" lon="4.83766">
        <ele>257</ele>
        <time>2017-08-17T09:40:59Z</time>
      </trkpt>
      <trkpt lat="45.99886" lon="4.83758">
        <ele>257</ele>
        <time>2017-08-17T09:41:00Z</time>
      </trkpt>
      <trkpt lat="45.99884" lon="4.83751">
        <ele>256</ele>
        <time>2017-08-17T09:41:01Z</time>
      </trkpt>
      <trkpt lat="45.99881" lon="4.83744">
        <ele>256</ele>
        <time>2017-08-17T09:41:02Z</time>
      </trkpt>
      <trkpt lat="45.9988" lon="4.83737">
        <ele>256</ele>
        <time>2017-08-17T09:41:03Z</time>
      </trkpt>
      <trkpt lat="45.99877" lon="4.83729">
        <ele>256</ele>
        <time>2017-08-17T09:41:04Z</time>
      </trkpt>
      <trkpt lat="45.99875" lon="4.83723">
        <ele>256</ele>
        <time>2017-08-17T09:41:05Z</time>
      </trkpt>
      <trkpt lat="45.99873" lon="4.83716">
        <ele>256</ele>
        <time>2017-08-17T09:41:06Z</time>
      </trkpt>
      <trkpt lat="45.99871" lon="4.83709">
        <ele>256</ele>
        <time>2017-08-17T09:41:07Z</time>
      </trkpt>
      <trkpt lat="45.99869" lon="4.83702">
        <ele>256</ele>
        <time>2017-08-17T09:41:08Z</time>
      </trkpt>
      <trkpt lat="45.99868" lon="4.83696">
        <ele>256</ele>
        <time>2017-08-17T09:41:09Z</time>
      </trkpt>
      <trkpt lat="45.99866" lon="4.83689">
        <ele>256</ele>
        <time>2017-08-17T09:41:10Z</time>
      </trkpt>
      <trkpt lat="45.99864" lon="4.83683">
        <ele>256</ele>
        <time>2017-08-17T09:41:11Z</time>
      </trkpt>
      <trkpt lat="45.99862" lon="4.83676">
        <ele>256</ele>
        <time>2017-08-17T09:41:12Z</time>
      </trkpt>
      <trkpt lat="45.9986" lon="4.83668">
        <ele>256</ele>
        <time>2017-08-17T09:41:13Z</time>
      </trkpt>
      <trkpt lat="45.99858" lon="4.8366">
        <ele>257</ele>
        <time>2017-08-17T09:41:14Z</time>
      </trkpt>
      <trkpt lat="45.99855" lon="4.83652">
        <ele>257</ele>
        <time>2017-08-17T09:41:15Z</time>
      </trkpt>
      <trkpt lat="45.99854" lon="4.83644">
        <ele>257</ele>
        <time>2017-08-17T09:41:16Z</time>
      </trkpt>
      <trkpt lat="45.99852" lon="4.83636">
        <ele>257</ele>
        <time>2017-08-17T09:41:17Z</time>
      </trkpt>
      <trkpt lat="45.9985" lon="4.83628">
        <ele>257</ele>
        <time>2017-08-17T09:41:18Z</time>
      </trkpt>
      <trkpt lat="45.99847" lon="4.8362">
        <ele>257</ele>
        <time>2017-08-17T09:41:19Z</time>
      </trkpt>
      <trkpt lat="45.99846" lon="4.83611">
        <ele>257</ele>
        <time>2017-08-17T09:41:20Z</time>
      </trkpt>
      <trkpt lat="45.99844" lon="4.83603">
        <ele>257</ele>
        <time>2017-08-17T09:41:21Z</time>
      </trkpt>
      <trkpt lat="45.99842" lon="4.83595">
        <ele>257</ele>
        <time>2017-08-17T09:41:22Z</time>
      </trkpt>
      <trkpt lat="45.99841" lon="4.83587">
        <ele>257</ele>
        <time>2017-08-17T09:41:23Z</time>
      </trkpt>
      <trkpt lat="45.99839" lon="4.8358">
        <ele>257</ele>
        <time>2017-08-17T09:41:24Z</time>
      </trkpt>
      <trkpt lat="45.99838" lon="4.83573">
        <ele>257</ele>
        <time>2017-08-17T09:41:25Z</time>
      </trkpt>
      <trkpt lat="45.99836" lon="4.83566">
        <ele>258</ele>
        <time>2017-08-17T09:41:26Z</time>
      </trkpt>
      <trkpt lat="45.99834" lon="4.83558">
        <ele>258</ele>
        <time>2017-08-17T09:41:27Z</time>
      </trkpt>
      <trkpt lat="45.99833" lon="4.83551">
        <ele>258</ele>
        <time>2017-08-17T09:41:28Z</time>
      </trkpt>
      <trkpt lat="45.99831" lon="4.83544">
        <ele>259</ele>
        <time>2017-08-17T09:41:29Z</time>
      </trkpt>
      <trkpt lat="45.99829" lon="4.83537">
        <ele>259</ele>
        <time>2017-08-17T09:41:30Z</time>
      </trkpt>
      <trkpt lat="45.99828" lon="4.8353">
        <ele>259</ele>
        <time>2017-08-17T09:41:31Z</time>
      </trkpt>
      <trkpt lat="45.99826" lon="4.83522">
        <ele>259</ele>
        <time>2017-08-17T09:41:32Z</time>
      </trkpt>
      <trkpt lat="45.99824" lon="4.83514">
        <ele>259</ele>
        <time>2017-08-17T09:41:33Z</time>
      </trkpt>
      <trkpt lat="45.99822" lon="4.83507">
        <ele>259</ele>
        <time>2017-08-17T09:41:34Z</time>
      </trkpt>
      <trkpt lat="45.99821" lon="4.835">
        <ele>260</ele>
        <time>2017-08-17T09:41:35Z</time>
      </trkpt>
      <trkpt lat="45.99819" lon="4.83492">
        <ele>260</ele>
        <time>2017-08-17T09:41:36Z</time>
      </trkpt>
      <trkpt lat="45.99818" lon="4.83485">
        <ele>260</ele>
        <time>2017-08-17T09:41:37Z</time>
      </trkpt>
      <trkpt lat="45.99817" lon="4.83479">
        <ele>260</ele>
        <time>2017-08-17T09:41:38Z</time>
      </trkpt>
      <trkpt lat="45.99815" lon="4.83472">
        <ele>260</ele>
        <time>2017-08-17T09:41:39Z</time>
      </trkpt>
      <trkpt lat="45.99814" lon="4.83465">
        <ele>260</ele>
        <time>2017-08-17T09:41:40Z</time>
      </trkpt>
      <trkpt lat="45.99812" lon="4.83459">
        <ele>261</ele>
        <time>2017-08-17T09:41:41Z</time>
      </trkpt>
      <trkpt lat="45.99811" lon="4.83452">
        <ele>261</ele>
        <time>2017-08-17T09:41:42Z</time>
      </trkpt>
      <trkpt lat="45.9981" lon="4.83446">
        <ele>261</ele>
        <time>2017-08-17T09:41:43Z</time>
      </trkpt>
      <trkpt lat="45.99808" lon="4.8344">
        <ele>261</ele>
        <time>2017-08-17T09:41:44Z</time>
      </trkpt>
      <trkpt lat="45.99807" lon="4.83434">
        <ele>261</ele>
        <time>2017-08-17T09:41:45Z</time>
      </trkpt>
      <trkpt lat="45.99804" lon="4.83421">
        <ele>261</ele>
        <time>2017-08-17T09:41:47Z</time>
      </trkpt>
      <trkpt lat="45.99803" lon="4.83415">
        <ele>262</ele>
        <time>2017-08-17T09:41:48Z</time>
      </trkpt>
      <trkpt lat="45.998" lon="4.83404">
        <ele>262</ele>
        <time>2017-08-17T09:41:50Z</time>
      </trkpt>
      <trkpt lat="45.99799" lon="4.83398">
        <ele>262</ele>
        <time>2017-08-17T09:41:51Z</time>
      </trkpt>
      <trkpt lat="45.99796" lon="4.83386">
        <ele>262</ele>
        <time>2017-08-17T09:41:53Z</time>
      </trkpt>
      <trkpt lat="45.99795" lon="4.8338">
        <ele>262</ele>
        <time>2017-08-17T09:41:54Z</time>
      </trkpt>
      <trkpt lat="45.99792" lon="4.83368">
        <ele>262</ele>
        <time>2017-08-17T09:41:56Z</time>
      </trkpt>
      <trkpt lat="45.9979" lon="4.83362">
        <ele>262</ele>
        <time>2017-08-17T09:41:57Z</time>
      </trkpt>
      <trkpt lat="45.99787" lon="4.83351">
        <ele>262</ele>
        <time>2017-08-17T09:41:59Z</time>
      </trkpt>
      <trkpt lat="45.99786" lon="4.83344">
        <ele>263</ele>
        <time>2017-08-17T09:42:00Z</time>
      </trkpt>
      <trkpt lat="45.99784" lon="4.83332">
        <ele>264</ele>
        <time>2017-08-17T09:42:02Z</time>
      </trkpt>
      <trkpt lat="45.99782" lon="4.83326">
        <ele>264</ele>
        <time>2017-08-17T09:42:03Z</time>
      </trkpt>
      <trkpt lat="45.99781" lon="4.83313">
        <ele>264</ele>
        <time>2017-08-17T09:42:05Z</time>
      </trkpt>
      <trkpt lat="45.9978" lon="4.83308">
        <ele>264</ele>
        <time>2017-08-17T09:42:06Z</time>
      </trkpt>
      <trkpt lat="45.99778" lon="4.83295">
        <ele>264</ele>
        <time>2017-08-17T09:42:08Z</time>
      </trkpt>
      <trkpt lat="45.99777" lon="4.83289">
        <ele>264</ele>
        <time>2017-08-17T09:42:09Z</time>
      </trkpt>
      <trkpt lat="45.99776" lon="4.83276">
        <ele>265</ele>
        <time>2017-08-17T09:42:11Z</time>
      </trkpt>
      <trkpt lat="45.99775" lon="4.8327">
        <ele>265</ele>
        <time>2017-08-17T09:42:12Z</time>
      </trkpt>
      <trkpt lat="45.99774" lon="4.83263">
        <ele>265</ele>
        <time>2017-08-17T09:42:13Z</time>
      </trkpt>
      <trkpt lat="45.99773" lon="4.83257">
        <ele>265</ele>
        <time>2017-08-17T09:42:14Z</time>
      </trkpt>
      <trkpt lat="45.99773" lon="4.8325">
        <ele>267</ele>
        <time>2017-08-17T09:42:15Z</time>
      </trkpt>
      <trkpt lat="45.99772" lon="4.83244">
        <ele>267</ele>
        <time>2017-08-17T09:42:16Z</time>
      </trkpt>
      <trkpt lat="45.99772" lon="4.83237">
        <ele>267</ele>
        <time>2017-08-17T09:42:17Z</time>
      </trkpt>
      <trkpt lat="45.99771" lon="4.8323">
        <ele>267</ele>
        <time>2017-08-17T09:42:18Z</time>
      </trkpt>
      <trkpt lat="45.9977" lon="4.83218">
        <ele>268</ele>
        <time>2017-08-17T09:42:20Z</time>
      </trkpt>
      <trkpt lat="45.99769" lon="4.83211">
        <ele>268</ele>
        <time>2017-08-17T09:42:21Z</time>
      </trkpt>
      <trkpt lat="45.99768" lon="4.83199">
        <ele>268</ele>
        <time>2017-08-17T09:42:23Z</time>
      </trkpt>
      <trkpt lat="45.99767" lon="4.83193">
        <ele>269</ele>
        <time>2017-08-17T09:42:24Z</time>
      </trkpt>
      <trkpt lat="45.99766" lon="4.83181">
        <ele>269</ele>
        <time>2017-08-17T09:42:26Z</time>
      </trkpt>
      <trkpt lat="45.99765" lon="4.83175">
        <ele>269</ele>
        <time>2017-08-17T09:42:27Z</time>
      </trkpt>
      <trkpt lat="45.99764" lon="4.83164">
        <ele>271</ele>
        <time>2017-08-17T09:42:29Z</time>
      </trkpt>
      <trkpt lat="45.99763" lon="4.83158">
        <ele>271</ele>
        <time>2017-08-17T09:42:30Z</time>
      </trkpt>
      <trkpt lat="45.99762" lon="4.83147">
        <ele>271</ele>
        <time>2017-08-17T09:42:32Z</time>
      </trkpt>
      <trkpt lat="45.99761" lon="4.83142">
        <ele>271</ele>
        <time>2017-08-17T09:42:33Z</time>
      </trkpt>
      <trkpt lat="45.99761" lon="4.8313">
        <ele>271</ele>
        <time>2017-08-17T09:42:35Z</time>
      </trkpt>
      <trkpt lat="45.99761" lon="4.83124">
        <ele>271</ele>
        <time>2017-08-17T09:42:36Z</time>
      </trkpt>
      <trkpt lat="45.9976" lon="4.83113">
        <ele>271</ele>
        <time>2017-08-17T09:42:38Z</time>
      </trkpt>
      <trkpt lat="45.99759" lon="4.83108">
        <ele>271</ele>
        <time>2017-08-17T09:42:39Z</time>
      </trkpt>
      <trkpt lat="45.99759" lon="4.83098">
        <ele>272</ele>
        <time>2017-08-17T09:42:41Z</time>
      </trkpt>
      <trkpt lat="45.99759" lon="4.83093">
        <ele>272</ele>
        <time>2017-08-17T09:42:42Z</time>
      </trkpt>
      <trkpt lat="45.99758" lon="4.83082">
        <ele>272</ele>
        <time>2017-08-17T09:42:44Z</time>
      </trkpt>
      <trkpt lat="45.99758" lon="4.83077">
        <ele>272</ele>
        <time>2017-08-17T09:42:45Z</time>
      </trkpt>
      <trkpt lat="45.99755" lon="4.83067">
        <ele>272</ele>
        <time>2017-08-17T09:42:47Z</time>
      </trkpt>
      <trkpt lat="45.99754" lon="4.83061">
        <ele>272</ele>
        <time>2017-08-17T09:42:48Z</time>
      </trkpt>
      <trkpt lat="45.99752" lon="4.83049">
        <ele>272</ele>
        <time>2017-08-17T09:42:50Z</time>
      </trkpt>
      <trkpt lat="45.99751" lon="4.83043">
        <ele>272</ele>
        <time>2017-08-17T09:42:51Z</time>
      </trkpt>
      <trkpt lat="45.99748" lon="4.83031">
        <ele>271</ele>
        <time>2017-08-17T09:42:53Z</time>
      </trkpt>
      <trkpt lat="45.99746" lon="4.83025">
        <ele>271</ele>
        <time>2017-08-17T09:42:54Z</time>
      </trkpt>
      <trkpt lat="45.99743" lon="4.83014">
        <ele>271</ele>
        <time>2017-08-17T09:42:56Z</time>
      </trkpt>
      <trkpt lat="45.99741" lon="4.83008">
        <ele>271</ele>
        <time>2017-08-17T09:42:57Z</time>
      </trkpt>
      <trkpt lat="45.99739" lon="4.82999">
        <ele>271</ele>
        <time>2017-08-17T09:42:59Z</time>
      </trkpt>
      <trkpt lat="45.99737" lon="4.82994">
        <ele>271</ele>
        <time>2017-08-17T09:43:00Z</time>
      </trkpt>
      <trkpt lat="45.99734" lon="4.82983">
        <ele>271</ele>
        <time>2017-08-17T09:43:02Z</time>
      </trkpt>
      <trkpt lat="45.99732" lon="4.82977">
        <ele>271</ele>
        <time>2017-08-17T09:43:03Z</time>
      </trkpt>
      <trkpt lat="45.9973" lon="4.82969">
        <ele>271</ele>
        <time>2017-08-17T09:43:04Z</time>
      </trkpt>
      <trkpt lat="45.99728" lon="4.82963">
        <ele>271</ele>
        <time>2017-08-17T09:43:05Z</time>
      </trkpt>
      <trkpt lat="45.99724" lon="4.82952">
        <ele>271</ele>
        <time>2017-08-17T09:43:07Z</time>
      </trkpt>
      <trkpt lat="45.99722" lon="4.82947">
        <ele>271</ele>
        <time>2017-08-17T09:43:08Z</time>
      </trkpt>
      <trkpt lat="45.99719" lon="4.82938">
        <ele>271</ele>
        <time>2017-08-17T09:43:10Z</time>
      </trkpt>
      <trkpt lat="45.99718" lon="4.82933">
        <ele>271</ele>
        <time>2017-08-17T09:43:11Z</time>
      </trkpt>
      <trkpt lat="45.99715" lon="4.82922">
        <ele>271</ele>
        <time>2017-08-17T09:43:13Z</time>
      </trkpt>
      <trkpt lat="45.99713" lon="4.82916">
        <ele>271</ele>
        <time>2017-08-17T09:43:14Z</time>
      </trkpt>
      <trkpt lat="45.99711" lon="4.8291">
        <ele>271</ele>
        <time>2017-08-17T09:43:15Z</time>
      </trkpt>
      <trkpt lat="45.99709" lon="4.82903">
        <ele>271</ele>
        <time>2017-08-17T09:43:16Z</time>
      </trkpt>
      <trkpt lat="45.99707" lon="4.82897">
        <ele>271</ele>
        <time>2017-08-17T09:43:17Z</time>
      </trkpt>
      <trkpt lat="45.99705" lon="4.8289">
        <ele>271</ele>
        <time>2017-08-17T09:43:18Z</time>
      </trkpt>
      <trkpt lat="45.99703" lon="4.82883">
        <ele>271</ele>
        <time>2017-08-17T09:43:19Z</time>
      </trkpt>
      <trkpt lat="45.99701" lon="4.82877">
        <ele>271</ele>
        <time>2017-08-17T09:43:20Z</time>
      </trkpt>
      <trkpt lat="45.99698" lon="4.8287">
        <ele>270</ele>
        <time>2017-08-17T09:43:21Z</time>
      </trkpt>
      <trkpt lat="45.99696" lon="4.82864">
        <ele>270</ele>
        <time>2017-08-17T09:43:22Z</time>
      </trkpt>
      <trkpt lat="45.99694" lon="4.82857">
        <ele>270</ele>
        <time>2017-08-17T09:43:23Z</time>
      </trkpt>
      <trkpt lat="45.99692" lon="4.8285">
        <ele>270</ele>
        <time>2017-08-17T09:43:24Z</time>
      </trkpt>
      <trkpt lat="45.9969" lon="4.82844">
        <ele>270</ele>
        <time>2017-08-17T09:43:25Z</time>
      </trkpt>
      <trkpt lat="45.99688" lon="4.82837">
        <ele>270</ele>
        <time>2017-08-17T09:43:26Z</time>
      </trkpt>
      <trkpt lat="45.99686" lon="4.82831">
        <ele>270</ele>
        <time>2017-08-17T09:43:27Z</time>
      </trkpt>
      <trkpt lat="45.99684" lon="4.82824">
        <ele>270</ele>
        <time>2017-08-17T09:43:28Z</time>
      </trkpt>
      <trkpt lat="45.99682" lon="4.82818">
        <ele>270</ele>
        <time>2017-08-17T09:43:29Z</time>
      </trkpt>
      <trkpt lat="45.99681" lon="4.82811">
        <ele>270</ele>
        <time>2017-08-17T09:43:30Z</time>
      </trkpt>
      <trkpt lat="45.99679" lon="4.82803">
        <ele>270</ele>
        <time>2017-08-17T09:43:31Z</time>
      </trkpt>
      <trkpt lat="45.99677" lon="4.82796">
        <ele>270</ele>
        <time>2017-08-17T09:43:32Z</time>
      </trkpt>
      <trkpt lat="45.99676" lon="4.82788">
        <ele>269</ele>
        <time>2017-08-17T09:43:33Z</time>
      </trkpt>
      <trkpt lat="45.99674" lon="4.8278">
        <ele>269</ele>
        <time>2017-08-17T09:43:34Z</time>
      </trkpt>
      <trkpt lat="45.99673" lon="4.82772">
        <ele>269</ele>
        <time>2017-08-17T09:43:35Z</time>
      </trkpt>
      <trkpt lat="45.99672" lon="4.82764">
        <ele>269</ele>
        <time>2017-08-17T09:43:36Z</time>
      </trkpt>
      <trkpt lat="45.99672" lon="4.82755">
        <ele>269</ele>
        <time>2017-08-17T09:43:37Z</time>
      </trkpt>
      <trkpt lat="45.99671" lon="4.82746">
        <ele>269</ele>
        <time>2017-08-17T09:43:38Z</time>
      </trkpt>
      <trkpt lat="45.9967" lon="4.82738">
        <ele>269</ele>
        <time>2017-08-17T09:43:39Z</time>
      </trkpt>
      <trkpt lat="45.99669" lon="4.8273">
        <ele>269</ele>
        <time>2017-08-17T09:43:40Z</time>
      </trkpt>
      <trkpt lat="45.99668" lon="4.82722">
        <ele>269</ele>
        <time>2017-08-17T09:43:41Z</time>
      </trkpt>
      <trkpt lat="45.99666" lon="4.82714">
        <ele>268</ele>
        <time>2017-08-17T09:43:42Z</time>
      </trkpt>
      <trkpt lat="45.99666" lon="4.82705">
        <ele>268</ele>
        <time>2017-08-17T09:43:43Z</time>
      </trkpt>
      <trkpt lat="45.99665" lon="4.82697">
        <ele>268</ele>
        <time>2017-08-17T09:43:44Z</time>
      </trkpt>
      <trkpt lat="45.99664" lon="4.82688">
        <ele>268</ele>
        <time>2017-08-17T09:43:45Z</time>
      </trkpt>
      <trkpt lat="45.99663" lon="4.8268">
        <ele>268</ele>
        <time>2017-08-17T09:43:46Z</time>
      </trkpt>
      <trkpt lat="45.99662" lon="4.82672">
        <ele>268</ele>
        <time>2017-08-17T09:43:47Z</time>
      </trkpt>
      <trkpt lat="45.9966" lon="4.82664">
        <ele>268</ele>
        <time>2017-08-17T09:43:48Z</time>
      </trkpt>
      <trkpt lat="45.99659" lon="4.82657">
        <ele>268</ele>
        <time>2017-08-17T09:43:49Z</time>
      </trkpt>
      <trkpt lat="45.99657" lon="4.82649">
        <ele>267</ele>
        <time>2017-08-17T09:43:50Z</time>
      </trkpt>
      <trkpt lat="45.99656" lon="4.82642">
        <ele>267</ele>
        <time>2017-08-17T09:43:51Z</time>
      </trkpt>
      <trkpt lat="45.99654" lon="4.82634">
        <ele>267</ele>
        <time>2017-08-17T09:43:52Z</time>
      </trkpt>
      <trkpt lat="45.99653" lon="4.82626">
        <ele>267</ele>
        <time>2017-08-17T09:43:53Z</time>
      </trkpt>
      <trkpt lat="45.99651" lon="4.82617">
        <ele>267</ele>
        <time>2017-08-17T09:43:54Z</time>
      </trkpt>
      <trkpt lat="45.9965" lon="4.82609">
        <ele>267</ele>
        <time>2017-08-17T09:43:55Z</time>
      </trkpt>
      <trkpt lat="45.99649" lon="4.826">
        <ele>267</ele>
        <time>2017-08-17T09:43:56Z</time>
      </trkpt>
      <trkpt lat="45.99647" lon="4.82592">
        <ele>267</ele>
        <time>2017-08-17T09:43:57Z</time>
      </trkpt>
      <trkpt lat="45.99645" lon="4.82584">
        <ele>267</ele>
        <time>2017-08-17T09:43:58Z</time>
      </trkpt>
      <trkpt lat="45.99644" lon="4.82575">
        <ele>266</ele>
        <time>2017-08-17T09:43:59Z</time>
      </trkpt>
      <trkpt lat="45.99642" lon="4.82567">
        <ele>266</ele>
        <time>2017-08-17T09:44:00Z</time>
      </trkpt>
      <trkpt lat="45.9964" lon="4.82559">
        <ele>266</ele>
        <time>2017-08-17T09:44:01Z</time>
      </trkpt>
      <trkpt lat="45.99638" lon="4.82551">
        <ele>266</ele>
        <time>2017-08-17T09:44:02Z</time>
      </trkpt>
      <trkpt lat="45.99637" lon="4.82543">
        <ele>266</ele>
        <time>2017-08-17T09:44:03Z</time>
      </trkpt>
      <trkpt lat="45.99636" lon="4.82535">
        <ele>266</ele>
        <time>2017-08-17T09:44:04Z</time>
      </trkpt>
      <trkpt lat="45.99634" lon="4.82527">
        <ele>266</ele>
        <time>2017-08-17T09:44:05Z</time>
      </trkpt>
      <trkpt lat="45.99633" lon="4.8252">
        <ele>266</ele>
        <time>2017-08-17T09:44:06Z</time>
      </trkpt>
      <trkpt lat="45.99631" lon="4.82512">
        <ele>266</ele>
        <time>2017-08-17T09:44:07Z</time>
      </trkpt>
      <trkpt lat="45.99629" lon="4.82505">
        <ele>265</ele>
        <time>2017-08-17T09:44:08Z</time>
      </trkpt>
      <trkpt lat="45.99627" lon="4.82497">
        <ele>265</ele>
        <time>2017-08-17T09:44:09Z</time>
      </trkpt>
      <trkpt lat="45.99624" lon="4.82489">
        <ele>265</ele>
        <time>2017-08-17T09:44:10Z</time>
      </trkpt>
      <trkpt lat="45.99622" lon="4.82482">
        <ele>265</ele>
        <time>2017-08-17T09:44:11Z</time>
      </trkpt>
      <trkpt lat="45.9962" lon="4.82474">
        <ele>265</ele>
        <time>2017-08-17T09:44:12Z</time>
      </trkpt>
      <trkpt lat="45.99618" lon="4.82465">
        <ele>265</ele>
        <time>2017-08-17T09:44:13Z</time>
      </trkpt>
      <trkpt lat="45.99614" lon="4.82457">
        <ele>265</ele>
        <time>2017-08-17T09:44:14Z</time>
      </trkpt>
      <trkpt lat="45.99611" lon="4.8245">
        <ele>265</ele>
        <time>2017-08-17T09:44:15Z</time>
      </trkpt>
      <trkpt lat="45.99607" lon="4.82442">
        <ele>264</ele>
        <time>2017-08-17T09:44:16Z</time>
      </trkpt>
      <trkpt lat="45.99603" lon="4.82434">
        <ele>264</ele>
        <time>2017-08-17T09:44:17Z</time>
      </trkpt>
      <trkpt lat="45.99599" lon="4.82426">
        <ele>264</ele>
        <time>2017-08-17T09:44:18Z</time>
      </trkpt>
      <trkpt lat="45.99596" lon="4.82417">
        <ele>263</ele>
        <time>2017-08-17T09:44:19Z</time>
      </trkpt>
      <trkpt lat="45.99593" lon="4.82407">
        <ele>263</ele>
        <time>2017-08-17T09:44:20Z</time>
      </trkpt>
      <trkpt lat="45.99591" lon="4.82398">
        <ele>264</ele>
        <time>2017-08-17T09:44:21Z</time>
      </trkpt>
      <trkpt lat="45.99589" lon="4.82387">
        <ele>264</ele>
        <time>2017-08-17T09:44:22Z</time>
      </trkpt>
      <trkpt lat="45.99587" lon="4.82377">
        <ele>264</ele>
        <time>2017-08-17T09:44:23Z</time>
      </trkpt>
      <trkpt lat="45.99586" lon="4.82366">
        <ele>264</ele>
        <time>2017-08-17T09:44:24Z</time>
      </trkpt>
      <trkpt lat="45.99584" lon="4.82355">
        <ele>264</ele>
        <time>2017-08-17T09:44:25Z</time>
      </trkpt>
      <trkpt lat="45.99583" lon="4.82344">
        <ele>262</ele>
        <time>2017-08-17T09:44:26Z</time>
      </trkpt>
      <trkpt lat="45.99581" lon="4.82333">
        <ele>263</ele>
        <time>2017-08-17T09:44:27Z</time>
      </trkpt>
      <trkpt lat="45.99579" lon="4.82322">
        <ele>262</ele>
        <time>2017-08-17T09:44:28Z</time>
      </trkpt>
      <trkpt lat="45.99576" lon="4.8231">
        <ele>262</ele>
        <time>2017-08-17T09:44:29Z</time>
      </trkpt>
      <trkpt lat="45.99574" lon="4.82299">
        <ele>262</ele>
        <time>2017-08-17T09:44:30Z</time>
      </trkpt>
      <trkpt lat="45.99572" lon="4.82288">
        <ele>262</ele>
        <time>2017-08-17T09:44:31Z</time>
      </trkpt>
      <trkpt lat="45.99569" lon="4.82277">
        <ele>262</ele>
        <time>2017-08-17T09:44:32Z</time>
      </trkpt>
      <trkpt lat="45.99566" lon="4.82267">
        <ele>262</ele>
        <time>2017-08-17T09:44:33Z</time>
      </trkpt>
      <trkpt lat="45.99563" lon="4.82258">
        <ele>262</ele>
        <time>2017-08-17T09:44:34Z</time>
      </trkpt>
      <trkpt lat="45.9956" lon="4.82248">
        <ele>262</ele>
        <time>2017-08-17T09:44:35Z</time>
      </trkpt>
      <trkpt lat="45.99558" lon="4.82239">
        <ele>262</ele>
        <time>2017-08-17T09:44:36Z</time>
      </trkpt>
      <trkpt lat="45.99554" lon="4.8223">
        <ele>262</ele>
        <time>2017-08-17T09:44:37Z</time>
      </trkpt>
      <trkpt lat="45.99551" lon="4.82221">
        <ele>262</ele>
        <time>2017-08-17T09:44:38Z</time>
      </trkpt>
      <trkpt lat="45.99549" lon="4.82214">
        <ele>262</ele>
        <time>2017-08-17T09:44:39Z</time>
      </trkpt>
      <trkpt lat="45.99546" lon="4.82206">
        <ele>262</ele>
        <time>2017-08-17T09:44:40Z</time>
      </trkpt>
      <trkpt lat="45.99544" lon="4.82199">
        <ele>262</ele>
        <time>2017-08-17T09:44:41Z</time>
      </trkpt>
      <trkpt lat="45.99542" lon="4.82192">
        <ele>262</ele>
        <time>2017-08-17T09:44:42Z</time>
      </trkpt>
      <trkpt lat="45.99541" lon="4.82184">
        <ele>262</ele>
        <time>2017-08-17T09:44:43Z</time>
      </trkpt>
      <trkpt lat="45.99539" lon="4.82177">
        <ele>262</ele>
        <time>2017-08-17T09:44:44Z</time>
      </trkpt>
      <trkpt lat="45.99538" lon="4.8217">
        <ele>262</ele>
        <time>2017-08-17T09:44:45Z</time>
      </trkpt>
      <trkpt lat="45.99537" lon="4.82162">
        <ele>263</ele>
        <time>2017-08-17T09:44:46Z</time>
      </trkpt>
      <trkpt lat="45.99536" lon="4.82155">
        <ele>263</ele>
        <time>2017-08-17T09:44:47Z</time>
      </trkpt>
      <trkpt lat="45.99534" lon="4.82147">
        <ele>263</ele>
        <time>2017-08-17T09:44:48Z</time>
      </trkpt>
      <trkpt lat="45.99532" lon="4.82138">
        <ele>263</ele>
        <time>2017-08-17T09:44:49Z</time>
      </trkpt>
      <trkpt lat="45.99531" lon="4.82129">
        <ele>263</ele>
        <time>2017-08-17T09:44:50Z</time>
      </trkpt>
      <trkpt lat="45.9953" lon="4.82119">
        <ele>263</ele>
        <time>2017-08-17T09:44:51Z</time>
      </trkpt>
      <trkpt lat="45.99528" lon="4.82109">
        <ele>262</ele>
        <time>2017-08-17T09:44:52Z</time>
      </trkpt>
      <trkpt lat="45.99527" lon="4.82099">
        <ele>262</ele>
        <time>2017-08-17T09:44:53Z</time>
      </trkpt>
      <trkpt lat="45.99526" lon="4.82089">
        <ele>262</ele>
        <time>2017-08-17T09:44:54Z</time>
      </trkpt>
      <trkpt lat="45.99526" lon="4.82078">
        <ele>262</ele>
        <time>2017-08-17T09:44:55Z</time>
      </trkpt>
      <trkpt lat="45.99525" lon="4.82068">
        <ele>262</ele>
        <time>2017-08-17T09:44:56Z</time>
      </trkpt>
      <trkpt lat="45.99524" lon="4.82058">
        <ele>262</ele>
        <time>2017-08-17T09:44:57Z</time>
      </trkpt>
      <trkpt lat="45.99523" lon="4.82048">
        <ele>262</ele>
        <time>2017-08-17T09:44:58Z</time>
      </trkpt>
      <trkpt lat="45.99522" lon="4.82039">
        <ele>262</ele>
        <time>2017-08-17T09:44:59Z</time>
      </trkpt>
      <trkpt lat="45.9952" lon="4.82031">
        <ele>261</ele>
        <time>2017-08-17T09:45:00Z</time>
      </trkpt>
      <trkpt lat="45.99519" lon="4.82022">
        <ele>261</ele>
        <time>2017-08-17T09:45:01Z</time>
      </trkpt>
      <trkpt lat="45.99518" lon="4.82013">
        <ele>261</ele>
        <time>2017-08-17T09:45:02Z</time>
      </trkpt>
      <trkpt lat="45.99517" lon="4.82005">
        <ele>261</ele>
        <time>2017-08-17T09:45:03Z</time>
      </trkpt>
      <trkpt lat="45.99516" lon="4.81997">
        <ele>260</ele>
        <time>2017-08-17T09:45:04Z</time>
      </trkpt>
      <trkpt lat="45.99515" lon="4.81988">
        <ele>260</ele>
        <time>2017-08-17T09:45:05Z</time>
      </trkpt>
      <trkpt lat="45.99514" lon="4.8198">
        <ele>261</ele>
        <time>2017-08-17T09:45:06Z</time>
      </trkpt>
      <trkpt lat="45.99514" lon="4.81972">
        <ele>261</ele>
        <time>2017-08-17T09:45:07Z</time>
      </trkpt>
      <trkpt lat="45.99513" lon="4.81964">
        <ele>261</ele>
        <time>2017-08-17T09:45:08Z</time>
      </trkpt>
      <trkpt lat="45.99512" lon="4.81956">
        <ele>261</ele>
        <time>2017-08-17T09:45:09Z</time>
      </trkpt>
      <trkpt lat="45.99511" lon="4.81948">
        <ele>261</ele>
        <time>2017-08-17T09:45:10Z</time>
      </trkpt>
      <trkpt lat="45.9951" lon="4.8194">
        <ele>260</ele>
        <time>2017-08-17T09:45:11Z</time>
      </trkpt>
      <trkpt lat="45.99508" lon="4.81932">
        <ele>260</ele>
        <time>2017-08-17T09:45:12Z</time>
      </trkpt>
      <trkpt lat="45.99507" lon="4.81924">
        <ele>260</ele>
        <time>2017-08-17T09:45:13Z</time>
      </trkpt>
      <trkpt lat="45.99507" lon="4.81916">
        <ele>260</ele>
        <time>2017-08-17T09:45:14Z</time>
      </trkpt>
      <trkpt lat="45.99506" lon="4.81907">
        <ele>260</ele>
        <time>2017-08-17T09:45:15Z</time>
      </trkpt>
      <trkpt lat="45.99505" lon="4.81899">
        <ele>261</ele>
        <time>2017-08-17T09:45:16Z</time>
      </trkpt>
      <trkpt lat="45.99504" lon="4.81891">
        <ele>261</ele>
        <time>2017-08-17T09:45:17Z</time>
      </trkpt>
      <trkpt lat="45.99504" lon="4.81883">
        <ele>261</ele>
        <time>2017-08-17T09:45:18Z</time>
      </trkpt>
      <trkpt lat="45.99503" lon="4.81876">
        <ele>261</ele>
        <time>2017-08-17T09:45:19Z</time>
      </trkpt>
      <trkpt lat="45.99503" lon="4.81868">
        <ele>262</ele>
        <time>2017-08-17T09:45:20Z</time>
      </trkpt>
      <trkpt lat="45.99502" lon="4.81861">
        <ele>262</ele>
        <time>2017-08-17T09:45:21Z</time>
      </trkpt>
      <trkpt lat="45.99502" lon="4.81853">
        <ele>262</ele>
        <time>2017-08-17T09:45:22Z</time>
      </trkpt>
      <trkpt lat="45.995" lon="4.81845">
        <ele>262</ele>
        <time>2017-08-17T09:45:23Z</time>
      </trkpt>
      <trkpt lat="45.99499" lon="4.81837">
        <ele>262</ele>
        <time>2017-08-17T09:45:24Z</time>
      </trkpt>
      <trkpt lat="45.99498" lon="4.81829">
        <ele>262</ele>
        <time>2017-08-17T09:45:25Z</time>
      </trkpt>
      <trkpt lat="45.99497" lon="4.81821">
        <ele>262</ele>
        <time>2017-08-17T09:45:26Z</time>
      </trkpt>
      <trkpt lat="45.99496" lon="4.81813">
        <ele>262</ele>
        <time>2017-08-17T09:45:27Z</time>
      </trkpt>
      <trkpt lat="45.99495" lon="4.81805">
        <ele>262</ele>
        <time>2017-08-17T09:45:28Z</time>
      </trkpt>
      <trkpt lat="45.99494" lon="4.81797">
        <ele>262</ele>
        <time>2017-08-17T09:45:29Z</time>
      </trkpt>
      <trkpt lat="45.99493" lon="4.81789">
        <ele>262</ele>
        <time>2017-08-17T09:45:30Z</time>
      </trkpt>
      <trkpt lat="45.99492" lon="4.81781">
        <ele>262</ele>
        <time>2017-08-17T09:45:31Z</time>
      </trkpt>
      <trkpt lat="45.99492" lon="4.81774">
        <ele>262</ele>
        <time>2017-08-17T09:45:32Z</time>
      </trkpt>
      <trkpt lat="45.99492" lon="4.81766">
        <ele>262</ele>
        <time>2017-08-17T09:45:33Z</time>
      </trkpt>
      <trkpt lat="45.99491" lon="4.81758">
        <ele>262</ele>
        <time>2017-08-17T09:45:34Z</time>
      </trkpt>
      <trkpt lat="45.9949" lon="4.8175">
        <ele>262</ele>
        <time>2017-08-17T09:45:35Z</time>
      </trkpt>
      <trkpt lat="45.99489" lon="4.81742">
        <ele>262</ele>
        <time>2017-08-17T09:45:36Z</time>
      </trkpt>
      <trkpt lat="45.99488" lon="4.81732">
        <ele>261</ele>
        <time>2017-08-17T09:45:37Z</time>
      </trkpt>
      <trkpt lat="45.99486" lon="4.81722">
        <ele>261</ele>
        <time>2017-08-17T09:45:38Z</time>
      </trkpt>
      <trkpt lat="45.99485" lon="4.81713">
        <ele>261</ele>
        <time>2017-08-17T09:45:39Z</time>
      </trkpt>
      <trkpt lat="45.99484" lon="4.81703">
        <ele>261</ele>
        <time>2017-08-17T09:45:40Z</time>
      </trkpt>
      <trkpt lat="45.99483" lon="4.81692">
        <ele>261</ele>
        <time>2017-08-17T09:45:41Z</time>
      </trkpt>
      <trkpt lat="45.99481" lon="4.81682">
        <ele>261</ele>
        <time>2017-08-17T09:45:42Z</time>
      </trkpt>
      <trkpt lat="45.99479" lon="4.81671">
        <ele>261</ele>
        <time>2017-08-17T09:45:43Z</time>
      </trkpt>
      <trkpt lat="45.99478" lon="4.81661">
        <ele>259</ele>
        <time>2017-08-17T09:45:44Z</time>
      </trkpt>
      <trkpt lat="45.99477" lon="4.81651">
        <ele>259</ele>
        <time>2017-08-17T09:45:45Z</time>
      </trkpt>
      <trkpt lat="45.99475" lon="4.81641">
        <ele>258</ele>
        <time>2017-08-17T09:45:46Z</time>
      </trkpt>
      <trkpt lat="45.99474" lon="4.8163">
        <ele>258</ele>
        <time>2017-08-17T09:45:47Z</time>
      </trkpt>
      <trkpt lat="45.99473" lon="4.8162">
        <ele>258</ele>
        <time>2017-08-17T09:45:48Z</time>
      </trkpt>
      <trkpt lat="45.99471" lon="4.8161">
        <ele>258</ele>
        <time>2017-08-17T09:45:49Z</time>
      </trkpt>
      <trkpt lat="45.9947" lon="4.816">
        <ele>257</ele>
        <time>2017-08-17T09:45:50Z</time>
      </trkpt>
      <trkpt lat="45.99468" lon="4.8159">
        <ele>257</ele>
        <time>2017-08-17T09:45:51Z</time>
      </trkpt>
      <trkpt lat="45.99466" lon="4.81581">
        <ele>255</ele>
        <time>2017-08-17T09:45:52Z</time>
      </trkpt>
      <trkpt lat="45.99465" lon="4.81572">
        <ele>255</ele>
        <time>2017-08-17T09:45:53Z</time>
      </trkpt>
      <trkpt lat="45.99463" lon="4.81562">
        <ele>255</ele>
        <time>2017-08-17T09:45:54Z</time>
      </trkpt>
      <trkpt lat="45.99462" lon="4.81553">
        <ele>255</ele>
        <time>2017-08-17T09:45:55Z</time>
      </trkpt>
      <trkpt lat="45.9946" lon="4.81543">
        <ele>255</ele>
        <time>2017-08-17T09:45:56Z</time>
      </trkpt>
      <trkpt lat="45.99459" lon="4.81534">
        <ele>255</ele>
        <time>2017-08-17T09:45:57Z</time>
      </trkpt>
      <trkpt lat="45.99458" lon="4.81524">
        <ele>255</ele>
        <time>2017-08-17T09:45:58Z</time>
      </trkpt>
      <trkpt lat="45.99456" lon="4.81514">
        <ele>255</ele>
        <time>2017-08-17T09:45:59Z</time>
      </trkpt>
      <trkpt lat="45.99455" lon="4.81505">
        <ele>255</ele>
        <time>2017-08-17T09:46:00Z</time>
      </trkpt>
      <trkpt lat="45.99454" lon="4.81495">
        <ele>254</ele>
        <time>2017-08-17T09:46:01Z</time>
      </trkpt>
      <trkpt lat="45.99452" lon="4.81486">
        <ele>254</ele>
        <time>2017-08-17T09:46:02Z</time>
      </trkpt>
      <trkpt lat="45.99451" lon="4.81476">
        <ele>254</ele>
        <time>2017-08-17T09:46:03Z</time>
      </trkpt>
      <trkpt lat="45.99449" lon="4.81466">
        <ele>254</ele>
        <time>2017-08-17T09:46:04Z</time>
      </trkpt>
      <trkpt lat="45.99448" lon="4.81456">
        <ele>254</ele>
        <time>2017-08-17T09:46:05Z</time>
      </trkpt>
      <trkpt lat="45.99447" lon="4.81447">
        <ele>254</ele>
        <time>2017-08-17T09:46:06Z</time>
      </trkpt>
      <trkpt lat="45.99446" lon="4.81438">
        <ele>254</ele>
        <time>2017-08-17T09:46:07Z</time>
      </trkpt>
      <trkpt lat="45.99444" lon="4.81429">
        <ele>254</ele>
        <time>2017-08-17T09:46:08Z</time>
      </trkpt>
      <trkpt lat="45.99443" lon="4.81419">
        <ele>254</ele>
        <time>2017-08-17T09:46:09Z</time>
      </trkpt>
      <trkpt lat="45.99442" lon="4.81409">
        <ele>254</ele>
        <time>2017-08-17T09:46:10Z</time>
      </trkpt>
      <trkpt lat="45.9944" lon="4.81398">
        <ele>254</ele>
        <time>2017-08-17T09:46:11Z</time>
      </trkpt>
      <trkpt lat="45.99439" lon="4.81388">
        <ele>254</ele>
        <time>2017-08-17T09:46:12Z</time>
      </trkpt>
      <trkpt lat="45.99438" lon="4.81377">
        <ele>254</ele>
        <time>2017-08-17T09:46:13Z</time>
      </trkpt>
      <trkpt lat="45.99436" lon="4.81367">
        <ele>254</ele>
        <time>2017-08-17T09:46:14Z</time>
      </trkpt>
      <trkpt lat="45.99435" lon="4.81357">
        <ele>254</ele>
        <time>2017-08-17T09:46:15Z</time>
      </trkpt>
      <trkpt lat="45.99434" lon="4.81347">
        <ele>254</ele>
        <time>2017-08-17T09:46:16Z</time>
      </trkpt>
      <trkpt lat="45.99433" lon="4.81337">
        <ele>254</ele>
        <time>2017-08-17T09:46:17Z</time>
      </trkpt>
      <trkpt lat="45.99432" lon="4.81327">
        <ele>254</ele>
        <time>2017-08-17T09:46:18Z</time>
      </trkpt>
      <trkpt lat="45.99431" lon="4.81317">
        <ele>254</ele>
        <time>2017-08-17T09:46:19Z</time>
      </trkpt>
      <trkpt lat="45.9943" lon="4.81307">
        <ele>253</ele>
        <time>2017-08-17T09:46:20Z</time>
      </trkpt>
      <trkpt lat="45.99429" lon="4.81298">
        <ele>253</ele>
        <time>2017-08-17T09:46:21Z</time>
      </trkpt>
      <trkpt lat="45.99427" lon="4.81289">
        <ele>253</ele>
        <time>2017-08-17T09:46:22Z</time>
      </trkpt>
      <trkpt lat="45.99425" lon="4.81279">
        <ele>253</ele>
        <time>2017-08-17T09:46:23Z</time>
      </trkpt>
      <trkpt lat="45.99423" lon="4.81269">
        <ele>253</ele>
        <time>2017-08-17T09:46:24Z</time>
      </trkpt>
      <trkpt lat="45.99422" lon="4.8126">
        <ele>252</ele>
        <time>2017-08-17T09:46:25Z</time>
      </trkpt>
      <trkpt lat="45.9942" lon="4.81251">
        <ele>252</ele>
        <time>2017-08-17T09:46:26Z</time>
      </trkpt>
      <trkpt lat="45.99419" lon="4.81241">
        <ele>252</ele>
        <time>2017-08-17T09:46:27Z</time>
      </trkpt>
      <trkpt lat="45.99418" lon="4.81232">
        <ele>251</ele>
        <time>2017-08-17T09:46:28Z</time>
      </trkpt>
      <trkpt lat="45.99417" lon="4.81223">
        <ele>252</ele>
        <time>2017-08-17T09:46:29Z</time>
      </trkpt>
      <trkpt lat="45.99415" lon="4.81214">
        <ele>252</ele>
        <time>2017-08-17T09:46:30Z</time>
      </trkpt>
      <trkpt lat="45.99414" lon="4.81205">
        <ele>252</ele>
        <time>2017-08-17T09:46:31Z</time>
      </trkpt>
      <trkpt lat="45.99413" lon="4.81195">
        <ele>252</ele>
        <time>2017-08-17T09:46:32Z</time>
      </trkpt>
      <trkpt lat="45.99412" lon="4.81186">
        <ele>251</ele>
        <time>2017-08-17T09:46:33Z</time>
      </trkpt>
      <trkpt lat="45.99411" lon="4.81176">
        <ele>251</ele>
        <time>2017-08-17T09:46:34Z</time>
      </trkpt>
      <trkpt lat="45.99409" lon="4.81165">
        <ele>251</ele>
        <time>2017-08-17T09:46:35Z</time>
      </trkpt>
      <trkpt lat="45.99408" lon="4.81155">
        <ele>251</ele>
        <time>2017-08-17T09:46:36Z</time>
      </trkpt>
      <trkpt lat="45.99406" lon="4.81144">
        <ele>251</ele>
        <time>2017-08-17T09:46:37Z</time>
      </trkpt>
      <trkpt lat="45.99404" lon="4.81134">
        <ele>251</ele>
        <time>2017-08-17T09:46:38Z</time>
      </trkpt>
      <trkpt lat="45.99403" lon="4.81123">
        <ele>251</ele>
        <time>2017-08-17T09:46:39Z</time>
      </trkpt>
      <trkpt lat="45.99401" lon="4.81113">
        <ele>251</ele>
        <time>2017-08-17T09:46:40Z</time>
      </trkpt>
      <trkpt lat="45.994" lon="4.81104">
        <ele>251</ele>
        <time>2017-08-17T09:46:41Z</time>
      </trkpt>
      <trkpt lat="45.99398" lon="4.81093">
        <ele>251</ele>
        <time>2017-08-17T09:46:42Z</time>
      </trkpt>
      <trkpt lat="45.99396" lon="4.81083">
        <ele>251</ele>
        <time>2017-08-17T09:46:43Z</time>
      </trkpt>
      <trkpt lat="45.99395" lon="4.81074">
        <ele>251</ele>
        <time>2017-08-17T09:46:44Z</time>
      </trkpt>
      <trkpt lat="45.99393" lon="4.81065">
        <ele>251</ele>
        <time>2017-08-17T09:46:45Z</time>
      </trkpt>
      <trkpt lat="45.99392" lon="4.81056">
        <ele>251</ele>
        <time>2017-08-17T09:46:46Z</time>
      </trkpt>
      <trkpt lat="45.99391" lon="4.81047">
        <ele>251</ele>
        <time>2017-08-17T09:46:47Z</time>
      </trkpt>
      <trkpt lat="45.9939" lon="4.81039">
        <ele>251</ele>
        <time>2017-08-17T09:46:48Z</time>
      </trkpt>
      <trkpt lat="45.99389" lon="4.8103">
        <ele>251</ele>
        <time>2017-08-17T09:46:49Z</time>
      </trkpt>
      <trkpt lat="45.99388" lon="4.81022">
        <ele>251</ele>
        <time>2017-08-17T09:46:50Z</time>
      </trkpt>
      <trkpt lat="45.99387" lon="4.81012">
        <ele>251</ele>
        <time>2017-08-17T09:46:51Z</time>
      </trkpt>
      <trkpt lat="45.99386" lon="4.81003">
        <ele>251</ele>
        <time>2017-08-17T09:46:52Z</time>
      </trkpt>
      <trkpt lat="45.99384" lon="4.80994">
        <ele>250</ele>
        <time>2017-08-17T09:46:53Z</time>
      </trkpt>
      <trkpt lat="45.99383" lon="4.80985">
        <ele>250</ele>
        <time>2017-08-17T09:46:54Z</time>
      </trkpt>
      <trkpt lat="45.99382" lon="4.80976">
        <ele>250</ele>
        <time>2017-08-17T09:46:55Z</time>
      </trkpt>
      <trkpt lat="45.99381" lon="4.80967">
        <ele>250</ele>
        <time>2017-08-17T09:46:56Z</time>
      </trkpt>
      <trkpt lat="45.9938" lon="4.80958">
        <ele>250</ele>
        <time>2017-08-17T09:46:57Z</time>
      </trkpt>
      <trkpt lat="45.99378" lon="4.80948">
        <ele>250</ele>
        <time>2017-08-17T09:46:58Z</time>
      </trkpt>
      <trkpt lat="45.99377" lon="4.80939">
        <ele>250</ele>
        <time>2017-08-17T09:46:59Z</time>
      </trkpt>
      <trkpt lat="45.99375" lon="4.8093">
        <ele>250</ele>
        <time>2017-08-17T09:47:00Z</time>
      </trkpt>
      <trkpt lat="45.99374" lon="4.8092">
        <ele>250</ele>
        <time>2017-08-17T09:47:01Z</time>
      </trkpt>
      <trkpt lat="45.99372" lon="4.8091">
        <ele>248</ele>
        <time>2017-08-17T09:47:02Z</time>
      </trkpt>
      <trkpt lat="45.99371" lon="4.80901">
        <ele>248</ele>
        <time>2017-08-17T09:47:03Z</time>
      </trkpt>
      <trkpt lat="45.9937" lon="4.80891">
        <ele>248</ele>
        <time>2017-08-17T09:47:04Z</time>
      </trkpt>
      <trkpt lat="45.99368" lon="4.80881">
        <ele>248</ele>
        <time>2017-08-17T09:47:05Z</time>
      </trkpt>
      <trkpt lat="45.99367" lon="4.80871">
        <ele>248</ele>
        <time>2017-08-17T09:47:06Z</time>
      </trkpt>
      <trkpt lat="45.99366" lon="4.8086">
        <ele>248</ele>
        <time>2017-08-17T09:47:07Z</time>
      </trkpt>
      <trkpt lat="45.99364" lon="4.8085">
        <ele>247</ele>
        <time>2017-08-17T09:47:08Z</time>
      </trkpt>
      <trkpt lat="45.99363" lon="4.80839">
        <ele>247</ele>
        <time>2017-08-17T09:47:09Z</time>
      </trkpt>
      <trkpt lat="45.99362" lon="4.80828">
        <ele>246</ele>
        <time>2017-08-17T09:47:10Z</time>
      </trkpt>
      <trkpt lat="45.9936" lon="4.80816">
        <ele>246</ele>
        <time>2017-08-17T09:47:11Z</time>
      </trkpt>
      <trkpt lat="45.99359" lon="4.80805">
        <ele>246</ele>
        <time>2017-08-17T09:47:12Z</time>
      </trkpt>
      <trkpt lat="45.99358" lon="4.80793">
        <ele>246</ele>
        <time>2017-08-17T09:47:13Z</time>
      </trkpt>
      <trkpt lat="45.99356" lon="4.80782">
        <ele>245</ele>
        <time>2017-08-17T09:47:14Z</time>
      </trkpt>
      <trkpt lat="45.99354" lon="4.8077">
        <ele>245</ele>
        <time>2017-08-17T09:47:15Z</time>
      </trkpt>
      <trkpt lat="45.99352" lon="4.80758">
        <ele>245</ele>
        <time>2017-08-17T09:47:16Z</time>
      </trkpt>
      <trkpt lat="45.9935" lon="4.80746">
        <ele>245</ele>
        <time>2017-08-17T09:47:17Z</time>
      </trkpt>
      <trkpt lat="45.99348" lon="4.80735">
        <ele>245</ele>
        <time>2017-08-17T09:47:18Z</time>
      </trkpt>
      <trkpt lat="45.99347" lon="4.80724">
        <ele>244</ele>
        <time>2017-08-17T09:47:19Z</time>
      </trkpt>
      <trkpt lat="45.99346" lon="4.80712">
        <ele>244</ele>
        <time>2017-08-17T09:47:20Z</time>
      </trkpt>
      <trkpt lat="45.99344" lon="4.80701">
        <ele>244</ele>
        <time>2017-08-17T09:47:21Z</time>
      </trkpt>
      <trkpt lat="45.99343" lon="4.80689">
        <ele>244</ele>
        <time>2017-08-17T09:47:22Z</time>
      </trkpt>
      <trkpt lat="45.99342" lon="4.80678">
        <ele>244</ele>
        <time>2017-08-17T09:47:23Z</time>
      </trkpt>
      <trkpt lat="45.99341" lon="4.80667">
        <ele>244</ele>
        <time>2017-08-17T09:47:24Z</time>
      </trkpt>
      <trkpt lat="45.9934" lon="4.80655">
        <ele>244</ele>
        <time>2017-08-17T09:47:25Z</time>
      </trkpt>
      <trkpt lat="45.99338" lon="4.80644">
        <ele>244</ele>
        <time>2017-08-17T09:47:26Z</time>
      </trkpt>
      <trkpt lat="45.99337" lon="4.80633">
        <ele>243</ele>
        <time>2017-08-17T09:47:27Z</time>
      </trkpt>
      <trkpt lat="45.99336" lon="4.80622">
        <ele>243</ele>
        <time>2017-08-17T09:47:28Z</time>
      </trkpt>
      <trkpt lat="45.99335" lon="4.80612">
        <ele>243</ele>
        <time>2017-08-17T09:47:29Z</time>
      </trkpt>
      <trkpt lat="45.99334" lon="4.80601">
        <ele>243</ele>
        <time>2017-08-17T09:47:30Z</time>
      </trkpt>
      <trkpt lat="45.99333" lon="4.80591">
        <ele>242</ele>
        <time>2017-08-17T09:47:31Z</time>
      </trkpt>
      <trkpt lat="45.99332" lon="4.80581">
        <ele>242</ele>
        <time>2017-08-17T09:47:32Z</time>
      </trkpt>
      <trkpt lat="45.99331" lon="4.80571">
        <ele>242</ele>
        <time>2017-08-17T09:47:33Z</time>
      </trkpt>
      <trkpt lat="45.9933" lon="4.80562">
        <ele>242</ele>
        <time>2017-08-17T09:47:34Z</time>
      </trkpt>
      <trkpt lat="45.99329" lon="4.80552">
        <ele>241</ele>
        <time>2017-08-17T09:47:35Z</time>
      </trkpt>
      <trkpt lat="45.99328" lon="4.80543">
        <ele>241</ele>
        <time>2017-08-17T09:47:36Z</time>
      </trkpt>
      <trkpt lat="45.99326" lon="4.80534">
        <ele>241</ele>
        <time>2017-08-17T09:47:37Z</time>
      </trkpt>
      <trkpt lat="45.99325" lon="4.80525">
        <ele>241</ele>
        <time>2017-08-17T09:47:38Z</time>
      </trkpt>
      <trkpt lat="45.99324" lon="4.80516">
        <ele>241</ele>
        <time>2017-08-17T09:47:39Z</time>
      </trkpt>
      <trkpt lat="45.99323" lon="4.80508">
        <ele>241</ele>
        <time>2017-08-17T09:47:40Z</time>
      </trkpt>
      <trkpt lat="45.99322" lon="4.80499">
        <ele>240</ele>
        <time>2017-08-17T09:47:41Z</time>
      </trkpt>
      <trkpt lat="45.99321" lon="4.80491">
        <ele>241</ele>
        <time>2017-08-17T09:47:42Z</time>
      </trkpt>
      <trkpt lat="45.99319" lon="4.80483">
        <ele>241</ele>
        <time>2017-08-17T09:47:43Z</time>
      </trkpt>
      <trkpt lat="45.99318" lon="4.80475">
        <ele>241</ele>
        <time>2017-08-17T09:47:44Z</time>
      </trkpt>
      <trkpt lat="45.99317" lon="4.80468">
        <ele>241</ele>
        <time>2017-08-17T09:47:45Z</time>
      </trkpt>
      <trkpt lat="45.99317" lon="4.80461">
        <ele>241</ele>
        <time>2017-08-17T09:47:46Z</time>
      </trkpt>
      <trkpt lat="45.99317" lon="4.80454">
        <ele>241</ele>
        <time>2017-08-17T09:47:47Z</time>
      </trkpt>
      <trkpt lat="45.99317" lon="4.80446">
        <ele>241</ele>
        <time>2017-08-17T09:47:48Z</time>
      </trkpt>
      <trkpt lat="45.99317" lon="4.80439">
        <ele>241</ele>
        <time>2017-08-17T09:47:49Z</time>
      </trkpt>
      <trkpt lat="45.99318" lon="4.80432">
        <ele>241</ele>
        <time>2017-08-17T09:47:50Z</time>
      </trkpt>
      <trkpt lat="45.9932" lon="4.80425">
        <ele>241</ele>
        <time>2017-08-17T09:47:51Z</time>
      </trkpt>
      <trkpt lat="45.99322" lon="4.80419">
        <ele>241</ele>
        <time>2017-08-17T09:47:52Z</time>
      </trkpt>
      <trkpt lat="45.99324" lon="4.80412">
        <ele>242</ele>
        <time>2017-08-17T09:47:53Z</time>
      </trkpt>
      <trkpt lat="45.99325" lon="4.80405">
        <ele>242</ele>
        <time>2017-08-17T09:47:54Z</time>
      </trkpt>
      <trkpt lat="45.99324" lon="4.80398">
        <ele>242</ele>
        <time>2017-08-17T09:47:55Z</time>
      </trkpt>
      <trkpt lat="45.99323" lon="4.8039">
        <ele>242</ele>
        <time>2017-08-17T09:47:56Z</time>
      </trkpt>
      <trkpt lat="45.99319" lon="4.80384">
        <ele>242</ele>
        <time>2017-08-17T09:47:57Z</time>
      </trkpt>
      <trkpt lat="45.99313" lon="4.8038">
        <ele>242</ele>
        <time>2017-08-17T09:47:58Z</time>
      </trkpt>
      <trkpt lat="45.99307" lon="4.80379">
        <ele>242</ele>
        <time>2017-08-17T09:47:59Z</time>
      </trkpt>
      <trkpt lat="45.99301" lon="4.8038">
        <ele>242</ele>
        <time>2017-08-17T09:48:00Z</time>
      </trkpt>
      <trkpt lat="45.99294" lon="4.80381">
        <ele>242</ele>
        <time>2017-08-17T09:48:01Z</time>
      </trkpt>
      <trkpt lat="45.99289" lon="4.80381">
        <ele>242</ele>
        <time>2017-08-17T09:48:02Z</time>
      </trkpt>
      <trkpt lat="45.99283" lon="4.80379">
        <ele>242</ele>
        <time>2017-08-17T09:48:03Z</time>
      </trkpt>
      <trkpt lat="45.99278" lon="4.80375">
        <ele>243</ele>
        <time>2017-08-17T09:48:04Z</time>
      </trkpt>
      <trkpt lat="45.99273" lon="4.80371">
        <ele>243</ele>
        <time>2017-08-17T09:48:05Z</time>
      </trkpt>
      <trkpt lat="45.99268" lon="4.80366">
        <ele>243</ele>
        <time>2017-08-17T09:48:06Z</time>
      </trkpt>
      <trkpt lat="45.99263" lon="4.8036">
        <ele>243</ele>
        <time>2017-08-17T09:48:07Z</time>
      </trkpt>
      <trkpt lat="45.99259" lon="4.80354">
        <ele>243</ele>
        <time>2017-08-17T09:48:08Z</time>
      </trkpt>
      <trkpt lat="45.99256" lon="4.80348">
        <ele>243</ele>
        <time>2017-08-17T09:48:09Z</time>
      </trkpt>
      <trkpt lat="45.99252" lon="4.80341">
        <ele>243</ele>
        <time>2017-08-17T09:48:10Z</time>
      </trkpt>
      <trkpt lat="45.99249" lon="4.80335">
        <ele>243</ele>
        <time>2017-08-17T09:48:11Z</time>
      </trkpt>
      <trkpt lat="45.99246" lon="4.80329">
        <ele>243</ele>
        <time>2017-08-17T09:48:12Z</time>
      </trkpt>
      <trkpt lat="45.99242" lon="4.80323">
        <ele>243</ele>
        <time>2017-08-17T09:48:13Z</time>
      </trkpt>
      <trkpt lat="45.99239" lon="4.80317">
        <ele>243</ele>
        <time>2017-08-17T09:48:14Z</time>
      </trkpt>
      <trkpt lat="45.99235" lon="4.80311">
        <ele>243</ele>
        <time>2017-08-17T09:48:15Z</time>
      </trkpt>
      <trkpt lat="45.99231" lon="4.80305">
        <ele>243</ele>
        <time>2017-08-17T09:48:16Z</time>
      </trkpt>
      <trkpt lat="45.99227" lon="4.80299">
        <ele>242</ele>
        <time>2017-08-17T09:48:17Z</time>
      </trkpt>
      <trkpt lat="45.99223" lon="4.80293">
        <ele>242</ele>
        <time>2017-08-17T09:48:18Z</time>
      </trkpt>
      <trkpt lat="45.99218" lon="4.80287">
        <ele>242</ele>
        <time>2017-08-17T09:48:19Z</time>
      </trkpt>
      <trkpt lat="45.99213" lon="4.80281">
        <ele>242</ele>
        <time>2017-08-17T09:48:20Z</time>
      </trkpt>
      <trkpt lat="45.99208" lon="4.80275">
        <ele>242</ele>
        <time>2017-08-17T09:48:21Z</time>
      </trkpt>
      <trkpt lat="45.99203" lon="4.80269">
        <ele>242</ele>
        <time>2017-08-17T09:48:22Z</time>
      </trkpt>
      <trkpt lat="45.99198" lon="4.80261">
        <ele>242</ele>
        <time>2017-08-17T09:48:23Z</time>
      </trkpt>
      <trkpt lat="45.99193" lon="4.80255">
        <ele>242</ele>
        <time>2017-08-17T09:48:24Z</time>
      </trkpt>
      <trkpt lat="45.99188" lon="4.80248">
        <ele>243</ele>
        <time>2017-08-17T09:48:25Z</time>
      </trkpt>
      <trkpt lat="45.99183" lon="4.80241">
        <ele>242</ele>
        <time>2017-08-17T09:48:26Z</time>
      </trkpt>
      <trkpt lat="45.99178" lon="4.80235">
        <ele>242</ele>
        <time>2017-08-17T09:48:27Z</time>
      </trkpt>
      <trkpt lat="45.99173" lon="4.8023">
        <ele>243</ele>
        <time>2017-08-17T09:48:28Z</time>
      </trkpt>
      <trkpt lat="45.99168" lon="4.80224">
        <ele>243</ele>
        <time>2017-08-17T09:48:29Z</time>
      </trkpt>
      <trkpt lat="45.99163" lon="4.80219">
        <ele>242</ele>
        <time>2017-08-17T09:48:30Z</time>
      </trkpt>
      <trkpt lat="45.99159" lon="4.80214">
        <ele>242</ele>
        <time>2017-08-17T09:48:31Z</time>
      </trkpt>
      <trkpt lat="45.99154" lon="4.80209">
        <ele>242</ele>
        <time>2017-08-17T09:48:32Z</time>
      </trkpt>
      <trkpt lat="45.9915" lon="4.80204">
        <ele>242</ele>
        <time>2017-08-17T09:48:33Z</time>
      </trkpt>
      <trkpt lat="45.99145" lon="4.80198">
        <ele>242</ele>
        <time>2017-08-17T09:48:34Z</time>
      </trkpt>
      <trkpt lat="45.99141" lon="4.80193">
        <ele>242</ele>
        <time>2017-08-17T09:48:35Z</time>
      </trkpt>
      <trkpt lat="45.99136" lon="4.80188">
        <ele>242</ele>
        <time>2017-08-17T09:48:36Z</time>
      </trkpt>
      <trkpt lat="45.99131" lon="4.80182">
        <ele>242</ele>
        <time>2017-08-17T09:48:37Z</time>
      </trkpt>
      <trkpt lat="45.99126" lon="4.80176">
        <ele>242</ele>
        <time>2017-08-17T09:48:38Z</time>
      </trkpt>
      <trkpt lat="45.99121" lon="4.80171">
        <ele>242</ele>
        <time>2017-08-17T09:48:39Z</time>
      </trkpt>
      <trkpt lat="45.99116" lon="4.80165">
        <ele>243</ele>
        <time>2017-08-17T09:48:40Z</time>
      </trkpt>
      <trkpt lat="45.9911" lon="4.80159">
        <ele>243</ele>
        <time>2017-08-17T09:48:41Z</time>
      </trkpt>
      <trkpt lat="45.99105" lon="4.80154">
        <ele>243</ele>
        <time>2017-08-17T09:48:42Z</time>
      </trkpt>
      <trkpt lat="45.99101" lon="4.80148">
        <ele>243</ele>
        <time>2017-08-17T09:48:43Z</time>
      </trkpt>
      <trkpt lat="45.99096" lon="4.80143">
        <ele>243</ele>
        <time>2017-08-17T09:48:44Z</time>
      </trkpt>
      <trkpt lat="45.99092" lon="4.80137">
        <ele>243</ele>
        <time>2017-08-17T09:48:45Z</time>
      </trkpt>
      <trkpt lat="45.99087" lon="4.80132">
        <ele>243</ele>
        <time>2017-08-17T09:48:46Z</time>
      </trkpt>
      <trkpt lat="45.99083" lon="4.80127">
        <ele>242</ele>
        <time>2017-08-17T09:48:47Z</time>
      </trkpt>
      <trkpt lat="45.99079" lon="4.80122">
        <ele>242</ele>
        <time>2017-08-17T09:48:48Z</time>
      </trkpt>
      <trkpt lat="45.99074" lon="4.80118">
        <ele>242</ele>
        <time>2017-08-17T09:48:49Z</time>
      </trkpt>
      <trkpt lat="45.9907" lon="4.80113">
        <ele>242</ele>
        <time>2017-08-17T09:48:50Z</time>
      </trkpt>
      <trkpt lat="45.99065" lon="4.80108">
        <ele>242</ele>
        <time>2017-08-17T09:48:51Z</time>
      </trkpt>
      <trkpt lat="45.9906" lon="4.80102">
        <ele>242</ele>
        <time>2017-08-17T09:48:52Z</time>
      </trkpt>
      <trkpt lat="45.99055" lon="4.80097">
        <ele>242</ele>
        <time>2017-08-17T09:48:53Z</time>
      </trkpt>
      <trkpt lat="45.9905" lon="4.80091">
        <ele>242</ele>
        <time>2017-08-17T09:48:54Z</time>
      </trkpt>
      <trkpt lat="45.99045" lon="4.80085">
        <ele>242</ele>
        <time>2017-08-17T09:48:55Z</time>
      </trkpt>
      <trkpt lat="45.9904" lon="4.80079">
        <ele>244</ele>
        <time>2017-08-17T09:48:56Z</time>
      </trkpt>
      <trkpt lat="45.99035" lon="4.80073">
        <ele>243</ele>
        <time>2017-08-17T09:48:57Z</time>
      </trkpt>
      <trkpt lat="45.9903" lon="4.80067">
        <ele>243</ele>
        <time>2017-08-17T09:48:58Z</time>
      </trkpt>
      <trkpt lat="45.99025" lon="4.80061">
        <ele>243</ele>
        <time>2017-08-17T09:48:59Z</time>
      </trkpt>
      <trkpt lat="45.9902" lon="4.80056">
        <ele>244</ele>
        <time>2017-08-17T09:49:00Z</time>
      </trkpt>
      <trkpt lat="45.99015" lon="4.80051">
        <ele>244</ele>
        <time>2017-08-17T09:49:01Z</time>
      </trkpt>
      <trkpt lat="45.99011" lon="4.80045">
        <ele>244</ele>
        <time>2017-08-17T09:49:02Z</time>
      </trkpt>
      <trkpt lat="45.99006" lon="4.8004">
        <ele>244</ele>
        <time>2017-08-17T09:49:03Z</time>
      </trkpt>
      <trkpt lat="45.99002" lon="4.80036">
        <ele>244</ele>
        <time>2017-08-17T09:49:04Z</time>
      </trkpt>
      <trkpt lat="45.98997" lon="4.8003">
        <ele>243</ele>
        <time>2017-08-17T09:49:05Z</time>
      </trkpt>
      <trkpt lat="45.98993" lon="4.80025">
        <ele>243</ele>
        <time>2017-08-17T09:49:06Z</time>
      </trkpt>
      <trkpt lat="45.98988" lon="4.8002">
        <ele>243</ele>
        <time>2017-08-17T09:49:07Z</time>
      </trkpt>
      <trkpt lat="45.98983" lon="4.80014">
        <ele>243</ele>
        <time>2017-08-17T09:49:08Z</time>
      </trkpt>
      <trkpt lat="45.98979" lon="4.80009">
        <ele>243</ele>
        <time>2017-08-17T09:49:09Z</time>
      </trkpt>
      <trkpt lat="45.98974" lon="4.80003">
        <ele>243</ele>
        <time>2017-08-17T09:49:10Z</time>
      </trkpt>
      <trkpt lat="45.98969" lon="4.79998">
        <ele>245</ele>
        <time>2017-08-17T09:49:11Z</time>
      </trkpt>
      <trkpt lat="45.98964" lon="4.79992">
        <ele>245</ele>
        <time>2017-08-17T09:49:12Z</time>
      </trkpt>
      <trkpt lat="45.98959" lon="4.79986">
        <ele>245</ele>
        <time>2017-08-17T09:49:13Z</time>
      </trkpt>
      <trkpt lat="45.98954" lon="4.7998">
        <ele>245</ele>
        <time>2017-08-17T09:49:14Z</time>
      </trkpt>
      <trkpt lat="45.9895" lon="4.79975">
        <ele>245</ele>
        <time>2017-08-17T09:49:15Z</time>
      </trkpt>
      <trkpt lat="45.98945" lon="4.7997">
        <ele>245</ele>
        <time>2017-08-17T09:49:16Z</time>
      </trkpt>
      <trkpt lat="45.98941" lon="4.79965">
        <ele>245</ele>
        <time>2017-08-17T09:49:17Z</time>
      </trkpt>
      <trkpt lat="45.98937" lon="4.7996">
        <ele>245</ele>
        <time>2017-08-17T09:49:18Z</time>
      </trkpt>
      <trkpt lat="45.98932" lon="4.79955">
        <ele>245</ele>
        <time>2017-08-17T09:49:19Z</time>
      </trkpt>
      <trkpt lat="45.98928" lon="4.7995">
        <ele>245</ele>
        <time>2017-08-17T09:49:20Z</time>
      </trkpt>
      <trkpt lat="45.98924" lon="4.79945">
        <ele>245</ele>
        <time>2017-08-17T09:49:21Z</time>
      </trkpt>
      <trkpt lat="45.9892" lon="4.79941">
        <ele>245</ele>
        <time>2017-08-17T09:49:22Z</time>
      </trkpt>
      <trkpt lat="45.98916" lon="4.79936">
        <ele>244</ele>
        <time>2017-08-17T09:49:23Z</time>
      </trkpt>
      <trkpt lat="45.98911" lon="4.79932">
        <ele>244</ele>
        <time>2017-08-17T09:49:24Z</time>
      </trkpt>
      <trkpt lat="45.98907" lon="4.79927">
        <ele>244</ele>
        <time>2017-08-17T09:49:25Z</time>
      </trkpt>
      <trkpt lat="45.98903" lon="4.79922">
        <ele>244</ele>
        <time>2017-08-17T09:49:26Z</time>
      </trkpt>
      <trkpt lat="45.98898" lon="4.79917">
        <ele>244</ele>
        <time>2017-08-17T09:49:27Z</time>
      </trkpt>
      <trkpt lat="45.98894" lon="4.79911">
        <ele>244</ele>
        <time>2017-08-17T09:49:28Z</time>
      </trkpt>
      <trkpt lat="45.98889" lon="4.79906">
        <ele>244</ele>
        <time>2017-08-17T09:49:29Z</time>
      </trkpt>
      <trkpt lat="45.98884" lon="4.79901">
        <ele>244</ele>
        <time>2017-08-17T09:49:30Z</time>
      </trkpt>
      <trkpt lat="45.9888" lon="4.79895">
        <ele>244</ele>
        <time>2017-08-17T09:49:31Z</time>
      </trkpt>
      <trkpt lat="45.98875" lon="4.79889">
        <ele>244</ele>
        <time>2017-08-17T09:49:32Z</time>
      </trkpt>
      <trkpt lat="45.9887" lon="4.79883">
        <ele>244</ele>
        <time>2017-08-17T09:49:33Z</time>
      </trkpt>
      <trkpt lat="45.98864" lon="4.79877">
        <ele>244</ele>
        <time>2017-08-17T09:49:34Z</time>
      </trkpt>
      <trkpt lat="45.98859" lon="4.79872">
        <ele>244</ele>
        <time>2017-08-17T09:49:35Z</time>
      </trkpt>
      <trkpt lat="45.98855" lon="4.79866">
        <ele>244</ele>
        <time>2017-08-17T09:49:36Z</time>
      </trkpt>
      <trkpt lat="45.9885" lon="4.7986">
        <ele>244</ele>
        <time>2017-08-17T09:49:37Z</time>
      </trkpt>
      <trkpt lat="45.98846" lon="4.79855">
        <ele>244</ele>
        <time>2017-08-17T09:49:38Z</time>
      </trkpt>
      <trkpt lat="45.98841" lon="4.79849">
        <ele>244</ele>
        <time>2017-08-17T09:49:39Z</time>
      </trkpt>
      <trkpt lat="45.98837" lon="4.79843">
        <ele>244</ele>
        <time>2017-08-17T09:49:40Z</time>
      </trkpt>
      <trkpt lat="45.98832" lon="4.79838">
        <ele>244</ele>
        <time>2017-08-17T09:49:41Z</time>
      </trkpt>
      <trkpt lat="45.98828" lon="4.79833">
        <ele>244</ele>
        <time>2017-08-17T09:49:42Z</time>
      </trkpt>
      <trkpt lat="45.98824" lon="4.79828">
        <ele>244</ele>
        <time>2017-08-17T09:49:43Z</time>
      </trkpt>
      <trkpt lat="45.9882" lon="4.79823">
        <ele>245</ele>
        <time>2017-08-17T09:49:44Z</time>
      </trkpt>
      <trkpt lat="45.98816" lon="4.79819">
        <ele>245</ele>
        <time>2017-08-17T09:49:45Z</time>
      </trkpt>
      <trkpt lat="45.98811" lon="4.79814">
        <ele>245</ele>
        <time>2017-08-17T09:49:46Z</time>
      </trkpt>
      <trkpt lat="45.98807" lon="4.7981">
        <ele>245</ele>
        <time>2017-08-17T09:49:47Z</time>
      </trkpt>
      <trkpt lat="45.98802" lon="4.79804">
        <ele>245</ele>
        <time>2017-08-17T09:49:48Z</time>
      </trkpt>
      <trkpt lat="45.98797" lon="4.79799">
        <ele>245</ele>
        <time>2017-08-17T09:49:49Z</time>
      </trkpt>
      <trkpt lat="45.98792" lon="4.79793">
        <ele>245</ele>
        <time>2017-08-17T09:49:50Z</time>
      </trkpt>
      <trkpt lat="45.98786" lon="4.79787">
        <ele>245</ele>
        <time>2017-08-17T09:49:51Z</time>
      </trkpt>
      <trkpt lat="45.98781" lon="4.79781">
        <ele>245</ele>
        <time>2017-08-17T09:49:52Z</time>
      </trkpt>
      <trkpt lat="45.98776" lon="4.79775">
        <ele>245</ele>
        <time>2017-08-17T09:49:53Z</time>
      </trkpt>
      <trkpt lat="45.98771" lon="4.79769">
        <ele>245</ele>
        <time>2017-08-17T09:49:54Z</time>
      </trkpt>
      <trkpt lat="45.98766" lon="4.79764">
        <ele>245</ele>
        <time>2017-08-17T09:49:55Z</time>
      </trkpt>
      <trkpt lat="45.98761" lon="4.79759">
        <ele>245</ele>
        <time>2017-08-17T09:49:56Z</time>
      </trkpt>
      <trkpt lat="45.98756" lon="4.79755">
        <ele>245</ele>
        <time>2017-08-17T09:49:57Z</time>
      </trkpt>
      <trkpt lat="45.98752" lon="4.7975">
        <ele>245</ele>
        <time>2017-08-17T09:49:58Z</time>
      </trkpt>
      <trkpt lat="45.98747" lon="4.79746">
        <ele>245</ele>
        <time>2017-08-17T09:49:59Z</time>
      </trkpt>
      <trkpt lat="45.98742" lon="4.79742">
        <ele>245</ele>
        <time>2017-08-17T09:50:00Z</time>
      </trkpt>
      <trkpt lat="45.98737" lon="4.79739">
        <ele>245</ele>
        <time>2017-08-17T09:50:01Z</time>
      </trkpt>
      <trkpt lat="45.98733" lon="4.79736">
        <ele>245</ele>
        <time>2017-08-17T09:50:02Z</time>
      </trkpt>
      <trkpt lat="45.98728" lon="4.79733">
        <ele>245</ele>
        <time>2017-08-17T09:50:03Z</time>
      </trkpt>
      <trkpt lat="45.98724" lon="4.7973">
        <ele>245</ele>
        <time>2017-08-17T09:50:04Z</time>
      </trkpt>
      <trkpt lat="45.98718" lon="4.79727">
        <ele>245</ele>
        <time>2017-08-17T09:50:05Z</time>
      </trkpt>
      <trkpt lat="45.98713" lon="4.79724">
        <ele>245</ele>
        <time>2017-08-17T09:50:06Z</time>
      </trkpt>
      <trkpt lat="45.98708" lon="4.79721">
        <ele>245</ele>
        <time>2017-08-17T09:50:07Z</time>
      </trkpt>
      <trkpt lat="45.98702" lon="4.79719">
        <ele>245</ele>
        <time>2017-08-17T09:50:08Z</time>
      </trkpt>
      <trkpt lat="45.98696" lon="4.79717">
        <ele>245</ele>
        <time>2017-08-17T09:50:09Z</time>
      </trkpt>
      <trkpt lat="45.9869" lon="4.79715">
        <ele>245</ele>
        <time>2017-08-17T09:50:10Z</time>
      </trkpt>
      <trkpt lat="45.98685" lon="4.79712">
        <ele>245</ele>
        <time>2017-08-17T09:50:11Z</time>
      </trkpt>
      <trkpt lat="45.9868" lon="4.79709">
        <ele>245</ele>
        <time>2017-08-17T09:50:12Z</time>
      </trkpt>
      <trkpt lat="45.98675" lon="4.79705">
        <ele>245</ele>
        <time>2017-08-17T09:50:13Z</time>
      </trkpt>
      <trkpt lat="45.9867" lon="4.79702">
        <ele>245</ele>
        <time>2017-08-17T09:50:14Z</time>
      </trkpt>
      <trkpt lat="45.98666" lon="4.79697">
        <ele>245</ele>
        <time>2017-08-17T09:50:15Z</time>
      </trkpt>
      <trkpt lat="45.98662" lon="4.79692">
        <ele>245</ele>
        <time>2017-08-17T09:50:16Z</time>
      </trkpt>
      <trkpt lat="45.98658" lon="4.79686">
        <ele>245</ele>
        <time>2017-08-17T09:50:17Z</time>
      </trkpt>
      <trkpt lat="45.98654" lon="4.7968">
        <ele>245</ele>
        <time>2017-08-17T09:50:18Z</time>
      </trkpt>
      <trkpt lat="45.9865" lon="4.79674">
        <ele>245</ele>
        <time>2017-08-17T09:50:19Z</time>
      </trkpt>
      <trkpt lat="45.98647" lon="4.79668">
        <ele>245</ele>
        <time>2017-08-17T09:50:20Z</time>
      </trkpt>
      <trkpt lat="45.98644" lon="4.79662">
        <ele>245</ele>
        <time>2017-08-17T09:50:21Z</time>
      </trkpt>
      <trkpt lat="45.98641" lon="4.79656">
        <ele>245</ele>
        <time>2017-08-17T09:50:22Z</time>
      </trkpt>
      <trkpt lat="45.98638" lon="4.7965">
        <ele>245</ele>
        <time>2017-08-17T09:50:23Z</time>
      </trkpt>
      <trkpt lat="45.98636" lon="4.79644">
        <ele>245</ele>
        <time>2017-08-17T09:50:24Z</time>
      </trkpt>
      <trkpt lat="45.98633" lon="4.79637">
        <ele>245</ele>
        <time>2017-08-17T09:50:25Z</time>
      </trkpt>
      <trkpt lat="45.98631" lon="4.79629">
        <ele>245</ele>
        <time>2017-08-17T09:50:26Z</time>
      </trkpt>
      <trkpt lat="45.98631" lon="4.79621">
        <ele>245</ele>
        <time>2017-08-17T09:50:27Z</time>
      </trkpt>
      <trkpt lat="45.98631" lon="4.79613">
        <ele>245</ele>
        <time>2017-08-17T09:50:28Z</time>
      </trkpt>
      <trkpt lat="45.98631" lon="4.79605">
        <ele>245</ele>
        <time>2017-08-17T09:50:29Z</time>
      </trkpt>
      <trkpt lat="45.9863" lon="4.79597">
        <ele>245</ele>
        <time>2017-08-17T09:50:30Z</time>
      </trkpt>
      <trkpt lat="45.98628" lon="4.7959">
        <ele>245</ele>
        <time>2017-08-17T09:50:31Z</time>
      </trkpt>
      <trkpt lat="45.98624" lon="4.79585">
        <ele>245</ele>
        <time>2017-08-17T09:50:32Z</time>
      </trkpt>
      <trkpt lat="45.9862" lon="4.79581">
        <ele>245</ele>
        <time>2017-08-17T09:50:33Z</time>
      </trkpt>
      <trkpt lat="45.98615" lon="4.79577">
        <ele>245</ele>
        <time>2017-08-17T09:50:34Z</time>
      </trkpt>
      <trkpt lat="45.98609" lon="4.79577">
        <ele>245</ele>
        <time>2017-08-17T09:50:35Z</time>
      </trkpt>
      <trkpt lat="45.98603" lon="4.79578">
        <ele>245</ele>
        <time>2017-08-17T09:50:36Z</time>
      </trkpt>
      <trkpt lat="45.98598" lon="4.7958">
        <ele>245</ele>
        <time>2017-08-17T09:50:37Z</time>
      </trkpt>
      <trkpt lat="45.98592" lon="4.79582">
        <ele>245</ele>
        <time>2017-08-17T09:50:38Z</time>
      </trkpt>
      <trkpt lat="45.98587" lon="4.79583">
        <ele>245</ele>
        <time>2017-08-17T09:50:39Z</time>
      </trkpt>
      <trkpt lat="45.98582" lon="4.79581">
        <ele>245</ele>
        <time>2017-08-17T09:50:40Z</time>
      </trkpt>
      <trkpt lat="45.98576" lon="4.79579">
        <ele>245</ele>
        <time>2017-08-17T09:50:41Z</time>
      </trkpt>
      <trkpt lat="45.98571" lon="4.79575">
        <ele>245</ele>
        <time>2017-08-17T09:50:42Z</time>
      </trkpt>
      <trkpt lat="45.98565" lon="4.79571">
        <ele>244</ele>
        <time>2017-08-17T09:50:43Z</time>
      </trkpt>
      <trkpt lat="45.9856" lon="4.79565">
        <ele>244</ele>
        <time>2017-08-17T09:50:44Z</time>
      </trkpt>
      <trkpt lat="45.98555" lon="4.79559">
        <ele>244</ele>
        <time>2017-08-17T09:50:45Z</time>
      </trkpt>
      <trkpt lat="45.98549" lon="4.79552">
        <ele>244</ele>
        <time>2017-08-17T09:50:46Z</time>
      </trkpt>
      <trkpt lat="45.98544" lon="4.79545">
        <ele>244</ele>
        <time>2017-08-17T09:50:47Z</time>
      </trkpt>
      <trkpt lat="45.9854" lon="4.79537">
        <ele>244</ele>
        <time>2017-08-17T09:50:48Z</time>
      </trkpt>
      <trkpt lat="45.98537" lon="4.79529">
        <ele>244</ele>
        <time>2017-08-17T09:50:49Z</time>
      </trkpt>
      <trkpt lat="45.98534" lon="4.79521">
        <ele>244</ele>
        <time>2017-08-17T09:50:50Z</time>
      </trkpt>
      <trkpt lat="45.98532" lon="4.79513">
        <ele>244</ele>
        <time>2017-08-17T09:50:51Z</time>
      </trkpt>
      <trkpt lat="45.9853" lon="4.79505">
        <ele>244</ele>
        <time>2017-08-17T09:50:52Z</time>
      </trkpt>
      <trkpt lat="45.98528" lon="4.79496">
        <ele>244</ele>
        <time>2017-08-17T09:50:53Z</time>
      </trkpt>
      <trkpt lat="45.98527" lon="4.79488">
        <ele>244</ele>
        <time>2017-08-17T09:50:54Z</time>
      </trkpt>
      <trkpt lat="45.98527" lon="4.7948">
        <ele>244</ele>
        <time>2017-08-17T09:50:55Z</time>
      </trkpt>
      <trkpt lat="45.98527" lon="4.79472">
        <ele>244</ele>
        <time>2017-08-17T09:50:56Z</time>
      </trkpt>
      <trkpt lat="45.98527" lon="4.79464">
        <ele>244</ele>
        <time>2017-08-17T09:50:57Z</time>
      </trkpt>
      <trkpt lat="45.98527" lon="4.79455">
        <ele>244</ele>
        <time>2017-08-17T09:50:58Z</time>
      </trkpt>
      <trkpt lat="45.98527" lon="4.79447">
        <ele>244</ele>
        <time>2017-08-17T09:50:59Z</time>
      </trkpt>
      <trkpt lat="45.98527" lon="4.79438">
        <ele>244</ele>
        <time>2017-08-17T09:51:00Z</time>
      </trkpt>
      <trkpt lat="45.98526" lon="4.7943">
        <ele>244</ele>
        <time>2017-08-17T09:51:01Z</time>
      </trkpt>
      <trkpt lat="45.98525" lon="4.79421">
        <ele>244</ele>
        <time>2017-08-17T09:51:02Z</time>
      </trkpt>
      <trkpt lat="45.98524" lon="4.79412">
        <ele>244</ele>
        <time>2017-08-17T09:51:03Z</time>
      </trkpt>
      <trkpt lat="45.98523" lon="4.79402">
        <ele>244</ele>
        <time>2017-08-17T09:51:04Z</time>
      </trkpt>
      <trkpt lat="45.98522" lon="4.79393">
        <ele>244</ele>
        <time>2017-08-17T09:51:05Z</time>
      </trkpt>
      <trkpt lat="45.98521" lon="4.79384">
        <ele>244</ele>
        <time>2017-08-17T09:51:06Z</time>
      </trkpt>
      <trkpt lat="45.98519" lon="4.79375">
        <ele>243</ele>
        <time>2017-08-17T09:51:07Z</time>
      </trkpt>
      <trkpt lat="45.98517" lon="4.79366">
        <ele>243</ele>
        <time>2017-08-17T09:51:08Z</time>
      </trkpt>
      <trkpt lat="45.98515" lon="4.79357">
        <ele>243</ele>
        <time>2017-08-17T09:51:09Z</time>
      </trkpt>
      <trkpt lat="45.98514" lon="4.79348">
        <ele>243</ele>
        <time>2017-08-17T09:51:10Z</time>
      </trkpt>
      <trkpt lat="45.98512" lon="4.7934">
        <ele>243</ele>
        <time>2017-08-17T09:51:11Z</time>
      </trkpt>
      <trkpt lat="45.98509" lon="4.79332">
        <ele>243</ele>
        <time>2017-08-17T09:51:12Z</time>
      </trkpt>
      <trkpt lat="45.98507" lon="4.79324">
        <ele>243</ele>
        <time>2017-08-17T09:51:13Z</time>
      </trkpt>
      <trkpt lat="45.98505" lon="4.79317">
        <ele>243</ele>
        <time>2017-08-17T09:51:14Z</time>
      </trkpt>
      <trkpt lat="45.98503" lon="4.79309">
        <ele>243</ele>
        <time>2017-08-17T09:51:15Z</time>
      </trkpt>
      <trkpt lat="45.985" lon="4.79302">
        <ele>243</ele>
        <time>2017-08-17T09:51:16Z</time>
      </trkpt>
      <trkpt lat="45.98497" lon="4.79295">
        <ele>243</ele>
        <time>2017-08-17T09:51:17Z</time>
      </trkpt>
      <trkpt lat="45.98494" lon="4.79288">
        <ele>243</ele>
        <time>2017-08-17T09:51:18Z</time>
      </trkpt>
      <trkpt lat="45.98491" lon="4.79281">
        <ele>243</ele>
        <time>2017-08-17T09:51:19Z</time>
      </trkpt>
      <trkpt lat="45.98488" lon="4.79274">
        <ele>243</ele>
        <time>2017-08-17T09:51:20Z</time>
      </trkpt>
      <trkpt lat="45.98484" lon="4.79268">
        <ele>243</ele>
        <time>2017-08-17T09:51:21Z</time>
      </trkpt>
      <trkpt lat="45.98481" lon="4.79261">
        <ele>243</ele>
        <time>2017-08-17T09:51:22Z</time>
      </trkpt>
      <trkpt lat="45.98477" lon="4.79253">
        <ele>243</ele>
        <time>2017-08-17T09:51:23Z</time>
      </trkpt>
      <trkpt lat="45.98473" lon="4.79246">
        <ele>243</ele>
        <time>2017-08-17T09:51:24Z</time>
      </trkpt>
      <trkpt lat="45.98469" lon="4.79239">
        <ele>243</ele>
        <time>2017-08-17T09:51:25Z</time>
      </trkpt>
      <trkpt lat="45.98464" lon="4.79231">
        <ele>243</ele>
        <time>2017-08-17T09:51:26Z</time>
      </trkpt>
      <trkpt lat="45.9846" lon="4.79223">
        <ele>243</ele>
        <time>2017-08-17T09:51:27Z</time>
      </trkpt>
      <trkpt lat="45.98456" lon="4.79216">
        <ele>243</ele>
        <time>2017-08-17T09:51:28Z</time>
      </trkpt>
      <trkpt lat="45.98452" lon="4.79209">
        <ele>242</ele>
        <time>2017-08-17T09:51:29Z</time>
      </trkpt>
      <trkpt lat="45.98448" lon="4.79202">
        <ele>242</ele>
        <time>2017-08-17T09:51:30Z</time>
      </trkpt>
      <trkpt lat="45.98444" lon="4.79195">
        <ele>242</ele>
        <time>2017-08-17T09:51:31Z</time>
      </trkpt>
      <trkpt lat="45.9844" lon="4.79188">
        <ele>242</ele>
        <time>2017-08-17T09:51:32Z</time>
      </trkpt>
      <trkpt lat="45.98437" lon="4.79181">
        <ele>242</ele>
        <time>2017-08-17T09:51:33Z</time>
      </trkpt>
      <trkpt lat="45.98433" lon="4.79174">
        <ele>242</ele>
        <time>2017-08-17T09:51:34Z</time>
      </trkpt>
      <trkpt lat="45.9843" lon="4.79168">
        <ele>242</ele>
        <time>2017-08-17T09:51:35Z</time>
      </trkpt>
      <trkpt lat="45.98426" lon="4.79162">
        <ele>242</ele>
        <time>2017-08-17T09:51:36Z</time>
      </trkpt>
      <trkpt lat="45.98423" lon="4.79155">
        <ele>242</ele>
        <time>2017-08-17T09:51:37Z</time>
      </trkpt>
      <trkpt lat="45.9842" lon="4.79149">
        <ele>242</ele>
        <time>2017-08-17T09:51:38Z</time>
      </trkpt>
      <trkpt lat="45.98416" lon="4.79143">
        <ele>242</ele>
        <time>2017-08-17T09:51:39Z</time>
      </trkpt>
      <trkpt lat="45.98413" lon="4.79137">
        <ele>242</ele>
        <time>2017-08-17T09:51:40Z</time>
      </trkpt>
      <trkpt lat="45.9841" lon="4.79131">
        <ele>242</ele>
        <time>2017-08-17T09:51:41Z</time>
      </trkpt>
      <trkpt lat="45.98406" lon="4.79125">
        <ele>242</ele>
        <time>2017-08-17T09:51:42Z</time>
      </trkpt>
      <trkpt lat="45.98403" lon="4.79119">
        <ele>242</ele>
        <time>2017-08-17T09:51:43Z</time>
      </trkpt>
      <trkpt lat="45.984" lon="4.79112">
        <ele>242</ele>
        <time>2017-08-17T09:51:44Z</time>
      </trkpt>
      <trkpt lat="45.98396" lon="4.79105">
        <ele>242</ele>
        <time>2017-08-17T09:51:45Z</time>
      </trkpt>
      <trkpt lat="45.98393" lon="4.79099">
        <ele>242</ele>
        <time>2017-08-17T09:51:46Z</time>
      </trkpt>
      <trkpt lat="45.98389" lon="4.79092">
        <ele>242</ele>
        <time>2017-08-17T09:51:47Z</time>
      </trkpt>
      <trkpt lat="45.98385" lon="4.79085">
        <ele>242</ele>
        <time>2017-08-17T09:51:48Z</time>
      </trkpt>
      <trkpt lat="45.98382" lon="4.79078">
        <ele>242</ele>
        <time>2017-08-17T09:51:49Z</time>
      </trkpt>
      <trkpt lat="45.98378" lon="4.79071">
        <ele>242</ele>
        <time>2017-08-17T09:51:50Z</time>
      </trkpt>
      <trkpt lat="45.98374" lon="4.79063">
        <ele>242</ele>
        <time>2017-08-17T09:51:51Z</time>
      </trkpt>
      <trkpt lat="45.9837" lon="4.79055">
        <ele>242</ele>
        <time>2017-08-17T09:51:52Z</time>
      </trkpt>
      <trkpt lat="45.98366" lon="4.79048">
        <ele>242</ele>
        <time>2017-08-17T09:51:53Z</time>
      </trkpt>
      <trkpt lat="45.98362" lon="4.79042">
        <ele>242</ele>
        <time>2017-08-17T09:51:54Z</time>
      </trkpt>
      <trkpt lat="45.98357" lon="4.79035">
        <ele>242</ele>
        <time>2017-08-17T09:51:55Z</time>
      </trkpt>
      <trkpt lat="45.98353" lon="4.79029">
        <ele>242</ele>
        <time>2017-08-17T09:51:56Z</time>
      </trkpt>
      <trkpt lat="45.98348" lon="4.79024">
        <ele>242</ele>
        <time>2017-08-17T09:51:57Z</time>
      </trkpt>
      <trkpt lat="45.98343" lon="4.79019">
        <ele>242</ele>
        <time>2017-08-17T09:51:58Z</time>
      </trkpt>
      <trkpt lat="45.98337" lon="4.79015">
        <ele>242</ele>
        <time>2017-08-17T09:51:59Z</time>
      </trkpt>
      <trkpt lat="45.98332" lon="4.79011">
        <ele>242</ele>
        <time>2017-08-17T09:52:00Z</time>
      </trkpt>
      <trkpt lat="45.98326" lon="4.79008">
        <ele>242</ele>
        <time>2017-08-17T09:52:01Z</time>
      </trkpt>
      <trkpt lat="45.98321" lon="4.79004">
        <ele>242</ele>
        <time>2017-08-17T09:52:02Z</time>
      </trkpt>
      <trkpt lat="45.98316" lon="4.79001">
        <ele>242</ele>
        <time>2017-08-17T09:52:03Z</time>
      </trkpt>
      <trkpt lat="45.9831" lon="4.78997">
        <ele>241</ele>
        <time>2017-08-17T09:52:04Z</time>
      </trkpt>
      <trkpt lat="45.98304" lon="4.78993">
        <ele>241</ele>
        <time>2017-08-17T09:52:05Z</time>
      </trkpt>
      <trkpt lat="45.98298" lon="4.78989">
        <ele>241</ele>
        <time>2017-08-17T09:52:06Z</time>
      </trkpt>
      <trkpt lat="45.98291" lon="4.78985">
        <ele>241</ele>
        <time>2017-08-17T09:52:07Z</time>
      </trkpt>
      <trkpt lat="45.98285" lon="4.78981">
        <ele>241</ele>
        <time>2017-08-17T09:52:08Z</time>
      </trkpt>
      <trkpt lat="45.98278" lon="4.78976">
        <ele>241</ele>
        <time>2017-08-17T09:52:09Z</time>
      </trkpt>
      <trkpt lat="45.98271" lon="4.78972">
        <ele>241</ele>
        <time>2017-08-17T09:52:10Z</time>
      </trkpt>
      <trkpt lat="45.98264" lon="4.78969">
        <ele>241</ele>
        <time>2017-08-17T09:52:11Z</time>
      </trkpt>
      <trkpt lat="45.98258" lon="4.78966">
        <ele>241</ele>
        <time>2017-08-17T09:52:12Z</time>
      </trkpt>
      <trkpt lat="45.98252" lon="4.78962">
        <ele>241</ele>
        <time>2017-08-17T09:52:13Z</time>
      </trkpt>
      <trkpt lat="45.98245" lon="4.78958">
        <ele>241</ele>
        <time>2017-08-17T09:52:14Z</time>
      </trkpt>
      <trkpt lat="45.98239" lon="4.78955">
        <ele>241</ele>
        <time>2017-08-17T09:52:15Z</time>
      </trkpt>
      <trkpt lat="45.98233" lon="4.78951">
        <ele>241</ele>
        <time>2017-08-17T09:52:16Z</time>
      </trkpt>
      <trkpt lat="45.98228" lon="4.78947">
        <ele>241</ele>
        <time>2017-08-17T09:52:17Z</time>
      </trkpt>
      <trkpt lat="45.98221" lon="4.78943">
        <ele>241</ele>
        <time>2017-08-17T09:52:18Z</time>
      </trkpt>
      <trkpt lat="45.98215" lon="4.7894">
        <ele>241</ele>
        <time>2017-08-17T09:52:19Z</time>
      </trkpt>
      <trkpt lat="45.9821" lon="4.78937">
        <ele>241</ele>
        <time>2017-08-17T09:52:20Z</time>
      </trkpt>
      <trkpt lat="45.98204" lon="4.78934">
        <ele>241</ele>
        <time>2017-08-17T09:52:21Z</time>
      </trkpt>
      <trkpt lat="45.98198" lon="4.7893">
        <ele>241</ele>
        <time>2017-08-17T09:52:22Z</time>
      </trkpt>
      <trkpt lat="45.98192" lon="4.78927">
        <ele>241</ele>
        <time>2017-08-17T09:52:23Z</time>
      </trkpt>
      <trkpt lat="45.98186" lon="4.78924">
        <ele>241</ele>
        <time>2017-08-17T09:52:24Z</time>
      </trkpt>
      <trkpt lat="45.9818" lon="4.7892">
        <ele>240</ele>
        <time>2017-08-17T09:52:25Z</time>
      </trkpt>
      <trkpt lat="45.98174" lon="4.78916">
        <ele>240</ele>
        <time>2017-08-17T09:52:26Z</time>
      </trkpt>
      <trkpt lat="45.98169" lon="4.78913">
        <ele>240</ele>
        <time>2017-08-17T09:52:27Z</time>
      </trkpt>
      <trkpt lat="45.98163" lon="4.7891">
        <ele>240</ele>
        <time>2017-08-17T09:52:28Z</time>
      </trkpt>
      <trkpt lat="45.98157" lon="4.78907">
        <ele>240</ele>
        <time>2017-08-17T09:52:29Z</time>
      </trkpt>
      <trkpt lat="45.98152" lon="4.78903">
        <ele>240</ele>
        <time>2017-08-17T09:52:30Z</time>
      </trkpt>
      <trkpt lat="45.98146" lon="4.789">
        <ele>240</ele>
        <time>2017-08-17T09:52:31Z</time>
      </trkpt>
      <trkpt lat="45.98141" lon="4.78897">
        <ele>240</ele>
        <time>2017-08-17T09:52:32Z</time>
      </trkpt>
      <trkpt lat="45.98134" lon="4.78894">
        <ele>240</ele>
        <time>2017-08-17T09:52:33Z</time>
      </trkpt>
      <trkpt lat="45.98128" lon="4.78891">
        <ele>240</ele>
        <time>2017-08-17T09:52:34Z</time>
      </trkpt>
      <trkpt lat="45.98121" lon="4.78887">
        <ele>240</ele>
        <time>2017-08-17T09:52:35Z</time>
      </trkpt>
      <trkpt lat="45.98114" lon="4.78884">
        <ele>240</ele>
        <time>2017-08-17T09:52:36Z</time>
      </trkpt>
      <trkpt lat="45.98108" lon="4.7888">
        <ele>240</ele>
        <time>2017-08-17T09:52:37Z</time>
      </trkpt>
      <trkpt lat="45.98101" lon="4.78876">
        <ele>240</ele>
        <time>2017-08-17T09:52:38Z</time>
      </trkpt>
      <trkpt lat="45.98095" lon="4.78872">
        <ele>239</ele>
        <time>2017-08-17T09:52:39Z</time>
      </trkpt>
      <trkpt lat="45.98088" lon="4.78867">
        <ele>239</ele>
        <time>2017-08-17T09:52:40Z</time>
      </trkpt>
      <trkpt lat="45.98082" lon="4.78863">
        <ele>239</ele>
        <time>2017-08-17T09:52:41Z</time>
      </trkpt>
      <trkpt lat="45.98076" lon="4.78859">
        <ele>239</ele>
        <time>2017-08-17T09:52:42Z</time>
      </trkpt>
      <trkpt lat="45.98069" lon="4.78855">
        <ele>239</ele>
        <time>2017-08-17T09:52:43Z</time>
      </trkpt>
      <trkpt lat="45.98064" lon="4.78851">
        <ele>239</ele>
        <time>2017-08-17T09:52:44Z</time>
      </trkpt>
      <trkpt lat="45.98058" lon="4.78846">
        <ele>239</ele>
        <time>2017-08-17T09:52:45Z</time>
      </trkpt>
      <trkpt lat="45.98052" lon="4.78842">
        <ele>239</ele>
        <time>2017-08-17T09:52:46Z</time>
      </trkpt>
      <trkpt lat="45.98046" lon="4.78839">
        <ele>238</ele>
        <time>2017-08-17T09:52:47Z</time>
      </trkpt>
      <trkpt lat="45.98041" lon="4.78835">
        <ele>238</ele>
        <time>2017-08-17T09:52:48Z</time>
      </trkpt>
      <trkpt lat="45.98035" lon="4.7883">
        <ele>238</ele>
        <time>2017-08-17T09:52:49Z</time>
      </trkpt>
      <trkpt lat="45.9803" lon="4.78826">
        <ele>238</ele>
        <time>2017-08-17T09:52:50Z</time>
      </trkpt>
      <trkpt lat="45.98024" lon="4.78822">
        <ele>238</ele>
        <time>2017-08-17T09:52:51Z</time>
      </trkpt>
      <trkpt lat="45.98018" lon="4.78818">
        <ele>238</ele>
        <time>2017-08-17T09:52:52Z</time>
      </trkpt>
      <trkpt lat="45.98011" lon="4.78814">
        <ele>238</ele>
        <time>2017-08-17T09:52:53Z</time>
      </trkpt>
      <trkpt lat="45.98005" lon="4.7881">
        <ele>238</ele>
        <time>2017-08-17T09:52:54Z</time>
      </trkpt>
      <trkpt lat="45.97999" lon="4.78805">
        <ele>238</ele>
        <time>2017-08-17T09:52:55Z</time>
      </trkpt>
      <trkpt lat="45.97993" lon="4.788">
        <ele>238</ele>
        <time>2017-08-17T09:52:56Z</time>
      </trkpt>
      <trkpt lat="45.97987" lon="4.78795">
        <ele>238</ele>
        <time>2017-08-17T09:52:57Z</time>
      </trkpt>
      <trkpt lat="45.9798" lon="4.78791">
        <ele>238</ele>
        <time>2017-08-17T09:52:58Z</time>
      </trkpt>
      <trkpt lat="45.97974" lon="4.78787">
        <ele>238</ele>
        <time>2017-08-17T09:52:59Z</time>
      </trkpt>
      <trkpt lat="45.97968" lon="4.78783">
        <ele>238</ele>
        <time>2017-08-17T09:53:00Z</time>
      </trkpt>
      <trkpt lat="45.97962" lon="4.78778">
        <ele>238</ele>
        <time>2017-08-17T09:53:01Z</time>
      </trkpt>
      <trkpt lat="45.97957" lon="4.78774">
        <ele>238</ele>
        <time>2017-08-17T09:53:02Z</time>
      </trkpt>
      <trkpt lat="45.97951" lon="4.7877">
        <ele>238</ele>
        <time>2017-08-17T09:53:03Z</time>
      </trkpt>
      <trkpt lat="45.97946" lon="4.78766">
        <ele>238</ele>
        <time>2017-08-17T09:53:04Z</time>
      </trkpt>
      <trkpt lat="45.9794" lon="4.78762">
        <ele>238</ele>
        <time>2017-08-17T09:53:05Z</time>
      </trkpt>
      <trkpt lat="45.97935" lon="4.78758">
        <ele>238</ele>
        <time>2017-08-17T09:53:06Z</time>
      </trkpt>
      <trkpt lat="45.9793" lon="4.78754">
        <ele>237</ele>
        <time>2017-08-17T09:53:07Z</time>
      </trkpt>
      <trkpt lat="45.97925" lon="4.7875">
        <ele>237</ele>
        <time>2017-08-17T09:53:08Z</time>
      </trkpt>
      <trkpt lat="45.9792" lon="4.78746">
        <ele>237</ele>
        <time>2017-08-17T09:53:09Z</time>
      </trkpt>
      <trkpt lat="45.97915" lon="4.78742">
        <ele>237</ele>
        <time>2017-08-17T09:53:10Z</time>
      </trkpt>
      <trkpt lat="45.9791" lon="4.78739">
        <ele>237</ele>
        <time>2017-08-17T09:53:11Z</time>
      </trkpt>
      <trkpt lat="45.97904" lon="4.78735">
        <ele>237</ele>
        <time>2017-08-17T09:53:12Z</time>
      </trkpt>
      <trkpt lat="45.97899" lon="4.78732">
        <ele>237</ele>
        <time>2017-08-17T09:53:13Z</time>
      </trkpt>
      <trkpt lat="45.97893" lon="4.78728">
        <ele>236</ele>
        <time>2017-08-17T09:53:14Z</time>
      </trkpt>
      <trkpt lat="45.97888" lon="4.78724">
        <ele>236</ele>
        <time>2017-08-17T09:53:15Z</time>
      </trkpt>
      <trkpt lat="45.97882" lon="4.78719">
        <ele>236</ele>
        <time>2017-08-17T09:53:16Z</time>
      </trkpt>
      <trkpt lat="45.97876" lon="4.78715">
        <ele>236</ele>
        <time>2017-08-17T09:53:17Z</time>
      </trkpt>
      <trkpt lat="45.97871" lon="4.78711">
        <ele>236</ele>
        <time>2017-08-17T09:53:18Z</time>
      </trkpt>
      <trkpt lat="45.97864" lon="4.78706">
        <ele>236</ele>
        <time>2017-08-17T09:53:19Z</time>
      </trkpt>
      <trkpt lat="45.97858" lon="4.78702">
        <ele>236</ele>
        <time>2017-08-17T09:53:20Z</time>
      </trkpt>
      <trkpt lat="45.97851" lon="4.78698">
        <ele>236</ele>
        <time>2017-08-17T09:53:21Z</time>
      </trkpt>
      <trkpt lat="45.97845" lon="4.78695">
        <ele>236</ele>
        <time>2017-08-17T09:53:22Z</time>
      </trkpt>
      <trkpt lat="45.97839" lon="4.78691">
        <ele>236</ele>
        <time>2017-08-17T09:53:23Z</time>
      </trkpt>
      <trkpt lat="45.97833" lon="4.78688">
        <ele>235</ele>
        <time>2017-08-17T09:53:24Z</time>
      </trkpt>
      <trkpt lat="45.97827" lon="4.78685">
        <ele>235</ele>
        <time>2017-08-17T09:53:25Z</time>
      </trkpt>
      <trkpt lat="45.97821" lon="4.78683">
        <ele>235</ele>
        <time>2017-08-17T09:53:26Z</time>
      </trkpt>
      <trkpt lat="45.97815" lon="4.7868">
        <ele>235</ele>
        <time>2017-08-17T09:53:27Z</time>
      </trkpt>
      <trkpt lat="45.97809" lon="4.78677">
        <ele>235</ele>
        <time>2017-08-17T09:53:28Z</time>
      </trkpt>
      <trkpt lat="45.97804" lon="4.78674">
        <ele>235</ele>
        <time>2017-08-17T09:53:29Z</time>
      </trkpt>
      <trkpt lat="45.97798" lon="4.78672">
        <ele>235</ele>
        <time>2017-08-17T09:53:30Z</time>
      </trkpt>
      <trkpt lat="45.97792" lon="4.78669">
        <ele>235</ele>
        <time>2017-08-17T09:53:31Z</time>
      </trkpt>
      <trkpt lat="45.97786" lon="4.78667">
        <ele>235</ele>
        <time>2017-08-17T09:53:32Z</time>
      </trkpt>
      <trkpt lat="45.9778" lon="4.78664">
        <ele>235</ele>
        <time>2017-08-17T09:53:33Z</time>
      </trkpt>
      <trkpt lat="45.97773" lon="4.78661">
        <ele>235</ele>
        <time>2017-08-17T09:53:34Z</time>
      </trkpt>
      <trkpt lat="45.97767" lon="4.78658">
        <ele>235</ele>
        <time>2017-08-17T09:53:35Z</time>
      </trkpt>
      <trkpt lat="45.9776" lon="4.78656">
        <ele>235</ele>
        <time>2017-08-17T09:53:36Z</time>
      </trkpt>
      <trkpt lat="45.97754" lon="4.78653">
        <ele>235</ele>
        <time>2017-08-17T09:53:37Z</time>
      </trkpt>
      <trkpt lat="45.97748" lon="4.7865">
        <ele>234</ele>
        <time>2017-08-17T09:53:38Z</time>
      </trkpt>
      <trkpt lat="45.97741" lon="4.78648">
        <ele>234</ele>
        <time>2017-08-17T09:53:39Z</time>
      </trkpt>
      <trkpt lat="45.97735" lon="4.78645">
        <ele>234</ele>
        <time>2017-08-17T09:53:40Z</time>
      </trkpt>
      <trkpt lat="45.97729" lon="4.78642">
        <ele>234</ele>
        <time>2017-08-17T09:53:41Z</time>
      </trkpt>
      <trkpt lat="45.97724" lon="4.7864">
        <ele>234</ele>
        <time>2017-08-17T09:53:42Z</time>
      </trkpt>
      <trkpt lat="45.97718" lon="4.78638">
        <ele>234</ele>
        <time>2017-08-17T09:53:43Z</time>
      </trkpt>
      <trkpt lat="45.97712" lon="4.78635">
        <ele>234</ele>
        <time>2017-08-17T09:53:44Z</time>
      </trkpt>
      <trkpt lat="45.97706" lon="4.78633">
        <ele>234</ele>
        <time>2017-08-17T09:53:45Z</time>
      </trkpt>
      <trkpt lat="45.97701" lon="4.78631">
        <ele>234</ele>
        <time>2017-08-17T09:53:46Z</time>
      </trkpt>
      <trkpt lat="45.97696" lon="4.78628">
        <ele>234</ele>
        <time>2017-08-17T09:53:47Z</time>
      </trkpt>
      <trkpt lat="45.9769" lon="4.78626">
        <ele>234</ele>
        <time>2017-08-17T09:53:48Z</time>
      </trkpt>
      <trkpt lat="45.97685" lon="4.78624">
        <ele>234</ele>
        <time>2017-08-17T09:53:49Z</time>
      </trkpt>
      <trkpt lat="45.9768" lon="4.78622">
        <ele>234</ele>
        <time>2017-08-17T09:53:50Z</time>
      </trkpt>
      <trkpt lat="45.97674" lon="4.78619">
        <ele>234</ele>
        <time>2017-08-17T09:53:51Z</time>
      </trkpt>
      <trkpt lat="45.97668" lon="4.78617">
        <ele>234</ele>
        <time>2017-08-17T09:53:52Z</time>
      </trkpt>
      <trkpt lat="45.97662" lon="4.78615">
        <ele>233</ele>
        <time>2017-08-17T09:53:53Z</time>
      </trkpt>
      <trkpt lat="45.97655" lon="4.78612">
        <ele>233</ele>
        <time>2017-08-17T09:53:54Z</time>
      </trkpt>
      <trkpt lat="45.97649" lon="4.78609">
        <ele>233</ele>
        <time>2017-08-17T09:53:55Z</time>
      </trkpt>
      <trkpt lat="45.97642" lon="4.78606">
        <ele>233</ele>
        <time>2017-08-17T09:53:56Z</time>
      </trkpt>
      <trkpt lat="45.97635" lon="4.78604">
        <ele>233</ele>
        <time>2017-08-17T09:53:57Z</time>
      </trkpt>
      <trkpt lat="45.97629" lon="4.78602">
        <ele>233</ele>
        <time>2017-08-17T09:53:58Z</time>
      </trkpt>
      <trkpt lat="45.97622" lon="4.78599">
        <ele>233</ele>
        <time>2017-08-17T09:53:59Z</time>
      </trkpt>
      <trkpt lat="45.97615" lon="4.78596">
        <ele>233</ele>
        <time>2017-08-17T09:54:00Z</time>
      </trkpt>
      <trkpt lat="45.97609" lon="4.78593">
        <ele>233</ele>
        <time>2017-08-17T09:54:01Z</time>
      </trkpt>
      <trkpt lat="45.97603" lon="4.78591">
        <ele>233</ele>
        <time>2017-08-17T09:54:02Z</time>
      </trkpt>
      <trkpt lat="45.97597" lon="4.78588">
        <ele>233</ele>
        <time>2017-08-17T09:54:03Z</time>
      </trkpt>
      <trkpt lat="45.97591" lon="4.78586">
        <ele>233</ele>
        <time>2017-08-17T09:54:04Z</time>
      </trkpt>
      <trkpt lat="45.97585" lon="4.78584">
        <ele>233</ele>
        <time>2017-08-17T09:54:05Z</time>
      </trkpt>
      <trkpt lat="45.97579" lon="4.78581">
        <ele>233</ele>
        <time>2017-08-17T09:54:06Z</time>
      </trkpt>
      <trkpt lat="45.97573" lon="4.78579">
        <ele>233</ele>
        <time>2017-08-17T09:54:07Z</time>
      </trkpt>
      <trkpt lat="45.97567" lon="4.78576">
        <ele>233</ele>
        <time>2017-08-17T09:54:08Z</time>
      </trkpt>
      <trkpt lat="45.9756" lon="4.78573">
        <ele>233</ele>
        <time>2017-08-17T09:54:09Z</time>
      </trkpt>
      <trkpt lat="45.97554" lon="4.7857">
        <ele>234</ele>
        <time>2017-08-17T09:54:10Z</time>
      </trkpt>
      <trkpt lat="45.97548" lon="4.78567">
        <ele>234</ele>
        <time>2017-08-17T09:54:11Z</time>
      </trkpt>
      <trkpt lat="45.97541" lon="4.78565">
        <ele>234</ele>
        <time>2017-08-17T09:54:12Z</time>
      </trkpt>
      <trkpt lat="45.97534" lon="4.78561">
        <ele>234</ele>
        <time>2017-08-17T09:54:13Z</time>
      </trkpt>
      <trkpt lat="45.97527" lon="4.78558">
        <ele>234</ele>
        <time>2017-08-17T09:54:14Z</time>
      </trkpt>
      <trkpt lat="45.9752" lon="4.78555">
        <ele>234</ele>
        <time>2017-08-17T09:54:15Z</time>
      </trkpt>
      <trkpt lat="45.97514" lon="4.78551">
        <ele>234</ele>
        <time>2017-08-17T09:54:16Z</time>
      </trkpt>
      <trkpt lat="45.97508" lon="4.78547">
        <ele>234</ele>
        <time>2017-08-17T09:54:17Z</time>
      </trkpt>
      <trkpt lat="45.97502" lon="4.78543">
        <ele>234</ele>
        <time>2017-08-17T09:54:18Z</time>
      </trkpt>
      <trkpt lat="45.97497" lon="4.78539">
        <ele>233</ele>
        <time>2017-08-17T09:54:19Z</time>
      </trkpt>
      <trkpt lat="45.97491" lon="4.78535">
        <ele>233</ele>
        <time>2017-08-17T09:54:20Z</time>
      </trkpt>
      <trkpt lat="45.97486" lon="4.78531">
        <ele>233</ele>
        <time>2017-08-17T09:54:21Z</time>
      </trkpt>
      <trkpt lat="45.97481" lon="4.78527">
        <ele>233</ele>
        <time>2017-08-17T09:54:22Z</time>
      </trkpt>
      <trkpt lat="45.97475" lon="4.78522">
        <ele>233</ele>
        <time>2017-08-17T09:54:23Z</time>
      </trkpt>
      <trkpt lat="45.9747" lon="4.78518">
        <ele>233</ele>
        <time>2017-08-17T09:54:24Z</time>
      </trkpt>
      <trkpt lat="45.97465" lon="4.78514">
        <ele>233</ele>
        <time>2017-08-17T09:54:25Z</time>
      </trkpt>
      <trkpt lat="45.9746" lon="4.78511">
        <ele>233</ele>
        <time>2017-08-17T09:54:26Z</time>
      </trkpt>
      <trkpt lat="45.97455" lon="4.78507">
        <ele>234</ele>
        <time>2017-08-17T09:54:27Z</time>
      </trkpt>
      <trkpt lat="45.97451" lon="4.78503">
        <ele>234</ele>
        <time>2017-08-17T09:54:28Z</time>
      </trkpt>
      <trkpt lat="45.97446" lon="4.78499">
        <ele>234</ele>
        <time>2017-08-17T09:54:29Z</time>
      </trkpt>
      <trkpt lat="45.97442" lon="4.78495">
        <ele>234</ele>
        <time>2017-08-17T09:54:30Z</time>
      </trkpt>
      <trkpt lat="45.97438" lon="4.78491">
        <ele>234</ele>
        <time>2017-08-17T09:54:31Z</time>
      </trkpt>
      <trkpt lat="45.97434" lon="4.78487">
        <ele>234</ele>
        <time>2017-08-17T09:54:32Z</time>
      </trkpt>
      <trkpt lat="45.97429" lon="4.78483">
        <ele>234</ele>
        <time>2017-08-17T09:54:33Z</time>
      </trkpt>
      <trkpt lat="45.97425" lon="4.78479">
        <ele>234</ele>
        <time>2017-08-17T09:54:34Z</time>
      </trkpt>
      <trkpt lat="45.9742" lon="4.78475">
        <ele>234</ele>
        <time>2017-08-17T09:54:35Z</time>
      </trkpt>
      <trkpt lat="45.97416" lon="4.7847">
        <ele>233</ele>
        <time>2017-08-17T09:54:36Z</time>
      </trkpt>
      <trkpt lat="45.97411" lon="4.78466">
        <ele>233</ele>
        <time>2017-08-17T09:54:37Z</time>
      </trkpt>
      <trkpt lat="45.97405" lon="4.78461">
        <ele>233</ele>
        <time>2017-08-17T09:54:38Z</time>
      </trkpt>
      <trkpt lat="45.974" lon="4.78455">
        <ele>233</ele>
        <time>2017-08-17T09:54:39Z</time>
      </trkpt>
      <trkpt lat="45.97394" lon="4.78449">
        <ele>233</ele>
        <time>2017-08-17T09:54:40Z</time>
      </trkpt>
      <trkpt lat="45.97389" lon="4.78443">
        <ele>233</ele>
        <time>2017-08-17T09:54:41Z</time>
      </trkpt>
      <trkpt lat="45.97383" lon="4.78437">
        <ele>233</ele>
        <time>2017-08-17T09:54:42Z</time>
      </trkpt>
      <trkpt lat="45.97378" lon="4.78431">
        <ele>233</ele>
        <time>2017-08-17T09:54:43Z</time>
      </trkpt>
      <trkpt lat="45.97373" lon="4.78425">
        <ele>233</ele>
        <time>2017-08-17T09:54:44Z</time>
      </trkpt>
      <trkpt lat="45.97367" lon="4.7842">
        <ele>233</ele>
        <time>2017-08-17T09:54:45Z</time>
      </trkpt>
      <trkpt lat="45.97362" lon="4.78414">
        <ele>233</ele>
        <time>2017-08-17T09:54:46Z</time>
      </trkpt>
      <trkpt lat="45.97357" lon="4.78409">
        <ele>232</ele>
        <time>2017-08-17T09:54:47Z</time>
      </trkpt>
      <trkpt lat="45.97352" lon="4.78403">
        <ele>232</ele>
        <time>2017-08-17T09:54:48Z</time>
      </trkpt>
      <trkpt lat="45.97347" lon="4.78398">
        <ele>232</ele>
        <time>2017-08-17T09:54:49Z</time>
      </trkpt>
      <trkpt lat="45.97342" lon="4.78392">
        <ele>233</ele>
        <time>2017-08-17T09:54:50Z</time>
      </trkpt>
      <trkpt lat="45.97337" lon="4.78387">
        <ele>233</ele>
        <time>2017-08-17T09:54:51Z</time>
      </trkpt>
      <trkpt lat="45.97333" lon="4.78382">
        <ele>232</ele>
        <time>2017-08-17T09:54:52Z</time>
      </trkpt>
      <trkpt lat="45.97328" lon="4.78376">
        <ele>232</ele>
        <time>2017-08-17T09:54:53Z</time>
      </trkpt>
      <trkpt lat="45.97324" lon="4.78371">
        <ele>232</ele>
        <time>2017-08-17T09:54:54Z</time>
      </trkpt>
      <trkpt lat="45.97319" lon="4.78365">
        <ele>232</ele>
        <time>2017-08-17T09:54:55Z</time>
      </trkpt>
      <trkpt lat="45.97315" lon="4.78359">
        <ele>232</ele>
        <time>2017-08-17T09:54:56Z</time>
      </trkpt>
      <trkpt lat="45.9731" lon="4.78354">
        <ele>232</ele>
        <time>2017-08-17T09:54:57Z</time>
      </trkpt>
      <trkpt lat="45.97306" lon="4.78348">
        <ele>232</ele>
        <time>2017-08-17T09:54:58Z</time>
      </trkpt>
      <trkpt lat="45.97301" lon="4.78341">
        <ele>232</ele>
        <time>2017-08-17T09:54:59Z</time>
      </trkpt>
      <trkpt lat="45.97296" lon="4.78334">
        <ele>232</ele>
        <time>2017-08-17T09:55:00Z</time>
      </trkpt>
      <trkpt lat="45.97292" lon="4.78327">
        <ele>232</ele>
        <time>2017-08-17T09:55:01Z</time>
      </trkpt>
      <trkpt lat="45.97287" lon="4.7832">
        <ele>232</ele>
        <time>2017-08-17T09:55:02Z</time>
      </trkpt>
      <trkpt lat="45.97282" lon="4.78313">
        <ele>232</ele>
        <time>2017-08-17T09:55:03Z</time>
      </trkpt>
      <trkpt lat="45.97278" lon="4.78306">
        <ele>232</ele>
        <time>2017-08-17T09:55:04Z</time>
      </trkpt>
      <trkpt lat="45.97273" lon="4.78299">
        <ele>232</ele>
        <time>2017-08-17T09:55:05Z</time>
      </trkpt>
      <trkpt lat="45.97268" lon="4.78292">
        <ele>232</ele>
        <time>2017-08-17T09:55:06Z</time>
      </trkpt>
      <trkpt lat="45.97264" lon="4.78286">
        <ele>232</ele>
        <time>2017-08-17T09:55:07Z</time>
      </trkpt>
      <trkpt lat="45.97259" lon="4.78279">
        <ele>232</ele>
        <time>2017-08-17T09:55:08Z</time>
      </trkpt>
      <trkpt lat="45.97255" lon="4.78273">
        <ele>232</ele>
        <time>2017-08-17T09:55:09Z</time>
      </trkpt>
      <trkpt lat="45.97251" lon="4.78267">
        <ele>231</ele>
        <time>2017-08-17T09:55:10Z</time>
      </trkpt>
      <trkpt lat="45.97247" lon="4.78261">
        <ele>231</ele>
        <time>2017-08-17T09:55:11Z</time>
      </trkpt>
      <trkpt lat="45.97243" lon="4.78255">
        <ele>231</ele>
        <time>2017-08-17T09:55:12Z</time>
      </trkpt>
      <trkpt lat="45.97239" lon="4.78249">
        <ele>231</ele>
        <time>2017-08-17T09:55:13Z</time>
      </trkpt>
      <trkpt lat="45.97235" lon="4.78243">
        <ele>231</ele>
        <time>2017-08-17T09:55:14Z</time>
      </trkpt>
      <trkpt lat="45.97232" lon="4.78237">
        <ele>231</ele>
        <time>2017-08-17T09:55:15Z</time>
      </trkpt>
      <trkpt lat="45.97228" lon="4.78232">
        <ele>231</ele>
        <time>2017-08-17T09:55:16Z</time>
      </trkpt>
      <trkpt lat="45.97225" lon="4.78227">
        <ele>231</ele>
        <time>2017-08-17T09:55:17Z</time>
      </trkpt>
      <trkpt lat="45.97221" lon="4.78221">
        <ele>231</ele>
        <time>2017-08-17T09:55:18Z</time>
      </trkpt>
      <trkpt lat="45.97218" lon="4.78215">
        <ele>231</ele>
        <time>2017-08-17T09:55:19Z</time>
      </trkpt>
      <trkpt lat="45.97214" lon="4.78208">
        <ele>231</ele>
        <time>2017-08-17T09:55:20Z</time>
      </trkpt>
      <trkpt lat="45.9721" lon="4.78201">
        <ele>231</ele>
        <time>2017-08-17T09:55:21Z</time>
      </trkpt>
      <trkpt lat="45.97206" lon="4.78194">
        <ele>231</ele>
        <time>2017-08-17T09:55:22Z</time>
      </trkpt>
      <trkpt lat="45.97202" lon="4.78187">
        <ele>231</ele>
        <time>2017-08-17T09:55:23Z</time>
      </trkpt>
      <trkpt lat="45.97198" lon="4.7818">
        <ele>231</ele>
        <time>2017-08-17T09:55:24Z</time>
      </trkpt>
      <trkpt lat="45.97193" lon="4.78172">
        <ele>231</ele>
        <time>2017-08-17T09:55:25Z</time>
      </trkpt>
      <trkpt lat="45.97189" lon="4.78164">
        <ele>231</ele>
        <time>2017-08-17T09:55:26Z</time>
      </trkpt>
      <trkpt lat="45.97185" lon="4.78156">
        <ele>231</ele>
        <time>2017-08-17T09:55:27Z</time>
      </trkpt>
      <trkpt lat="45.97181" lon="4.78149">
        <ele>231</ele>
        <time>2017-08-17T09:55:28Z</time>
      </trkpt>
      <trkpt lat="45.97177" lon="4.78141">
        <ele>231</ele>
        <time>2017-08-17T09:55:29Z</time>
      </trkpt>
      <trkpt lat="45.97173" lon="4.78135">
        <ele>231</ele>
        <time>2017-08-17T09:55:30Z</time>
      </trkpt>
      <trkpt lat="45.97169" lon="4.78128">
        <ele>231</ele>
        <time>2017-08-17T09:55:31Z</time>
      </trkpt>
      <trkpt lat="45.97166" lon="4.78121">
        <ele>230</ele>
        <time>2017-08-17T09:55:32Z</time>
      </trkpt>
      <trkpt lat="45.97162" lon="4.78114">
        <ele>230</ele>
        <time>2017-08-17T09:55:33Z</time>
      </trkpt>
      <trkpt lat="45.97158" lon="4.78108">
        <ele>230</ele>
        <time>2017-08-17T09:55:34Z</time>
      </trkpt>
      <trkpt lat="45.97155" lon="4.78101">
        <ele>230</ele>
        <time>2017-08-17T09:55:35Z</time>
      </trkpt>
      <trkpt lat="45.97151" lon="4.78095">
        <ele>230</ele>
        <time>2017-08-17T09:55:36Z</time>
      </trkpt>
      <trkpt lat="45.97148" lon="4.78089">
        <ele>230</ele>
        <time>2017-08-17T09:55:37Z</time>
      </trkpt>
      <trkpt lat="45.97144" lon="4.78082">
        <ele>230</ele>
        <time>2017-08-17T09:55:38Z</time>
      </trkpt>
      <trkpt lat="45.9714" lon="4.78075">
        <ele>230</ele>
        <time>2017-08-17T09:55:39Z</time>
      </trkpt>
      <trkpt lat="45.97136" lon="4.78069">
        <ele>230</ele>
        <time>2017-08-17T09:55:40Z</time>
      </trkpt>
      <trkpt lat="45.97131" lon="4.78062">
        <ele>230</ele>
        <time>2017-08-17T09:55:41Z</time>
      </trkpt>
      <trkpt lat="45.97126" lon="4.78056">
        <ele>230</ele>
        <time>2017-08-17T09:55:42Z</time>
      </trkpt>
      <trkpt lat="45.9712" lon="4.78051">
        <ele>229</ele>
        <time>2017-08-17T09:55:43Z</time>
      </trkpt>
      <trkpt lat="45.97115" lon="4.78045">
        <ele>229</ele>
        <time>2017-08-17T09:55:44Z</time>
      </trkpt>
      <trkpt lat="45.97109" lon="4.78039">
        <ele>229</ele>
        <time>2017-08-17T09:55:45Z</time>
      </trkpt>
      <trkpt lat="45.97104" lon="4.78034">
        <ele>229</ele>
        <time>2017-08-17T09:55:46Z</time>
      </trkpt>
      <trkpt lat="45.97098" lon="4.78029">
        <ele>229</ele>
        <time>2017-08-17T09:55:47Z</time>
      </trkpt>
      <trkpt lat="45.97093" lon="4.78023">
        <ele>229</ele>
        <time>2017-08-17T09:55:48Z</time>
      </trkpt>
      <trkpt lat="45.97087" lon="4.78018">
        <ele>229</ele>
        <time>2017-08-17T09:55:49Z</time>
      </trkpt>
      <trkpt lat="45.97082" lon="4.78013">
        <ele>229</ele>
        <time>2017-08-17T09:55:50Z</time>
      </trkpt>
      <trkpt lat="45.97077" lon="4.78008">
        <ele>229</ele>
        <time>2017-08-17T09:55:51Z</time>
      </trkpt>
      <trkpt lat="45.97072" lon="4.78003">
        <ele>229</ele>
        <time>2017-08-17T09:55:52Z</time>
      </trkpt>
      <trkpt lat="45.97066" lon="4.77999">
        <ele>229</ele>
        <time>2017-08-17T09:55:53Z</time>
      </trkpt>
      <trkpt lat="45.97061" lon="4.77993">
        <ele>229</ele>
        <time>2017-08-17T09:55:54Z</time>
      </trkpt>
      <trkpt lat="45.97057" lon="4.77988">
        <ele>229</ele>
        <time>2017-08-17T09:55:55Z</time>
      </trkpt>
      <trkpt lat="45.97052" lon="4.77984">
        <ele>229</ele>
        <time>2017-08-17T09:55:56Z</time>
      </trkpt>
      <trkpt lat="45.97048" lon="4.77979">
        <ele>229</ele>
        <time>2017-08-17T09:55:57Z</time>
      </trkpt>
      <trkpt lat="45.97043" lon="4.77975">
        <ele>229</ele>
        <time>2017-08-17T09:55:58Z</time>
      </trkpt>
      <trkpt lat="45.97039" lon="4.7797">
        <ele>229</ele>
        <time>2017-08-17T09:55:59Z</time>
      </trkpt>
      <trkpt lat="45.97034" lon="4.77965">
        <ele>229</ele>
        <time>2017-08-17T09:56:00Z</time>
      </trkpt>
      <trkpt lat="45.9703" lon="4.7796">
        <ele>228</ele>
        <time>2017-08-17T09:56:01Z</time>
      </trkpt>
      <trkpt lat="45.97025" lon="4.77954">
        <ele>228</ele>
        <time>2017-08-17T09:56:02Z</time>
      </trkpt>
      <trkpt lat="45.9702" lon="4.77948">
        <ele>228</ele>
        <time>2017-08-17T09:56:03Z</time>
      </trkpt>
      <trkpt lat="45.97015" lon="4.77942">
        <ele>228</ele>
        <time>2017-08-17T09:56:04Z</time>
      </trkpt>
      <trkpt lat="45.9701" lon="4.77935">
        <ele>228</ele>
        <time>2017-08-17T09:56:05Z</time>
      </trkpt>
      <trkpt lat="45.97005" lon="4.77928">
        <ele>228</ele>
        <time>2017-08-17T09:56:06Z</time>
      </trkpt>
      <trkpt lat="45.97" lon="4.77922">
        <ele>227</ele>
        <time>2017-08-17T09:56:07Z</time>
      </trkpt>
      <trkpt lat="45.96994" lon="4.77915">
        <ele>227</ele>
        <time>2017-08-17T09:56:08Z</time>
      </trkpt>
      <trkpt lat="45.9699" lon="4.77909">
        <ele>227</ele>
        <time>2017-08-17T09:56:09Z</time>
      </trkpt>
      <trkpt lat="45.96985" lon="4.77902">
        <ele>227</ele>
        <time>2017-08-17T09:56:10Z</time>
      </trkpt>
      <trkpt lat="45.9698" lon="4.77896">
        <ele>228</ele>
        <time>2017-08-17T09:56:11Z</time>
      </trkpt>
      <trkpt lat="45.96975" lon="4.7789">
        <ele>228</ele>
        <time>2017-08-17T09:56:12Z</time>
      </trkpt>
      <trkpt lat="45.9697" lon="4.77884">
        <ele>228</ele>
        <time>2017-08-17T09:56:13Z</time>
      </trkpt>
      <trkpt lat="45.96965" lon="4.77878">
        <ele>228</ele>
        <time>2017-08-17T09:56:14Z</time>
      </trkpt>
      <trkpt lat="45.9696" lon="4.77873">
        <ele>228</ele>
        <time>2017-08-17T09:56:15Z</time>
      </trkpt>
      <trkpt lat="45.96955" lon="4.77867">
        <ele>228</ele>
        <time>2017-08-17T09:56:16Z</time>
      </trkpt>
      <trkpt lat="45.96951" lon="4.77861">
        <ele>228</ele>
        <time>2017-08-17T09:56:17Z</time>
      </trkpt>
      <trkpt lat="45.96946" lon="4.77856">
        <ele>228</ele>
        <time>2017-08-17T09:56:18Z</time>
      </trkpt>
      <trkpt lat="45.96941" lon="4.77851">
        <ele>228</ele>
        <time>2017-08-17T09:56:19Z</time>
      </trkpt>
      <trkpt lat="45.96937" lon="4.77846">
        <ele>228</ele>
        <time>2017-08-17T09:56:20Z</time>
      </trkpt>
      <trkpt lat="45.96933" lon="4.7784">
        <ele>228</ele>
        <time>2017-08-17T09:56:21Z</time>
      </trkpt>
      <trkpt lat="45.96928" lon="4.77836">
        <ele>228</ele>
        <time>2017-08-17T09:56:22Z</time>
      </trkpt>
      <trkpt lat="45.96924" lon="4.77831">
        <ele>228</ele>
        <time>2017-08-17T09:56:23Z</time>
      </trkpt>
      <trkpt lat="45.9692" lon="4.77826">
        <ele>228</ele>
        <time>2017-08-17T09:56:24Z</time>
      </trkpt>
      <trkpt lat="45.96916" lon="4.77821">
        <ele>228</ele>
        <time>2017-08-17T09:56:25Z</time>
      </trkpt>
      <trkpt lat="45.96911" lon="4.77817">
        <ele>228</ele>
        <time>2017-08-17T09:56:26Z</time>
      </trkpt>
      <trkpt lat="45.96907" lon="4.77813">
        <ele>228</ele>
        <time>2017-08-17T09:56:27Z</time>
      </trkpt>
      <trkpt lat="45.96902" lon="4.77809">
        <ele>228</ele>
        <time>2017-08-17T09:56:28Z</time>
      </trkpt>
      <trkpt lat="45.96897" lon="4.77804">
        <ele>228</ele>
        <time>2017-08-17T09:56:29Z</time>
      </trkpt>
      <trkpt lat="45.96891" lon="4.778">
        <ele>228</ele>
        <time>2017-08-17T09:56:30Z</time>
      </trkpt>
      <trkpt lat="45.96886" lon="4.77794">
        <ele>228</ele>
        <time>2017-08-17T09:56:31Z</time>
      </trkpt>
      <trkpt lat="45.96881" lon="4.77789">
        <ele>228</ele>
        <time>2017-08-17T09:56:32Z</time>
      </trkpt>
      <trkpt lat="45.96876" lon="4.77784">
        <ele>228</ele>
        <time>2017-08-17T09:56:33Z</time>
      </trkpt>
      <trkpt lat="45.96871" lon="4.7778">
        <ele>228</ele>
        <time>2017-08-17T09:56:34Z</time>
      </trkpt>
      <trkpt lat="45.96866" lon="4.77775">
        <ele>228</ele>
        <time>2017-08-17T09:56:35Z</time>
      </trkpt>
      <trkpt lat="45.96861" lon="4.7777">
        <ele>228</ele>
        <time>2017-08-17T09:56:36Z</time>
      </trkpt>
      <trkpt lat="45.96857" lon="4.77765">
        <ele>228</ele>
        <time>2017-08-17T09:56:37Z</time>
      </trkpt>
      <trkpt lat="45.96852" lon="4.7776">
        <ele>228</ele>
        <time>2017-08-17T09:56:38Z</time>
      </trkpt>
      <trkpt lat="45.96848" lon="4.77755">
        <ele>228</ele>
        <time>2017-08-17T09:56:39Z</time>
      </trkpt>
      <trkpt lat="45.96843" lon="4.7775">
        <ele>228</ele>
        <time>2017-08-17T09:56:40Z</time>
      </trkpt>
      <trkpt lat="45.96839" lon="4.77746">
        <ele>228</ele>
        <time>2017-08-17T09:56:41Z</time>
      </trkpt>
      <trkpt lat="45.96835" lon="4.77741">
        <ele>228</ele>
        <time>2017-08-17T09:56:42Z</time>
      </trkpt>
      <trkpt lat="45.96831" lon="4.77737">
        <ele>228</ele>
        <time>2017-08-17T09:56:43Z</time>
      </trkpt>
      <trkpt lat="45.96827" lon="4.77732">
        <ele>228</ele>
        <time>2017-08-17T09:56:44Z</time>
      </trkpt>
      <trkpt lat="45.96823" lon="4.77728">
        <ele>228</ele>
        <time>2017-08-17T09:56:45Z</time>
      </trkpt>
      <trkpt lat="45.96818" lon="4.77724">
        <ele>228</ele>
        <time>2017-08-17T09:56:46Z</time>
      </trkpt>
      <trkpt lat="45.96814" lon="4.77719">
        <ele>228</ele>
        <time>2017-08-17T09:56:47Z</time>
      </trkpt>
      <trkpt lat="45.96809" lon="4.77714">
        <ele>228</ele>
        <time>2017-08-17T09:56:48Z</time>
      </trkpt>
      <trkpt lat="45.96804" lon="4.77709">
        <ele>228</ele>
        <time>2017-08-17T09:56:49Z</time>
      </trkpt>
      <trkpt lat="45.96799" lon="4.77704">
        <ele>228</ele>
        <time>2017-08-17T09:56:50Z</time>
      </trkpt>
      <trkpt lat="45.96794" lon="4.77697">
        <ele>228</ele>
        <time>2017-08-17T09:56:51Z</time>
      </trkpt>
      <trkpt lat="45.96788" lon="4.77691">
        <ele>227</ele>
        <time>2017-08-17T09:56:52Z</time>
      </trkpt>
      <trkpt lat="45.96783" lon="4.77684">
        <ele>227</ele>
        <time>2017-08-17T09:56:53Z</time>
      </trkpt>
      <trkpt lat="45.96778" lon="4.77677">
        <ele>227</ele>
        <time>2017-08-17T09:56:54Z</time>
      </trkpt>
      <trkpt lat="45.96772" lon="4.7767">
        <ele>227</ele>
        <time>2017-08-17T09:56:55Z</time>
      </trkpt>
      <trkpt lat="45.96766" lon="4.77663">
        <ele>227</ele>
        <time>2017-08-17T09:56:56Z</time>
      </trkpt>
      <trkpt lat="45.9676" lon="4.77656">
        <ele>227</ele>
        <time>2017-08-17T09:56:57Z</time>
      </trkpt>
      <trkpt lat="45.96755" lon="4.77649">
        <ele>227</ele>
        <time>2017-08-17T09:56:58Z</time>
      </trkpt>
      <trkpt lat="45.96749" lon="4.77642">
        <ele>227</ele>
        <time>2017-08-17T09:56:59Z</time>
      </trkpt>
      <trkpt lat="45.96743" lon="4.77635">
        <ele>227</ele>
        <time>2017-08-17T09:57:00Z</time>
      </trkpt>
      <trkpt lat="45.96738" lon="4.77629">
        <ele>226</ele>
        <time>2017-08-17T09:57:01Z</time>
      </trkpt>
      <trkpt lat="45.96733" lon="4.77622">
        <ele>226</ele>
        <time>2017-08-17T09:57:02Z</time>
      </trkpt>
      <trkpt lat="45.96729" lon="4.77616">
        <ele>226</ele>
        <time>2017-08-17T09:57:03Z</time>
      </trkpt>
      <trkpt lat="45.96723" lon="4.77609">
        <ele>226</ele>
        <time>2017-08-17T09:57:04Z</time>
      </trkpt>
      <trkpt lat="45.96718" lon="4.77603">
        <ele>226</ele>
        <time>2017-08-17T09:57:05Z</time>
      </trkpt>
      <trkpt lat="45.96713" lon="4.77596">
        <ele>226</ele>
        <time>2017-08-17T09:57:06Z</time>
      </trkpt>
      <trkpt lat="45.96707" lon="4.7759">
        <ele>226</ele>
        <time>2017-08-17T09:57:07Z</time>
      </trkpt>
      <trkpt lat="45.96701" lon="4.77585">
        <ele>226</ele>
        <time>2017-08-17T09:57:08Z</time>
      </trkpt>
      <trkpt lat="45.96696" lon="4.77579">
        <ele>225</ele>
        <time>2017-08-17T09:57:09Z</time>
      </trkpt>
      <trkpt lat="45.9669" lon="4.77574">
        <ele>225</ele>
        <time>2017-08-17T09:57:10Z</time>
      </trkpt>
      <trkpt lat="45.96683" lon="4.77569">
        <ele>225</ele>
        <time>2017-08-17T09:57:11Z</time>
      </trkpt>
      <trkpt lat="45.96677" lon="4.77564">
        <ele>225</ele>
        <time>2017-08-17T09:57:12Z</time>
      </trkpt>
      <trkpt lat="45.96671" lon="4.7756">
        <ele>225</ele>
        <time>2017-08-17T09:57:13Z</time>
      </trkpt>
      <trkpt lat="45.96665" lon="4.77555">
        <ele>224</ele>
        <time>2017-08-17T09:57:14Z</time>
      </trkpt>
      <trkpt lat="45.96659" lon="4.77551">
        <ele>224</ele>
        <time>2017-08-17T09:57:15Z</time>
      </trkpt>
      <trkpt lat="45.96653" lon="4.77547">
        <ele>224</ele>
        <time>2017-08-17T09:57:16Z</time>
      </trkpt>
      <trkpt lat="45.96646" lon="4.77543">
        <ele>224</ele>
        <time>2017-08-17T09:57:17Z</time>
      </trkpt>
      <trkpt lat="45.9664" lon="4.77538">
        <ele>224</ele>
        <time>2017-08-17T09:57:18Z</time>
      </trkpt>
      <trkpt lat="45.96634" lon="4.77534">
        <ele>224</ele>
        <time>2017-08-17T09:57:19Z</time>
      </trkpt>
      <trkpt lat="45.96628" lon="4.77531">
        <ele>224</ele>
        <time>2017-08-17T09:57:20Z</time>
      </trkpt>
      <trkpt lat="45.96622" lon="4.77527">
        <ele>224</ele>
        <time>2017-08-17T09:57:21Z</time>
      </trkpt>
      <trkpt lat="45.96616" lon="4.77523">
        <ele>224</ele>
        <time>2017-08-17T09:57:22Z</time>
      </trkpt>
      <trkpt lat="45.9661" lon="4.77519">
        <ele>224</ele>
        <time>2017-08-17T09:57:23Z</time>
      </trkpt>
      <trkpt lat="45.96604" lon="4.77515">
        <ele>224</ele>
        <time>2017-08-17T09:57:24Z</time>
      </trkpt>
      <trkpt lat="45.96599" lon="4.7751">
        <ele>224</ele>
        <time>2017-08-17T09:57:25Z</time>
      </trkpt>
      <trkpt lat="45.96592" lon="4.77507">
        <ele>224</ele>
        <time>2017-08-17T09:57:26Z</time>
      </trkpt>
      <trkpt lat="45.96586" lon="4.77503">
        <ele>224</ele>
        <time>2017-08-17T09:57:27Z</time>
      </trkpt>
      <trkpt lat="45.96579" lon="4.77499">
        <ele>224</ele>
        <time>2017-08-17T09:57:28Z</time>
      </trkpt>
      <trkpt lat="45.96573" lon="4.77495">
        <ele>224</ele>
        <time>2017-08-17T09:57:29Z</time>
      </trkpt>
      <trkpt lat="45.96567" lon="4.77491">
        <ele>224</ele>
        <time>2017-08-17T09:57:30Z</time>
      </trkpt>
      <trkpt lat="45.9656" lon="4.77487">
        <ele>224</ele>
        <time>2017-08-17T09:57:31Z</time>
      </trkpt>
      <trkpt lat="45.96553" lon="4.77483">
        <ele>223</ele>
        <time>2017-08-17T09:57:32Z</time>
      </trkpt>
      <trkpt lat="45.96546" lon="4.77479">
        <ele>223</ele>
        <time>2017-08-17T09:57:33Z</time>
      </trkpt>
      <trkpt lat="45.9654" lon="4.77475">
        <ele>223</ele>
        <time>2017-08-17T09:57:34Z</time>
      </trkpt>
      <trkpt lat="45.96533" lon="4.77471">
        <ele>223</ele>
        <time>2017-08-17T09:57:35Z</time>
      </trkpt>
      <trkpt lat="45.96527" lon="4.77467">
        <ele>223</ele>
        <time>2017-08-17T09:57:36Z</time>
      </trkpt>
      <trkpt lat="45.9652" lon="4.77464">
        <ele>223</ele>
        <time>2017-08-17T09:57:37Z</time>
      </trkpt>
      <trkpt lat="45.96513" lon="4.7746">
        <ele>223</ele>
        <time>2017-08-17T09:57:38Z</time>
      </trkpt>
      <trkpt lat="45.96507" lon="4.77456">
        <ele>223</ele>
        <time>2017-08-17T09:57:39Z</time>
      </trkpt>
      <trkpt lat="45.96501" lon="4.77452">
        <ele>223</ele>
        <time>2017-08-17T09:57:40Z</time>
      </trkpt>
      <trkpt lat="45.96494" lon="4.77448">
        <ele>221</ele>
        <time>2017-08-17T09:57:41Z</time>
      </trkpt>
      <trkpt lat="45.96488" lon="4.77443">
        <ele>221</ele>
        <time>2017-08-17T09:57:42Z</time>
      </trkpt>
      <trkpt lat="45.96482" lon="4.77439">
        <ele>221</ele>
        <time>2017-08-17T09:57:43Z</time>
      </trkpt>
      <trkpt lat="45.96475" lon="4.77434">
        <ele>221</ele>
        <time>2017-08-17T09:57:44Z</time>
      </trkpt>
      <trkpt lat="45.96468" lon="4.77429">
        <ele>221</ele>
        <time>2017-08-17T09:57:45Z</time>
      </trkpt>
      <trkpt lat="45.96461" lon="4.77425">
        <ele>221</ele>
        <time>2017-08-17T09:57:46Z</time>
      </trkpt>
      <trkpt lat="45.96454" lon="4.7742">
        <ele>221</ele>
        <time>2017-08-17T09:57:47Z</time>
      </trkpt>
      <trkpt lat="45.96447" lon="4.77415">
        <ele>222</ele>
        <time>2017-08-17T09:57:48Z</time>
      </trkpt>
      <trkpt lat="45.9644" lon="4.7741">
        <ele>222</ele>
        <time>2017-08-17T09:57:49Z</time>
      </trkpt>
      <trkpt lat="45.96432" lon="4.77406">
        <ele>222</ele>
        <time>2017-08-17T09:57:50Z</time>
      </trkpt>
      <trkpt lat="45.96424" lon="4.77402">
        <ele>222</ele>
        <time>2017-08-17T09:57:51Z</time>
      </trkpt>
      <trkpt lat="45.96416" lon="4.77397">
        <ele>220</ele>
        <time>2017-08-17T09:57:52Z</time>
      </trkpt>
      <trkpt lat="45.96409" lon="4.77393">
        <ele>220</ele>
        <time>2017-08-17T09:57:53Z</time>
      </trkpt>
      <trkpt lat="45.96401" lon="4.77388">
        <ele>220</ele>
        <time>2017-08-17T09:57:54Z</time>
      </trkpt>
      <trkpt lat="45.96394" lon="4.77385">
        <ele>220</ele>
        <time>2017-08-17T09:57:55Z</time>
      </trkpt>
      <trkpt lat="45.96387" lon="4.7738">
        <ele>220</ele>
        <time>2017-08-17T09:57:56Z</time>
      </trkpt>
      <trkpt lat="45.96379" lon="4.77376">
        <ele>220</ele>
        <time>2017-08-17T09:57:57Z</time>
      </trkpt>
      <trkpt lat="45.96372" lon="4.77372">
        <ele>219</ele>
        <time>2017-08-17T09:57:58Z</time>
      </trkpt>
      <trkpt lat="45.96365" lon="4.77367">
        <ele>219</ele>
        <time>2017-08-17T09:57:59Z</time>
      </trkpt>
      <trkpt lat="45.96358" lon="4.77363">
        <ele>219</ele>
        <time>2017-08-17T09:58:00Z</time>
      </trkpt>
      <trkpt lat="45.9635" lon="4.77359">
        <ele>219</ele>
        <time>2017-08-17T09:58:01Z</time>
      </trkpt>
      <trkpt lat="45.96343" lon="4.77354">
        <ele>219</ele>
        <time>2017-08-17T09:58:02Z</time>
      </trkpt>
      <trkpt lat="45.96334" lon="4.77349">
        <ele>220</ele>
        <time>2017-08-17T09:58:03Z</time>
      </trkpt>
      <trkpt lat="45.96327" lon="4.77344">
        <ele>218</ele>
        <time>2017-08-17T09:58:04Z</time>
      </trkpt>
      <trkpt lat="45.96319" lon="4.77339">
        <ele>218</ele>
        <time>2017-08-17T09:58:05Z</time>
      </trkpt>
      <trkpt lat="45.96312" lon="4.77335">
        <ele>218</ele>
        <time>2017-08-17T09:58:06Z</time>
      </trkpt>
      <trkpt lat="45.96305" lon="4.77332">
        <ele>219</ele>
        <time>2017-08-17T09:58:07Z</time>
      </trkpt>
      <trkpt lat="45.96298" lon="4.77328">
        <ele>219</ele>
        <time>2017-08-17T09:58:08Z</time>
      </trkpt>
      <trkpt lat="45.96291" lon="4.77324">
        <ele>219</ele>
        <time>2017-08-17T09:58:09Z</time>
      </trkpt>
      <trkpt lat="45.96284" lon="4.7732">
        <ele>219</ele>
        <time>2017-08-17T09:58:10Z</time>
      </trkpt>
      <trkpt lat="45.96277" lon="4.77317">
        <ele>219</ele>
        <time>2017-08-17T09:58:11Z</time>
      </trkpt>
      <trkpt lat="45.9627" lon="4.77313">
        <ele>219</ele>
        <time>2017-08-17T09:58:12Z</time>
      </trkpt>
      <trkpt lat="45.96264" lon="4.77309">
        <ele>219</ele>
        <time>2017-08-17T09:58:13Z</time>
      </trkpt>
      <trkpt lat="45.96257" lon="4.77305">
        <ele>219</ele>
        <time>2017-08-17T09:58:14Z</time>
      </trkpt>
      <trkpt lat="45.9625" lon="4.77302">
        <ele>219</ele>
        <time>2017-08-17T09:58:15Z</time>
      </trkpt>
      <trkpt lat="45.96244" lon="4.77298">
        <ele>217</ele>
        <time>2017-08-17T09:58:16Z</time>
      </trkpt>
      <trkpt lat="45.96236" lon="4.77295">
        <ele>217</ele>
        <time>2017-08-17T09:58:17Z</time>
      </trkpt>
      <trkpt lat="45.9623" lon="4.77291">
        <ele>217</ele>
        <time>2017-08-17T09:58:18Z</time>
      </trkpt>
      <trkpt lat="45.96222" lon="4.77287">
        <ele>217</ele>
        <time>2017-08-17T09:58:19Z</time>
      </trkpt>
      <trkpt lat="45.96215" lon="4.77283">
        <ele>217</ele>
        <time>2017-08-17T09:58:20Z</time>
      </trkpt>
      <trkpt lat="45.96207" lon="4.77279">
        <ele>217</ele>
        <time>2017-08-17T09:58:21Z</time>
      </trkpt>
      <trkpt lat="45.962" lon="4.77275">
        <ele>216</ele>
        <time>2017-08-17T09:58:22Z</time>
      </trkpt>
      <trkpt lat="45.96194" lon="4.77271">
        <ele>216</ele>
        <time>2017-08-17T09:58:23Z</time>
      </trkpt>
      <trkpt lat="45.96187" lon="4.77267">
        <ele>216</ele>
        <time>2017-08-17T09:58:24Z</time>
      </trkpt>
      <trkpt lat="45.96179" lon="4.77263">
        <ele>216</ele>
        <time>2017-08-17T09:58:25Z</time>
      </trkpt>
      <trkpt lat="45.96173" lon="4.77258">
        <ele>216</ele>
        <time>2017-08-17T09:58:26Z</time>
      </trkpt>
      <trkpt lat="45.96166" lon="4.77254">
        <ele>215</ele>
        <time>2017-08-17T09:58:27Z</time>
      </trkpt>
      <trkpt lat="45.96159" lon="4.7725">
        <ele>216</ele>
        <time>2017-08-17T09:58:28Z</time>
      </trkpt>
      <trkpt lat="45.96152" lon="4.77248">
        <ele>215</ele>
        <time>2017-08-17T09:58:29Z</time>
      </trkpt>
      <trkpt lat="45.96144" lon="4.77245">
        <ele>215</ele>
        <time>2017-08-17T09:58:30Z</time>
      </trkpt>
      <trkpt lat="45.96137" lon="4.77242">
        <ele>215</ele>
        <time>2017-08-17T09:58:31Z</time>
      </trkpt>
      <trkpt lat="45.96129" lon="4.7724">
        <ele>215</ele>
        <time>2017-08-17T09:58:32Z</time>
      </trkpt>
      <trkpt lat="45.96122" lon="4.77239">
        <ele>214</ele>
        <time>2017-08-17T09:58:33Z</time>
      </trkpt>
      <trkpt lat="45.96115" lon="4.77239">
        <ele>214</ele>
        <time>2017-08-17T09:58:34Z</time>
      </trkpt>
      <trkpt lat="45.96107" lon="4.77239">
        <ele>213</ele>
        <time>2017-08-17T09:58:35Z</time>
      </trkpt>
      <trkpt lat="45.961" lon="4.77239">
        <ele>213</ele>
        <time>2017-08-17T09:58:36Z</time>
      </trkpt>
      <trkpt lat="45.96093" lon="4.77239">
        <ele>212</ele>
        <time>2017-08-17T09:58:37Z</time>
      </trkpt>
      <trkpt lat="45.96085" lon="4.7724">
        <ele>212</ele>
        <time>2017-08-17T09:58:38Z</time>
      </trkpt>
      <trkpt lat="45.96077" lon="4.7724">
        <ele>210</ele>
        <time>2017-08-17T09:58:39Z</time>
      </trkpt>
      <trkpt lat="45.96069" lon="4.7724">
        <ele>210</ele>
        <time>2017-08-17T09:58:40Z</time>
      </trkpt>
      <trkpt lat="45.96061" lon="4.77241">
        <ele>209</ele>
        <time>2017-08-17T09:58:41Z</time>
      </trkpt>
      <trkpt lat="45.96052" lon="4.77241">
        <ele>209</ele>
        <time>2017-08-17T09:58:42Z</time>
      </trkpt>
      <trkpt lat="45.96043" lon="4.77242">
        <ele>208</ele>
        <time>2017-08-17T09:58:43Z</time>
      </trkpt>
      <trkpt lat="45.96034" lon="4.77244">
        <ele>208</ele>
        <time>2017-08-17T09:58:44Z</time>
      </trkpt>
      <trkpt lat="45.96025" lon="4.77245">
        <ele>207</ele>
        <time>2017-08-17T09:58:45Z</time>
      </trkpt>
      <trkpt lat="45.96016" lon="4.77246">
        <ele>206</ele>
        <time>2017-08-17T09:58:46Z</time>
      </trkpt>
      <trkpt lat="45.96006" lon="4.77246">
        <ele>205</ele>
        <time>2017-08-17T09:58:47Z</time>
      </trkpt>
      <trkpt lat="45.95997" lon="4.77244">
        <ele>203</ele>
        <time>2017-08-17T09:58:48Z</time>
      </trkpt>
      <trkpt lat="45.95988" lon="4.7724">
        <ele>202</ele>
        <time>2017-08-17T09:58:49Z</time>
      </trkpt>
      <trkpt lat="45.95979" lon="4.77235">
        <ele>202</ele>
        <time>2017-08-17T09:58:50Z</time>
      </trkpt>
      <trkpt lat="45.95971" lon="4.77228">
        <ele>202</ele>
        <time>2017-08-17T09:58:51Z</time>
      </trkpt>
      <trkpt lat="45.95964" lon="4.77219">
        <ele>201</ele>
        <time>2017-08-17T09:58:52Z</time>
      </trkpt>
      <trkpt lat="45.95958" lon="4.77208">
        <ele>201</ele>
        <time>2017-08-17T09:58:53Z</time>
      </trkpt>
      <trkpt lat="45.95952" lon="4.77196">
        <ele>201</ele>
        <time>2017-08-17T09:58:54Z</time>
      </trkpt>
      <trkpt lat="45.95948" lon="4.77183">
        <ele>201</ele>
        <time>2017-08-17T09:58:55Z</time>
      </trkpt>
      <trkpt lat="45.95946" lon="4.77169">
        <ele>200</ele>
        <time>2017-08-17T09:58:56Z</time>
      </trkpt>
      <trkpt lat="45.95944" lon="4.77155">
        <ele>201</ele>
        <time>2017-08-17T09:58:57Z</time>
      </trkpt>
      <trkpt lat="45.95943" lon="4.7714">
        <ele>201</ele>
        <time>2017-08-17T09:58:58Z</time>
      </trkpt>
      <trkpt lat="45.95944" lon="4.77125">
        <ele>201</ele>
        <time>2017-08-17T09:58:59Z</time>
      </trkpt>
      <trkpt lat="45.95944" lon="4.77111">
        <ele>201</ele>
        <time>2017-08-17T09:59:00Z</time>
      </trkpt>
      <trkpt lat="45.95946" lon="4.77097">
        <ele>201</ele>
        <time>2017-08-17T09:59:01Z</time>
      </trkpt>
      <trkpt lat="45.95948" lon="4.77083">
        <ele>200</ele>
        <time>2017-08-17T09:59:02Z</time>
      </trkpt>
      <trkpt lat="45.95952" lon="4.7707">
        <ele>200</ele>
        <time>2017-08-17T09:59:03Z</time>
      </trkpt>
      <trkpt lat="45.95955" lon="4.77057">
        <ele>200</ele>
        <time>2017-08-17T09:59:04Z</time>
      </trkpt>
      <trkpt lat="45.9596" lon="4.77045">
        <ele>200</ele>
        <time>2017-08-17T09:59:05Z</time>
      </trkpt>
      <trkpt lat="45.95964" lon="4.77032">
        <ele>200</ele>
        <time>2017-08-17T09:59:06Z</time>
      </trkpt>
      <trkpt lat="45.95968" lon="4.7702">
        <ele>200</ele>
        <time>2017-08-17T09:59:07Z</time>
      </trkpt>
      <trkpt lat="45.95973" lon="4.77008">
        <ele>200</ele>
        <time>2017-08-17T09:59:08Z</time>
      </trkpt>
      <trkpt lat="45.95977" lon="4.76996">
        <ele>198</ele>
        <time>2017-08-17T09:59:09Z</time>
      </trkpt>
      <trkpt lat="45.9598" lon="4.76983">
        <ele>197</ele>
        <time>2017-08-17T09:59:10Z</time>
      </trkpt>
      <trkpt lat="45.95981" lon="4.7697">
        <ele>197</ele>
        <time>2017-08-17T09:59:11Z</time>
      </trkpt>
      <trkpt lat="45.95979" lon="4.76954">
        <ele>196</ele>
        <time>2017-08-17T09:59:12Z</time>
      </trkpt>
      <trkpt lat="45.95975" lon="4.76941">
        <ele>196</ele>
        <time>2017-08-17T09:59:13Z</time>
      </trkpt>
      <trkpt lat="45.95969" lon="4.7693">
        <ele>195</ele>
        <time>2017-08-17T09:59:14Z</time>
      </trkpt>
      <trkpt lat="45.95962" lon="4.76921">
        <ele>195</ele>
        <time>2017-08-17T09:59:15Z</time>
      </trkpt>
      <trkpt lat="45.95954" lon="4.76912">
        <ele>193</ele>
        <time>2017-08-17T09:59:16Z</time>
      </trkpt>
      <trkpt lat="45.95947" lon="4.76903">
        <ele>193</ele>
        <time>2017-08-17T09:59:17Z</time>
      </trkpt>
      <trkpt lat="45.95939" lon="4.76894">
        <ele>192</ele>
        <time>2017-08-17T09:59:18Z</time>
      </trkpt>
      <trkpt lat="45.95931" lon="4.76885">
        <ele>192</ele>
        <time>2017-08-17T09:59:19Z</time>
      </trkpt>
      <trkpt lat="45.95923" lon="4.76876">
        <ele>192</ele>
        <time>2017-08-17T09:59:20Z</time>
      </trkpt>
      <trkpt lat="45.95915" lon="4.76867">
        <ele>191</ele>
        <time>2017-08-17T09:59:21Z</time>
      </trkpt>
      <trkpt lat="45.95908" lon="4.76859">
        <ele>191</ele>
        <time>2017-08-17T09:59:22Z</time>
      </trkpt>
      <trkpt lat="45.959" lon="4.76851">
        <ele>191</ele>
        <time>2017-08-17T09:59:23Z</time>
      </trkpt>
      <trkpt lat="45.95893" lon="4.76842">
        <ele>191</ele>
        <time>2017-08-17T09:59:24Z</time>
      </trkpt>
      <trkpt lat="45.95885" lon="4.76834">
        <ele>191</ele>
        <time>2017-08-17T09:59:25Z</time>
      </trkpt>
      <trkpt lat="45.95878" lon="4.76826">
        <ele>191</ele>
        <time>2017-08-17T09:59:26Z</time>
      </trkpt>
      <trkpt lat="45.9587" lon="4.76818">
        <ele>191</ele>
        <time>2017-08-17T09:59:27Z</time>
      </trkpt>
      <trkpt lat="45.95863" lon="4.76811">
        <ele>191</ele>
        <time>2017-08-17T09:59:28Z</time>
      </trkpt>
      <trkpt lat="45.95856" lon="4.76804">
        <ele>191</ele>
        <time>2017-08-17T09:59:29Z</time>
      </trkpt>
      <trkpt lat="45.9585" lon="4.76796">
        <ele>191</ele>
        <time>2017-08-17T09:59:30Z</time>
      </trkpt>
      <trkpt lat="45.95844" lon="4.76788">
        <ele>191</ele>
        <time>2017-08-17T09:59:31Z</time>
      </trkpt>
      <trkpt lat="45.95839" lon="4.7678">
        <ele>191</ele>
        <time>2017-08-17T09:59:32Z</time>
      </trkpt>
      <trkpt lat="45.95834" lon="4.7677">
        <ele>191</ele>
        <time>2017-08-17T09:59:33Z</time>
      </trkpt>
      <trkpt lat="45.95831" lon="4.76761">
        <ele>191</ele>
        <time>2017-08-17T09:59:34Z</time>
      </trkpt>
      <trkpt lat="45.95829" lon="4.7675">
        <ele>191</ele>
        <time>2017-08-17T09:59:35Z</time>
      </trkpt>
      <trkpt lat="45.95827" lon="4.76739">
        <ele>190</ele>
        <time>2017-08-17T09:59:36Z</time>
      </trkpt>
      <trkpt lat="45.95825" lon="4.76729">
        <ele>190</ele>
        <time>2017-08-17T09:59:37Z</time>
      </trkpt>
      <trkpt lat="45.95824" lon="4.76719">
        <ele>189</ele>
        <time>2017-08-17T09:59:38Z</time>
      </trkpt>
      <trkpt lat="45.95823" lon="4.76708">
        <ele>189</ele>
        <time>2017-08-17T09:59:39Z</time>
      </trkpt>
      <trkpt lat="45.95822" lon="4.76699">
        <ele>189</ele>
        <time>2017-08-17T09:59:40Z</time>
      </trkpt>
      <trkpt lat="45.95821" lon="4.76689">
        <ele>189</ele>
        <time>2017-08-17T09:59:41Z</time>
      </trkpt>
      <trkpt lat="45.9582" lon="4.7668">
        <ele>189</ele>
        <time>2017-08-17T09:59:42Z</time>
      </trkpt>
      <trkpt lat="45.95819" lon="4.7667">
        <ele>188</ele>
        <time>2017-08-17T09:59:43Z</time>
      </trkpt>
      <trkpt lat="45.95818" lon="4.76661">
        <ele>188</ele>
        <time>2017-08-17T09:59:44Z</time>
      </trkpt>
      <trkpt lat="45.95817" lon="4.76652">
        <ele>188</ele>
        <time>2017-08-17T09:59:45Z</time>
      </trkpt>
      <trkpt lat="45.95816" lon="4.76643">
        <ele>188</ele>
        <time>2017-08-17T09:59:46Z</time>
      </trkpt>
      <trkpt lat="45.95815" lon="4.76635">
        <ele>188</ele>
        <time>2017-08-17T09:59:47Z</time>
      </trkpt>
      <trkpt lat="45.95813" lon="4.76626">
        <ele>188</ele>
        <time>2017-08-17T09:59:48Z</time>
      </trkpt>
      <trkpt lat="45.95812" lon="4.76617">
        <ele>188</ele>
        <time>2017-08-17T09:59:49Z</time>
      </trkpt>
      <trkpt lat="45.95811" lon="4.76609">
        <ele>188</ele>
        <time>2017-08-17T09:59:50Z</time>
      </trkpt>
      <trkpt lat="45.9581" lon="4.76601">
        <ele>188</ele>
        <time>2017-08-17T09:59:51Z</time>
      </trkpt>
      <trkpt lat="45.95809" lon="4.76592">
        <ele>188</ele>
        <time>2017-08-17T09:59:52Z</time>
      </trkpt>
      <trkpt lat="45.95807" lon="4.76584">
        <ele>188</ele>
        <time>2017-08-17T09:59:53Z</time>
      </trkpt>
      <trkpt lat="45.95805" lon="4.76575">
        <ele>187</ele>
        <time>2017-08-17T09:59:54Z</time>
      </trkpt>
      <trkpt lat="45.95804" lon="4.76566">
        <ele>187</ele>
        <time>2017-08-17T09:59:55Z</time>
      </trkpt>
      <trkpt lat="45.95802" lon="4.76557">
        <ele>187</ele>
        <time>2017-08-17T09:59:56Z</time>
      </trkpt>
      <trkpt lat="45.958" lon="4.76548">
        <ele>187</ele>
        <time>2017-08-17T09:59:57Z</time>
      </trkpt>
      <trkpt lat="45.95798" lon="4.76539">
        <ele>187</ele>
        <time>2017-08-17T09:59:58Z</time>
      </trkpt>
      <trkpt lat="45.95797" lon="4.76529">
        <ele>187</ele>
        <time>2017-08-17T09:59:59Z</time>
      </trkpt>
      <trkpt lat="45.95795" lon="4.76519">
        <ele>187</ele>
        <time>2017-08-17T10:00:00Z</time>
      </trkpt>
      <trkpt lat="45.95793" lon="4.76509">
        <ele>187</ele>
        <time>2017-08-17T10:00:01Z</time>
      </trkpt>
      <trkpt lat="45.95792" lon="4.76499">
        <ele>186</ele>
        <time>2017-08-17T10:00:02Z</time>
      </trkpt>
      <trkpt lat="45.9579" lon="4.76489">
        <ele>186</ele>
        <time>2017-08-17T10:00:03Z</time>
      </trkpt>
      <trkpt lat="45.95789" lon="4.76479">
        <ele>186</ele>
        <time>2017-08-17T10:00:04Z</time>
      </trkpt>
      <trkpt lat="45.95787" lon="4.76469">
        <ele>186</ele>
        <time>2017-08-17T10:00:05Z</time>
      </trkpt>
      <trkpt lat="45.95786" lon="4.76459">
        <ele>186</ele>
        <time>2017-08-17T10:00:06Z</time>
      </trkpt>
      <trkpt lat="45.95785" lon="4.7645">
        <ele>186</ele>
        <time>2017-08-17T10:00:07Z</time>
      </trkpt>
      <trkpt lat="45.95784" lon="4.76441">
        <ele>186</ele>
        <time>2017-08-17T10:00:08Z</time>
      </trkpt>
      <trkpt lat="45.95783" lon="4.76432">
        <ele>186</ele>
        <time>2017-08-17T10:00:09Z</time>
      </trkpt>
      <trkpt lat="45.95781" lon="4.76424">
        <ele>186</ele>
        <time>2017-08-17T10:00:10Z</time>
      </trkpt>
      <trkpt lat="45.95781" lon="4.76416">
        <ele>186</ele>
        <time>2017-08-17T10:00:11Z</time>
      </trkpt>
      <trkpt lat="45.9578" lon="4.76408">
        <ele>186</ele>
        <time>2017-08-17T10:00:12Z</time>
      </trkpt>
      <trkpt lat="45.95779" lon="4.764">
        <ele>186</ele>
        <time>2017-08-17T10:00:13Z</time>
      </trkpt>
      <trkpt lat="45.95778" lon="4.76392">
        <ele>186</ele>
        <time>2017-08-17T10:00:14Z</time>
      </trkpt>
      <trkpt lat="45.95777" lon="4.76384">
        <ele>186</ele>
        <time>2017-08-17T10:00:15Z</time>
      </trkpt>
      <trkpt lat="45.95777" lon="4.76376">
        <ele>186</ele>
        <time>2017-08-17T10:00:16Z</time>
      </trkpt>
      <trkpt lat="45.95776" lon="4.76368">
        <ele>186</ele>
        <time>2017-08-17T10:00:17Z</time>
      </trkpt>
      <trkpt lat="45.95776" lon="4.7636">
        <ele>186</ele>
        <time>2017-08-17T10:00:18Z</time>
      </trkpt>
      <trkpt lat="45.95775" lon="4.76353">
        <ele>186</ele>
        <time>2017-08-17T10:00:19Z</time>
      </trkpt>
      <trkpt lat="45.95775" lon="4.76345">
        <ele>186</ele>
        <time>2017-08-17T10:00:20Z</time>
      </trkpt>
      <trkpt lat="45.95774" lon="4.76336">
        <ele>186</ele>
        <time>2017-08-17T10:00:21Z</time>
      </trkpt>
      <trkpt lat="45.95774" lon="4.76328">
        <ele>185</ele>
        <time>2017-08-17T10:00:22Z</time>
      </trkpt>
      <trkpt lat="45.95774" lon="4.76319">
        <ele>185</ele>
        <time>2017-08-17T10:00:23Z</time>
      </trkpt>
      <trkpt lat="45.95773" lon="4.76309">
        <ele>186</ele>
        <time>2017-08-17T10:00:24Z</time>
      </trkpt>
      <trkpt lat="45.95773" lon="4.76299">
        <ele>186</ele>
        <time>2017-08-17T10:00:25Z</time>
      </trkpt>
      <trkpt lat="45.95772" lon="4.7629">
        <ele>186</ele>
        <time>2017-08-17T10:00:26Z</time>
      </trkpt>
      <trkpt lat="45.95771" lon="4.76281">
        <ele>186</ele>
        <time>2017-08-17T10:00:27Z</time>
      </trkpt>
      <trkpt lat="45.95771" lon="4.76271">
        <ele>186</ele>
        <time>2017-08-17T10:00:28Z</time>
      </trkpt>
      <trkpt lat="45.9577" lon="4.76263">
        <ele>186</ele>
        <time>2017-08-17T10:00:29Z</time>
      </trkpt>
      <trkpt lat="45.9577" lon="4.76254">
        <ele>185</ele>
        <time>2017-08-17T10:00:30Z</time>
      </trkpt>
      <trkpt lat="45.9577" lon="4.76245">
        <ele>186</ele>
        <time>2017-08-17T10:00:31Z</time>
      </trkpt>
      <trkpt lat="45.95769" lon="4.76237">
        <ele>186</ele>
        <time>2017-08-17T10:00:32Z</time>
      </trkpt>
      <trkpt lat="45.95769" lon="4.76228">
        <ele>186</ele>
        <time>2017-08-17T10:00:33Z</time>
      </trkpt>
      <trkpt lat="45.95769" lon="4.7622">
        <ele>186</ele>
        <time>2017-08-17T10:00:34Z</time>
      </trkpt>
      <trkpt lat="45.95768" lon="4.76211">
        <ele>186</ele>
        <time>2017-08-17T10:00:35Z</time>
      </trkpt>
      <trkpt lat="45.95767" lon="4.76203">
        <ele>186</ele>
        <time>2017-08-17T10:00:36Z</time>
      </trkpt>
      <trkpt lat="45.95767" lon="4.76194">
        <ele>186</ele>
        <time>2017-08-17T10:00:37Z</time>
      </trkpt>
      <trkpt lat="45.95767" lon="4.76186">
        <ele>186</ele>
        <time>2017-08-17T10:00:38Z</time>
      </trkpt>
      <trkpt lat="45.95767" lon="4.76178">
        <ele>186</ele>
        <time>2017-08-17T10:00:39Z</time>
      </trkpt>
      <trkpt lat="45.95767" lon="4.76169">
        <ele>186</ele>
        <time>2017-08-17T10:00:40Z</time>
      </trkpt>
      <trkpt lat="45.95766" lon="4.7616">
        <ele>186</ele>
        <time>2017-08-17T10:00:41Z</time>
      </trkpt>
      <trkpt lat="45.95765" lon="4.76151">
        <ele>186</ele>
        <time>2017-08-17T10:00:42Z</time>
      </trkpt>
      <trkpt lat="45.95765" lon="4.76141">
        <ele>186</ele>
        <time>2017-08-17T10:00:43Z</time>
      </trkpt>
      <trkpt lat="45.95763" lon="4.76131">
        <ele>186</ele>
        <time>2017-08-17T10:00:44Z</time>
      </trkpt>
      <trkpt lat="45.95762" lon="4.76121">
        <ele>186</ele>
        <time>2017-08-17T10:00:45Z</time>
      </trkpt>
      <trkpt lat="45.95761" lon="4.76111">
        <ele>186</ele>
        <time>2017-08-17T10:00:46Z</time>
      </trkpt>
      <trkpt lat="45.95759" lon="4.76101">
        <ele>186</ele>
        <time>2017-08-17T10:00:47Z</time>
      </trkpt>
      <trkpt lat="45.95757" lon="4.76092">
        <ele>186</ele>
        <time>2017-08-17T10:00:48Z</time>
      </trkpt>
      <trkpt lat="45.95754" lon="4.76084">
        <ele>185</ele>
        <time>2017-08-17T10:00:49Z</time>
      </trkpt>
      <trkpt lat="45.95751" lon="4.76075">
        <ele>186</ele>
        <time>2017-08-17T10:00:50Z</time>
      </trkpt>
      <trkpt lat="45.95748" lon="4.76067">
        <ele>185</ele>
        <time>2017-08-17T10:00:51Z</time>
      </trkpt>
      <trkpt lat="45.95745" lon="4.76059">
        <ele>184</ele>
        <time>2017-08-17T10:00:52Z</time>
      </trkpt>
      <trkpt lat="45.95742" lon="4.76052">
        <ele>184</ele>
        <time>2017-08-17T10:00:53Z</time>
      </trkpt>
      <trkpt lat="45.95738" lon="4.76044">
        <ele>184</ele>
        <time>2017-08-17T10:00:54Z</time>
      </trkpt>
      <trkpt lat="45.95735" lon="4.76037">
        <ele>184</ele>
        <time>2017-08-17T10:00:55Z</time>
      </trkpt>
      <trkpt lat="45.95731" lon="4.7603">
        <ele>185</ele>
        <time>2017-08-17T10:00:56Z</time>
      </trkpt>
      <trkpt lat="45.95728" lon="4.76023">
        <ele>185</ele>
        <time>2017-08-17T10:00:57Z</time>
      </trkpt>
      <trkpt lat="45.95724" lon="4.76016">
        <ele>185</ele>
        <time>2017-08-17T10:00:58Z</time>
      </trkpt>
      <trkpt lat="45.95721" lon="4.76009">
        <ele>185</ele>
        <time>2017-08-17T10:00:59Z</time>
      </trkpt>
      <trkpt lat="45.95718" lon="4.76003">
        <ele>184</ele>
        <time>2017-08-17T10:01:00Z</time>
      </trkpt>
      <trkpt lat="45.95715" lon="4.75996">
        <ele>185</ele>
        <time>2017-08-17T10:01:01Z</time>
      </trkpt>
      <trkpt lat="45.95712" lon="4.7599">
        <ele>185</ele>
        <time>2017-08-17T10:01:02Z</time>
      </trkpt>
      <trkpt lat="45.95709" lon="4.75984">
        <ele>185</ele>
        <time>2017-08-17T10:01:03Z</time>
      </trkpt>
      <trkpt lat="45.95706" lon="4.75978">
        <ele>185</ele>
        <time>2017-08-17T10:01:04Z</time>
      </trkpt>
      <trkpt lat="45.95703" lon="4.75972">
        <ele>185</ele>
        <time>2017-08-17T10:01:05Z</time>
      </trkpt>
      <trkpt lat="45.95701" lon="4.75966">
        <ele>185</ele>
        <time>2017-08-17T10:01:06Z</time>
      </trkpt>
      <trkpt lat="45.95697" lon="4.75961">
        <ele>185</ele>
        <time>2017-08-17T10:01:07Z</time>
      </trkpt>
      <trkpt lat="45.95695" lon="4.75954">
        <ele>185</ele>
        <time>2017-08-17T10:01:08Z</time>
      </trkpt>
      <trkpt lat="45.95691" lon="4.75946">
        <ele>185</ele>
        <time>2017-08-17T10:01:09Z</time>
      </trkpt>
      <trkpt lat="45.95688" lon="4.75939">
        <ele>185</ele>
        <time>2017-08-17T10:01:10Z</time>
      </trkpt>
      <trkpt lat="45.95684" lon="4.75932">
        <ele>185</ele>
        <time>2017-08-17T10:01:11Z</time>
      </trkpt>
      <trkpt lat="45.95681" lon="4.75924">
        <ele>185</ele>
        <time>2017-08-17T10:01:12Z</time>
      </trkpt>
      <trkpt lat="45.95678" lon="4.75916">
        <ele>185</ele>
        <time>2017-08-17T10:01:13Z</time>
      </trkpt>
      <trkpt lat="45.95675" lon="4.75908">
        <ele>185</ele>
        <time>2017-08-17T10:01:14Z</time>
      </trkpt>
      <trkpt lat="45.95672" lon="4.75899">
        <ele>185</ele>
        <time>2017-08-17T10:01:15Z</time>
      </trkpt>
      <trkpt lat="45.95669" lon="4.75891">
        <ele>186</ele>
        <time>2017-08-17T10:01:16Z</time>
      </trkpt>
      <trkpt lat="45.95666" lon="4.75881">
        <ele>184</ele>
        <time>2017-08-17T10:01:17Z</time>
      </trkpt>
      <trkpt lat="45.95663" lon="4.75872">
        <ele>184</ele>
        <time>2017-08-17T10:01:18Z</time>
      </trkpt>
      <trkpt lat="45.9566" lon="4.75863">
        <ele>184</ele>
        <time>2017-08-17T10:01:19Z</time>
      </trkpt>
      <trkpt lat="45.95658" lon="4.75854">
        <ele>185</ele>
        <time>2017-08-17T10:01:20Z</time>
      </trkpt>
      <trkpt lat="45.95656" lon="4.75846">
        <ele>185</ele>
        <time>2017-08-17T10:01:21Z</time>
      </trkpt>
      <trkpt lat="45.95654" lon="4.75838">
        <ele>185</ele>
        <time>2017-08-17T10:01:22Z</time>
      </trkpt>
      <trkpt lat="45.95652" lon="4.7583">
        <ele>185</ele>
        <time>2017-08-17T10:01:23Z</time>
      </trkpt>
      <trkpt lat="45.95651" lon="4.75822">
        <ele>185</ele>
        <time>2017-08-17T10:01:24Z</time>
      </trkpt>
      <trkpt lat="45.95649" lon="4.75815">
        <ele>185</ele>
        <time>2017-08-17T10:01:25Z</time>
      </trkpt>
      <trkpt lat="45.95647" lon="4.75808">
        <ele>185</ele>
        <time>2017-08-17T10:01:26Z</time>
      </trkpt>
      <trkpt lat="45.95646" lon="4.75801">
        <ele>185</ele>
        <time>2017-08-17T10:01:27Z</time>
      </trkpt>
      <trkpt lat="45.95644" lon="4.75793">
        <ele>185</ele>
        <time>2017-08-17T10:01:28Z</time>
      </trkpt>
      <trkpt lat="45.95643" lon="4.75786">
        <ele>186</ele>
        <time>2017-08-17T10:01:29Z</time>
      </trkpt>
      <trkpt lat="45.95642" lon="4.75778">
        <ele>186</ele>
        <time>2017-08-17T10:01:30Z</time>
      </trkpt>
      <trkpt lat="45.95641" lon="4.7577">
        <ele>186</ele>
        <time>2017-08-17T10:01:31Z</time>
      </trkpt>
      <trkpt lat="45.9564" lon="4.75762">
        <ele>186</ele>
        <time>2017-08-17T10:01:32Z</time>
      </trkpt>
      <trkpt lat="45.95639" lon="4.75754">
        <ele>186</ele>
        <time>2017-08-17T10:01:33Z</time>
      </trkpt>
      <trkpt lat="45.95638" lon="4.75745">
        <ele>187</ele>
        <time>2017-08-17T10:01:34Z</time>
      </trkpt>
      <trkpt lat="45.95636" lon="4.75737">
        <ele>187</ele>
        <time>2017-08-17T10:01:35Z</time>
      </trkpt>
      <trkpt lat="45.95635" lon="4.75729">
        <ele>187</ele>
        <time>2017-08-17T10:01:36Z</time>
      </trkpt>
      <trkpt lat="45.95634" lon="4.75721">
        <ele>187</ele>
        <time>2017-08-17T10:01:37Z</time>
      </trkpt>
      <trkpt lat="45.95633" lon="4.75714">
        <ele>187</ele>
        <time>2017-08-17T10:01:38Z</time>
      </trkpt>
      <trkpt lat="45.95632" lon="4.75706">
        <ele>187</ele>
        <time>2017-08-17T10:01:39Z</time>
      </trkpt>
      <trkpt lat="45.95631" lon="4.75699">
        <ele>187</ele>
        <time>2017-08-17T10:01:40Z</time>
      </trkpt>
      <trkpt lat="45.9563" lon="4.75692">
        <ele>187</ele>
        <time>2017-08-17T10:01:41Z</time>
      </trkpt>
      <trkpt lat="45.95628" lon="4.75686">
        <ele>187</ele>
        <time>2017-08-17T10:01:42Z</time>
      </trkpt>
      <trkpt lat="45.95627" lon="4.75679">
        <ele>187</ele>
        <time>2017-08-17T10:01:43Z</time>
      </trkpt>
      <trkpt lat="45.95626" lon="4.75672">
        <ele>187</ele>
        <time>2017-08-17T10:01:44Z</time>
      </trkpt>
      <trkpt lat="45.95624" lon="4.75666">
        <ele>188</ele>
        <time>2017-08-17T10:01:45Z</time>
      </trkpt>
      <trkpt lat="45.95623" lon="4.75659">
        <ele>188</ele>
        <time>2017-08-17T10:01:46Z</time>
      </trkpt>
      <trkpt lat="45.95621" lon="4.75651">
        <ele>188</ele>
        <time>2017-08-17T10:01:47Z</time>
      </trkpt>
      <trkpt lat="45.9562" lon="4.75644">
        <ele>188</ele>
        <time>2017-08-17T10:01:48Z</time>
      </trkpt>
      <trkpt lat="45.95618" lon="4.75636">
        <ele>188</ele>
        <time>2017-08-17T10:01:49Z</time>
      </trkpt>
      <trkpt lat="45.95616" lon="4.75629">
        <ele>188</ele>
        <time>2017-08-17T10:01:50Z</time>
      </trkpt>
      <trkpt lat="45.95614" lon="4.75621">
        <ele>188</ele>
        <time>2017-08-17T10:01:51Z</time>
      </trkpt>
      <trkpt lat="45.95612" lon="4.75614">
        <ele>188</ele>
        <time>2017-08-17T10:01:52Z</time>
      </trkpt>
      <trkpt lat="45.9561" lon="4.75608">
        <ele>188</ele>
        <time>2017-08-17T10:01:53Z</time>
      </trkpt>
      <trkpt lat="45.95608" lon="4.75601">
        <ele>187</ele>
        <time>2017-08-17T10:01:54Z</time>
      </trkpt>
      <trkpt lat="45.95606" lon="4.75595">
        <ele>187</ele>
        <time>2017-08-17T10:01:55Z</time>
      </trkpt>
      <trkpt lat="45.95603" lon="4.75589">
        <ele>187</ele>
        <time>2017-08-17T10:01:56Z</time>
      </trkpt>
      <trkpt lat="45.956" lon="4.75583">
        <ele>188</ele>
        <time>2017-08-17T10:01:57Z</time>
      </trkpt>
      <trkpt lat="45.95597" lon="4.75577">
        <ele>188</ele>
        <time>2017-08-17T10:01:58Z</time>
      </trkpt>
      <trkpt lat="45.95595" lon="4.75571">
        <ele>188</ele>
        <time>2017-08-17T10:01:59Z</time>
      </trkpt>
      <trkpt lat="45.95592" lon="4.75565">
        <ele>188</ele>
        <time>2017-08-17T10:02:00Z</time>
      </trkpt>
      <trkpt lat="45.95588" lon="4.75558">
        <ele>188</ele>
        <time>2017-08-17T10:02:01Z</time>
      </trkpt>
      <trkpt lat="45.95583" lon="4.75552">
        <ele>186</ele>
        <time>2017-08-17T10:02:02Z</time>
      </trkpt>
      <trkpt lat="45.95579" lon="4.75547">
        <ele>186</ele>
        <time>2017-08-17T10:02:03Z</time>
      </trkpt>
      <trkpt lat="45.95574" lon="4.75542">
        <ele>186</ele>
        <time>2017-08-17T10:02:04Z</time>
      </trkpt>
      <trkpt lat="45.95569" lon="4.75536">
        <ele>186</ele>
        <time>2017-08-17T10:02:05Z</time>
      </trkpt>
      <trkpt lat="45.95565" lon="4.75531">
        <ele>186</ele>
        <time>2017-08-17T10:02:06Z</time>
      </trkpt>
      <trkpt lat="45.9556" lon="4.75525">
        <ele>186</ele>
        <time>2017-08-17T10:02:07Z</time>
      </trkpt>
      <trkpt lat="45.95555" lon="4.75519">
        <ele>186</ele>
        <time>2017-08-17T10:02:08Z</time>
      </trkpt>
      <trkpt lat="45.9555" lon="4.75514">
        <ele>186</ele>
        <time>2017-08-17T10:02:09Z</time>
      </trkpt>
      <trkpt lat="45.95546" lon="4.75508">
        <ele>186</ele>
        <time>2017-08-17T10:02:10Z</time>
      </trkpt>
      <trkpt lat="45.95543" lon="4.75502">
        <ele>186</ele>
        <time>2017-08-17T10:02:11Z</time>
      </trkpt>
      <trkpt lat="45.95541" lon="4.7549">
        <ele>187</ele>
        <time>2017-08-17T10:02:13Z</time>
      </trkpt>
      <trkpt lat="45.95541" lon="4.75483">
        <ele>187</ele>
        <time>2017-08-17T10:02:14Z</time>
      </trkpt>
      <trkpt lat="45.95541" lon="4.75476">
        <ele>187</ele>
        <time>2017-08-17T10:02:15Z</time>
      </trkpt>
      <trkpt lat="45.9554" lon="4.75469">
        <ele>187</ele>
        <time>2017-08-17T10:02:16Z</time>
      </trkpt>
      <trkpt lat="45.95537" lon="4.75462">
        <ele>187</ele>
        <time>2017-08-17T10:02:17Z</time>
      </trkpt>
      <trkpt lat="45.95534" lon="4.75455">
        <ele>187</ele>
        <time>2017-08-17T10:02:18Z</time>
      </trkpt>
      <trkpt lat="45.95529" lon="4.75449">
        <ele>187</ele>
        <time>2017-08-17T10:02:19Z</time>
      </trkpt>
      <trkpt lat="45.95524" lon="4.75443">
        <ele>187</ele>
        <time>2017-08-17T10:02:20Z</time>
      </trkpt>
      <trkpt lat="45.95521" lon="4.75435">
        <ele>187</ele>
        <time>2017-08-17T10:02:21Z</time>
      </trkpt>
      <trkpt lat="45.95518" lon="4.75427">
        <ele>187</ele>
        <time>2017-08-17T10:02:22Z</time>
      </trkpt>
      <trkpt lat="45.95515" lon="4.75419">
        <ele>186</ele>
        <time>2017-08-17T10:02:23Z</time>
      </trkpt>
      <trkpt lat="45.95513" lon="4.7541">
        <ele>187</ele>
        <time>2017-08-17T10:02:24Z</time>
      </trkpt>
      <trkpt lat="45.95511" lon="4.75403">
        <ele>187</ele>
        <time>2017-08-17T10:02:25Z</time>
      </trkpt>
      <trkpt lat="45.95508" lon="4.75395">
        <ele>188</ele>
        <time>2017-08-17T10:02:26Z</time>
      </trkpt>
      <trkpt lat="45.95505" lon="4.75388">
        <ele>188</ele>
        <time>2017-08-17T10:02:27Z</time>
      </trkpt>
      <trkpt lat="45.95502" lon="4.75381">
        <ele>188</ele>
        <time>2017-08-17T10:02:28Z</time>
      </trkpt>
      <trkpt lat="45.95499" lon="4.75374">
        <ele>185</ele>
        <time>2017-08-17T10:02:29Z</time>
      </trkpt>
      <trkpt lat="45.95496" lon="4.75368">
        <ele>186</ele>
        <time>2017-08-17T10:02:30Z</time>
      </trkpt>
      <trkpt lat="45.95493" lon="4.75361">
        <ele>186</ele>
        <time>2017-08-17T10:02:31Z</time>
      </trkpt>
      <trkpt lat="45.95489" lon="4.75354">
        <ele>186</ele>
        <time>2017-08-17T10:02:32Z</time>
      </trkpt>
      <trkpt lat="45.95486" lon="4.75348">
        <ele>186</ele>
        <time>2017-08-17T10:02:33Z</time>
      </trkpt>
      <trkpt lat="45.95482" lon="4.75341">
        <ele>187</ele>
        <time>2017-08-17T10:02:34Z</time>
      </trkpt>
      <trkpt lat="45.95479" lon="4.75334">
        <ele>186</ele>
        <time>2017-08-17T10:02:35Z</time>
      </trkpt>
      <trkpt lat="45.95476" lon="4.75327">
        <ele>188</ele>
        <time>2017-08-17T10:02:36Z</time>
      </trkpt>
      <trkpt lat="45.95473" lon="4.75321">
        <ele>188</ele>
        <time>2017-08-17T10:02:37Z</time>
      </trkpt>
      <trkpt lat="45.9547" lon="4.75314">
        <ele>188</ele>
        <time>2017-08-17T10:02:38Z</time>
      </trkpt>
      <trkpt lat="45.95467" lon="4.75308">
        <ele>188</ele>
        <time>2017-08-17T10:02:39Z</time>
      </trkpt>
      <trkpt lat="45.95464" lon="4.75301">
        <ele>188</ele>
        <time>2017-08-17T10:02:40Z</time>
      </trkpt>
      <trkpt lat="45.9546" lon="4.75294">
        <ele>188</ele>
        <time>2017-08-17T10:02:41Z</time>
      </trkpt>
      <trkpt lat="45.95457" lon="4.75287">
        <ele>189</ele>
        <time>2017-08-17T10:02:42Z</time>
      </trkpt>
      <trkpt lat="45.95454" lon="4.75281">
        <ele>189</ele>
        <time>2017-08-17T10:02:43Z</time>
      </trkpt>
      <trkpt lat="45.95451" lon="4.75274">
        <ele>189</ele>
        <time>2017-08-17T10:02:44Z</time>
      </trkpt>
      <trkpt lat="45.95447" lon="4.75268">
        <ele>189</ele>
        <time>2017-08-17T10:02:45Z</time>
      </trkpt>
      <trkpt lat="45.95444" lon="4.75262">
        <ele>189</ele>
        <time>2017-08-17T10:02:46Z</time>
      </trkpt>
      <trkpt lat="45.95442" lon="4.75257">
        <ele>189</ele>
        <time>2017-08-17T10:02:47Z</time>
      </trkpt>
      <trkpt lat="45.95439" lon="4.75251">
        <ele>189</ele>
        <time>2017-08-17T10:02:48Z</time>
      </trkpt>
      <trkpt lat="45.95434" lon="4.75241">
        <ele>191</ele>
        <time>2017-08-17T10:02:50Z</time>
      </trkpt>
      <trkpt lat="45.95431" lon="4.75235">
        <ele>191</ele>
        <time>2017-08-17T10:02:51Z</time>
      </trkpt>
      <trkpt lat="45.95428" lon="4.7523">
        <ele>191</ele>
        <time>2017-08-17T10:02:52Z</time>
      </trkpt>
      <trkpt lat="45.95425" lon="4.75224">
        <ele>191</ele>
        <time>2017-08-17T10:02:53Z</time>
      </trkpt>
      <trkpt lat="45.95421" lon="4.75218">
        <ele>191</ele>
        <time>2017-08-17T10:02:54Z</time>
      </trkpt>
      <trkpt lat="45.95417" lon="4.75212">
        <ele>191</ele>
        <time>2017-08-17T10:02:55Z</time>
      </trkpt>
      <trkpt lat="45.95413" lon="4.75207">
        <ele>189</ele>
        <time>2017-08-17T10:02:56Z</time>
      </trkpt>
      <trkpt lat="45.9541" lon="4.75201">
        <ele>189</ele>
        <time>2017-08-17T10:02:57Z</time>
      </trkpt>
      <trkpt lat="45.95407" lon="4.75196">
        <ele>189</ele>
        <time>2017-08-17T10:02:58Z</time>
      </trkpt>
      <trkpt lat="45.95403" lon="4.75191">
        <ele>189</ele>
        <time>2017-08-17T10:02:59Z</time>
      </trkpt>
      <trkpt lat="45.95398" lon="4.75181">
        <ele>189</ele>
        <time>2017-08-17T10:03:01Z</time>
      </trkpt>
      <trkpt lat="45.95395" lon="4.75176">
        <ele>189</ele>
        <time>2017-08-17T10:03:02Z</time>
      </trkpt>
      <trkpt lat="45.95392" lon="4.75172">
        <ele>189</ele>
        <time>2017-08-17T10:03:03Z</time>
      </trkpt>
      <trkpt lat="45.95389" lon="4.75167">
        <ele>191</ele>
        <time>2017-08-17T10:03:04Z</time>
      </trkpt>
      <trkpt lat="45.95385" lon="4.75161">
        <ele>191</ele>
        <time>2017-08-17T10:03:05Z</time>
      </trkpt>
      <trkpt lat="45.95381" lon="4.75155">
        <ele>191</ele>
        <time>2017-08-17T10:03:06Z</time>
      </trkpt>
      <trkpt lat="45.95378" lon="4.75149">
        <ele>191</ele>
        <time>2017-08-17T10:03:07Z</time>
      </trkpt>
      <trkpt lat="45.95375" lon="4.75142">
        <ele>191</ele>
        <time>2017-08-17T10:03:08Z</time>
      </trkpt>
      <trkpt lat="45.95372" lon="4.75137">
        <ele>191</ele>
        <time>2017-08-17T10:03:09Z</time>
      </trkpt>
      <trkpt lat="45.95369" lon="4.75131">
        <ele>191</ele>
        <time>2017-08-17T10:03:10Z</time>
      </trkpt>
      <trkpt lat="45.95366" lon="4.75125">
        <ele>191</ele>
        <time>2017-08-17T10:03:11Z</time>
      </trkpt>
      <trkpt lat="45.95362" lon="4.75119">
        <ele>192</ele>
        <time>2017-08-17T10:03:12Z</time>
      </trkpt>
      <trkpt lat="45.95359" lon="4.75114">
        <ele>192</ele>
        <time>2017-08-17T10:03:13Z</time>
      </trkpt>
      <trkpt lat="45.95355" lon="4.75109">
        <ele>192</ele>
        <time>2017-08-17T10:03:14Z</time>
      </trkpt>
      <trkpt lat="45.95351" lon="4.75104">
        <ele>192</ele>
        <time>2017-08-17T10:03:15Z</time>
      </trkpt>
      <trkpt lat="45.95347" lon="4.75099">
        <ele>192</ele>
        <time>2017-08-17T10:03:16Z</time>
      </trkpt>
      <trkpt lat="45.95343" lon="4.75093">
        <ele>192</ele>
        <time>2017-08-17T10:03:17Z</time>
      </trkpt>
      <trkpt lat="45.9534" lon="4.75087">
        <ele>193</ele>
        <time>2017-08-17T10:03:18Z</time>
      </trkpt>
      <trkpt lat="45.95337" lon="4.75081">
        <ele>193</ele>
        <time>2017-08-17T10:03:19Z</time>
      </trkpt>
      <trkpt lat="45.95333" lon="4.75076">
        <ele>193</ele>
        <time>2017-08-17T10:03:20Z</time>
      </trkpt>
      <trkpt lat="45.95329" lon="4.75072">
        <ele>192</ele>
        <time>2017-08-17T10:03:21Z</time>
      </trkpt>
      <trkpt lat="45.95326" lon="4.75067">
        <ele>192</ele>
        <time>2017-08-17T10:03:22Z</time>
      </trkpt>
      <trkpt lat="45.95324" lon="4.75061">
        <ele>192</ele>
        <time>2017-08-17T10:03:23Z</time>
      </trkpt>
      <trkpt lat="45.9532" lon="4.75056">
        <ele>192</ele>
        <time>2017-08-17T10:03:24Z</time>
      </trkpt>
      <trkpt lat="45.95317" lon="4.75051">
        <ele>192</ele>
        <time>2017-08-17T10:03:25Z</time>
      </trkpt>
      <trkpt lat="45.95314" lon="4.75046">
        <ele>192</ele>
        <time>2017-08-17T10:03:26Z</time>
      </trkpt>
      <trkpt lat="45.9531" lon="4.7504">
        <ele>192</ele>
        <time>2017-08-17T10:03:27Z</time>
      </trkpt>
      <trkpt lat="45.95306" lon="4.75034">
        <ele>192</ele>
        <time>2017-08-17T10:03:28Z</time>
      </trkpt>
      <trkpt lat="45.95302" lon="4.75029">
        <ele>192</ele>
        <time>2017-08-17T10:03:29Z</time>
      </trkpt>
      <trkpt lat="45.95299" lon="4.75023">
        <ele>192</ele>
        <time>2017-08-17T10:03:30Z</time>
      </trkpt>
      <trkpt lat="45.95296" lon="4.75018">
        <ele>192</ele>
        <time>2017-08-17T10:03:31Z</time>
      </trkpt>
      <trkpt lat="45.95293" lon="4.75013">
        <ele>192</ele>
        <time>2017-08-17T10:03:32Z</time>
      </trkpt>
      <trkpt lat="45.95287" lon="4.75004">
        <ele>191</ele>
        <time>2017-08-17T10:03:34Z</time>
      </trkpt>
      <trkpt lat="45.95284" lon="4.74999">
        <ele>192</ele>
        <time>2017-08-17T10:03:35Z</time>
      </trkpt>
      <trkpt lat="45.95278" lon="4.7499">
        <ele>192</ele>
        <time>2017-08-17T10:03:37Z</time>
      </trkpt>
      <trkpt lat="45.95275" lon="4.74986">
        <ele>192</ele>
        <time>2017-08-17T10:03:38Z</time>
      </trkpt>
      <trkpt lat="45.95272" lon="4.74981">
        <ele>192</ele>
        <time>2017-08-17T10:03:39Z</time>
      </trkpt>
      <trkpt lat="45.95269" lon="4.74976">
        <ele>192</ele>
        <time>2017-08-17T10:03:40Z</time>
      </trkpt>
      <trkpt lat="45.95265" lon="4.74971">
        <ele>192</ele>
        <time>2017-08-17T10:03:41Z</time>
      </trkpt>
      <trkpt lat="45.95261" lon="4.74965">
        <ele>192</ele>
        <time>2017-08-17T10:03:42Z</time>
      </trkpt>
      <trkpt lat="45.95256" lon="4.74959">
        <ele>192</ele>
        <time>2017-08-17T10:03:43Z</time>
      </trkpt>
      <trkpt lat="45.95252" lon="4.74953">
        <ele>192</ele>
        <time>2017-08-17T10:03:44Z</time>
      </trkpt>
      <trkpt lat="45.95247" lon="4.74946">
        <ele>192</ele>
        <time>2017-08-17T10:03:45Z</time>
      </trkpt>
      <trkpt lat="45.95243" lon="4.74941">
        <ele>192</ele>
        <time>2017-08-17T10:03:46Z</time>
      </trkpt>
      <trkpt lat="45.95239" lon="4.74935">
        <ele>192</ele>
        <time>2017-08-17T10:03:47Z</time>
      </trkpt>
      <trkpt lat="45.95235" lon="4.7493">
        <ele>192</ele>
        <time>2017-08-17T10:03:48Z</time>
      </trkpt>
      <trkpt lat="45.95232" lon="4.74924">
        <ele>192</ele>
        <time>2017-08-17T10:03:49Z</time>
      </trkpt>
      <trkpt lat="45.95229" lon="4.7492">
        <ele>192</ele>
        <time>2017-08-17T10:03:50Z</time>
      </trkpt>
      <trkpt lat="45.95223" lon="4.7491">
        <ele>193</ele>
        <time>2017-08-17T10:03:52Z</time>
      </trkpt>
      <trkpt lat="45.9522" lon="4.74906">
        <ele>193</ele>
        <time>2017-08-17T10:03:53Z</time>
      </trkpt>
      <trkpt lat="45.95214" lon="4.74896">
        <ele>193</ele>
        <time>2017-08-17T10:03:55Z</time>
      </trkpt>
      <trkpt lat="45.95211" lon="4.74891">
        <ele>193</ele>
        <time>2017-08-17T10:03:56Z</time>
      </trkpt>
      <trkpt lat="45.95208" lon="4.74886">
        <ele>194</ele>
        <time>2017-08-17T10:03:57Z</time>
      </trkpt>
      <trkpt lat="45.95205" lon="4.7488">
        <ele>194</ele>
        <time>2017-08-17T10:03:58Z</time>
      </trkpt>
      <trkpt lat="45.95202" lon="4.74874">
        <ele>194</ele>
        <time>2017-08-17T10:03:59Z</time>
      </trkpt>
      <trkpt lat="45.95198" lon="4.74868">
        <ele>194</ele>
        <time>2017-08-17T10:04:00Z</time>
      </trkpt>
      <trkpt lat="45.95195" lon="4.74862">
        <ele>194</ele>
        <time>2017-08-17T10:04:01Z</time>
      </trkpt>
      <trkpt lat="45.95192" lon="4.74856">
        <ele>194</ele>
        <time>2017-08-17T10:04:02Z</time>
      </trkpt>
      <trkpt lat="45.95189" lon="4.74851">
        <ele>194</ele>
        <time>2017-08-17T10:04:03Z</time>
      </trkpt>
      <trkpt lat="45.95186" lon="4.74846">
        <ele>194</ele>
        <time>2017-08-17T10:04:04Z</time>
      </trkpt>
      <trkpt lat="45.95183" lon="4.7484">
        <ele>194</ele>
        <time>2017-08-17T10:04:05Z</time>
      </trkpt>
      <trkpt lat="45.9518" lon="4.74835">
        <ele>194</ele>
        <time>2017-08-17T10:04:06Z</time>
      </trkpt>
      <trkpt lat="45.95177" lon="4.7483">
        <ele>194</ele>
        <time>2017-08-17T10:04:07Z</time>
      </trkpt>
      <trkpt lat="45.95174" lon="4.74824">
        <ele>194</ele>
        <time>2017-08-17T10:04:08Z</time>
      </trkpt>
      <trkpt lat="45.95169" lon="4.74814">
        <ele>194</ele>
        <time>2017-08-17T10:04:10Z</time>
      </trkpt>
      <trkpt lat="45.95166" lon="4.74809">
        <ele>194</ele>
        <time>2017-08-17T10:04:11Z</time>
      </trkpt>
      <trkpt lat="45.95163" lon="4.74804">
        <ele>194</ele>
        <time>2017-08-17T10:04:12Z</time>
      </trkpt>
      <trkpt lat="45.95159" lon="4.74798">
        <ele>194</ele>
        <time>2017-08-17T10:04:13Z</time>
      </trkpt>
      <trkpt lat="45.95157" lon="4.74792">
        <ele>194</ele>
        <time>2017-08-17T10:04:14Z</time>
      </trkpt>
      <trkpt lat="45.95152" lon="4.74785">
        <ele>194</ele>
        <time>2017-08-17T10:04:15Z</time>
      </trkpt>
      <trkpt lat="45.95148" lon="4.74779">
        <ele>194</ele>
        <time>2017-08-17T10:04:16Z</time>
      </trkpt>
      <trkpt lat="45.95145" lon="4.74773">
        <ele>194</ele>
        <time>2017-08-17T10:04:17Z</time>
      </trkpt>
      <trkpt lat="45.95141" lon="4.74766">
        <ele>194</ele>
        <time>2017-08-17T10:04:18Z</time>
      </trkpt>
      <trkpt lat="45.95138" lon="4.7476">
        <ele>194</ele>
        <time>2017-08-17T10:04:19Z</time>
      </trkpt>
      <trkpt lat="45.95134" lon="4.74755">
        <ele>194</ele>
        <time>2017-08-17T10:04:20Z</time>
      </trkpt>
      <trkpt lat="45.95131" lon="4.74749">
        <ele>194</ele>
        <time>2017-08-17T10:04:21Z</time>
      </trkpt>
      <trkpt lat="45.95128" lon="4.74744">
        <ele>194</ele>
        <time>2017-08-17T10:04:22Z</time>
      </trkpt>
      <trkpt lat="45.95125" lon="4.74738">
        <ele>194</ele>
        <time>2017-08-17T10:04:23Z</time>
      </trkpt>
      <trkpt lat="45.95122" lon="4.74732">
        <ele>194</ele>
        <time>2017-08-17T10:04:24Z</time>
      </trkpt>
      <trkpt lat="45.95119" lon="4.74726">
        <ele>194</ele>
        <time>2017-08-17T10:04:25Z</time>
      </trkpt>
      <trkpt lat="45.95116" lon="4.7472">
        <ele>194</ele>
        <time>2017-08-17T10:04:26Z</time>
      </trkpt>
      <trkpt lat="45.95112" lon="4.74713">
        <ele>194</ele>
        <time>2017-08-17T10:04:27Z</time>
      </trkpt>
      <trkpt lat="45.95108" lon="4.74707">
        <ele>194</ele>
        <time>2017-08-17T10:04:28Z</time>
      </trkpt>
      <trkpt lat="45.95104" lon="4.74701">
        <ele>194</ele>
        <time>2017-08-17T10:04:29Z</time>
      </trkpt>
      <trkpt lat="45.95099" lon="4.74695">
        <ele>194</ele>
        <time>2017-08-17T10:04:30Z</time>
      </trkpt>
      <trkpt lat="45.95096" lon="4.74689">
        <ele>194</ele>
        <time>2017-08-17T10:04:31Z</time>
      </trkpt>
      <trkpt lat="45.95091" lon="4.74684">
        <ele>195</ele>
        <time>2017-08-17T10:04:32Z</time>
      </trkpt>
      <trkpt lat="45.95088" lon="4.74678">
        <ele>195</ele>
        <time>2017-08-17T10:04:33Z</time>
      </trkpt>
      <trkpt lat="45.95084" lon="4.74672">
        <ele>195</ele>
        <time>2017-08-17T10:04:34Z</time>
      </trkpt>
      <trkpt lat="45.9508" lon="4.74666">
        <ele>195</ele>
        <time>2017-08-17T10:04:35Z</time>
      </trkpt>
      <trkpt lat="45.95076" lon="4.74661">
        <ele>195</ele>
        <time>2017-08-17T10:04:36Z</time>
      </trkpt>
      <trkpt lat="45.95072" lon="4.74655">
        <ele>195</ele>
        <time>2017-08-17T10:04:37Z</time>
      </trkpt>
      <trkpt lat="45.95069" lon="4.7465">
        <ele>195</ele>
        <time>2017-08-17T10:04:38Z</time>
      </trkpt>
      <trkpt lat="45.95066" lon="4.74644">
        <ele>195</ele>
        <time>2017-08-17T10:04:39Z</time>
      </trkpt>
      <trkpt lat="45.95063" lon="4.74638">
        <ele>194</ele>
        <time>2017-08-17T10:04:40Z</time>
      </trkpt>
      <trkpt lat="45.95059" lon="4.74632">
        <ele>194</ele>
        <time>2017-08-17T10:04:41Z</time>
      </trkpt>
      <trkpt lat="45.95056" lon="4.74625">
        <ele>194</ele>
        <time>2017-08-17T10:04:42Z</time>
      </trkpt>
      <trkpt lat="45.95052" lon="4.74619">
        <ele>194</ele>
        <time>2017-08-17T10:04:43Z</time>
      </trkpt>
      <trkpt lat="45.95048" lon="4.74612">
        <ele>194</ele>
        <time>2017-08-17T10:04:44Z</time>
      </trkpt>
      <trkpt lat="45.95044" lon="4.74605">
        <ele>194</ele>
        <time>2017-08-17T10:04:45Z</time>
      </trkpt>
      <trkpt lat="45.95041" lon="4.74598">
        <ele>194</ele>
        <time>2017-08-17T10:04:46Z</time>
      </trkpt>
      <trkpt lat="45.95037" lon="4.74592">
        <ele>194</ele>
        <time>2017-08-17T10:04:47Z</time>
      </trkpt>
      <trkpt lat="45.95032" lon="4.74586">
        <ele>194</ele>
        <time>2017-08-17T10:04:48Z</time>
      </trkpt>
      <trkpt lat="45.95028" lon="4.74579">
        <ele>194</ele>
        <time>2017-08-17T10:04:49Z</time>
      </trkpt>
      <trkpt lat="45.95025" lon="4.74572">
        <ele>194</ele>
        <time>2017-08-17T10:04:50Z</time>
      </trkpt>
      <trkpt lat="45.95021" lon="4.74565">
        <ele>194</ele>
        <time>2017-08-17T10:04:51Z</time>
      </trkpt>
      <trkpt lat="45.95017" lon="4.74558">
        <ele>194</ele>
        <time>2017-08-17T10:04:52Z</time>
      </trkpt>
      <trkpt lat="45.95013" lon="4.7455">
        <ele>194</ele>
        <time>2017-08-17T10:04:53Z</time>
      </trkpt>
      <trkpt lat="45.95009" lon="4.74543">
        <ele>194</ele>
        <time>2017-08-17T10:04:54Z</time>
      </trkpt>
      <trkpt lat="45.95005" lon="4.74534">
        <ele>194</ele>
        <time>2017-08-17T10:04:55Z</time>
      </trkpt>
      <trkpt lat="45.95" lon="4.74526">
        <ele>194</ele>
        <time>2017-08-17T10:04:56Z</time>
      </trkpt>
      <trkpt lat="45.94996" lon="4.74517">
        <ele>193</ele>
        <time>2017-08-17T10:04:57Z</time>
      </trkpt>
      <trkpt lat="45.94992" lon="4.74509">
        <ele>193</ele>
        <time>2017-08-17T10:04:58Z</time>
      </trkpt>
      <trkpt lat="45.94988" lon="4.745">
        <ele>193</ele>
        <time>2017-08-17T10:04:59Z</time>
      </trkpt>
      <trkpt lat="45.94983" lon="4.74491">
        <ele>193</ele>
        <time>2017-08-17T10:05:00Z</time>
      </trkpt>
      <trkpt lat="45.94979" lon="4.74483">
        <ele>193</ele>
        <time>2017-08-17T10:05:01Z</time>
      </trkpt>
      <trkpt lat="45.94975" lon="4.74474">
        <ele>193</ele>
        <time>2017-08-17T10:05:02Z</time>
      </trkpt>
      <trkpt lat="45.9497" lon="4.74465">
        <ele>193</ele>
        <time>2017-08-17T10:05:03Z</time>
      </trkpt>
      <trkpt lat="45.94965" lon="4.74456">
        <ele>192</ele>
        <time>2017-08-17T10:05:04Z</time>
      </trkpt>
      <trkpt lat="45.94961" lon="4.74448">
        <ele>192</ele>
        <time>2017-08-17T10:05:05Z</time>
      </trkpt>
      <trkpt lat="45.94956" lon="4.74439">
        <ele>192</ele>
        <time>2017-08-17T10:05:06Z</time>
      </trkpt>
      <trkpt lat="45.94951" lon="4.7443">
        <ele>192</ele>
        <time>2017-08-17T10:05:07Z</time>
      </trkpt>
      <trkpt lat="45.94946" lon="4.74421">
        <ele>192</ele>
        <time>2017-08-17T10:05:08Z</time>
      </trkpt>
      <trkpt lat="45.9494" lon="4.74411">
        <ele>192</ele>
        <time>2017-08-17T10:05:09Z</time>
      </trkpt>
      <trkpt lat="45.94935" lon="4.74402">
        <ele>192</ele>
        <time>2017-08-17T10:05:10Z</time>
      </trkpt>
      <trkpt lat="45.9493" lon="4.74393">
        <ele>192</ele>
        <time>2017-08-17T10:05:11Z</time>
      </trkpt>
      <trkpt lat="45.94925" lon="4.74385">
        <ele>192</ele>
        <time>2017-08-17T10:05:12Z</time>
      </trkpt>
      <trkpt lat="45.94921" lon="4.74376">
        <ele>192</ele>
        <time>2017-08-17T10:05:13Z</time>
      </trkpt>
      <trkpt lat="45.94917" lon="4.74367">
        <ele>191</ele>
        <time>2017-08-17T10:05:14Z</time>
      </trkpt>
      <trkpt lat="45.94912" lon="4.74358">
        <ele>191</ele>
        <time>2017-08-17T10:05:15Z</time>
      </trkpt>
      <trkpt lat="45.94907" lon="4.74349">
        <ele>191</ele>
        <time>2017-08-17T10:05:16Z</time>
      </trkpt>
      <trkpt lat="45.94903" lon="4.74341">
        <ele>191</ele>
        <time>2017-08-17T10:05:17Z</time>
      </trkpt>
      <trkpt lat="45.94899" lon="4.74332">
        <ele>191</ele>
        <time>2017-08-17T10:05:18Z</time>
      </trkpt>
      <trkpt lat="45.94896" lon="4.74324">
        <ele>191</ele>
        <time>2017-08-17T10:05:19Z</time>
      </trkpt>
      <trkpt lat="45.94891" lon="4.74316">
        <ele>191</ele>
        <time>2017-08-17T10:05:20Z</time>
      </trkpt>
      <trkpt lat="45.94888" lon="4.74308">
        <ele>191</ele>
        <time>2017-08-17T10:05:21Z</time>
      </trkpt>
      <trkpt lat="45.94884" lon="4.743">
        <ele>191</ele>
        <time>2017-08-17T10:05:22Z</time>
      </trkpt>
      <trkpt lat="45.9488" lon="4.74293">
        <ele>191</ele>
        <time>2017-08-17T10:05:23Z</time>
      </trkpt>
      <trkpt lat="45.94876" lon="4.74285">
        <ele>191</ele>
        <time>2017-08-17T10:05:24Z</time>
      </trkpt>
      <trkpt lat="45.94871" lon="4.74278">
        <ele>191</ele>
        <time>2017-08-17T10:05:25Z</time>
      </trkpt>
      <trkpt lat="45.94868" lon="4.74271">
        <ele>191</ele>
        <time>2017-08-17T10:05:26Z</time>
      </trkpt>
      <trkpt lat="45.94864" lon="4.74263">
        <ele>190</ele>
        <time>2017-08-17T10:05:27Z</time>
      </trkpt>
      <trkpt lat="45.9486" lon="4.74255">
        <ele>190</ele>
        <time>2017-08-17T10:05:28Z</time>
      </trkpt>
      <trkpt lat="45.94857" lon="4.74247">
        <ele>190</ele>
        <time>2017-08-17T10:05:29Z</time>
      </trkpt>
      <trkpt lat="45.94853" lon="4.74238">
        <ele>190</ele>
        <time>2017-08-17T10:05:30Z</time>
      </trkpt>
      <trkpt lat="45.94849" lon="4.7423">
        <ele>190</ele>
        <time>2017-08-17T10:05:31Z</time>
      </trkpt>
      <trkpt lat="45.94845" lon="4.74222">
        <ele>190</ele>
        <time>2017-08-17T10:05:32Z</time>
      </trkpt>
      <trkpt lat="45.94841" lon="4.74215">
        <ele>190</ele>
        <time>2017-08-17T10:05:33Z</time>
      </trkpt>
      <trkpt lat="45.94837" lon="4.74208">
        <ele>190</ele>
        <time>2017-08-17T10:05:34Z</time>
      </trkpt>
      <trkpt lat="45.94833" lon="4.74201">
        <ele>189</ele>
        <time>2017-08-17T10:05:35Z</time>
      </trkpt>
      <trkpt lat="45.94829" lon="4.74195">
        <ele>189</ele>
        <time>2017-08-17T10:05:36Z</time>
      </trkpt>
      <trkpt lat="45.94825" lon="4.74188">
        <ele>189</ele>
        <time>2017-08-17T10:05:37Z</time>
      </trkpt>
      <trkpt lat="45.94821" lon="4.74182">
        <ele>189</ele>
        <time>2017-08-17T10:05:38Z</time>
      </trkpt>
      <trkpt lat="45.94817" lon="4.74175">
        <ele>189</ele>
        <time>2017-08-17T10:05:39Z</time>
      </trkpt>
      <trkpt lat="45.94812" lon="4.74167">
        <ele>189</ele>
        <time>2017-08-17T10:05:40Z</time>
      </trkpt>
      <trkpt lat="45.94808" lon="4.7416">
        <ele>189</ele>
        <time>2017-08-17T10:05:41Z</time>
      </trkpt>
      <trkpt lat="45.94804" lon="4.74153">
        <ele>189</ele>
        <time>2017-08-17T10:05:42Z</time>
      </trkpt>
      <trkpt lat="45.948" lon="4.74145">
        <ele>189</ele>
        <time>2017-08-17T10:05:43Z</time>
      </trkpt>
      <trkpt lat="45.94796" lon="4.74137">
        <ele>189</ele>
        <time>2017-08-17T10:05:44Z</time>
      </trkpt>
      <trkpt lat="45.94792" lon="4.7413">
        <ele>189</ele>
        <time>2017-08-17T10:05:45Z</time>
      </trkpt>
      <trkpt lat="45.94787" lon="4.74123">
        <ele>189</ele>
        <time>2017-08-17T10:05:46Z</time>
      </trkpt>
      <trkpt lat="45.94783" lon="4.74116">
        <ele>189</ele>
        <time>2017-08-17T10:05:47Z</time>
      </trkpt>
      <trkpt lat="45.94779" lon="4.74109">
        <ele>189</ele>
        <time>2017-08-17T10:05:48Z</time>
      </trkpt>
      <trkpt lat="45.94774" lon="4.74103">
        <ele>189</ele>
        <time>2017-08-17T10:05:49Z</time>
      </trkpt>
      <trkpt lat="45.9477" lon="4.74097">
        <ele>189</ele>
        <time>2017-08-17T10:05:50Z</time>
      </trkpt>
      <trkpt lat="45.94765" lon="4.74091">
        <ele>189</ele>
        <time>2017-08-17T10:05:51Z</time>
      </trkpt>
      <trkpt lat="45.94761" lon="4.74086">
        <ele>189</ele>
        <time>2017-08-17T10:05:52Z</time>
      </trkpt>
      <trkpt lat="45.94757" lon="4.7408">
        <ele>189</ele>
        <time>2017-08-17T10:05:53Z</time>
      </trkpt>
      <trkpt lat="45.94753" lon="4.74074">
        <ele>189</ele>
        <time>2017-08-17T10:05:54Z</time>
      </trkpt>
      <trkpt lat="45.94749" lon="4.74069">
        <ele>188</ele>
        <time>2017-08-17T10:05:55Z</time>
      </trkpt>
      <trkpt lat="45.94744" lon="4.74063">
        <ele>188</ele>
        <time>2017-08-17T10:05:56Z</time>
      </trkpt>
      <trkpt lat="45.94738" lon="4.74058">
        <ele>188</ele>
        <time>2017-08-17T10:05:57Z</time>
      </trkpt>
      <trkpt lat="45.94734" lon="4.74052">
        <ele>188</ele>
        <time>2017-08-17T10:05:58Z</time>
      </trkpt>
      <trkpt lat="45.94729" lon="4.74046">
        <ele>188</ele>
        <time>2017-08-17T10:05:59Z</time>
      </trkpt>
      <trkpt lat="45.94725" lon="4.74041">
        <ele>187</ele>
        <time>2017-08-17T10:06:00Z</time>
      </trkpt>
      <trkpt lat="45.9472" lon="4.74036">
        <ele>187</ele>
        <time>2017-08-17T10:06:01Z</time>
      </trkpt>
      <trkpt lat="45.94716" lon="4.74031">
        <ele>187</ele>
        <time>2017-08-17T10:06:02Z</time>
      </trkpt>
      <trkpt lat="45.94712" lon="4.74026">
        <ele>187</ele>
        <time>2017-08-17T10:06:03Z</time>
      </trkpt>
      <trkpt lat="45.94708" lon="4.74021">
        <ele>187</ele>
        <time>2017-08-17T10:06:04Z</time>
      </trkpt>
      <trkpt lat="45.94704" lon="4.74017">
        <ele>187</ele>
        <time>2017-08-17T10:06:05Z</time>
      </trkpt>
      <trkpt lat="45.94701" lon="4.74012">
        <ele>187</ele>
        <time>2017-08-17T10:06:06Z</time>
      </trkpt>
      <trkpt lat="45.94697" lon="4.74007">
        <ele>187</ele>
        <time>2017-08-17T10:06:07Z</time>
      </trkpt>
      <trkpt lat="45.94693" lon="4.74001">
        <ele>187</ele>
        <time>2017-08-17T10:06:08Z</time>
      </trkpt>
      <trkpt lat="45.94689" lon="4.73995">
        <ele>187</ele>
        <time>2017-08-17T10:06:09Z</time>
      </trkpt>
      <trkpt lat="45.94685" lon="4.73989">
        <ele>187</ele>
        <time>2017-08-17T10:06:10Z</time>
      </trkpt>
      <trkpt lat="45.94681" lon="4.73983">
        <ele>187</ele>
        <time>2017-08-17T10:06:11Z</time>
      </trkpt>
      <trkpt lat="45.94676" lon="4.73976">
        <ele>187</ele>
        <time>2017-08-17T10:06:12Z</time>
      </trkpt>
      <trkpt lat="45.94671" lon="4.7397">
        <ele>187</ele>
        <time>2017-08-17T10:06:13Z</time>
      </trkpt>
      <trkpt lat="45.94666" lon="4.73963">
        <ele>187</ele>
        <time>2017-08-17T10:06:14Z</time>
      </trkpt>
      <trkpt lat="45.94662" lon="4.73956">
        <ele>187</ele>
        <time>2017-08-17T10:06:15Z</time>
      </trkpt>
      <trkpt lat="45.94657" lon="4.7395">
        <ele>187</ele>
        <time>2017-08-17T10:06:16Z</time>
      </trkpt>
      <trkpt lat="45.94652" lon="4.73944">
        <ele>187</ele>
        <time>2017-08-17T10:06:17Z</time>
      </trkpt>
      <trkpt lat="45.94648" lon="4.73937">
        <ele>187</ele>
        <time>2017-08-17T10:06:18Z</time>
      </trkpt>
      <trkpt lat="45.94643" lon="4.73931">
        <ele>187</ele>
        <time>2017-08-17T10:06:19Z</time>
      </trkpt>
      <trkpt lat="45.94639" lon="4.73925">
        <ele>187</ele>
        <time>2017-08-17T10:06:20Z</time>
      </trkpt>
      <trkpt lat="45.94634" lon="4.73919">
        <ele>187</ele>
        <time>2017-08-17T10:06:21Z</time>
      </trkpt>
      <trkpt lat="45.94629" lon="4.73913">
        <ele>187</ele>
        <time>2017-08-17T10:06:22Z</time>
      </trkpt>
      <trkpt lat="45.94624" lon="4.73907">
        <ele>187</ele>
        <time>2017-08-17T10:06:23Z</time>
      </trkpt>
      <trkpt lat="45.9462" lon="4.73901">
        <ele>187</ele>
        <time>2017-08-17T10:06:24Z</time>
      </trkpt>
      <trkpt lat="45.94615" lon="4.73895">
        <ele>187</ele>
        <time>2017-08-17T10:06:25Z</time>
      </trkpt>
      <trkpt lat="45.9461" lon="4.73889">
        <ele>187</ele>
        <time>2017-08-17T10:06:26Z</time>
      </trkpt>
      <trkpt lat="45.94605" lon="4.73883">
        <ele>187</ele>
        <time>2017-08-17T10:06:27Z</time>
      </trkpt>
      <trkpt lat="45.946" lon="4.73877">
        <ele>187</ele>
        <time>2017-08-17T10:06:28Z</time>
      </trkpt>
      <trkpt lat="45.94594" lon="4.73871">
        <ele>187</ele>
        <time>2017-08-17T10:06:29Z</time>
      </trkpt>
      <trkpt lat="45.9459" lon="4.73865">
        <ele>187</ele>
        <time>2017-08-17T10:06:30Z</time>
      </trkpt>
      <trkpt lat="45.94584" lon="4.7386">
        <ele>187</ele>
        <time>2017-08-17T10:06:31Z</time>
      </trkpt>
      <trkpt lat="45.94579" lon="4.73854">
        <ele>186</ele>
        <time>2017-08-17T10:06:32Z</time>
      </trkpt>
      <trkpt lat="45.94574" lon="4.73849">
        <ele>186</ele>
        <time>2017-08-17T10:06:33Z</time>
      </trkpt>
      <trkpt lat="45.94568" lon="4.73844">
        <ele>186</ele>
        <time>2017-08-17T10:06:34Z</time>
      </trkpt>
      <trkpt lat="45.94562" lon="4.73838">
        <ele>186</ele>
        <time>2017-08-17T10:06:35Z</time>
      </trkpt>
      <trkpt lat="45.94557" lon="4.73833">
        <ele>186</ele>
        <time>2017-08-17T10:06:36Z</time>
      </trkpt>
      <trkpt lat="45.94552" lon="4.73828">
        <ele>186</ele>
        <time>2017-08-17T10:06:37Z</time>
      </trkpt>
      <trkpt lat="45.94546" lon="4.73823">
        <ele>186</ele>
        <time>2017-08-17T10:06:38Z</time>
      </trkpt>
      <trkpt lat="45.94541" lon="4.73818">
        <ele>186</ele>
        <time>2017-08-17T10:06:39Z</time>
      </trkpt>
      <trkpt lat="45.94536" lon="4.73812">
        <ele>186</ele>
        <time>2017-08-17T10:06:40Z</time>
      </trkpt>
      <trkpt lat="45.94531" lon="4.73807">
        <ele>186</ele>
        <time>2017-08-17T10:06:41Z</time>
      </trkpt>
      <trkpt lat="45.94526" lon="4.73802">
        <ele>186</ele>
        <time>2017-08-17T10:06:42Z</time>
      </trkpt>
      <trkpt lat="45.9452" lon="4.73797">
        <ele>186</ele>
        <time>2017-08-17T10:06:43Z</time>
      </trkpt>
      <trkpt lat="45.94516" lon="4.73792">
        <ele>186</ele>
        <time>2017-08-17T10:06:44Z</time>
      </trkpt>
      <trkpt lat="45.94511" lon="4.73787">
        <ele>186</ele>
        <time>2017-08-17T10:06:45Z</time>
      </trkpt>
      <trkpt lat="45.94506" lon="4.73781">
        <ele>186</ele>
        <time>2017-08-17T10:06:46Z</time>
      </trkpt>
      <trkpt lat="45.94502" lon="4.73776">
        <ele>186</ele>
        <time>2017-08-17T10:06:47Z</time>
      </trkpt>
      <trkpt lat="45.94498" lon="4.73771">
        <ele>186</ele>
        <time>2017-08-17T10:06:48Z</time>
      </trkpt>
      <trkpt lat="45.94495" lon="4.73767">
        <ele>186</ele>
        <time>2017-08-17T10:06:49Z</time>
      </trkpt>
      <trkpt lat="45.94492" lon="4.7376">
        <ele>186</ele>
        <time>2017-08-17T10:06:51Z</time>
      </trkpt>
      <trkpt lat="45.9449" lon="4.73755">
        <ele>186</ele>
        <time>2017-08-17T10:06:52Z</time>
      </trkpt>
      <trkpt lat="45.94489" lon="4.73749">
        <ele>186</ele>
        <time>2017-08-17T10:06:53Z</time>
      </trkpt>
      <trkpt lat="45.94488" lon="4.73742">
        <ele>186</ele>
        <time>2017-08-17T10:06:54Z</time>
      </trkpt>
      <trkpt lat="45.94488" lon="4.73734">
        <ele>186</ele>
        <time>2017-08-17T10:06:55Z</time>
      </trkpt>
      <trkpt lat="45.94489" lon="4.73726">
        <ele>186</ele>
        <time>2017-08-17T10:06:56Z</time>
      </trkpt>
      <trkpt lat="45.9449" lon="4.73717">
        <ele>186</ele>
        <time>2017-08-17T10:06:57Z</time>
      </trkpt>
      <trkpt lat="45.94491" lon="4.73707">
        <ele>186</ele>
        <time>2017-08-17T10:06:58Z</time>
      </trkpt>
      <trkpt lat="45.94492" lon="4.73697">
        <ele>186</ele>
        <time>2017-08-17T10:06:59Z</time>
      </trkpt>
      <trkpt lat="45.94494" lon="4.73687">
        <ele>186</ele>
        <time>2017-08-17T10:07:00Z</time>
      </trkpt>
      <trkpt lat="45.94495" lon="4.73678">
        <ele>185</ele>
        <time>2017-08-17T10:07:01Z</time>
      </trkpt>
      <trkpt lat="45.94496" lon="4.73668">
        <ele>185</ele>
        <time>2017-08-17T10:07:02Z</time>
      </trkpt>
      <trkpt lat="45.94497" lon="4.73659">
        <ele>185</ele>
        <time>2017-08-17T10:07:03Z</time>
      </trkpt>
      <trkpt lat="45.94499" lon="4.7365">
        <ele>185</ele>
        <time>2017-08-17T10:07:04Z</time>
      </trkpt>
      <trkpt lat="45.945" lon="4.73641">
        <ele>186</ele>
        <time>2017-08-17T10:07:05Z</time>
      </trkpt>
      <trkpt lat="45.94502" lon="4.73632">
        <ele>184</ele>
        <time>2017-08-17T10:07:06Z</time>
      </trkpt>
      <trkpt lat="45.94503" lon="4.73622">
        <ele>184</ele>
        <time>2017-08-17T10:07:07Z</time>
      </trkpt>
      <trkpt lat="45.94504" lon="4.73611">
        <ele>184</ele>
        <time>2017-08-17T10:07:08Z</time>
      </trkpt>
      <trkpt lat="45.94505" lon="4.73601">
        <ele>184</ele>
        <time>2017-08-17T10:07:09Z</time>
      </trkpt>
      <trkpt lat="45.94507" lon="4.7359">
        <ele>185</ele>
        <time>2017-08-17T10:07:10Z</time>
      </trkpt>
      <trkpt lat="45.94508" lon="4.73579">
        <ele>184</ele>
        <time>2017-08-17T10:07:11Z</time>
      </trkpt>
      <trkpt lat="45.94508" lon="4.73567">
        <ele>184</ele>
        <time>2017-08-17T10:07:12Z</time>
      </trkpt>
      <trkpt lat="45.94509" lon="4.73556">
        <ele>183</ele>
        <time>2017-08-17T10:07:13Z</time>
      </trkpt>
      <trkpt lat="45.94509" lon="4.73544">
        <ele>183</ele>
        <time>2017-08-17T10:07:14Z</time>
      </trkpt>
      <trkpt lat="45.9451" lon="4.73533">
        <ele>183</ele>
        <time>2017-08-17T10:07:15Z</time>
      </trkpt>
      <trkpt lat="45.94511" lon="4.73521">
        <ele>183</ele>
        <time>2017-08-17T10:07:16Z</time>
      </trkpt>
      <trkpt lat="45.94511" lon="4.7351">
        <ele>183</ele>
        <time>2017-08-17T10:07:17Z</time>
      </trkpt>
      <trkpt lat="45.94511" lon="4.73498">
        <ele>182</ele>
        <time>2017-08-17T10:07:18Z</time>
      </trkpt>
      <trkpt lat="45.94511" lon="4.73487">
        <ele>182</ele>
        <time>2017-08-17T10:07:19Z</time>
      </trkpt>
      <trkpt lat="45.94511" lon="4.73476">
        <ele>182</ele>
        <time>2017-08-17T10:07:20Z</time>
      </trkpt>
      <trkpt lat="45.94511" lon="4.73465">
        <ele>181</ele>
        <time>2017-08-17T10:07:21Z</time>
      </trkpt>
      <trkpt lat="45.94511" lon="4.73455">
        <ele>181</ele>
        <time>2017-08-17T10:07:22Z</time>
      </trkpt>
      <trkpt lat="45.94511" lon="4.73443">
        <ele>181</ele>
        <time>2017-08-17T10:07:23Z</time>
      </trkpt>
      <trkpt lat="45.94511" lon="4.73432">
        <ele>181</ele>
        <time>2017-08-17T10:07:24Z</time>
      </trkpt>
      <trkpt lat="45.94508" lon="4.73419">
        <ele>180</ele>
        <time>2017-08-17T10:07:25Z</time>
      </trkpt>
      <trkpt lat="45.94507" lon="4.73407">
        <ele>179</ele>
        <time>2017-08-17T10:07:26Z</time>
      </trkpt>
      <trkpt lat="45.94506" lon="4.73396">
        <ele>179</ele>
        <time>2017-08-17T10:07:27Z</time>
      </trkpt>
      <trkpt lat="45.94504" lon="4.73385">
        <ele>179</ele>
        <time>2017-08-17T10:07:28Z</time>
      </trkpt>
      <trkpt lat="45.94503" lon="4.73374">
        <ele>178</ele>
        <time>2017-08-17T10:07:29Z</time>
      </trkpt>
      <trkpt lat="45.94502" lon="4.73363">
        <ele>178</ele>
        <time>2017-08-17T10:07:30Z</time>
      </trkpt>
      <trkpt lat="45.94502" lon="4.73351">
        <ele>178</ele>
        <time>2017-08-17T10:07:31Z</time>
      </trkpt>
      <trkpt lat="45.94501" lon="4.7334">
        <ele>177</ele>
        <time>2017-08-17T10:07:32Z</time>
      </trkpt>
      <trkpt lat="45.94499" lon="4.73329">
        <ele>177</ele>
        <time>2017-08-17T10:07:33Z</time>
      </trkpt>
      <trkpt lat="45.94498" lon="4.73317">
        <ele>177</ele>
        <time>2017-08-17T10:07:34Z</time>
      </trkpt>
      <trkpt lat="45.94497" lon="4.73305">
        <ele>177</ele>
        <time>2017-08-17T10:07:35Z</time>
      </trkpt>
      <trkpt lat="45.94495" lon="4.73294">
        <ele>177</ele>
        <time>2017-08-17T10:07:36Z</time>
      </trkpt>
      <trkpt lat="45.94494" lon="4.73282">
        <ele>177</ele>
        <time>2017-08-17T10:07:37Z</time>
      </trkpt>
      <trkpt lat="45.94493" lon="4.73271">
        <ele>177</ele>
        <time>2017-08-17T10:07:38Z</time>
      </trkpt>
      <trkpt lat="45.94491" lon="4.7326">
        <ele>176</ele>
        <time>2017-08-17T10:07:39Z</time>
      </trkpt>
      <trkpt lat="45.94491" lon="4.73249">
        <ele>176</ele>
        <time>2017-08-17T10:07:40Z</time>
      </trkpt>
      <trkpt lat="45.94489" lon="4.73238">
        <ele>175</ele>
        <time>2017-08-17T10:07:41Z</time>
      </trkpt>
      <trkpt lat="45.94489" lon="4.73227">
        <ele>175</ele>
        <time>2017-08-17T10:07:42Z</time>
      </trkpt>
      <trkpt lat="45.94487" lon="4.73215">
        <ele>175</ele>
        <time>2017-08-17T10:07:43Z</time>
      </trkpt>
      <trkpt lat="45.94486" lon="4.73203">
        <ele>175</ele>
        <time>2017-08-17T10:07:44Z</time>
      </trkpt>
      <trkpt lat="45.94485" lon="4.73191">
        <ele>174</ele>
        <time>2017-08-17T10:07:45Z</time>
      </trkpt>
      <trkpt lat="45.94484" lon="4.73179">
        <ele>174</ele>
        <time>2017-08-17T10:07:46Z</time>
      </trkpt>
      <trkpt lat="45.94482" lon="4.73168">
        <ele>174</ele>
        <time>2017-08-17T10:07:47Z</time>
      </trkpt>
      <trkpt lat="45.94481" lon="4.73156">
        <ele>173</ele>
        <time>2017-08-17T10:07:48Z</time>
      </trkpt>
      <trkpt lat="45.94479" lon="4.73145">
        <ele>172</ele>
        <time>2017-08-17T10:07:49Z</time>
      </trkpt>
      <trkpt lat="45.94479" lon="4.73133">
        <ele>172</ele>
        <time>2017-08-17T10:07:50Z</time>
      </trkpt>
      <trkpt lat="45.94477" lon="4.73123">
        <ele>172</ele>
        <time>2017-08-17T10:07:51Z</time>
      </trkpt>
      <trkpt lat="45.94477" lon="4.73112">
        <ele>172</ele>
        <time>2017-08-17T10:07:52Z</time>
      </trkpt>
      <trkpt lat="45.94475" lon="4.73102">
        <ele>172</ele>
        <time>2017-08-17T10:07:53Z</time>
      </trkpt>
      <trkpt lat="45.94473" lon="4.73091">
        <ele>172</ele>
        <time>2017-08-17T10:07:54Z</time>
      </trkpt>
      <trkpt lat="45.94469" lon="4.73081">
        <ele>170</ele>
        <time>2017-08-17T10:07:55Z</time>
      </trkpt>
      <trkpt lat="45.94467" lon="4.73071">
        <ele>170</ele>
        <time>2017-08-17T10:07:56Z</time>
      </trkpt>
      <trkpt lat="45.94466" lon="4.73062">
        <ele>170</ele>
        <time>2017-08-17T10:07:57Z</time>
      </trkpt>
      <trkpt lat="45.94464" lon="4.73052">
        <ele>170</ele>
        <time>2017-08-17T10:07:58Z</time>
      </trkpt>
      <trkpt lat="45.94462" lon="4.73043">
        <ele>170</ele>
        <time>2017-08-17T10:07:59Z</time>
      </trkpt>
      <trkpt lat="45.94461" lon="4.73033">
        <ele>169</ele>
        <time>2017-08-17T10:08:00Z</time>
      </trkpt>
      <trkpt lat="45.9446" lon="4.73024">
        <ele>169</ele>
        <time>2017-08-17T10:08:01Z</time>
      </trkpt>
      <trkpt lat="45.94458" lon="4.73014">
        <ele>169</ele>
        <time>2017-08-17T10:08:02Z</time>
      </trkpt>
      <trkpt lat="45.94456" lon="4.73005">
        <ele>169</ele>
        <time>2017-08-17T10:08:03Z</time>
      </trkpt>
      <trkpt lat="45.94455" lon="4.72996">
        <ele>168</ele>
        <time>2017-08-17T10:08:04Z</time>
      </trkpt>
      <trkpt lat="45.94453" lon="4.72986">
        <ele>167</ele>
        <time>2017-08-17T10:08:05Z</time>
      </trkpt>
      <trkpt lat="45.94452" lon="4.72977">
        <ele>167</ele>
        <time>2017-08-17T10:08:06Z</time>
      </trkpt>
      <trkpt lat="45.9445" lon="4.72968">
        <ele>167</ele>
        <time>2017-08-17T10:08:07Z</time>
      </trkpt>
      <trkpt lat="45.94449" lon="4.72959">
        <ele>167</ele>
        <time>2017-08-17T10:08:08Z</time>
      </trkpt>
      <trkpt lat="45.94447" lon="4.7295">
        <ele>167</ele>
        <time>2017-08-17T10:08:09Z</time>
      </trkpt>
      <trkpt lat="45.94446" lon="4.72941">
        <ele>167</ele>
        <time>2017-08-17T10:08:10Z</time>
      </trkpt>
      <trkpt lat="45.94445" lon="4.72932">
        <ele>167</ele>
        <time>2017-08-17T10:08:11Z</time>
      </trkpt>
      <trkpt lat="45.94443" lon="4.72922">
        <ele>167</ele>
        <time>2017-08-17T10:08:12Z</time>
      </trkpt>
      <trkpt lat="45.94442" lon="4.72913">
        <ele>166</ele>
        <time>2017-08-17T10:08:13Z</time>
      </trkpt>
      <trkpt lat="45.94441" lon="4.72904">
        <ele>166</ele>
        <time>2017-08-17T10:08:14Z</time>
      </trkpt>
      <trkpt lat="45.9444" lon="4.72895">
        <ele>166</ele>
        <time>2017-08-17T10:08:15Z</time>
      </trkpt>
      <trkpt lat="45.94439" lon="4.72886">
        <ele>166</ele>
        <time>2017-08-17T10:08:16Z</time>
      </trkpt>
      <trkpt lat="45.94437" lon="4.72877">
        <ele>166</ele>
        <time>2017-08-17T10:08:17Z</time>
      </trkpt>
      <trkpt lat="45.94436" lon="4.72868">
        <ele>166</ele>
        <time>2017-08-17T10:08:18Z</time>
      </trkpt>
      <trkpt lat="45.94435" lon="4.72859">
        <ele>166</ele>
        <time>2017-08-17T10:08:19Z</time>
      </trkpt>
      <trkpt lat="45.94434" lon="4.72849">
        <ele>166</ele>
        <time>2017-08-17T10:08:20Z</time>
      </trkpt>
      <trkpt lat="45.94433" lon="4.72839">
        <ele>166</ele>
        <time>2017-08-17T10:08:21Z</time>
      </trkpt>
      <trkpt lat="45.94431" lon="4.7283">
        <ele>167</ele>
        <time>2017-08-17T10:08:22Z</time>
      </trkpt>
      <trkpt lat="45.9443" lon="4.72819">
        <ele>167</ele>
        <time>2017-08-17T10:08:23Z</time>
      </trkpt>
      <trkpt lat="45.94429" lon="4.72808">
        <ele>167</ele>
        <time>2017-08-17T10:08:24Z</time>
      </trkpt>
      <trkpt lat="45.94428" lon="4.72798">
        <ele>167</ele>
        <time>2017-08-17T10:08:25Z</time>
      </trkpt>
      <trkpt lat="45.94427" lon="4.72787">
        <ele>168</ele>
        <time>2017-08-17T10:08:26Z</time>
      </trkpt>
      <trkpt lat="45.94426" lon="4.72775">
        <ele>168</ele>
        <time>2017-08-17T10:08:27Z</time>
      </trkpt>
      <trkpt lat="45.94425" lon="4.72764">
        <ele>169</ele>
        <time>2017-08-17T10:08:28Z</time>
      </trkpt>
      <trkpt lat="45.94423" lon="4.72754">
        <ele>170</ele>
        <time>2017-08-17T10:08:29Z</time>
      </trkpt>
      <trkpt lat="45.94422" lon="4.72743">
        <ele>171</ele>
        <time>2017-08-17T10:08:30Z</time>
      </trkpt>
      <trkpt lat="45.94421" lon="4.72732">
        <ele>171</ele>
        <time>2017-08-17T10:08:31Z</time>
      </trkpt>
      <trkpt lat="45.9442" lon="4.72721">
        <ele>171</ele>
        <time>2017-08-17T10:08:32Z</time>
      </trkpt>
      <trkpt lat="45.94419" lon="4.7271">
        <ele>172</ele>
        <time>2017-08-17T10:08:33Z</time>
      </trkpt>
      <trkpt lat="45.94419" lon="4.72699">
        <ele>172</ele>
        <time>2017-08-17T10:08:34Z</time>
      </trkpt>
      <trkpt lat="45.94418" lon="4.72689">
        <ele>172</ele>
        <time>2017-08-17T10:08:35Z</time>
      </trkpt>
      <trkpt lat="45.94417" lon="4.72678">
        <ele>173</ele>
        <time>2017-08-17T10:08:36Z</time>
      </trkpt>
      <trkpt lat="45.94416" lon="4.72669">
        <ele>174</ele>
        <time>2017-08-17T10:08:37Z</time>
      </trkpt>
      <trkpt lat="45.94416" lon="4.72658">
        <ele>174</ele>
        <time>2017-08-17T10:08:38Z</time>
      </trkpt>
      <trkpt lat="45.94415" lon="4.72648">
        <ele>174</ele>
        <time>2017-08-17T10:08:39Z</time>
      </trkpt>
      <trkpt lat="45.94414" lon="4.72638">
        <ele>174</ele>
        <time>2017-08-17T10:08:40Z</time>
      </trkpt>
      <trkpt lat="45.94413" lon="4.72628">
        <ele>174</ele>
        <time>2017-08-17T10:08:41Z</time>
      </trkpt>
      <trkpt lat="45.94412" lon="4.72618">
        <ele>173</ele>
        <time>2017-08-17T10:08:42Z</time>
      </trkpt>
      <trkpt lat="45.94411" lon="4.72608">
        <ele>173</ele>
        <time>2017-08-17T10:08:43Z</time>
      </trkpt>
      <trkpt lat="45.94409" lon="4.72599">
        <ele>173</ele>
        <time>2017-08-17T10:08:44Z</time>
      </trkpt>
      <trkpt lat="45.94408" lon="4.72589">
        <ele>173</ele>
        <time>2017-08-17T10:08:45Z</time>
      </trkpt>
      <trkpt lat="45.94406" lon="4.7258">
        <ele>173</ele>
        <time>2017-08-17T10:08:46Z</time>
      </trkpt>
      <trkpt lat="45.94405" lon="4.72571">
        <ele>173</ele>
        <time>2017-08-17T10:08:47Z</time>
      </trkpt>
      <trkpt lat="45.94403" lon="4.72562">
        <ele>173</ele>
        <time>2017-08-17T10:08:48Z</time>
      </trkpt>
      <trkpt lat="45.94402" lon="4.72554">
        <ele>173</ele>
        <time>2017-08-17T10:08:49Z</time>
      </trkpt>
      <trkpt lat="45.944" lon="4.72546">
        <ele>173</ele>
        <time>2017-08-17T10:08:50Z</time>
      </trkpt>
      <trkpt lat="45.94399" lon="4.72538">
        <ele>174</ele>
        <time>2017-08-17T10:08:51Z</time>
      </trkpt>
      <trkpt lat="45.94398" lon="4.7253">
        <ele>174</ele>
        <time>2017-08-17T10:08:52Z</time>
      </trkpt>
      <trkpt lat="45.94394" lon="4.72522">
        <ele>174</ele>
        <time>2017-08-17T10:08:53Z</time>
      </trkpt>
      <trkpt lat="45.94393" lon="4.72515">
        <ele>174</ele>
        <time>2017-08-17T10:08:54Z</time>
      </trkpt>
      <trkpt lat="45.94392" lon="4.72509">
        <ele>174</ele>
        <time>2017-08-17T10:08:55Z</time>
      </trkpt>
      <trkpt lat="45.9439" lon="4.72501">
        <ele>174</ele>
        <time>2017-08-17T10:08:56Z</time>
      </trkpt>
      <trkpt lat="45.94389" lon="4.72494">
        <ele>173</ele>
        <time>2017-08-17T10:08:57Z</time>
      </trkpt>
      <trkpt lat="45.94387" lon="4.72488">
        <ele>173</ele>
        <time>2017-08-17T10:08:58Z</time>
      </trkpt>
      <trkpt lat="45.94385" lon="4.72481">
        <ele>173</ele>
        <time>2017-08-17T10:08:59Z</time>
      </trkpt>
      <trkpt lat="45.94383" lon="4.72474">
        <ele>173</ele>
        <time>2017-08-17T10:09:00Z</time>
      </trkpt>
      <trkpt lat="45.9438" lon="4.72466">
        <ele>173</ele>
        <time>2017-08-17T10:09:01Z</time>
      </trkpt>
      <trkpt lat="45.94377" lon="4.72459">
        <ele>173</ele>
        <time>2017-08-17T10:09:02Z</time>
      </trkpt>
      <trkpt lat="45.94373" lon="4.72452">
        <ele>173</ele>
        <time>2017-08-17T10:09:03Z</time>
      </trkpt>
      <trkpt lat="45.94369" lon="4.72445">
        <ele>173</ele>
        <time>2017-08-17T10:09:04Z</time>
      </trkpt>
      <trkpt lat="45.94366" lon="4.72438">
        <ele>173</ele>
        <time>2017-08-17T10:09:05Z</time>
      </trkpt>
      <trkpt lat="45.94362" lon="4.72432">
        <ele>173</ele>
        <time>2017-08-17T10:09:06Z</time>
      </trkpt>
      <trkpt lat="45.94359" lon="4.72426">
        <ele>173</ele>
        <time>2017-08-17T10:09:07Z</time>
      </trkpt>
      <trkpt lat="45.94355" lon="4.72419">
        <ele>173</ele>
        <time>2017-08-17T10:09:08Z</time>
      </trkpt>
      <trkpt lat="45.94352" lon="4.72414">
        <ele>172</ele>
        <time>2017-08-17T10:09:09Z</time>
      </trkpt>
      <trkpt lat="45.94349" lon="4.72408">
        <ele>172</ele>
        <time>2017-08-17T10:09:10Z</time>
      </trkpt>
      <trkpt lat="45.94346" lon="4.72402">
        <ele>172</ele>
        <time>2017-08-17T10:09:11Z</time>
      </trkpt>
      <trkpt lat="45.94343" lon="4.72396">
        <ele>172</ele>
        <time>2017-08-17T10:09:12Z</time>
      </trkpt>
      <trkpt lat="45.94339" lon="4.72391">
        <ele>172</ele>
        <time>2017-08-17T10:09:13Z</time>
      </trkpt>
      <trkpt lat="45.94336" lon="4.72384">
        <ele>172</ele>
        <time>2017-08-17T10:09:14Z</time>
      </trkpt>
      <trkpt lat="45.94332" lon="4.72377">
        <ele>172</ele>
        <time>2017-08-17T10:09:15Z</time>
      </trkpt>
      <trkpt lat="45.94329" lon="4.7237">
        <ele>172</ele>
        <time>2017-08-17T10:09:16Z</time>
      </trkpt>
      <trkpt lat="45.94326" lon="4.72362">
        <ele>172</ele>
        <time>2017-08-17T10:09:17Z</time>
      </trkpt>
      <trkpt lat="45.94322" lon="4.72354">
        <ele>172</ele>
        <time>2017-08-17T10:09:18Z</time>
      </trkpt>
      <trkpt lat="45.94319" lon="4.72346">
        <ele>172</ele>
        <time>2017-08-17T10:09:19Z</time>
      </trkpt>
      <trkpt lat="45.94315" lon="4.72338">
        <ele>172</ele>
        <time>2017-08-17T10:09:20Z</time>
      </trkpt>
      <trkpt lat="45.94313" lon="4.7233">
        <ele>172</ele>
        <time>2017-08-17T10:09:21Z</time>
      </trkpt>
      <trkpt lat="45.94309" lon="4.72322">
        <ele>171</ele>
        <time>2017-08-17T10:09:22Z</time>
      </trkpt>
      <trkpt lat="45.94305" lon="4.72316">
        <ele>171</ele>
        <time>2017-08-17T10:09:23Z</time>
      </trkpt>
      <trkpt lat="45.94301" lon="4.72307">
        <ele>171</ele>
        <time>2017-08-17T10:09:24Z</time>
      </trkpt>
      <trkpt lat="45.94295" lon="4.723">
        <ele>171</ele>
        <time>2017-08-17T10:09:25Z</time>
      </trkpt>
      <trkpt lat="45.9429" lon="4.72293">
        <ele>171</ele>
        <time>2017-08-17T10:09:26Z</time>
      </trkpt>
      <trkpt lat="45.94286" lon="4.72285">
        <ele>171</ele>
        <time>2017-08-17T10:09:27Z</time>
      </trkpt>
      <trkpt lat="45.94283" lon="4.72279">
        <ele>171</ele>
        <time>2017-08-17T10:09:28Z</time>
      </trkpt>
      <trkpt lat="45.9428" lon="4.72274">
        <ele>171</ele>
        <time>2017-08-17T10:09:29Z</time>
      </trkpt>
      <trkpt lat="45.94273" lon="4.72273">
        <ele>171</ele>
        <time>2017-08-17T10:09:30Z</time>
      </trkpt>
      <trkpt lat="45.94267" lon="4.72273">
        <ele>171</ele>
        <time>2017-08-17T10:09:31Z</time>
      </trkpt>
      <trkpt lat="45.94261" lon="4.72274">
        <ele>171</ele>
        <time>2017-08-17T10:09:32Z</time>
      </trkpt>
      <trkpt lat="45.94255" lon="4.72275">
        <ele>171</ele>
        <time>2017-08-17T10:09:33Z</time>
      </trkpt>
      <trkpt lat="45.9425" lon="4.72276">
        <ele>171</ele>
        <time>2017-08-17T10:09:34Z</time>
      </trkpt>
      <trkpt lat="45.94245" lon="4.72278">
        <ele>171</ele>
        <time>2017-08-17T10:09:35Z</time>
      </trkpt>
      <trkpt lat="45.94239" lon="4.72279">
        <ele>171</ele>
        <time>2017-08-17T10:09:36Z</time>
      </trkpt>
      <trkpt lat="45.94233" lon="4.72281">
        <ele>171</ele>
        <time>2017-08-17T10:09:37Z</time>
      </trkpt>
      <trkpt lat="45.94227" lon="4.72282">
        <ele>171</ele>
        <time>2017-08-17T10:09:38Z</time>
      </trkpt>
      <trkpt lat="45.94221" lon="4.72284">
        <ele>171</ele>
        <time>2017-08-17T10:09:39Z</time>
      </trkpt>
      <trkpt lat="45.94215" lon="4.72286">
        <ele>171</ele>
        <time>2017-08-17T10:09:40Z</time>
      </trkpt>
      <trkpt lat="45.94209" lon="4.72286">
        <ele>171</ele>
        <time>2017-08-17T10:09:41Z</time>
      </trkpt>
      <trkpt lat="45.94203" lon="4.72286">
        <ele>171</ele>
        <time>2017-08-17T10:09:42Z</time>
      </trkpt>
      <trkpt lat="45.94197" lon="4.72286">
        <ele>171</ele>
        <time>2017-08-17T10:09:43Z</time>
      </trkpt>
      <trkpt lat="45.94191" lon="4.72286">
        <ele>171</ele>
        <time>2017-08-17T10:09:44Z</time>
      </trkpt>
      <trkpt lat="45.94185" lon="4.72286">
        <ele>171</ele>
        <time>2017-08-17T10:09:45Z</time>
      </trkpt>
      <trkpt lat="45.9418" lon="4.72286">
        <ele>171</ele>
        <time>2017-08-17T10:09:46Z</time>
      </trkpt>
      <trkpt lat="45.94174" lon="4.72286">
        <ele>171</ele>
        <time>2017-08-17T10:09:47Z</time>
      </trkpt>
      <trkpt lat="45.94169" lon="4.72285">
        <ele>171</ele>
        <time>2017-08-17T10:09:48Z</time>
      </trkpt>
      <trkpt lat="45.94164" lon="4.72284">
        <ele>171</ele>
        <time>2017-08-17T10:09:49Z</time>
      </trkpt>
      <trkpt lat="45.94159" lon="4.72283">
        <ele>171</ele>
        <time>2017-08-17T10:09:50Z</time>
      </trkpt>
      <trkpt lat="45.94154" lon="4.72282">
        <ele>171</ele>
        <time>2017-08-17T10:09:51Z</time>
      </trkpt>
      <trkpt lat="45.94149" lon="4.7228">
        <ele>171</ele>
        <time>2017-08-17T10:09:52Z</time>
      </trkpt>
      <trkpt lat="45.94144" lon="4.72279">
        <ele>171</ele>
        <time>2017-08-17T10:09:53Z</time>
      </trkpt>
      <trkpt lat="45.94139" lon="4.72277">
        <ele>171</ele>
        <time>2017-08-17T10:09:54Z</time>
      </trkpt>
      <trkpt lat="45.94135" lon="4.72274">
        <ele>171</ele>
        <time>2017-08-17T10:09:55Z</time>
      </trkpt>
      <trkpt lat="45.9413" lon="4.72271">
        <ele>171</ele>
        <time>2017-08-17T10:09:56Z</time>
      </trkpt>
      <trkpt lat="45.94124" lon="4.72268">
        <ele>171</ele>
        <time>2017-08-17T10:09:57Z</time>
      </trkpt>
      <trkpt lat="45.94118" lon="4.72266">
        <ele>171</ele>
        <time>2017-08-17T10:09:58Z</time>
      </trkpt>
      <trkpt lat="45.94112" lon="4.72263">
        <ele>171</ele>
        <time>2017-08-17T10:09:59Z</time>
      </trkpt>
      <trkpt lat="45.94104" lon="4.72262">
        <ele>171</ele>
        <time>2017-08-17T10:10:00Z</time>
      </trkpt>
      <trkpt lat="45.94097" lon="4.72263">
        <ele>171</ele>
        <time>2017-08-17T10:10:01Z</time>
      </trkpt>
      <trkpt lat="45.9409" lon="4.72264">
        <ele>171</ele>
        <time>2017-08-17T10:10:02Z</time>
      </trkpt>
      <trkpt lat="45.94084" lon="4.72266">
        <ele>171</ele>
        <time>2017-08-17T10:10:03Z</time>
      </trkpt>
      <trkpt lat="45.94077" lon="4.72269">
        <ele>171</ele>
        <time>2017-08-17T10:10:04Z</time>
      </trkpt>
      <trkpt lat="45.94072" lon="4.72273">
        <ele>171</ele>
        <time>2017-08-17T10:10:05Z</time>
      </trkpt>
      <trkpt lat="45.94066" lon="4.72278">
        <ele>171</ele>
        <time>2017-08-17T10:10:06Z</time>
      </trkpt>
      <trkpt lat="45.94061" lon="4.72284">
        <ele>171</ele>
        <time>2017-08-17T10:10:07Z</time>
      </trkpt>
      <trkpt lat="45.94056" lon="4.72289">
        <ele>171</ele>
        <time>2017-08-17T10:10:08Z</time>
      </trkpt>
      <trkpt lat="45.94051" lon="4.72295">
        <ele>171</ele>
        <time>2017-08-17T10:10:09Z</time>
      </trkpt>
      <trkpt lat="45.94047" lon="4.72301">
        <ele>171</ele>
        <time>2017-08-17T10:10:10Z</time>
      </trkpt>
      <trkpt lat="45.94042" lon="4.72307">
        <ele>171</ele>
        <time>2017-08-17T10:10:11Z</time>
      </trkpt>
      <trkpt lat="45.94037" lon="4.72312">
        <ele>171</ele>
        <time>2017-08-17T10:10:12Z</time>
      </trkpt>
      <trkpt lat="45.94032" lon="4.72318">
        <ele>171</ele>
        <time>2017-08-17T10:10:13Z</time>
      </trkpt>
      <trkpt lat="45.94028" lon="4.72324">
        <ele>171</ele>
        <time>2017-08-17T10:10:14Z</time>
      </trkpt>
      <trkpt lat="45.94023" lon="4.72329">
        <ele>171</ele>
        <time>2017-08-17T10:10:15Z</time>
      </trkpt>
      <trkpt lat="45.94018" lon="4.72335">
        <ele>171</ele>
        <time>2017-08-17T10:10:16Z</time>
      </trkpt>
      <trkpt lat="45.94013" lon="4.72341">
        <ele>171</ele>
        <time>2017-08-17T10:10:17Z</time>
      </trkpt>
      <trkpt lat="45.94008" lon="4.72347">
        <ele>171</ele>
        <time>2017-08-17T10:10:18Z</time>
      </trkpt>
      <trkpt lat="45.94003" lon="4.72353">
        <ele>171</ele>
        <time>2017-08-17T10:10:19Z</time>
      </trkpt>
      <trkpt lat="45.93998" lon="4.7236">
        <ele>171</ele>
        <time>2017-08-17T10:10:20Z</time>
      </trkpt>
      <trkpt lat="45.93993" lon="4.72366">
        <ele>171</ele>
        <time>2017-08-17T10:10:21Z</time>
      </trkpt>
      <trkpt lat="45.93988" lon="4.72372">
        <ele>171</ele>
        <time>2017-08-17T10:10:22Z</time>
      </trkpt>
      <trkpt lat="45.93983" lon="4.72378">
        <ele>171</ele>
        <time>2017-08-17T10:10:23Z</time>
      </trkpt>
      <trkpt lat="45.93978" lon="4.72383">
        <ele>171</ele>
        <time>2017-08-17T10:10:24Z</time>
      </trkpt>
      <trkpt lat="45.93973" lon="4.72388">
        <ele>171</ele>
        <time>2017-08-17T10:10:25Z</time>
      </trkpt>
      <trkpt lat="45.93968" lon="4.72392">
        <ele>171</ele>
        <time>2017-08-17T10:10:26Z</time>
      </trkpt>
      <trkpt lat="45.93964" lon="4.72398">
        <ele>171</ele>
        <time>2017-08-17T10:10:27Z</time>
      </trkpt>
      <trkpt lat="45.93959" lon="4.72403">
        <ele>171</ele>
        <time>2017-08-17T10:10:28Z</time>
      </trkpt>
      <trkpt lat="45.93955" lon="4.72407">
        <ele>171</ele>
        <time>2017-08-17T10:10:29Z</time>
      </trkpt>
      <trkpt lat="45.93951" lon="4.72412">
        <ele>171</ele>
        <time>2017-08-17T10:10:30Z</time>
      </trkpt>
      <trkpt lat="45.93947" lon="4.72416">
        <ele>171</ele>
        <time>2017-08-17T10:10:31Z</time>
      </trkpt>
      <trkpt lat="45.93942" lon="4.72422">
        <ele>171</ele>
        <time>2017-08-17T10:10:32Z</time>
      </trkpt>
      <trkpt lat="45.93938" lon="4.72428">
        <ele>172</ele>
        <time>2017-08-17T10:10:33Z</time>
      </trkpt>
      <trkpt lat="45.93933" lon="4.72434">
        <ele>172</ele>
        <time>2017-08-17T10:10:34Z</time>
      </trkpt>
      <trkpt lat="45.93929" lon="4.72441">
        <ele>171</ele>
        <time>2017-08-17T10:10:35Z</time>
      </trkpt>
      <trkpt lat="45.93924" lon="4.72447">
        <ele>171</ele>
        <time>2017-08-17T10:10:36Z</time>
      </trkpt>
      <trkpt lat="45.9392" lon="4.72453">
        <ele>171</ele>
        <time>2017-08-17T10:10:37Z</time>
      </trkpt>
      <trkpt lat="45.93915" lon="4.72459">
        <ele>172</ele>
        <time>2017-08-17T10:10:38Z</time>
      </trkpt>
      <trkpt lat="45.9391" lon="4.72466">
        <ele>172</ele>
        <time>2017-08-17T10:10:39Z</time>
      </trkpt>
      <trkpt lat="45.93906" lon="4.72472">
        <ele>172</ele>
        <time>2017-08-17T10:10:40Z</time>
      </trkpt>
      <trkpt lat="45.93901" lon="4.72478">
        <ele>172</ele>
        <time>2017-08-17T10:10:41Z</time>
      </trkpt>
      <trkpt lat="45.93896" lon="4.72484">
        <ele>172</ele>
        <time>2017-08-17T10:10:42Z</time>
      </trkpt>
      <trkpt lat="45.93891" lon="4.7249">
        <ele>172</ele>
        <time>2017-08-17T10:10:43Z</time>
      </trkpt>
      <trkpt lat="45.93887" lon="4.72495">
        <ele>172</ele>
        <time>2017-08-17T10:10:44Z</time>
      </trkpt>
      <trkpt lat="45.93883" lon="4.725">
        <ele>172</ele>
        <time>2017-08-17T10:10:45Z</time>
      </trkpt>
      <trkpt lat="45.93878" lon="4.72505">
        <ele>173</ele>
        <time>2017-08-17T10:10:46Z</time>
      </trkpt>
      <trkpt lat="45.93874" lon="4.72509">
        <ele>173</ele>
        <time>2017-08-17T10:10:47Z</time>
      </trkpt>
      <trkpt lat="45.93869" lon="4.72513">
        <ele>173</ele>
        <time>2017-08-17T10:10:48Z</time>
      </trkpt>
      <trkpt lat="45.93864" lon="4.72514">
        <ele>173</ele>
        <time>2017-08-17T10:10:49Z</time>
      </trkpt>
      <trkpt lat="45.93859" lon="4.72513">
        <ele>173</ele>
        <time>2017-08-17T10:10:50Z</time>
      </trkpt>
      <trkpt lat="45.93855" lon="4.72511">
        <ele>173</ele>
        <time>2017-08-17T10:10:51Z</time>
      </trkpt>
      <trkpt lat="45.93848" lon="4.72505">
        <ele>174</ele>
        <time>2017-08-17T10:10:53Z</time>
      </trkpt>
      <trkpt lat="45.93844" lon="4.72501">
        <ele>174</ele>
        <time>2017-08-17T10:10:54Z</time>
      </trkpt>
      <trkpt lat="45.9384" lon="4.72497">
        <ele>174</ele>
        <time>2017-08-17T10:10:55Z</time>
      </trkpt>
      <trkpt lat="45.93835" lon="4.72494">
        <ele>174</ele>
        <time>2017-08-17T10:10:56Z</time>
      </trkpt>
      <trkpt lat="45.9383" lon="4.72489">
        <ele>173</ele>
        <time>2017-08-17T10:10:57Z</time>
      </trkpt>
      <trkpt lat="45.93825" lon="4.72481">
        <ele>173</ele>
        <time>2017-08-17T10:10:58Z</time>
      </trkpt>
      <trkpt lat="45.93822" lon="4.72473">
        <ele>172</ele>
        <time>2017-08-17T10:10:59Z</time>
      </trkpt>
      <trkpt lat="45.93818" lon="4.7247">
        <ele>172</ele>
        <time>2017-08-17T10:11:00Z</time>
      </trkpt>
      <trkpt lat="45.93814" lon="4.72466">
        <ele>172</ele>
        <time>2017-08-17T10:11:01Z</time>
      </trkpt>
      <trkpt lat="45.9381" lon="4.72462">
        <ele>172</ele>
        <time>2017-08-17T10:11:02Z</time>
      </trkpt>
      <trkpt lat="45.93804" lon="4.72454">
        <ele>172</ele>
        <time>2017-08-17T10:11:04Z</time>
      </trkpt>
      <trkpt lat="45.938" lon="4.7245">
        <ele>172</ele>
        <time>2017-08-17T10:11:05Z</time>
      </trkpt>
      <trkpt lat="45.93792" lon="4.72443">
        <ele>172</ele>
        <time>2017-08-17T10:11:07Z</time>
      </trkpt>
      <trkpt lat="45.9379" lon="4.7244">
        <ele>172</ele>
        <time>2017-08-17T10:11:08Z</time>
      </trkpt>
      <trkpt lat="45.93783" lon="4.72433">
        <ele>172</ele>
        <time>2017-08-17T10:11:10Z</time>
      </trkpt>
      <trkpt lat="45.93779" lon="4.72431">
        <ele>172</ele>
        <time>2017-08-17T10:11:11Z</time>
      </trkpt>
      <trkpt lat="45.93772" lon="4.72424">
        <ele>171</ele>
        <time>2017-08-17T10:11:13Z</time>
      </trkpt>
      <trkpt lat="45.93768" lon="4.72419">
        <ele>171</ele>
        <time>2017-08-17T10:11:14Z</time>
      </trkpt>
      <trkpt lat="45.93763" lon="4.72415">
        <ele>171</ele>
        <time>2017-08-17T10:11:15Z</time>
      </trkpt>
      <trkpt lat="45.93759" lon="4.7241">
        <ele>171</ele>
        <time>2017-08-17T10:11:16Z</time>
      </trkpt>
      <trkpt lat="45.93755" lon="4.72405">
        <ele>171</ele>
        <time>2017-08-17T10:11:17Z</time>
      </trkpt>
      <trkpt lat="45.93751" lon="4.72401">
        <ele>171</ele>
        <time>2017-08-17T10:11:18Z</time>
      </trkpt>
      <trkpt lat="45.93747" lon="4.72397">
        <ele>171</ele>
        <time>2017-08-17T10:11:19Z</time>
      </trkpt>
      <trkpt lat="45.93743" lon="4.72393">
        <ele>171</ele>
        <time>2017-08-17T10:11:20Z</time>
      </trkpt>
      <trkpt lat="45.93739" lon="4.72389">
        <ele>171</ele>
        <time>2017-08-17T10:11:21Z</time>
      </trkpt>
      <trkpt lat="45.93735" lon="4.72386">
        <ele>171</ele>
        <time>2017-08-17T10:11:22Z</time>
      </trkpt>
      <trkpt lat="45.93731" lon="4.72382">
        <ele>171</ele>
        <time>2017-08-17T10:11:23Z</time>
      </trkpt>
      <trkpt lat="45.93728" lon="4.72378">
        <ele>171</ele>
        <time>2017-08-17T10:11:24Z</time>
      </trkpt>
      <trkpt lat="45.93724" lon="4.72374">
        <ele>172</ele>
        <time>2017-08-17T10:11:25Z</time>
      </trkpt>
      <trkpt lat="45.9372" lon="4.7237">
        <ele>172</ele>
        <time>2017-08-17T10:11:26Z</time>
      </trkpt>
      <trkpt lat="45.93716" lon="4.72366">
        <ele>172</ele>
        <time>2017-08-17T10:11:27Z</time>
      </trkpt>
      <trkpt lat="45.9371" lon="4.72362">
        <ele>172</ele>
        <time>2017-08-17T10:11:28Z</time>
      </trkpt>
      <trkpt lat="45.93705" lon="4.72357">
        <ele>171</ele>
        <time>2017-08-17T10:11:29Z</time>
      </trkpt>
      <trkpt lat="45.937" lon="4.72353">
        <ele>171</ele>
        <time>2017-08-17T10:11:30Z</time>
      </trkpt>
      <trkpt lat="45.93695" lon="4.72351">
        <ele>171</ele>
        <time>2017-08-17T10:11:31Z</time>
      </trkpt>
      <trkpt lat="45.93691" lon="4.72346">
        <ele>171</ele>
        <time>2017-08-17T10:11:32Z</time>
      </trkpt>
      <trkpt lat="45.93684" lon="4.72339">
        <ele>171</ele>
        <time>2017-08-17T10:11:34Z</time>
      </trkpt>
      <trkpt lat="45.93679" lon="4.72335">
        <ele>171</ele>
        <time>2017-08-17T10:11:35Z</time>
      </trkpt>
      <trkpt lat="45.93672" lon="4.72328">
        <ele>171</ele>
        <time>2017-08-17T10:11:37Z</time>
      </trkpt>
      <trkpt lat="45.93669" lon="4.72324">
        <ele>171</ele>
        <time>2017-08-17T10:11:38Z</time>
      </trkpt>
      <trkpt lat="45.93665" lon="4.7232">
        <ele>172</ele>
        <time>2017-08-17T10:11:39Z</time>
      </trkpt>
      <trkpt lat="45.93662" lon="4.72316">
        <ele>172</ele>
        <time>2017-08-17T10:11:40Z</time>
      </trkpt>
      <trkpt lat="45.93658" lon="4.72311">
        <ele>172</ele>
        <time>2017-08-17T10:11:41Z</time>
      </trkpt>
      <trkpt lat="45.93654" lon="4.72306">
        <ele>172</ele>
        <time>2017-08-17T10:11:42Z</time>
      </trkpt>
      <trkpt lat="45.93649" lon="4.72302">
        <ele>172</ele>
        <time>2017-08-17T10:11:43Z</time>
      </trkpt>
      <trkpt lat="45.93645" lon="4.72298">
        <ele>172</ele>
        <time>2017-08-17T10:11:44Z</time>
      </trkpt>
      <trkpt lat="45.9364" lon="4.72293">
        <ele>172</ele>
        <time>2017-08-17T10:11:45Z</time>
      </trkpt>
      <trkpt lat="45.93636" lon="4.7229">
        <ele>172</ele>
        <time>2017-08-17T10:11:46Z</time>
      </trkpt>
      <trkpt lat="45.93632" lon="4.72287">
        <ele>172</ele>
        <time>2017-08-17T10:11:47Z</time>
      </trkpt>
      <trkpt lat="45.93628" lon="4.72283">
        <ele>172</ele>
        <time>2017-08-17T10:11:48Z</time>
      </trkpt>
      <trkpt lat="45.93621" lon="4.72276">
        <ele>172</ele>
        <time>2017-08-17T10:11:50Z</time>
      </trkpt>
      <trkpt lat="45.93618" lon="4.72272">
        <ele>172</ele>
        <time>2017-08-17T10:11:51Z</time>
      </trkpt>
      <trkpt lat="45.93611" lon="4.72264">
        <ele>172</ele>
        <time>2017-08-17T10:11:53Z</time>
      </trkpt>
      <trkpt lat="45.93607" lon="4.72261">
        <ele>173</ele>
        <time>2017-08-17T10:11:54Z</time>
      </trkpt>
      <trkpt lat="45.93603" lon="4.72257">
        <ele>173</ele>
        <time>2017-08-17T10:11:55Z</time>
      </trkpt>
      <trkpt lat="45.93599" lon="4.72253">
        <ele>173</ele>
        <time>2017-08-17T10:11:56Z</time>
      </trkpt>
      <trkpt lat="45.93596" lon="4.7225">
        <ele>173</ele>
        <time>2017-08-17T10:11:57Z</time>
      </trkpt>
      <trkpt lat="45.93592" lon="4.72246">
        <ele>173</ele>
        <time>2017-08-17T10:11:58Z</time>
      </trkpt>
      <trkpt lat="45.93587" lon="4.7224">
        <ele>173</ele>
        <time>2017-08-17T10:11:59Z</time>
      </trkpt>
      <trkpt lat="45.93584" lon="4.72236">
        <ele>173</ele>
        <time>2017-08-17T10:12:00Z</time>
      </trkpt>
      <trkpt lat="45.93577" lon="4.72229">
        <ele>173</ele>
        <time>2017-08-17T10:12:02Z</time>
      </trkpt>
      <trkpt lat="45.93574" lon="4.72227">
        <ele>173</ele>
        <time>2017-08-17T10:12:03Z</time>
      </trkpt>
      <trkpt lat="45.93567" lon="4.72222">
        <ele>173</ele>
        <time>2017-08-17T10:12:06Z</time>
      </trkpt>
      <trkpt lat="45.93566" lon="4.72221">
        <ele>173</ele>
        <time>2017-08-17T10:12:07Z</time>
      </trkpt>
      <trkpt lat="45.93565" lon="4.72221">
        <ele>173</ele>
        <time>2017-08-17T10:12:08Z</time>
      </trkpt>
      <trkpt lat="45.93557" lon="4.72218">
        <ele>173</ele>
        <time>2017-08-17T10:12:23Z</time>
      </trkpt>
      <trkpt lat="45.93554" lon="4.72219">
        <ele>173</ele>
        <time>2017-08-17T10:12:24Z</time>
      </trkpt>
      <trkpt lat="45.9355" lon="4.72223">
        <ele>172</ele>
        <time>2017-08-17T10:12:26Z</time>
      </trkpt>
      <trkpt lat="45.93547" lon="4.72226">
        <ele>172</ele>
        <time>2017-08-17T10:12:27Z</time>
      </trkpt>
      <trkpt lat="45.93543" lon="4.72232">
        <ele>172</ele>
        <time>2017-08-17T10:12:29Z</time>
      </trkpt>
      <trkpt lat="45.93539" lon="4.72235">
        <ele>172</ele>
        <time>2017-08-17T10:12:30Z</time>
      </trkpt>
      <trkpt lat="45.93533" lon="4.72242">
        <ele>172</ele>
        <time>2017-08-17T10:12:32Z</time>
      </trkpt>
      <trkpt lat="45.93531" lon="4.72247">
        <ele>172</ele>
        <time>2017-08-17T10:12:33Z</time>
      </trkpt>
      <trkpt lat="45.93529" lon="4.72252">
        <ele>172</ele>
        <time>2017-08-17T10:12:34Z</time>
      </trkpt>
      <trkpt lat="45.93526" lon="4.72259">
        <ele>172</ele>
        <time>2017-08-17T10:12:35Z</time>
      </trkpt>
      <trkpt lat="45.93523" lon="4.72265">
        <ele>172</ele>
        <time>2017-08-17T10:12:36Z</time>
      </trkpt>
      <trkpt lat="45.93521" lon="4.72271">
        <ele>172</ele>
        <time>2017-08-17T10:12:37Z</time>
      </trkpt>
      <trkpt lat="45.93518" lon="4.72276">
        <ele>172</ele>
        <time>2017-08-17T10:12:38Z</time>
      </trkpt>
      <trkpt lat="45.93515" lon="4.72282">
        <ele>172</ele>
        <time>2017-08-17T10:12:39Z</time>
      </trkpt>
      <trkpt lat="45.93512" lon="4.72288">
        <ele>172</ele>
        <time>2017-08-17T10:12:40Z</time>
      </trkpt>
      <trkpt lat="45.93509" lon="4.72294">
        <ele>172</ele>
        <time>2017-08-17T10:12:41Z</time>
      </trkpt>
      <trkpt lat="45.93505" lon="4.72299">
        <ele>172</ele>
        <time>2017-08-17T10:12:42Z</time>
      </trkpt>
      <trkpt lat="45.93501" lon="4.72304">
        <ele>173</ele>
        <time>2017-08-17T10:12:43Z</time>
      </trkpt>
      <trkpt lat="45.93497" lon="4.72309">
        <ele>173</ele>
        <time>2017-08-17T10:12:44Z</time>
      </trkpt>
      <trkpt lat="45.93493" lon="4.72316">
        <ele>173</ele>
        <time>2017-08-17T10:12:45Z</time>
      </trkpt>
      <trkpt lat="45.93488" lon="4.72322">
        <ele>173</ele>
        <time>2017-08-17T10:12:46Z</time>
      </trkpt>
      <trkpt lat="45.93484" lon="4.72328">
        <ele>173</ele>
        <time>2017-08-17T10:12:47Z</time>
      </trkpt>
      <trkpt lat="45.9348" lon="4.72334">
        <ele>173</ele>
        <time>2017-08-17T10:12:48Z</time>
      </trkpt>
      <trkpt lat="45.93477" lon="4.7234">
        <ele>173</ele>
        <time>2017-08-17T10:12:49Z</time>
      </trkpt>
      <trkpt lat="45.93473" lon="4.72346">
        <ele>173</ele>
        <time>2017-08-17T10:12:50Z</time>
      </trkpt>
      <trkpt lat="45.93468" lon="4.72351">
        <ele>173</ele>
        <time>2017-08-17T10:12:51Z</time>
      </trkpt>
      <trkpt lat="45.93464" lon="4.72358">
        <ele>173</ele>
        <time>2017-08-17T10:12:52Z</time>
      </trkpt>
      <trkpt lat="45.9346" lon="4.72363">
        <ele>173</ele>
        <time>2017-08-17T10:12:53Z</time>
      </trkpt>
      <trkpt lat="45.93456" lon="4.72368">
        <ele>173</ele>
        <time>2017-08-17T10:12:54Z</time>
      </trkpt>
      <trkpt lat="45.93452" lon="4.72373">
        <ele>173</ele>
        <time>2017-08-17T10:12:55Z</time>
      </trkpt>
      <trkpt lat="45.93448" lon="4.72377">
        <ele>173</ele>
        <time>2017-08-17T10:12:56Z</time>
      </trkpt>
      <trkpt lat="45.93445" lon="4.72382">
        <ele>173</ele>
        <time>2017-08-17T10:12:57Z</time>
      </trkpt>
      <trkpt lat="45.93439" lon="4.7239">
        <ele>173</ele>
        <time>2017-08-17T10:12:59Z</time>
      </trkpt>
      <trkpt lat="45.93436" lon="4.72394">
        <ele>173</ele>
        <time>2017-08-17T10:13:00Z</time>
      </trkpt>
      <trkpt lat="45.93431" lon="4.72399">
        <ele>174</ele>
        <time>2017-08-17T10:13:02Z</time>
      </trkpt>
      <trkpt lat="45.93424" lon="4.72401">
        <ele>174</ele>
        <time>2017-08-17T10:13:03Z</time>
      </trkpt>
      <trkpt lat="45.93418" lon="4.72403">
        <ele>174</ele>
        <time>2017-08-17T10:13:04Z</time>
      </trkpt>
      <trkpt lat="45.93413" lon="4.72404">
        <ele>174</ele>
        <time>2017-08-17T10:13:05Z</time>
      </trkpt>
      <trkpt lat="45.93408" lon="4.72405">
        <ele>174</ele>
        <time>2017-08-17T10:13:06Z</time>
      </trkpt>
      <trkpt lat="45.93403" lon="4.72404">
        <ele>174</ele>
        <time>2017-08-17T10:13:07Z</time>
      </trkpt>
      <trkpt lat="45.93398" lon="4.72404">
        <ele>174</ele>
        <time>2017-08-17T10:13:08Z</time>
      </trkpt>
      <trkpt lat="45.93392" lon="4.72405">
        <ele>174</ele>
        <time>2017-08-17T10:13:09Z</time>
      </trkpt>
      <trkpt lat="45.93388" lon="4.72409">
        <ele>174</ele>
        <time>2017-08-17T10:13:10Z</time>
      </trkpt>
      <trkpt lat="45.93385" lon="4.72415">
        <ele>174</ele>
        <time>2017-08-17T10:13:11Z</time>
      </trkpt>
      <trkpt lat="45.93385" lon="4.72427">
        <ele>173</ele>
        <time>2017-08-17T10:13:13Z</time>
      </trkpt>
      <trkpt lat="45.93387" lon="4.72434">
        <ele>173</ele>
        <time>2017-08-17T10:13:14Z</time>
      </trkpt>
      <trkpt lat="45.93389" lon="4.72441">
        <ele>173</ele>
        <time>2017-08-17T10:13:15Z</time>
      </trkpt>
      <trkpt lat="45.93389" lon="4.72449">
        <ele>173</ele>
        <time>2017-08-17T10:13:16Z</time>
      </trkpt>
      <trkpt lat="45.93388" lon="4.72457">
        <ele>173</ele>
        <time>2017-08-17T10:13:17Z</time>
      </trkpt>
      <trkpt lat="45.93385" lon="4.72464">
        <ele>173</ele>
        <time>2017-08-17T10:13:18Z</time>
      </trkpt>
      <trkpt lat="45.93381" lon="4.7247">
        <ele>173</ele>
        <time>2017-08-17T10:13:19Z</time>
      </trkpt>
      <trkpt lat="45.93375" lon="4.72476">
        <ele>173</ele>
        <time>2017-08-17T10:13:20Z</time>
      </trkpt>
      <trkpt lat="45.93369" lon="4.72482">
        <ele>173</ele>
        <time>2017-08-17T10:13:21Z</time>
      </trkpt>
      <trkpt lat="45.93363" lon="4.72488">
        <ele>173</ele>
        <time>2017-08-17T10:13:22Z</time>
      </trkpt>
      <trkpt lat="45.93359" lon="4.72493">
        <ele>173</ele>
        <time>2017-08-17T10:13:23Z</time>
      </trkpt>
      <trkpt lat="45.93354" lon="4.72498">
        <ele>173</ele>
        <time>2017-08-17T10:13:24Z</time>
      </trkpt>
      <trkpt lat="45.93349" lon="4.72503">
        <ele>172</ele>
        <time>2017-08-17T10:13:25Z</time>
      </trkpt>
      <trkpt lat="45.93344" lon="4.72508">
        <ele>172</ele>
        <time>2017-08-17T10:13:26Z</time>
      </trkpt>
      <trkpt lat="45.93339" lon="4.72513">
        <ele>172</ele>
        <time>2017-08-17T10:13:27Z</time>
      </trkpt>
      <trkpt lat="45.93335" lon="4.72518">
        <ele>172</ele>
        <time>2017-08-17T10:13:28Z</time>
      </trkpt>
      <trkpt lat="45.93331" lon="4.72523">
        <ele>172</ele>
        <time>2017-08-17T10:13:29Z</time>
      </trkpt>
      <trkpt lat="45.93327" lon="4.72528">
        <ele>172</ele>
        <time>2017-08-17T10:13:30Z</time>
      </trkpt>
      <trkpt lat="45.93323" lon="4.72532">
        <ele>172</ele>
        <time>2017-08-17T10:13:31Z</time>
      </trkpt>
      <trkpt lat="45.9332" lon="4.72539">
        <ele>172</ele>
        <time>2017-08-17T10:13:32Z</time>
      </trkpt>
      <trkpt lat="45.93317" lon="4.72544">
        <ele>172</ele>
        <time>2017-08-17T10:13:33Z</time>
      </trkpt>
      <trkpt lat="45.93314" lon="4.72549">
        <ele>172</ele>
        <time>2017-08-17T10:13:34Z</time>
      </trkpt>
      <trkpt lat="45.93309" lon="4.72554">
        <ele>172</ele>
        <time>2017-08-17T10:13:35Z</time>
      </trkpt>
      <trkpt lat="45.93305" lon="4.72558">
        <ele>172</ele>
        <time>2017-08-17T10:13:36Z</time>
      </trkpt>
      <trkpt lat="45.93302" lon="4.72563">
        <ele>172</ele>
        <time>2017-08-17T10:13:37Z</time>
      </trkpt>
      <trkpt lat="45.93298" lon="4.72568">
        <ele>172</ele>
        <time>2017-08-17T10:13:38Z</time>
      </trkpt>
      <trkpt lat="45.93293" lon="4.72574">
        <ele>171</ele>
        <time>2017-08-17T10:13:39Z</time>
      </trkpt>
      <trkpt lat="45.93288" lon="4.7258">
        <ele>171</ele>
        <time>2017-08-17T10:13:40Z</time>
      </trkpt>
      <trkpt lat="45.93284" lon="4.72586">
        <ele>170</ele>
        <time>2017-08-17T10:13:41Z</time>
      </trkpt>
      <trkpt lat="45.93278" lon="4.72591">
        <ele>170</ele>
        <time>2017-08-17T10:13:42Z</time>
      </trkpt>
      <trkpt lat="45.93273" lon="4.72598">
        <ele>170</ele>
        <time>2017-08-17T10:13:43Z</time>
      </trkpt>
      <trkpt lat="45.93268" lon="4.72603">
        <ele>170</ele>
        <time>2017-08-17T10:13:44Z</time>
      </trkpt>
      <trkpt lat="45.93263" lon="4.72609">
        <ele>170</ele>
        <time>2017-08-17T10:13:45Z</time>
      </trkpt>
      <trkpt lat="45.93258" lon="4.72615">
        <ele>170</ele>
        <time>2017-08-17T10:13:46Z</time>
      </trkpt>
      <trkpt lat="45.93253" lon="4.7262">
        <ele>170</ele>
        <time>2017-08-17T10:13:47Z</time>
      </trkpt>
      <trkpt lat="45.93248" lon="4.72626">
        <ele>170</ele>
        <time>2017-08-17T10:13:48Z</time>
      </trkpt>
      <trkpt lat="45.93243" lon="4.72631">
        <ele>170</ele>
        <time>2017-08-17T10:13:49Z</time>
      </trkpt>
      <trkpt lat="45.93238" lon="4.72636">
        <ele>170</ele>
        <time>2017-08-17T10:13:50Z</time>
      </trkpt>
      <trkpt lat="45.93234" lon="4.72641">
        <ele>170</ele>
        <time>2017-08-17T10:13:51Z</time>
      </trkpt>
      <trkpt lat="45.9323" lon="4.72646">
        <ele>170</ele>
        <time>2017-08-17T10:13:52Z</time>
      </trkpt>
      <trkpt lat="45.93226" lon="4.7265">
        <ele>170</ele>
        <time>2017-08-17T10:13:53Z</time>
      </trkpt>
      <trkpt lat="45.93222" lon="4.72655">
        <ele>170</ele>
        <time>2017-08-17T10:13:54Z</time>
      </trkpt>
      <trkpt lat="45.93218" lon="4.7266">
        <ele>170</ele>
        <time>2017-08-17T10:13:55Z</time>
      </trkpt>
      <trkpt lat="45.93214" lon="4.72664">
        <ele>170</ele>
        <time>2017-08-17T10:13:56Z</time>
      </trkpt>
      <trkpt lat="45.9321" lon="4.72668">
        <ele>169</ele>
        <time>2017-08-17T10:13:57Z</time>
      </trkpt>
      <trkpt lat="45.93206" lon="4.72673">
        <ele>169</ele>
        <time>2017-08-17T10:13:58Z</time>
      </trkpt>
      <trkpt lat="45.93202" lon="4.72678">
        <ele>169</ele>
        <time>2017-08-17T10:13:59Z</time>
      </trkpt>
      <trkpt lat="45.93197" lon="4.72683">
        <ele>169</ele>
        <time>2017-08-17T10:14:00Z</time>
      </trkpt>
      <trkpt lat="45.93192" lon="4.72689">
        <ele>169</ele>
        <time>2017-08-17T10:14:01Z</time>
      </trkpt>
      <trkpt lat="45.93188" lon="4.72694">
        <ele>169</ele>
        <time>2017-08-17T10:14:02Z</time>
      </trkpt>
      <trkpt lat="45.93183" lon="4.727">
        <ele>169</ele>
        <time>2017-08-17T10:14:03Z</time>
      </trkpt>
      <trkpt lat="45.93178" lon="4.72706">
        <ele>169</ele>
        <time>2017-08-17T10:14:04Z</time>
      </trkpt>
      <trkpt lat="45.93173" lon="4.72712">
        <ele>170</ele>
        <time>2017-08-17T10:14:05Z</time>
      </trkpt>
      <trkpt lat="45.93168" lon="4.72718">
        <ele>170</ele>
        <time>2017-08-17T10:14:06Z</time>
      </trkpt>
      <trkpt lat="45.93163" lon="4.72723">
        <ele>170</ele>
        <time>2017-08-17T10:14:07Z</time>
      </trkpt>
      <trkpt lat="45.93159" lon="4.72729">
        <ele>170</ele>
        <time>2017-08-17T10:14:08Z</time>
      </trkpt>
      <trkpt lat="45.93154" lon="4.72734">
        <ele>170</ele>
        <time>2017-08-17T10:14:09Z</time>
      </trkpt>
      <trkpt lat="45.93149" lon="4.7274">
        <ele>170</ele>
        <time>2017-08-17T10:14:10Z</time>
      </trkpt>
      <trkpt lat="45.93143" lon="4.72746">
        <ele>170</ele>
        <time>2017-08-17T10:14:11Z</time>
      </trkpt>
      <trkpt lat="45.93138" lon="4.72753">
        <ele>171</ele>
        <time>2017-08-17T10:14:12Z</time>
      </trkpt>
      <trkpt lat="45.93133" lon="4.72759">
        <ele>171</ele>
        <time>2017-08-17T10:14:13Z</time>
      </trkpt>
      <trkpt lat="45.93127" lon="4.72765">
        <ele>171</ele>
        <time>2017-08-17T10:14:14Z</time>
      </trkpt>
      <trkpt lat="45.93122" lon="4.72772">
        <ele>171</ele>
        <time>2017-08-17T10:14:15Z</time>
      </trkpt>
      <trkpt lat="45.93116" lon="4.72778">
        <ele>171</ele>
        <time>2017-08-17T10:14:16Z</time>
      </trkpt>
      <trkpt lat="45.93111" lon="4.72785">
        <ele>171</ele>
        <time>2017-08-17T10:14:17Z</time>
      </trkpt>
      <trkpt lat="45.93105" lon="4.72792">
        <ele>171</ele>
        <time>2017-08-17T10:14:18Z</time>
      </trkpt>
      <trkpt lat="45.931" lon="4.72798">
        <ele>171</ele>
        <time>2017-08-17T10:14:19Z</time>
      </trkpt>
      <trkpt lat="45.93095" lon="4.72804">
        <ele>171</ele>
        <time>2017-08-17T10:14:20Z</time>
      </trkpt>
      <trkpt lat="45.9309" lon="4.7281">
        <ele>172</ele>
        <time>2017-08-17T10:14:21Z</time>
      </trkpt>
      <trkpt lat="45.93085" lon="4.72816">
        <ele>172</ele>
        <time>2017-08-17T10:14:22Z</time>
      </trkpt>
      <trkpt lat="45.9308" lon="4.72822">
        <ele>173</ele>
        <time>2017-08-17T10:14:23Z</time>
      </trkpt>
      <trkpt lat="45.93075" lon="4.72828">
        <ele>173</ele>
        <time>2017-08-17T10:14:24Z</time>
      </trkpt>
      <trkpt lat="45.9307" lon="4.72833">
        <ele>173</ele>
        <time>2017-08-17T10:14:25Z</time>
      </trkpt>
      <trkpt lat="45.93065" lon="4.72839">
        <ele>173</ele>
        <time>2017-08-17T10:14:26Z</time>
      </trkpt>
      <trkpt lat="45.9306" lon="4.72844">
        <ele>172</ele>
        <time>2017-08-17T10:14:27Z</time>
      </trkpt>
      <trkpt lat="45.93054" lon="4.72846">
        <ele>172</ele>
        <time>2017-08-17T10:14:28Z</time>
      </trkpt>
      <trkpt lat="45.93048" lon="4.72853">
        <ele>172</ele>
        <time>2017-08-17T10:14:30Z</time>
      </trkpt>
      <trkpt lat="45.93045" lon="4.72858">
        <ele>172</ele>
        <time>2017-08-17T10:14:31Z</time>
      </trkpt>
      <trkpt lat="45.93041" lon="4.72862">
        <ele>172</ele>
        <time>2017-08-17T10:14:32Z</time>
      </trkpt>
      <trkpt lat="45.93036" lon="4.72869">
        <ele>172</ele>
        <time>2017-08-17T10:14:33Z</time>
      </trkpt>
      <trkpt lat="45.93031" lon="4.72877">
        <ele>172</ele>
        <time>2017-08-17T10:14:34Z</time>
      </trkpt>
      <trkpt lat="45.93026" lon="4.72883">
        <ele>172</ele>
        <time>2017-08-17T10:14:35Z</time>
      </trkpt>
      <trkpt lat="45.9302" lon="4.72889">
        <ele>172</ele>
        <time>2017-08-17T10:14:36Z</time>
      </trkpt>
      <trkpt lat="45.93015" lon="4.72895">
        <ele>172</ele>
        <time>2017-08-17T10:14:37Z</time>
      </trkpt>
      <trkpt lat="45.9301" lon="4.729">
        <ele>172</ele>
        <time>2017-08-17T10:14:38Z</time>
      </trkpt>
      <trkpt lat="45.93005" lon="4.72906">
        <ele>171</ele>
        <time>2017-08-17T10:14:39Z</time>
      </trkpt>
      <trkpt lat="45.93001" lon="4.72911">
        <ele>171</ele>
        <time>2017-08-17T10:14:40Z</time>
      </trkpt>
      <trkpt lat="45.92997" lon="4.72916">
        <ele>171</ele>
        <time>2017-08-17T10:14:41Z</time>
      </trkpt>
      <trkpt lat="45.92993" lon="4.72921">
        <ele>171</ele>
        <time>2017-08-17T10:14:42Z</time>
      </trkpt>
      <trkpt lat="45.92989" lon="4.72926">
        <ele>171</ele>
        <time>2017-08-17T10:14:43Z</time>
      </trkpt>
      <trkpt lat="45.92985" lon="4.72931">
        <ele>171</ele>
        <time>2017-08-17T10:14:44Z</time>
      </trkpt>
      <trkpt lat="45.92981" lon="4.72936">
        <ele>171</ele>
        <time>2017-08-17T10:14:45Z</time>
      </trkpt>
      <trkpt lat="45.92977" lon="4.72941">
        <ele>171</ele>
        <time>2017-08-17T10:14:46Z</time>
      </trkpt>
      <trkpt lat="45.92973" lon="4.72945">
        <ele>171</ele>
        <time>2017-08-17T10:14:47Z</time>
      </trkpt>
      <trkpt lat="45.92969" lon="4.7295">
        <ele>171</ele>
        <time>2017-08-17T10:14:48Z</time>
      </trkpt>
      <trkpt lat="45.92965" lon="4.72955">
        <ele>171</ele>
        <time>2017-08-17T10:14:49Z</time>
      </trkpt>
      <trkpt lat="45.9296" lon="4.72961">
        <ele>171</ele>
        <time>2017-08-17T10:14:50Z</time>
      </trkpt>
      <trkpt lat="45.92956" lon="4.72967">
        <ele>171</ele>
        <time>2017-08-17T10:14:51Z</time>
      </trkpt>
      <trkpt lat="45.92951" lon="4.72972">
        <ele>171</ele>
        <time>2017-08-17T10:14:52Z</time>
      </trkpt>
      <trkpt lat="45.92946" lon="4.72978">
        <ele>171</ele>
        <time>2017-08-17T10:14:53Z</time>
      </trkpt>
      <trkpt lat="45.92941" lon="4.72984">
        <ele>171</ele>
        <time>2017-08-17T10:14:54Z</time>
      </trkpt>
      <trkpt lat="45.92936" lon="4.72989">
        <ele>171</ele>
        <time>2017-08-17T10:14:55Z</time>
      </trkpt>
      <trkpt lat="45.92932" lon="4.72994">
        <ele>172</ele>
        <time>2017-08-17T10:14:56Z</time>
      </trkpt>
      <trkpt lat="45.92927" lon="4.72999">
        <ele>172</ele>
        <time>2017-08-17T10:14:57Z</time>
      </trkpt>
      <trkpt lat="45.92923" lon="4.73004">
        <ele>172</ele>
        <time>2017-08-17T10:14:58Z</time>
      </trkpt>
      <trkpt lat="45.92919" lon="4.73008">
        <ele>172</ele>
        <time>2017-08-17T10:14:59Z</time>
      </trkpt>
      <trkpt lat="45.92916" lon="4.73012">
        <ele>172</ele>
        <time>2017-08-17T10:15:00Z</time>
      </trkpt>
      <trkpt lat="45.92912" lon="4.73016">
        <ele>172</ele>
        <time>2017-08-17T10:15:01Z</time>
      </trkpt>
      <trkpt lat="45.92909" lon="4.73021">
        <ele>172</ele>
        <time>2017-08-17T10:15:02Z</time>
      </trkpt>
      <trkpt lat="45.92906" lon="4.73025">
        <ele>172</ele>
        <time>2017-08-17T10:15:03Z</time>
      </trkpt>
      <trkpt lat="45.92902" lon="4.7303">
        <ele>172</ele>
        <time>2017-08-17T10:15:04Z</time>
      </trkpt>
      <trkpt lat="45.92898" lon="4.73036">
        <ele>172</ele>
        <time>2017-08-17T10:15:05Z</time>
      </trkpt>
      <trkpt lat="45.92895" lon="4.73042">
        <ele>172</ele>
        <time>2017-08-17T10:15:06Z</time>
      </trkpt>
      <trkpt lat="45.92891" lon="4.73048">
        <ele>172</ele>
        <time>2017-08-17T10:15:07Z</time>
      </trkpt>
      <trkpt lat="45.92887" lon="4.73053">
        <ele>172</ele>
        <time>2017-08-17T10:15:08Z</time>
      </trkpt>
      <trkpt lat="45.92883" lon="4.73059">
        <ele>172</ele>
        <time>2017-08-17T10:15:09Z</time>
      </trkpt>
      <trkpt lat="45.92879" lon="4.73064">
        <ele>172</ele>
        <time>2017-08-17T10:15:10Z</time>
      </trkpt>
      <trkpt lat="45.92876" lon="4.73069">
        <ele>172</ele>
        <time>2017-08-17T10:15:11Z</time>
      </trkpt>
      <trkpt lat="45.92872" lon="4.73073">
        <ele>172</ele>
        <time>2017-08-17T10:15:12Z</time>
      </trkpt>
      <trkpt lat="45.92868" lon="4.73078">
        <ele>172</ele>
        <time>2017-08-17T10:15:13Z</time>
      </trkpt>
      <trkpt lat="45.92865" lon="4.73083">
        <ele>172</ele>
        <time>2017-08-17T10:15:14Z</time>
      </trkpt>
      <trkpt lat="45.92862" lon="4.73089">
        <ele>171</ele>
        <time>2017-08-17T10:15:15Z</time>
      </trkpt>
      <trkpt lat="45.92858" lon="4.73095">
        <ele>171</ele>
        <time>2017-08-17T10:15:16Z</time>
      </trkpt>
      <trkpt lat="45.92855" lon="4.73099">
        <ele>171</ele>
        <time>2017-08-17T10:15:17Z</time>
      </trkpt>
      <trkpt lat="45.92848" lon="4.73105">
        <ele>171</ele>
        <time>2017-08-17T10:15:19Z</time>
      </trkpt>
      <trkpt lat="45.92845" lon="4.73102">
        <ele>171</ele>
        <time>2017-08-17T10:15:20Z</time>
      </trkpt>
      <trkpt lat="45.92842" lon="4.73092">
        <ele>171</ele>
        <time>2017-08-17T10:15:22Z</time>
      </trkpt>
      <trkpt lat="45.92842" lon="4.73086">
        <ele>171</ele>
        <time>2017-08-17T10:15:23Z</time>
      </trkpt>
      <trkpt lat="45.92842" lon="4.7308">
        <ele>171</ele>
        <time>2017-08-17T10:15:24Z</time>
      </trkpt>
      <trkpt lat="45.92841" lon="4.73072">
        <ele>171</ele>
        <time>2017-08-17T10:15:25Z</time>
      </trkpt>
      <trkpt lat="45.92839" lon="4.73065">
        <ele>171</ele>
        <time>2017-08-17T10:15:26Z</time>
      </trkpt>
      <trkpt lat="45.92838" lon="4.73057">
        <ele>171</ele>
        <time>2017-08-17T10:15:27Z</time>
      </trkpt>
      <trkpt lat="45.92837" lon="4.73048">
        <ele>171</ele>
        <time>2017-08-17T10:15:28Z</time>
      </trkpt>
      <trkpt lat="45.92836" lon="4.7304">
        <ele>171</ele>
        <time>2017-08-17T10:15:29Z</time>
      </trkpt>
      <trkpt lat="45.92835" lon="4.73032">
        <ele>171</ele>
        <time>2017-08-17T10:15:30Z</time>
      </trkpt>
      <trkpt lat="45.92835" lon="4.73024">
        <ele>171</ele>
        <time>2017-08-17T10:15:31Z</time>
      </trkpt>
      <trkpt lat="45.92834" lon="4.73016">
        <ele>171</ele>
        <time>2017-08-17T10:15:32Z</time>
      </trkpt>
      <trkpt lat="45.92833" lon="4.73009">
        <ele>170</ele>
        <time>2017-08-17T10:15:33Z</time>
      </trkpt>
      <trkpt lat="45.92833" lon="4.73001">
        <ele>170</ele>
        <time>2017-08-17T10:15:34Z</time>
      </trkpt>
      <trkpt lat="45.92832" lon="4.72994">
        <ele>170</ele>
        <time>2017-08-17T10:15:35Z</time>
      </trkpt>
      <trkpt lat="45.92832" lon="4.72986">
        <ele>170</ele>
        <time>2017-08-17T10:15:36Z</time>
      </trkpt>
      <trkpt lat="45.9283" lon="4.72978">
        <ele>170</ele>
        <time>2017-08-17T10:15:37Z</time>
      </trkpt>
      <trkpt lat="45.92829" lon="4.72971">
        <ele>170</ele>
        <time>2017-08-17T10:15:38Z</time>
      </trkpt>
      <trkpt lat="45.92829" lon="4.72964">
        <ele>170</ele>
        <time>2017-08-17T10:15:39Z</time>
      </trkpt>
      <trkpt lat="45.92828" lon="4.72955">
        <ele>170</ele>
        <time>2017-08-17T10:15:40Z</time>
      </trkpt>
      <trkpt lat="45.92827" lon="4.72946">
        <ele>170</ele>
        <time>2017-08-17T10:15:41Z</time>
      </trkpt>
      <trkpt lat="45.92827" lon="4.72938">
        <ele>170</ele>
        <time>2017-08-17T10:15:42Z</time>
      </trkpt>
      <trkpt lat="45.92826" lon="4.7293">
        <ele>170</ele>
        <time>2017-08-17T10:15:43Z</time>
      </trkpt>
      <trkpt lat="45.92826" lon="4.72922">
        <ele>170</ele>
        <time>2017-08-17T10:15:44Z</time>
      </trkpt>
      <trkpt lat="45.92825" lon="4.72914">
        <ele>170</ele>
        <time>2017-08-17T10:15:45Z</time>
      </trkpt>
      <trkpt lat="45.92825" lon="4.72906">
        <ele>170</ele>
        <time>2017-08-17T10:15:46Z</time>
      </trkpt>
      <trkpt lat="45.92824" lon="4.72899">
        <ele>170</ele>
        <time>2017-08-17T10:15:47Z</time>
      </trkpt>
      <trkpt lat="45.92823" lon="4.72891">
        <ele>170</ele>
        <time>2017-08-17T10:15:48Z</time>
      </trkpt>
      <trkpt lat="45.92822" lon="4.72885">
        <ele>170</ele>
        <time>2017-08-17T10:15:49Z</time>
      </trkpt>
      <trkpt lat="45.9282" lon="4.72878">
        <ele>170</ele>
        <time>2017-08-17T10:15:50Z</time>
      </trkpt>
      <trkpt lat="45.92819" lon="4.72871">
        <ele>170</ele>
        <time>2017-08-17T10:15:51Z</time>
      </trkpt>
      <trkpt lat="45.92819" lon="4.72865">
        <ele>170</ele>
        <time>2017-08-17T10:15:52Z</time>
      </trkpt>
      <trkpt lat="45.92818" lon="4.72859">
        <ele>170</ele>
        <time>2017-08-17T10:15:53Z</time>
      </trkpt>
      <trkpt lat="45.92817" lon="4.72852">
        <ele>170</ele>
        <time>2017-08-17T10:15:54Z</time>
      </trkpt>
      <trkpt lat="45.92817" lon="4.72846">
        <ele>170</ele>
        <time>2017-08-17T10:15:55Z</time>
      </trkpt>
      <trkpt lat="45.92816" lon="4.72839">
        <ele>170</ele>
        <time>2017-08-17T10:15:56Z</time>
      </trkpt>
      <trkpt lat="45.92814" lon="4.72833">
        <ele>171</ele>
        <time>2017-08-17T10:15:57Z</time>
      </trkpt>
      <trkpt lat="45.92813" lon="4.72826">
        <ele>171</ele>
        <time>2017-08-17T10:15:58Z</time>
      </trkpt>
      <trkpt lat="45.92812" lon="4.72819">
        <ele>171</ele>
        <time>2017-08-17T10:15:59Z</time>
      </trkpt>
      <trkpt lat="45.9281" lon="4.72807">
        <ele>171</ele>
        <time>2017-08-17T10:16:01Z</time>
      </trkpt>
      <trkpt lat="45.92809" lon="4.72801">
        <ele>171</ele>
        <time>2017-08-17T10:16:02Z</time>
      </trkpt>
      <trkpt lat="45.92807" lon="4.7279">
        <ele>171</ele>
        <time>2017-08-17T10:16:04Z</time>
      </trkpt>
      <trkpt lat="45.928" lon="4.72787">
        <ele>171</ele>
        <time>2017-08-17T10:16:05Z</time>
      </trkpt>
      <trkpt lat="45.92795" lon="4.72787">
        <ele>171</ele>
        <time>2017-08-17T10:16:06Z</time>
      </trkpt>
      <trkpt lat="45.92788" lon="4.72787">
        <ele>171</ele>
        <time>2017-08-17T10:16:07Z</time>
      </trkpt>
      <trkpt lat="45.92784" lon="4.7279">
        <ele>170</ele>
        <time>2017-08-17T10:16:08Z</time>
      </trkpt>
      <trkpt lat="45.92779" lon="4.72793">
        <ele>170</ele>
        <time>2017-08-17T10:16:09Z</time>
      </trkpt>
      <trkpt lat="45.92775" lon="4.72796">
        <ele>170</ele>
        <time>2017-08-17T10:16:10Z</time>
      </trkpt>
      <trkpt lat="45.9277" lon="4.728">
        <ele>170</ele>
        <time>2017-08-17T10:16:11Z</time>
      </trkpt>
      <trkpt lat="45.92766" lon="4.72804">
        <ele>170</ele>
        <time>2017-08-17T10:16:12Z</time>
      </trkpt>
      <trkpt lat="45.92762" lon="4.72807">
        <ele>170</ele>
        <time>2017-08-17T10:16:13Z</time>
      </trkpt>
      <trkpt lat="45.92757" lon="4.72811">
        <ele>170</ele>
        <time>2017-08-17T10:16:14Z</time>
      </trkpt>
      <trkpt lat="45.92752" lon="4.72815">
        <ele>170</ele>
        <time>2017-08-17T10:16:15Z</time>
      </trkpt>
      <trkpt lat="45.92748" lon="4.72819">
        <ele>169</ele>
        <time>2017-08-17T10:16:16Z</time>
      </trkpt>
      <trkpt lat="45.92743" lon="4.72822">
        <ele>169</ele>
        <time>2017-08-17T10:16:17Z</time>
      </trkpt>
      <trkpt lat="45.92738" lon="4.72826">
        <ele>169</ele>
        <time>2017-08-17T10:16:18Z</time>
      </trkpt>
      <trkpt lat="45.92734" lon="4.72829">
        <ele>169</ele>
        <time>2017-08-17T10:16:19Z</time>
      </trkpt>
      <trkpt lat="45.9273" lon="4.72832">
        <ele>169</ele>
        <time>2017-08-17T10:16:20Z</time>
      </trkpt>
      <trkpt lat="45.92726" lon="4.72836">
        <ele>169</ele>
        <time>2017-08-17T10:16:21Z</time>
      </trkpt>
      <trkpt lat="45.92722" lon="4.7284">
        <ele>169</ele>
        <time>2017-08-17T10:16:22Z</time>
      </trkpt>
      <trkpt lat="45.92718" lon="4.72843">
        <ele>169</ele>
        <time>2017-08-17T10:16:23Z</time>
      </trkpt>
      <trkpt lat="45.92714" lon="4.72847">
        <ele>169</ele>
        <time>2017-08-17T10:16:24Z</time>
      </trkpt>
      <trkpt lat="45.92709" lon="4.7285">
        <ele>169</ele>
        <time>2017-08-17T10:16:25Z</time>
      </trkpt>
      <trkpt lat="45.92704" lon="4.72853">
        <ele>169</ele>
        <time>2017-08-17T10:16:26Z</time>
      </trkpt>
      <trkpt lat="45.92699" lon="4.72857">
        <ele>169</ele>
        <time>2017-08-17T10:16:27Z</time>
      </trkpt>
      <trkpt lat="45.92694" lon="4.72861">
        <ele>169</ele>
        <time>2017-08-17T10:16:28Z</time>
      </trkpt>
      <trkpt lat="45.92689" lon="4.72865">
        <ele>169</ele>
        <time>2017-08-17T10:16:29Z</time>
      </trkpt>
      <trkpt lat="45.92684" lon="4.72869">
        <ele>169</ele>
        <time>2017-08-17T10:16:30Z</time>
      </trkpt>
      <trkpt lat="45.92679" lon="4.72873">
        <ele>169</ele>
        <time>2017-08-17T10:16:31Z</time>
      </trkpt>
      <trkpt lat="45.92674" lon="4.72876">
        <ele>170</ele>
        <time>2017-08-17T10:16:32Z</time>
      </trkpt>
      <trkpt lat="45.9267" lon="4.7288">
        <ele>170</ele>
        <time>2017-08-17T10:16:33Z</time>
      </trkpt>
      <trkpt lat="45.92666" lon="4.72884">
        <ele>169</ele>
        <time>2017-08-17T10:16:34Z</time>
      </trkpt>
      <trkpt lat="45.92661" lon="4.72888">
        <ele>169</ele>
        <time>2017-08-17T10:16:35Z</time>
      </trkpt>
      <trkpt lat="45.92657" lon="4.72891">
        <ele>169</ele>
        <time>2017-08-17T10:16:36Z</time>
      </trkpt>
      <trkpt lat="45.92653" lon="4.72895">
        <ele>169</ele>
        <time>2017-08-17T10:16:37Z</time>
      </trkpt>
      <trkpt lat="45.92649" lon="4.72899">
        <ele>169</ele>
        <time>2017-08-17T10:16:38Z</time>
      </trkpt>
      <trkpt lat="45.92645" lon="4.72902">
        <ele>169</ele>
        <time>2017-08-17T10:16:39Z</time>
      </trkpt>
      <trkpt lat="45.9264" lon="4.72905">
        <ele>169</ele>
        <time>2017-08-17T10:16:40Z</time>
      </trkpt>
      <trkpt lat="45.92636" lon="4.72908">
        <ele>169</ele>
        <time>2017-08-17T10:16:41Z</time>
      </trkpt>
      <trkpt lat="45.92632" lon="4.72911">
        <ele>169</ele>
        <time>2017-08-17T10:16:42Z</time>
      </trkpt>
      <trkpt lat="45.92627" lon="4.72915">
        <ele>169</ele>
        <time>2017-08-17T10:16:43Z</time>
      </trkpt>
      <trkpt lat="45.92622" lon="4.72918">
        <ele>169</ele>
        <time>2017-08-17T10:16:44Z</time>
      </trkpt>
      <trkpt lat="45.92617" lon="4.72922">
        <ele>169</ele>
        <time>2017-08-17T10:16:45Z</time>
      </trkpt>
      <trkpt lat="45.92612" lon="4.72926">
        <ele>169</ele>
        <time>2017-08-17T10:16:46Z</time>
      </trkpt>
      <trkpt lat="45.92607" lon="4.72931">
        <ele>169</ele>
        <time>2017-08-17T10:16:47Z</time>
      </trkpt>
      <trkpt lat="45.92602" lon="4.72936">
        <ele>169</ele>
        <time>2017-08-17T10:16:48Z</time>
      </trkpt>
      <trkpt lat="45.92598" lon="4.72941">
        <ele>169</ele>
        <time>2017-08-17T10:16:49Z</time>
      </trkpt>
      <trkpt lat="45.92593" lon="4.72947">
        <ele>169</ele>
        <time>2017-08-17T10:16:50Z</time>
      </trkpt>
      <trkpt lat="45.92589" lon="4.72952">
        <ele>169</ele>
        <time>2017-08-17T10:16:51Z</time>
      </trkpt>
      <trkpt lat="45.92585" lon="4.72958">
        <ele>169</ele>
        <time>2017-08-17T10:16:52Z</time>
      </trkpt>
      <trkpt lat="45.92581" lon="4.72963">
        <ele>169</ele>
        <time>2017-08-17T10:16:53Z</time>
      </trkpt>
      <trkpt lat="45.92577" lon="4.72968">
        <ele>169</ele>
        <time>2017-08-17T10:16:54Z</time>
      </trkpt>
      <trkpt lat="45.92573" lon="4.72972">
        <ele>169</ele>
        <time>2017-08-17T10:16:55Z</time>
      </trkpt>
      <trkpt lat="45.92569" lon="4.72976">
        <ele>169</ele>
        <time>2017-08-17T10:16:56Z</time>
      </trkpt>
      <trkpt lat="45.92565" lon="4.72979">
        <ele>169</ele>
        <time>2017-08-17T10:16:57Z</time>
      </trkpt>
      <trkpt lat="45.92561" lon="4.72983">
        <ele>169</ele>
        <time>2017-08-17T10:16:58Z</time>
      </trkpt>
      <trkpt lat="45.92556" lon="4.72986">
        <ele>169</ele>
        <time>2017-08-17T10:16:59Z</time>
      </trkpt>
      <trkpt lat="45.92552" lon="4.72991">
        <ele>169</ele>
        <time>2017-08-17T10:17:00Z</time>
      </trkpt>
      <trkpt lat="45.92547" lon="4.72996">
        <ele>169</ele>
        <time>2017-08-17T10:17:01Z</time>
      </trkpt>
      <trkpt lat="45.92543" lon="4.73001">
        <ele>169</ele>
        <time>2017-08-17T10:17:02Z</time>
      </trkpt>
      <trkpt lat="45.92538" lon="4.73006">
        <ele>169</ele>
        <time>2017-08-17T10:17:03Z</time>
      </trkpt>
      <trkpt lat="45.92533" lon="4.7301">
        <ele>169</ele>
        <time>2017-08-17T10:17:04Z</time>
      </trkpt>
      <trkpt lat="45.92528" lon="4.73015">
        <ele>169</ele>
        <time>2017-08-17T10:17:05Z</time>
      </trkpt>
      <trkpt lat="45.92524" lon="4.73019">
        <ele>169</ele>
        <time>2017-08-17T10:17:06Z</time>
      </trkpt>
      <trkpt lat="45.92519" lon="4.73023">
        <ele>169</ele>
        <time>2017-08-17T10:17:07Z</time>
      </trkpt>
      <trkpt lat="45.92515" lon="4.73027">
        <ele>169</ele>
        <time>2017-08-17T10:17:08Z</time>
      </trkpt>
      <trkpt lat="45.9251" lon="4.73031">
        <ele>169</ele>
        <time>2017-08-17T10:17:09Z</time>
      </trkpt>
      <trkpt lat="45.92506" lon="4.73035">
        <ele>169</ele>
        <time>2017-08-17T10:17:10Z</time>
      </trkpt>
      <trkpt lat="45.92502" lon="4.73038">
        <ele>169</ele>
        <time>2017-08-17T10:17:11Z</time>
      </trkpt>
      <trkpt lat="45.92498" lon="4.73042">
        <ele>170</ele>
        <time>2017-08-17T10:17:12Z</time>
      </trkpt>
      <trkpt lat="45.92494" lon="4.73046">
        <ele>170</ele>
        <time>2017-08-17T10:17:13Z</time>
      </trkpt>
      <trkpt lat="45.92489" lon="4.73049">
        <ele>170</ele>
        <time>2017-08-17T10:17:14Z</time>
      </trkpt>
      <trkpt lat="45.92485" lon="4.73053">
        <ele>170</ele>
        <time>2017-08-17T10:17:15Z</time>
      </trkpt>
      <trkpt lat="45.92481" lon="4.73057">
        <ele>170</ele>
        <time>2017-08-17T10:17:16Z</time>
      </trkpt>
      <trkpt lat="45.92476" lon="4.73061">
        <ele>170</ele>
        <time>2017-08-17T10:17:17Z</time>
      </trkpt>
      <trkpt lat="45.92471" lon="4.73065">
        <ele>170</ele>
        <time>2017-08-17T10:17:18Z</time>
      </trkpt>
      <trkpt lat="45.92466" lon="4.73069">
        <ele>170</ele>
        <time>2017-08-17T10:17:19Z</time>
      </trkpt>
      <trkpt lat="45.92461" lon="4.73073">
        <ele>170</ele>
        <time>2017-08-17T10:17:20Z</time>
      </trkpt>
      <trkpt lat="45.92457" lon="4.73076">
        <ele>170</ele>
        <time>2017-08-17T10:17:21Z</time>
      </trkpt>
      <trkpt lat="45.92453" lon="4.73081">
        <ele>170</ele>
        <time>2017-08-17T10:17:22Z</time>
      </trkpt>
      <trkpt lat="45.92448" lon="4.73085">
        <ele>170</ele>
        <time>2017-08-17T10:17:23Z</time>
      </trkpt>
      <trkpt lat="45.92445" lon="4.73089">
        <ele>170</ele>
        <time>2017-08-17T10:17:24Z</time>
      </trkpt>
      <trkpt lat="45.92441" lon="4.73092">
        <ele>170</ele>
        <time>2017-08-17T10:17:25Z</time>
      </trkpt>
      <trkpt lat="45.92433" lon="4.73098">
        <ele>171</ele>
        <time>2017-08-17T10:17:27Z</time>
      </trkpt>
      <trkpt lat="45.9243" lon="4.73101">
        <ele>171</ele>
        <time>2017-08-17T10:17:28Z</time>
      </trkpt>
      <trkpt lat="45.92423" lon="4.73107">
        <ele>171</ele>
        <time>2017-08-17T10:17:30Z</time>
      </trkpt>
      <trkpt lat="45.92419" lon="4.7311">
        <ele>170</ele>
        <time>2017-08-17T10:17:31Z</time>
      </trkpt>
      <trkpt lat="45.92415" lon="4.73113">
        <ele>171</ele>
        <time>2017-08-17T10:17:32Z</time>
      </trkpt>
      <trkpt lat="45.92411" lon="4.73117">
        <ele>171</ele>
        <time>2017-08-17T10:17:33Z</time>
      </trkpt>
      <trkpt lat="45.92408" lon="4.73123">
        <ele>171</ele>
        <time>2017-08-17T10:17:34Z</time>
      </trkpt>
      <trkpt lat="45.92405" lon="4.73131">
        <ele>171</ele>
        <time>2017-08-17T10:17:35Z</time>
      </trkpt>
      <trkpt lat="45.92404" lon="4.73138">
        <ele>171</ele>
        <time>2017-08-17T10:17:36Z</time>
      </trkpt>
      <trkpt lat="45.92404" lon="4.73148">
        <ele>171</ele>
        <time>2017-08-17T10:17:37Z</time>
      </trkpt>
      <trkpt lat="45.92404" lon="4.73157">
        <ele>171</ele>
        <time>2017-08-17T10:17:38Z</time>
      </trkpt>
      <trkpt lat="45.92404" lon="4.73166">
        <ele>170</ele>
        <time>2017-08-17T10:17:39Z</time>
      </trkpt>
      <trkpt lat="45.92404" lon="4.73176">
        <ele>171</ele>
        <time>2017-08-17T10:17:40Z</time>
      </trkpt>
      <trkpt lat="45.92404" lon="4.73185">
        <ele>171</ele>
        <time>2017-08-17T10:17:41Z</time>
      </trkpt>
      <trkpt lat="45.92404" lon="4.73193">
        <ele>171</ele>
        <time>2017-08-17T10:17:42Z</time>
      </trkpt>
      <trkpt lat="45.92404" lon="4.73202">
        <ele>171</ele>
        <time>2017-08-17T10:17:43Z</time>
      </trkpt>
      <trkpt lat="45.92404" lon="4.7321">
        <ele>171</ele>
        <time>2017-08-17T10:17:44Z</time>
      </trkpt>
      <trkpt lat="45.92405" lon="4.73218">
        <ele>171</ele>
        <time>2017-08-17T10:17:45Z</time>
      </trkpt>
      <trkpt lat="45.92404" lon="4.73226">
        <ele>171</ele>
        <time>2017-08-17T10:17:46Z</time>
      </trkpt>
      <trkpt lat="45.92405" lon="4.73233">
        <ele>171</ele>
        <time>2017-08-17T10:17:47Z</time>
      </trkpt>
      <trkpt lat="45.92405" lon="4.7324">
        <ele>171</ele>
        <time>2017-08-17T10:17:48Z</time>
      </trkpt>
      <trkpt lat="45.92405" lon="4.73247">
        <ele>171</ele>
        <time>2017-08-17T10:17:49Z</time>
      </trkpt>
      <trkpt lat="45.92406" lon="4.73255">
        <ele>171</ele>
        <time>2017-08-17T10:17:50Z</time>
      </trkpt>
      <trkpt lat="45.92406" lon="4.73262">
        <ele>171</ele>
        <time>2017-08-17T10:17:51Z</time>
      </trkpt>
      <trkpt lat="45.92407" lon="4.7327">
        <ele>171</ele>
        <time>2017-08-17T10:17:52Z</time>
      </trkpt>
      <trkpt lat="45.92407" lon="4.73278">
        <ele>171</ele>
        <time>2017-08-17T10:17:53Z</time>
      </trkpt>
      <trkpt lat="45.92408" lon="4.73286">
        <ele>171</ele>
        <time>2017-08-17T10:17:54Z</time>
      </trkpt>
      <trkpt lat="45.92409" lon="4.73295">
        <ele>171</ele>
        <time>2017-08-17T10:17:55Z</time>
      </trkpt>
      <trkpt lat="45.92409" lon="4.73303">
        <ele>171</ele>
        <time>2017-08-17T10:17:56Z</time>
      </trkpt>
      <trkpt lat="45.92409" lon="4.7331">
        <ele>171</ele>
        <time>2017-08-17T10:17:57Z</time>
      </trkpt>
      <trkpt lat="45.9241" lon="4.73318">
        <ele>171</ele>
        <time>2017-08-17T10:17:58Z</time>
      </trkpt>
      <trkpt lat="45.9241" lon="4.73326">
        <ele>171</ele>
        <time>2017-08-17T10:17:59Z</time>
      </trkpt>
      <trkpt lat="45.92411" lon="4.73334">
        <ele>171</ele>
        <time>2017-08-17T10:18:00Z</time>
      </trkpt>
      <trkpt lat="45.92413" lon="4.73342">
        <ele>171</ele>
        <time>2017-08-17T10:18:01Z</time>
      </trkpt>
      <trkpt lat="45.92414" lon="4.73351">
        <ele>171</ele>
        <time>2017-08-17T10:18:02Z</time>
      </trkpt>
      <trkpt lat="45.92415" lon="4.7336">
        <ele>171</ele>
        <time>2017-08-17T10:18:03Z</time>
      </trkpt>
      <trkpt lat="45.92416" lon="4.73369">
        <ele>171</ele>
        <time>2017-08-17T10:18:04Z</time>
      </trkpt>
      <trkpt lat="45.92418" lon="4.73378">
        <ele>172</ele>
        <time>2017-08-17T10:18:05Z</time>
      </trkpt>
      <trkpt lat="45.92419" lon="4.73386">
        <ele>172</ele>
        <time>2017-08-17T10:18:06Z</time>
      </trkpt>
      <trkpt lat="45.92422" lon="4.73394">
        <ele>172</ele>
        <time>2017-08-17T10:18:07Z</time>
      </trkpt>
      <trkpt lat="45.92425" lon="4.73402">
        <ele>172</ele>
        <time>2017-08-17T10:18:08Z</time>
      </trkpt>
      <trkpt lat="45.9243" lon="4.73408">
        <ele>172</ele>
        <time>2017-08-17T10:18:09Z</time>
      </trkpt>
      <trkpt lat="45.92434" lon="4.73413">
        <ele>172</ele>
        <time>2017-08-17T10:18:10Z</time>
      </trkpt>
      <trkpt lat="45.9244" lon="4.73417">
        <ele>173</ele>
        <time>2017-08-17T10:18:11Z</time>
      </trkpt>
      <trkpt lat="45.92444" lon="4.7342">
        <ele>173</ele>
        <time>2017-08-17T10:18:12Z</time>
      </trkpt>
      <trkpt lat="45.92448" lon="4.73422">
        <ele>173</ele>
        <time>2017-08-17T10:18:13Z</time>
      </trkpt>
      <trkpt lat="45.92454" lon="4.73428">
        <ele>173</ele>
        <time>2017-08-17T10:18:15Z</time>
      </trkpt>
      <trkpt lat="45.92457" lon="4.73433">
        <ele>173</ele>
        <time>2017-08-17T10:18:16Z</time>
      </trkpt>
      <trkpt lat="45.92459" lon="4.73439">
        <ele>173</ele>
        <time>2017-08-17T10:18:17Z</time>
      </trkpt>
      <trkpt lat="45.92461" lon="4.73445">
        <ele>173</ele>
        <time>2017-08-17T10:18:18Z</time>
      </trkpt>
      <trkpt lat="45.92462" lon="4.73452">
        <ele>173</ele>
        <time>2017-08-17T10:18:19Z</time>
      </trkpt>
      <trkpt lat="45.92463" lon="4.7346">
        <ele>173</ele>
        <time>2017-08-17T10:18:20Z</time>
      </trkpt>
      <trkpt lat="45.92464" lon="4.73468">
        <ele>173</ele>
        <time>2017-08-17T10:18:21Z</time>
      </trkpt>
      <trkpt lat="45.92464" lon="4.73475">
        <ele>173</ele>
        <time>2017-08-17T10:18:22Z</time>
      </trkpt>
      <trkpt lat="45.92464" lon="4.73483">
        <ele>173</ele>
        <time>2017-08-17T10:18:23Z</time>
      </trkpt>
      <trkpt lat="45.92463" lon="4.73491">
        <ele>173</ele>
        <time>2017-08-17T10:18:24Z</time>
      </trkpt>
      <trkpt lat="45.92462" lon="4.73498">
        <ele>173</ele>
        <time>2017-08-17T10:18:25Z</time>
      </trkpt>
      <trkpt lat="45.92462" lon="4.73505">
        <ele>174</ele>
        <time>2017-08-17T10:18:26Z</time>
      </trkpt>
      <trkpt lat="45.92462" lon="4.73511">
        <ele>174</ele>
        <time>2017-08-17T10:18:27Z</time>
      </trkpt>
      <trkpt lat="45.92462" lon="4.73518">
        <ele>174</ele>
        <time>2017-08-17T10:18:28Z</time>
      </trkpt>
      <trkpt lat="45.92463" lon="4.7353">
        <ele>174</ele>
        <time>2017-08-17T10:18:30Z</time>
      </trkpt>
      <trkpt lat="45.92463" lon="4.73536">
        <ele>174</ele>
        <time>2017-08-17T10:18:31Z</time>
      </trkpt>
      <trkpt lat="45.92463" lon="4.73548">
        <ele>173</ele>
        <time>2017-08-17T10:18:33Z</time>
      </trkpt>
      <trkpt lat="45.92463" lon="4.73554">
        <ele>173</ele>
        <time>2017-08-17T10:18:34Z</time>
      </trkpt>
      <trkpt lat="45.92463" lon="4.73561">
        <ele>173</ele>
        <time>2017-08-17T10:18:35Z</time>
      </trkpt>
      <trkpt lat="45.92462" lon="4.73568">
        <ele>173</ele>
        <time>2017-08-17T10:18:36Z</time>
      </trkpt>
      <trkpt lat="45.92462" lon="4.73576">
        <ele>173</ele>
        <time>2017-08-17T10:18:37Z</time>
      </trkpt>
      <trkpt lat="45.92462" lon="4.73583">
        <ele>173</ele>
        <time>2017-08-17T10:18:38Z</time>
      </trkpt>
      <trkpt lat="45.92463" lon="4.73591">
        <ele>174</ele>
        <time>2017-08-17T10:18:39Z</time>
      </trkpt>
      <trkpt lat="45.92463" lon="4.73599">
        <ele>174</ele>
        <time>2017-08-17T10:18:40Z</time>
      </trkpt>
      <trkpt lat="45.92462" lon="4.73607">
        <ele>174</ele>
        <time>2017-08-17T10:18:41Z</time>
      </trkpt>
      <trkpt lat="45.92462" lon="4.73614">
        <ele>174</ele>
        <time>2017-08-17T10:18:42Z</time>
      </trkpt>
      <trkpt lat="45.92462" lon="4.73621">
        <ele>174</ele>
        <time>2017-08-17T10:18:43Z</time>
      </trkpt>
      <trkpt lat="45.92463" lon="4.73628">
        <ele>174</ele>
        <time>2017-08-17T10:18:44Z</time>
      </trkpt>
      <trkpt lat="45.92463" lon="4.73635">
        <ele>174</ele>
        <time>2017-08-17T10:18:45Z</time>
      </trkpt>
      <trkpt lat="45.92462" lon="4.73641">
        <ele>174</ele>
        <time>2017-08-17T10:18:46Z</time>
      </trkpt>
      <trkpt lat="45.92461" lon="4.73648">
        <ele>174</ele>
        <time>2017-08-17T10:18:47Z</time>
      </trkpt>
      <trkpt lat="45.9246" lon="4.73654">
        <ele>174</ele>
        <time>2017-08-17T10:18:48Z</time>
      </trkpt>
      <trkpt lat="45.92459" lon="4.7366">
        <ele>174</ele>
        <time>2017-08-17T10:18:49Z</time>
      </trkpt>
      <trkpt lat="45.92457" lon="4.73666">
        <ele>174</ele>
        <time>2017-08-17T10:18:50Z</time>
      </trkpt>
      <trkpt lat="45.92457" lon="4.73678">
        <ele>174</ele>
        <time>2017-08-17T10:18:52Z</time>
      </trkpt>
      <trkpt lat="45.92456" lon="4.73684">
        <ele>174</ele>
        <time>2017-08-17T10:18:53Z</time>
      </trkpt>
      <trkpt lat="45.92455" lon="4.73695">
        <ele>174</ele>
        <time>2017-08-17T10:18:55Z</time>
      </trkpt>
      <trkpt lat="45.92455" lon="4.73698">
        <ele>174</ele>
        <time>2017-08-17T10:18:56Z</time>
      </trkpt>
      <trkpt lat="45.92454" lon="4.737">
        <ele>174</ele>
        <time>2017-08-17T10:18:57Z</time>
      </trkpt>
      <trkpt lat="45.92454" lon="4.73701">
        <ele>174</ele>
        <time>2017-08-17T10:18:58Z</time>
      </trkpt>
      <trkpt lat="45.92455" lon="4.73702">
        <ele>174</ele>
        <time>2017-08-17T10:19:10Z</time>
      </trkpt>
      <trkpt lat="45.92457" lon="4.73705">
        <ele>174</ele>
        <time>2017-08-17T10:19:11Z</time>
      </trkpt>
      <trkpt lat="45.92458" lon="4.73706">
        <ele>174</ele>
        <time>2017-08-17T10:19:22.66Z</time>
      </trkpt>
    </trkseg>
  </trk>
</gpx>